<?xml version="1.0" encoding="UTF-8"?>
<gpx version="1.1" creator="https://www.youtrack.es" xsi:schemaLocation="http://www.topografix.com/GPX/1/1 http://www.topografix.com/GPX/1/1/gpx.xsd http://www.garmin.com/xmlschemas/GpxExtensions/v3 http://www.garmin.com/xmlschemas/GpxExtensionsv3.xsd http://www.garmin.com/xmlschemas/TrackPointExtension/v1 http://www.garmin.com/xmlschemas/TrackPointExtensionv1.xsd" xmlns:gpxtpx="http://www.garmin.com/xmlschemas/TrackPointExtension/v1" xmlns:gpxx="http://www.garmin.com/xmlschemas/GpxExtensions/v3" xmlns:xsi="http://www.w3.org/2001/XMLSchema-instance">
  <metadata>
    <link href="https://www.youtrack.es">
      <text>YouTrack.es</text>
    </link>
    <time>2026-05-08T14:11:06Z</time>
  </metadata>
  <wpt lat="42.995" lon="-4.14055">
    <ele>851</ele>
    <time>2014-02-26T17:27:07Z</time>
    <name>RENFE Reinosa1</name>
  </wpt>
  <wpt lat="42.9099" lon="-4.07863">
    <ele>954</ele>
    <time>2013-06-09T22:48:08Z</time>
    <name>Posada Los Carabeos</name>
  </wpt>
  <wpt lat="43.0171" lon="-4.19062">
    <ele>901</ele>
    <time>2013-06-09T22:43:52Z</time>
    <name>Nacimiento de El Ebro (Fontibre)</name>
  </wpt>
  <wpt lat="42.9318" lon="-4.05022">
    <ele>974</ele>
    <time>2014-02-26T17:24:28Z</time>
    <name>Montes Claros Monasterio</name>
  </wpt>
  <wpt lat="42.9199" lon="-4.04162">
    <ele>1035</ele>
    <time>2014-02-26T17:26:19Z</time>
    <name>Alto del Cañon</name>
  </wpt>
  <wpt lat="42.9318" lon="-4.05034">
    <ele>971</ele>
    <time>2013-06-09T22:46:29Z</time>
    <name>Monasterio de Montes Claros</name>
  </wpt>
  <wpt lat="42.995" lon="-4.14055">
    <ele>851</ele>
    <time>2014-02-26T17:27:07Z</time>
    <name>RENFE Reinosa1</name>
  </wpt>
  <wpt lat="42.9099" lon="-4.07863">
    <ele>954</ele>
    <time>2013-06-09T22:48:08Z</time>
    <name>Posada Los Carabeos</name>
  </wpt>
  <wpt lat="43.0171" lon="-4.19062">
    <ele>901</ele>
    <time>2013-06-09T22:43:52Z</time>
    <name>Nacimiento de El Ebro (Fontibre)</name>
  </wpt>
  <wpt lat="42.9318" lon="-4.05022">
    <ele>974</ele>
    <time>2014-02-26T17:24:28Z</time>
    <name>Montes Claros Monasterio</name>
  </wpt>
  <wpt lat="42.9318" lon="-4.05034">
    <ele>971</ele>
    <time>2013-06-09T22:46:29Z</time>
    <name>Monasterio de Montes Claros</name>
  </wpt>
  <wpt lat="42.9199" lon="-4.04162">
    <ele>1035</ele>
    <time>2014-02-26T17:26:19Z</time>
    <name>Alto del Cañon</name>
  </wpt>
  <trk>
    <src>https://www.youtrack.es</src>
    <link href="https://www.youtrack.es/ruta/30003-ebro">
      <text>YouTrack.es</text>
    </link>
    <trkseg>
      <trkpt lat="42.994957398623228" lon="-4.140616077929735">
        <ele>804.27999999999997</ele>
        <time>2013-05-13T14:00:36Z</time>
      </trkpt>
      <trkpt lat="42.994991345331073" lon="-4.140522787347436">
        <ele>865.79999999999995</ele>
        <time>2013-05-13T14:06:00Z</time>
      </trkpt>
      <trkpt lat="42.995208185166121" lon="-4.140307372435927">
        <ele>864.84000000000003</ele>
        <time>2013-05-13T14:06:12Z</time>
      </trkpt>
      <trkpt lat="42.995323771610856" lon="-4.140402171760798">
        <ele>863.88</ele>
        <time>2013-05-13T14:06:20Z</time>
      </trkpt>
      <trkpt lat="42.995447320863605" lon="-4.140623873099685">
        <ele>865.79999999999995</ele>
        <time>2013-05-13T14:06:30Z</time>
      </trkpt>
      <trkpt lat="42.995490320026875" lon="-4.140778603032231">
        <ele>865.32000000000005</ele>
        <time>2013-05-13T14:06:38Z</time>
      </trkpt>
      <trkpt lat="42.995406081900001" lon="-4.140859572216868">
        <ele>865.32000000000005</ele>
        <time>2013-05-13T14:06:45Z</time>
      </trkpt>
      <trkpt lat="42.995378337800503" lon="-4.140896117314696">
        <ele>865.32000000000005</ele>
        <time>2013-05-13T14:06:55Z</time>
      </trkpt>
      <trkpt lat="42.99552627839148" lon="-4.140821183100343">
        <ele>865.32000000000005</ele>
        <time>2013-05-13T14:07:06Z</time>
      </trkpt>
      <trkpt lat="42.995545892044902" lon="-4.14080542512238">
        <ele>865.32000000000005</ele>
        <time>2013-05-13T14:07:07Z</time>
      </trkpt>
      <trkpt lat="42.99556483514607" lon="-4.1407853923738">
        <ele>864.36000000000001</ele>
        <time>2013-05-13T14:07:08Z</time>
      </trkpt>
      <trkpt lat="42.995586292818189" lon="-4.140766533091664">
        <ele>865.32000000000005</ele>
        <time>2013-05-13T14:07:09Z</time>
      </trkpt>
      <trkpt lat="42.995608253404498" lon="-4.140751948580146">
        <ele>865.32000000000005</ele>
        <time>2013-05-13T14:07:10Z</time>
      </trkpt>
      <trkpt lat="42.995626274496317" lon="-4.140741303563118">
        <ele>865.32000000000005</ele>
        <time>2013-05-13T14:07:11Z</time>
      </trkpt>
      <trkpt lat="42.995742196217179" lon="-4.140677433460951">
        <ele>864.84000000000003</ele>
        <time>2013-05-13T14:07:19Z</time>
      </trkpt>
      <trkpt lat="42.995759630575776" lon="-4.140688413754106">
        <ele>864.84000000000003</ele>
        <time>2013-05-13T14:07:20Z</time>
      </trkpt>
      <trkpt lat="42.995811849832535" lon="-4.140791762620211">
        <ele>864.84000000000003</ele>
        <time>2013-05-13T14:07:23Z</time>
      </trkpt>
      <trkpt lat="42.99596356227994" lon="-4.141194513067603">
        <ele>868.21000000000004</ele>
        <time>2013-05-13T14:07:35Z</time>
      </trkpt>
      <trkpt lat="42.996129440143704" lon="-4.141613524407148">
        <ele>871.57000000000005</ele>
        <time>2013-05-13T14:07:47Z</time>
      </trkpt>
      <trkpt lat="42.996287941932678" lon="-4.142013425007463">
        <ele>872.04999999999995</ele>
        <time>2013-05-13T14:08:01Z</time>
      </trkpt>
      <trkpt lat="42.996329013258219" lon="-4.142101351171732">
        <ele>871.57000000000005</ele>
        <time>2013-05-13T14:08:13Z</time>
      </trkpt>
      <trkpt lat="42.996401432901621" lon="-4.142261445522308">
        <ele>870.61000000000001</ele>
        <time>2013-05-13T14:08:30Z</time>
      </trkpt>
      <trkpt lat="42.99652942456305" lon="-4.142610467970371">
        <ele>869.64999999999998</ele>
        <time>2013-05-13T14:08:41Z</time>
      </trkpt>
      <trkpt lat="42.996499165892601" lon="-4.142679534852505">
        <ele>869.64999999999998</ele>
        <time>2013-05-13T14:08:45Z</time>
      </trkpt>
      <trkpt lat="42.996477037668228" lon="-4.142691101878882">
        <ele>869.64999999999998</ele>
        <time>2013-05-13T14:08:47Z</time>
      </trkpt>
      <trkpt lat="42.996690105646849" lon="-4.14249898865819">
        <ele>869.16999999999996</ele>
        <time>2013-05-13T14:08:58Z</time>
      </trkpt>
      <trkpt lat="42.996732098981738" lon="-4.14255958981812">
        <ele>869.16999999999996</ele>
        <time>2013-05-13T14:09:01Z</time>
      </trkpt>
      <trkpt lat="42.996731596067548" lon="-4.14259621873498">
        <ele>869.16999999999996</ele>
        <time>2013-05-13T14:09:02Z</time>
      </trkpt>
      <trkpt lat="42.996728410944343" lon="-4.142629662528634">
        <ele>868.69000000000005</ele>
        <time>2013-05-13T14:09:03Z</time>
      </trkpt>
      <trkpt lat="42.99672438763082" lon="-4.142666542902589">
        <ele>868.69000000000005</ele>
        <time>2013-05-13T14:09:04Z</time>
      </trkpt>
      <trkpt lat="42.996648196130991" lon="-4.143257634714246">
        <ele>867.25</ele>
        <time>2013-05-13T14:09:17Z</time>
      </trkpt>
      <trkpt lat="42.996654063463211" lon="-4.143470535054803">
        <ele>867.25</ele>
        <time>2013-05-13T14:09:21Z</time>
      </trkpt>
      <trkpt lat="42.996708797290921" lon="-4.14447502233088">
        <ele>866.28999999999996</ele>
        <time>2013-05-13T14:09:35Z</time>
      </trkpt>
      <trkpt lat="42.99685581587255" lon="-4.145344728603959">
        <ele>866.76999999999998</ele>
        <time>2013-05-13T14:09:49Z</time>
      </trkpt>
      <trkpt lat="42.996913818642497" lon="-4.145421423017979">
        <ele>868.21000000000004</ele>
        <time>2013-05-13T14:09:53Z</time>
      </trkpt>
      <trkpt lat="42.997338864952326" lon="-4.145153537392616">
        <ele>867.73000000000002</ele>
        <time>2013-05-13T14:10:05Z</time>
      </trkpt>
      <trkpt lat="42.997421342879534" lon="-4.14510240778327">
        <ele>868.21000000000004</ele>
        <time>2013-05-13T14:10:07Z</time>
      </trkpt>
      <trkpt lat="42.997464593499899" lon="-4.145075166597962">
        <ele>867.73000000000002</ele>
        <time>2013-05-13T14:10:08Z</time>
      </trkpt>
      <trkpt lat="42.997712111100554" lon="-4.144928315654397">
        <ele>866.28999999999996</ele>
        <time>2013-05-13T14:10:13Z</time>
      </trkpt>
      <trkpt lat="42.997766006737947" lon="-4.144915575161576">
        <ele>866.28999999999996</ele>
        <time>2013-05-13T14:10:14Z</time>
      </trkpt>
      <trkpt lat="42.997824847698212" lon="-4.14492554962635">
        <ele>865.79999999999995</ele>
        <time>2013-05-13T14:10:15Z</time>
      </trkpt>
      <trkpt lat="42.997878910973668" lon="-4.144948096945882">
        <ele>865.32000000000005</ele>
        <time>2013-05-13T14:10:16Z</time>
      </trkpt>
      <trkpt lat="42.997930711135268" lon="-4.144974248483777">
        <ele>866.28999999999996</ele>
        <time>2013-05-13T14:10:17Z</time>
      </trkpt>
      <trkpt lat="42.99852205440402" lon="-4.145303657278419">
        <ele>864.84000000000003</ele>
        <time>2013-05-13T14:10:29Z</time>
      </trkpt>
      <trkpt lat="42.999069979414344" lon="-4.145377753302455">
        <ele>865.32000000000005</ele>
        <time>2013-05-13T14:10:43Z</time>
      </trkpt>
      <trkpt lat="42.999719828367233" lon="-4.145479593425989">
        <ele>866.28999999999996</ele>
        <time>2013-05-13T14:11:01Z</time>
      </trkpt>
      <trkpt lat="42.999977823346853" lon="-4.145509852096438">
        <ele>866.76999999999998</ele>
        <time>2013-05-13T14:11:13Z</time>
      </trkpt>
      <trkpt lat="43.000185275450349" lon="-4.145512199029326">
        <ele>867.73000000000002</ele>
        <time>2013-05-13T14:11:26Z</time>
      </trkpt>
      <trkpt lat="43.000194160267711" lon="-4.145526448264718">
        <ele>868.21000000000004</ele>
        <time>2013-05-13T14:11:27Z</time>
      </trkpt>
      <trkpt lat="43.000200362876058" lon="-4.145552515983582">
        <ele>868.21000000000004</ele>
        <time>2013-05-13T14:11:28Z</time>
      </trkpt>
      <trkpt lat="43.000177480280399" lon="-4.146044282242656">
        <ele>867.73000000000002</ele>
        <time>2013-05-13T14:11:38Z</time>
      </trkpt>
      <trkpt lat="43.000134397298098" lon="-4.146501598879695">
        <ele>867.25</ele>
        <time>2013-05-13T14:11:46Z</time>
      </trkpt>
      <trkpt lat="43.000296335667372" lon="-4.147153040394187">
        <ele>868.69000000000005</ele>
        <time>2013-05-13T14:11:59Z</time>
      </trkpt>
      <trkpt lat="43.000256270170212" lon="-4.147302322089672">
        <ele>868.21000000000004</ele>
        <time>2013-05-13T14:12:02Z</time>
      </trkpt>
      <trkpt lat="43.000224586576223" lon="-4.147339789196849">
        <ele>868.21000000000004</ele>
        <time>2013-05-13T14:12:03Z</time>
      </trkpt>
      <trkpt lat="43.000190136954188" lon="-4.147375831380487">
        <ele>868.21000000000004</ele>
        <time>2013-05-13T14:12:04Z</time>
      </trkpt>
      <trkpt lat="43.000118471682072" lon="-4.147440623492003">
        <ele>868.21000000000004</ele>
        <time>2013-05-13T14:12:06Z</time>
      </trkpt>
      <trkpt lat="43.000043956562877" lon="-4.147496949881315">
        <ele>868.21000000000004</ele>
        <time>2013-05-13T14:12:08Z</time>
      </trkpt>
      <trkpt lat="42.999921832233667" lon="-4.147652350366116">
        <ele>867.73000000000002</ele>
        <time>2013-05-13T14:12:12Z</time>
      </trkpt>
      <trkpt lat="42.999884700402617" lon="-4.14775125682354">
        <ele>867.73000000000002</ele>
        <time>2013-05-13T14:12:14Z</time>
      </trkpt>
      <trkpt lat="42.999875228852034" lon="-4.147806828841567">
        <ele>867.73000000000002</ele>
        <time>2013-05-13T14:12:15Z</time>
      </trkpt>
      <trkpt lat="42.999868607148528" lon="-4.147862736135721">
        <ele>868.21000000000004</ele>
        <time>2013-05-13T14:12:16Z</time>
      </trkpt>
      <trkpt lat="42.999860309064388" lon="-4.147918308153749">
        <ele>867.73000000000002</ele>
        <time>2013-05-13T14:12:17Z</time>
      </trkpt>
      <trkpt lat="42.999855447560549" lon="-4.147974969819188">
        <ele>868.21000000000004</ele>
        <time>2013-05-13T14:12:18Z</time>
      </trkpt>
      <trkpt lat="42.999852430075407" lon="-4.148033307865262">
        <ele>868.21000000000004</ele>
        <time>2013-05-13T14:12:19Z</time>
      </trkpt>
      <trkpt lat="42.999849831685424" lon="-4.148091897368431">
        <ele>868.21000000000004</ele>
        <time>2013-05-13T14:12:20Z</time>
      </trkpt>
      <trkpt lat="42.999850753694773" lon="-4.148148978129029">
        <ele>868.21000000000004</ele>
        <time>2013-05-13T14:12:21Z</time>
      </trkpt>
      <trkpt lat="42.999927783384919" lon="-4.14913946762681">
        <ele>869.64999999999998</ele>
        <time>2013-05-13T14:12:40Z</time>
      </trkpt>
      <trkpt lat="43.000014703720808" lon="-4.150122161954641">
        <ele>870.13</ele>
        <time>2013-05-13T14:12:59Z</time>
      </trkpt>
      <trkpt lat="43.000101875513792" lon="-4.151061270385981">
        <ele>871.09000000000003</ele>
        <time>2013-05-13T14:13:17Z</time>
      </trkpt>
      <trkpt lat="43.00019315443933" lon="-4.151993840932846">
        <ele>871.57000000000005</ele>
        <time>2013-05-13T14:13:33Z</time>
      </trkpt>
      <trkpt lat="43.000301532447338" lon="-4.15240840986371">
        <ele>872.04999999999995</ele>
        <time>2013-05-13T14:13:40Z</time>
      </trkpt>
      <trkpt lat="43.000684753060341" lon="-4.153364868834615">
        <ele>872.04999999999995</ele>
        <time>2013-05-13T14:13:57Z</time>
      </trkpt>
      <trkpt lat="43.001043414697051" lon="-4.154248740524054">
        <ele>872.04999999999995</ele>
        <time>2013-05-13T14:14:14Z</time>
      </trkpt>
      <trkpt lat="43.001179369166493" lon="-4.154749056324363">
        <ele>872.52999999999997</ele>
        <time>2013-05-13T14:14:25Z</time>
      </trkpt>
      <trkpt lat="43.00145966000855" lon="-4.155434360727668">
        <ele>873.00999999999999</ele>
        <time>2013-05-13T14:14:42Z</time>
      </trkpt>
      <trkpt lat="43.001692676916718" lon="-4.155901735648513">
        <ele>873.98000000000002</ele>
        <time>2013-05-13T14:14:57Z</time>
      </trkpt>
      <trkpt lat="43.001894513145089" lon="-4.156310772523284">
        <ele>874.46000000000004</ele>
        <time>2013-05-13T14:15:10Z</time>
      </trkpt>
      <trkpt lat="43.002094672992826" lon="-4.156798934563994">
        <ele>874.46000000000004</ele>
        <time>2013-05-13T14:15:23Z</time>
      </trkpt>
      <trkpt lat="43.002376640215516" lon="-4.157470325008035">
        <ele>875.41999999999996</ele>
        <time>2013-05-13T14:15:41Z</time>
      </trkpt>
      <trkpt lat="43.002651147544384" lon="-4.158108187839389">
        <ele>876.38</ele>
        <time>2013-05-13T14:15:58Z</time>
      </trkpt>
      <trkpt lat="43.00294510088861" lon="-4.158849231898785">
        <ele>876.86000000000001</ele>
        <time>2013-05-13T14:16:17Z</time>
      </trkpt>
      <trkpt lat="43.003149954602122" lon="-4.159359857439995">
        <ele>877.82000000000005</ele>
        <time>2013-05-13T14:16:30Z</time>
      </trkpt>
      <trkpt lat="43.003450613468885" lon="-4.160081371665001">
        <ele>878.29999999999995</ele>
        <time>2013-05-13T14:16:50Z</time>
      </trkpt>
      <trkpt lat="43.003747332841158" lon="-4.160820906981826">
        <ele>879.25999999999999</ele>
        <time>2013-05-13T14:17:07Z</time>
      </trkpt>
      <trkpt lat="43.004034664481878" lon="-4.161539236083627">
        <ele>880.22000000000003</ele>
        <time>2013-05-13T14:17:23Z</time>
      </trkpt>
      <trkpt lat="43.004329791292548" lon="-4.162261337041855">
        <ele>880.71000000000004</ele>
        <time>2013-05-13T14:17:40Z</time>
      </trkpt>
      <trkpt lat="43.004660457372665" lon="-4.163013780489564">
        <ele>881.66999999999996</ele>
        <time>2013-05-13T14:17:57Z</time>
      </trkpt>
      <trkpt lat="43.004992380738258" lon="-4.163699755445123">
        <ele>882.14999999999998</ele>
        <time>2013-05-13T14:18:13Z</time>
      </trkpt>
      <trkpt lat="43.00534525886178" lon="-4.164331667125225">
        <ele>883.59000000000003</ele>
        <time>2013-05-13T14:18:28Z</time>
      </trkpt>
      <trkpt lat="43.005812717601657" lon="-4.16502870619297">
        <ele>884.07000000000005</ele>
        <time>2013-05-13T14:18:46Z</time>
      </trkpt>
      <trkpt lat="43.006229549646378" lon="-4.16562239639461">
        <ele>885.02999999999997</ele>
        <time>2013-05-13T14:19:03Z</time>
      </trkpt>
      <trkpt lat="43.006765907630324" lon="-4.166375510394573">
        <ele>885.02999999999997</ele>
        <time>2013-05-13T14:19:24Z</time>
      </trkpt>
      <trkpt lat="43.007113337516785" lon="-4.166886638849974">
        <ele>885.99000000000001</ele>
        <time>2013-05-13T14:19:38Z</time>
      </trkpt>
      <trkpt lat="43.007462276145816" lon="-4.16737656109035">
        <ele>885.99000000000001</ele>
        <time>2013-05-13T14:19:54Z</time>
      </trkpt>
      <trkpt lat="43.007903164252639" lon="-4.168022135272622">
        <ele>885.99000000000001</ele>
        <time>2013-05-13T14:20:13Z</time>
      </trkpt>
      <trkpt lat="43.008314799517393" lon="-4.168615322560072">
        <ele>886.47000000000003</ele>
        <time>2013-05-13T14:20:30Z</time>
      </trkpt>
      <trkpt lat="43.008801368996501" lon="-4.169291155412793">
        <ele>885.99000000000001</ele>
        <time>2013-05-13T14:20:49Z</time>
      </trkpt>
      <trkpt lat="43.009251393377781" lon="-4.169939663261175">
        <ele>885.99000000000001</ele>
        <time>2013-05-13T14:21:06Z</time>
      </trkpt>
      <trkpt lat="43.009744584560394" lon="-4.170661848038435">
        <ele>885.50999999999999</ele>
        <time>2013-05-13T14:21:23Z</time>
      </trkpt>
      <trkpt lat="43.009807867929339" lon="-4.170743571594358">
        <ele>885.99000000000001</ele>
        <time>2013-05-13T14:21:25Z</time>
      </trkpt>
      <trkpt lat="43.009839383885264" lon="-4.170782882720232">
        <ele>885.50999999999999</ele>
        <time>2013-05-13T14:21:26Z</time>
      </trkpt>
      <trkpt lat="43.009867966175079" lon="-4.170826133340597">
        <ele>885.50999999999999</ele>
        <time>2013-05-13T14:21:27Z</time>
      </trkpt>
      <trkpt lat="43.009895961731672" lon="-4.170870976522565">
        <ele>885.50999999999999</ele>
        <time>2013-05-13T14:21:28Z</time>
      </trkpt>
      <trkpt lat="43.0099256336689" lon="-4.170911042019725">
        <ele>885.50999999999999</ele>
        <time>2013-05-13T14:21:29Z</time>
      </trkpt>
      <trkpt lat="43.01044262945652" lon="-4.171621659770608">
        <ele>885.02999999999997</ele>
        <time>2013-05-13T14:21:47Z</time>
      </trkpt>
      <trkpt lat="43.010817635804415" lon="-4.172224402427673">
        <ele>885.50999999999999</ele>
        <time>2013-05-13T14:22:03Z</time>
      </trkpt>
      <trkpt lat="43.01123371347785" lon="-4.172842567786574">
        <ele>885.99000000000001</ele>
        <time>2013-05-13T14:22:19Z</time>
      </trkpt>
      <trkpt lat="43.011341337114573" lon="-4.172997046262026">
        <ele>885.50999999999999</ele>
        <time>2013-05-13T14:22:23Z</time>
      </trkpt>
      <trkpt lat="43.011654317378998" lon="-4.173445058986545">
        <ele>885.50999999999999</ele>
        <time>2013-05-13T14:22:37Z</time>
      </trkpt>
      <trkpt lat="43.011987330392003" lon="-4.173933807760477">
        <ele>885.99000000000001</ele>
        <time>2013-05-13T14:22:54Z</time>
      </trkpt>
      <trkpt lat="43.012280110269785" lon="-4.174370421096683">
        <ele>885.99000000000001</ele>
        <time>2013-05-13T14:23:08Z</time>
      </trkpt>
      <trkpt lat="43.012766344472766" lon="-4.175038626417518">
        <ele>886.95000000000005</ele>
        <time>2013-05-13T14:23:28Z</time>
      </trkpt>
      <trkpt lat="43.013247298076749" lon="-4.175737760961056">
        <ele>886.95000000000005</ele>
        <time>2013-05-13T14:23:47Z</time>
      </trkpt>
      <trkpt lat="43.013686677441001" lon="-4.176482325419784">
        <ele>887.90999999999997</ele>
        <time>2013-05-13T14:24:06Z</time>
      </trkpt>
      <trkpt lat="43.014003681018949" lon="-4.177072243764997">
        <ele>887.42999999999995</ele>
        <time>2013-05-13T14:24:22Z</time>
      </trkpt>
      <trkpt lat="43.01404869183898" lon="-4.177187830209732">
        <ele>883.59000000000003</ele>
        <time>2013-05-13T14:24:25Z</time>
      </trkpt>
      <trkpt lat="43.014062689617276" lon="-4.177224626764655">
        <ele>888.39999999999998</ele>
        <time>2013-05-13T14:24:26Z</time>
      </trkpt>
      <trkpt lat="43.014326551929116" lon="-4.177759140729904">
        <ele>889.84000000000003</ele>
        <time>2013-05-13T14:24:41Z</time>
      </trkpt>
      <trkpt lat="43.01434381864965" lon="-4.177791997790337">
        <ele>886.47000000000003</ele>
        <time>2013-05-13T14:24:42Z</time>
      </trkpt>
      <trkpt lat="43.014693344011903" lon="-4.178359201177955">
        <ele>888.88</ele>
        <time>2013-05-13T14:24:58Z</time>
      </trkpt>
      <trkpt lat="43.015088215470314" lon="-4.179008463397622">
        <ele>888.88</ele>
        <time>2013-05-13T14:25:16Z</time>
      </trkpt>
      <trkpt lat="43.015410332009196" lon="-4.179568542167544">
        <ele>889.36000000000001</ele>
        <time>2013-05-13T14:25:31Z</time>
      </trkpt>
      <trkpt lat="43.015802185982466" lon="-4.180346801877022">
        <ele>890.32000000000005</ele>
        <time>2013-05-13T14:25:50Z</time>
      </trkpt>
      <trkpt lat="43.016066299751401" lon="-4.181043421849608">
        <ele>890.79999999999995</ele>
        <time>2013-05-13T14:26:07Z</time>
      </trkpt>
      <trkpt lat="43.016301663592458" lon="-4.181806594133377">
        <ele>891.27999999999997</ele>
        <time>2013-05-13T14:26:24Z</time>
      </trkpt>
      <trkpt lat="43.016547923907638" lon="-4.182759532704949">
        <ele>892.24000000000001</ele>
        <time>2013-05-13T14:26:45Z</time>
      </trkpt>
      <trkpt lat="43.016744647175074" lon="-4.183555813506246">
        <ele>893.20000000000005</ele>
        <time>2013-05-13T14:27:03Z</time>
      </trkpt>
      <trkpt lat="43.016914883628488" lon="-4.184222593903542">
        <ele>894.15999999999997</ele>
        <time>2013-05-13T14:27:20Z</time>
      </trkpt>
      <trkpt lat="43.017004486173391" lon="-4.184594498947263">
        <ele>894.15999999999997</ele>
        <time>2013-05-13T14:27:34Z</time>
      </trkpt>
      <trkpt lat="43.017025860026479" lon="-4.184609754011035">
        <ele>894.63999999999999</ele>
        <time>2013-05-13T14:27:40Z</time>
      </trkpt>
      <trkpt lat="43.017042875289917" lon="-4.184615621343255">
        <ele>895.12</ele>
        <time>2013-05-13T14:27:41Z</time>
      </trkpt>
      <trkpt lat="43.01706014201045" lon="-4.184622494503856">
        <ele>894.15999999999997</ele>
        <time>2013-05-13T14:27:42Z</time>
      </trkpt>
      <trkpt lat="43.017076151445508" lon="-4.184632385149598">
        <ele>895.12</ele>
        <time>2013-05-13T14:27:43Z</time>
      </trkpt>
      <trkpt lat="43.017089813947678" lon="-4.184642946347594">
        <ele>894.63999999999999</ele>
        <time>2013-05-13T14:27:44Z</time>
      </trkpt>
      <trkpt lat="43.017098447307944" lon="-4.184657195582986">
        <ele>894.63999999999999</ele>
        <time>2013-05-13T14:27:45Z</time>
      </trkpt>
      <trkpt lat="43.017117641866207" lon="-4.184689465910196">
        <ele>894.63999999999999</ele>
        <time>2013-05-13T14:27:55Z</time>
      </trkpt>
      <trkpt lat="43.017118731513619" lon="-4.184703212231398">
        <ele>894.15999999999997</ele>
        <time>2013-05-13T14:28:43Z</time>
      </trkpt>
      <trkpt lat="43.017125939950347" lon="-4.18473850004375">
        <ele>894.63999999999999</ele>
        <time>2013-05-13T14:29:23Z</time>
      </trkpt>
      <trkpt lat="43.017127029597759" lon="-4.184731040149927">
        <ele>893.67999999999995</ele>
        <time>2013-05-13T14:29:28Z</time>
      </trkpt>
      <trkpt lat="43.017127448692918" lon="-4.184743780642748">
        <ele>894.15999999999997</ele>
        <time>2013-05-13T14:29:29Z</time>
      </trkpt>
      <trkpt lat="43.01712753251195" lon="-4.184761634096503">
        <ele>894.15999999999997</ele>
        <time>2013-05-13T14:29:30Z</time>
      </trkpt>
      <trkpt lat="43.017131807282567" lon="-4.184785271063447">
        <ele>894.15999999999997</ele>
        <time>2013-05-13T14:29:31Z</time>
      </trkpt>
      <trkpt lat="43.017138177528977" lon="-4.184813098981977">
        <ele>894.63999999999999</ele>
        <time>2013-05-13T14:29:32Z</time>
      </trkpt>
      <trkpt lat="43.017144463956356" lon="-4.184846375137568">
        <ele>894.15999999999997</ele>
        <time>2013-05-13T14:29:33Z</time>
      </trkpt>
      <trkpt lat="43.017152091488242" lon="-4.184882836416364">
        <ele>894.63999999999999</ele>
        <time>2013-05-13T14:29:34Z</time>
      </trkpt>
      <trkpt lat="43.017204143106937" lon="-4.185418356209993">
        <ele>896.57000000000005</ele>
        <time>2013-05-13T14:29:46Z</time>
      </trkpt>
      <trkpt lat="43.01740363240242" lon="-4.186226958408952">
        <ele>896.57000000000005</ele>
        <time>2013-05-13T14:30:02Z</time>
      </trkpt>
      <trkpt lat="43.017632877454162" lon="-4.187342170625925">
        <ele>898.49000000000001</ele>
        <time>2013-05-13T14:30:21Z</time>
      </trkpt>
      <trkpt lat="43.01772709004581" lon="-4.188020015135407">
        <ele>899.92999999999995</ele>
        <time>2013-05-13T14:30:33Z</time>
      </trkpt>
      <trkpt lat="43.017734047025442" lon="-4.188078353181481">
        <ele>899.92999999999995</ele>
        <time>2013-05-13T14:30:34Z</time>
      </trkpt>
      <trkpt lat="43.017766317352653" lon="-4.188728788867593">
        <ele>899.92999999999995</ele>
        <time>2013-05-13T14:30:47Z</time>
      </trkpt>
      <trkpt lat="43.017741926014423" lon="-4.189384253695607">
        <ele>902.82000000000005</ele>
        <time>2013-05-13T14:31:05Z</time>
      </trkpt>
      <trkpt lat="43.017692975699902" lon="-4.189861686900258">
        <ele>904.74000000000001</ele>
        <time>2013-05-13T14:31:19Z</time>
      </trkpt>
      <trkpt lat="43.017509412020445" lon="-4.190265694633126">
        <ele>906.65999999999997</ele>
        <time>2013-05-13T14:31:33Z</time>
      </trkpt>
      <trkpt lat="43.017255859449506" lon="-4.190439116209745">
        <ele>908.10000000000002</ele>
        <time>2013-05-13T14:31:43Z</time>
      </trkpt>
      <trkpt lat="43.017233228310943" lon="-4.190434673801065">
        <ele>908.10000000000002</ele>
        <time>2013-05-13T14:31:44Z</time>
      </trkpt>
      <trkpt lat="43.017217721790075" lon="-4.190421681851149">
        <ele>908.10000000000002</ele>
        <time>2013-05-13T14:31:45Z</time>
      </trkpt>
      <trkpt lat="43.017212944105268" lon="-4.190403996035457">
        <ele>908.10000000000002</ele>
        <time>2013-05-13T14:31:46Z</time>
      </trkpt>
      <trkpt lat="43.017210848629475" lon="-4.190388573333621">
        <ele>908.58000000000004</ele>
        <time>2013-05-13T14:31:47Z</time>
      </trkpt>
      <trkpt lat="43.017234234139323" lon="-4.190317913889885">
        <ele>908.10000000000002</ele>
        <time>2013-05-13T14:31:59Z</time>
      </trkpt>
      <trkpt lat="43.017223840579391" lon="-4.190284553915262">
        <ele>908.10000000000002</ele>
        <time>2013-05-13T14:32:30Z</time>
      </trkpt>
      <trkpt lat="43.017225349321961" lon="-4.190345238894224">
        <ele>908.10000000000002</ele>
        <time>2013-05-13T14:33:14Z</time>
      </trkpt>
      <trkpt lat="43.017258122563362" lon="-4.190341383218765">
        <ele>908.10000000000002</ele>
        <time>2013-05-13T14:33:53Z</time>
      </trkpt>
      <trkpt lat="43.017249992117286" lon="-4.190326128154993">
        <ele>908.58000000000004</ele>
        <time>2013-05-13T14:34:40Z</time>
      </trkpt>
      <trkpt lat="43.017281759530306" lon="-4.190290672704577">
        <ele>907.62</ele>
        <time>2013-05-13T14:35:10Z</time>
      </trkpt>
      <trkpt lat="43.01731419749558" lon="-4.190282709896565">
        <ele>907.62</ele>
        <time>2013-05-13T14:35:48Z</time>
      </trkpt>
      <trkpt lat="43.017292823642492" lon="-4.190310034900904">
        <ele>907.13999999999999</ele>
        <time>2013-05-13T14:36:12Z</time>
      </trkpt>
      <trkpt lat="43.01731126382947" lon="-4.190327385440469">
        <ele>908.10000000000002</ele>
        <time>2013-05-13T14:36:38Z</time>
      </trkpt>
      <trkpt lat="43.017339929938316" lon="-4.190342472866178">
        <ele>907.13999999999999</ele>
        <time>2013-05-13T14:37:07Z</time>
      </trkpt>
      <trkpt lat="43.017273377627134" lon="-4.190320679917932">
        <ele>907.13999999999999</ele>
        <time>2013-05-13T14:37:48Z</time>
      </trkpt>
      <trkpt lat="43.017291063442826" lon="-4.190313220024109">
        <ele>907.62</ele>
        <time>2013-05-13T14:38:34Z</time>
      </trkpt>
      <trkpt lat="43.017248399555683" lon="-4.190286062657833">
        <ele>907.13999999999999</ele>
        <time>2013-05-13T14:39:20Z</time>
      </trkpt>
      <trkpt lat="43.017258206382394" lon="-4.190306682139635">
        <ele>906.65999999999997</ele>
        <time>2013-05-13T14:39:54Z</time>
      </trkpt>
      <trkpt lat="43.017247812822461" lon="-4.190260162577033">
        <ele>907.13999999999999</ele>
        <time>2013-05-13T14:40:38Z</time>
      </trkpt>
      <trkpt lat="43.017280586063862" lon="-4.190318332985044">
        <ele>907.62</ele>
        <time>2013-05-13T14:41:24Z</time>
      </trkpt>
      <trkpt lat="43.017298188060522" lon="-4.19032889418304">
        <ele>907.62</ele>
        <time>2013-05-13T14:41:52Z</time>
      </trkpt>
      <trkpt lat="43.017297936603427" lon="-4.190320931375027">
        <ele>907.62</ele>
        <time>2013-05-13T14:42:34Z</time>
      </trkpt>
      <trkpt lat="43.017267929390073" lon="-4.190279273316264">
        <ele>907.62</ele>
        <time>2013-05-13T14:43:14Z</time>
      </trkpt>
      <trkpt lat="43.0172423645854" lon="-4.190342305228114">
        <ele>907.13999999999999</ele>
        <time>2013-05-13T14:43:51Z</time>
      </trkpt>
      <trkpt lat="43.017247226089239" lon="-4.190318081527948">
        <ele>907.13999999999999</ele>
        <time>2013-05-13T14:44:19Z</time>
      </trkpt>
      <trkpt lat="43.017256446182728" lon="-4.190311711281538">
        <ele>906.65999999999997</ele>
        <time>2013-05-13T14:44:53Z</time>
      </trkpt>
      <trkpt lat="43.017239179462194" lon="-4.190339287742972">
        <ele>907.13999999999999</ele>
        <time>2013-05-13T14:45:25Z</time>
      </trkpt>
      <trkpt lat="43.017264492809772" lon="-4.190341802313924">
        <ele>907.13999999999999</ele>
        <time>2013-05-13T14:46:06Z</time>
      </trkpt>
      <trkpt lat="43.017251836135983" lon="-4.19033182784915">
        <ele>906.65999999999997</ele>
        <time>2013-05-13T14:46:33Z</time>
      </trkpt>
      <trkpt lat="43.017232893034816" lon="-4.190402235835791">
        <ele>906.65999999999997</ele>
        <time>2013-05-13T14:46:45Z</time>
      </trkpt>
      <trkpt lat="43.017232641577721" lon="-4.190411791205406">
        <ele>906.17999999999995</ele>
        <time>2013-05-13T14:46:46Z</time>
      </trkpt>
      <trkpt lat="43.017246723175049" lon="-4.190422520041466">
        <ele>906.65999999999997</ele>
        <time>2013-05-13T14:46:47Z</time>
      </trkpt>
      <trkpt lat="43.0172717012465" lon="-4.190429309383035">
        <ele>906.65999999999997</ele>
        <time>2013-05-13T14:46:48Z</time>
      </trkpt>
      <trkpt lat="43.017299445345998" lon="-4.190425621345639">
        <ele>906.65999999999997</ele>
        <time>2013-05-13T14:46:49Z</time>
      </trkpt>
      <trkpt lat="43.017326183617115" lon="-4.190409863367677">
        <ele>905.70000000000005</ele>
        <time>2013-05-13T14:46:50Z</time>
      </trkpt>
      <trkpt lat="43.017353089526296" lon="-4.190390082076192">
        <ele>905.70000000000005</ele>
        <time>2013-05-13T14:46:51Z</time>
      </trkpt>
      <trkpt lat="43.017527768388391" lon="-4.190259911119938">
        <ele>901.85000000000002</ele>
        <time>2013-05-13T14:46:56Z</time>
      </trkpt>
      <trkpt lat="43.017566576600075" lon="-4.190226132050157">
        <ele>905.22000000000003</ele>
        <time>2013-05-13T14:46:57Z</time>
      </trkpt>
      <trkpt lat="43.017681408673525" lon="-4.190089842304587">
        <ele>903.77999999999997</ele>
        <time>2013-05-13T14:47:01Z</time>
      </trkpt>
      <trkpt lat="43.017693310976028" lon="-4.190032090991736">
        <ele>903.29999999999995</ele>
        <time>2013-05-13T14:47:02Z</time>
      </trkpt>
      <trkpt lat="43.017748966813087" lon="-4.189467234537005">
        <ele>900.88999999999999</ele>
        <time>2013-05-13T14:47:09Z</time>
      </trkpt>
      <trkpt lat="43.017764054238796" lon="-4.188708504661918">
        <ele>898.49000000000001</ele>
        <time>2013-05-13T14:47:16Z</time>
      </trkpt>
      <trkpt lat="43.017641510814428" lon="-4.187292046844959">
        <ele>897.04999999999995</ele>
        <time>2013-05-13T14:47:30Z</time>
      </trkpt>
      <trkpt lat="43.017473788931966" lon="-4.186474392190576">
        <ele>895.12</ele>
        <time>2013-05-13T14:47:39Z</time>
      </trkpt>
      <trkpt lat="43.017229540273547" lon="-4.18550468981266">
        <ele>894.15999999999997</ele>
        <time>2013-05-13T14:47:53Z</time>
      </trkpt>
      <trkpt lat="43.017126861959696" lon="-4.185097245499492">
        <ele>893.20000000000005</ele>
        <time>2013-05-13T14:48:02Z</time>
      </trkpt>
      <trkpt lat="43.016867274418473" lon="-4.184078928083181">
        <ele>891.27999999999997</ele>
        <time>2013-05-13T14:48:16Z</time>
      </trkpt>
      <trkpt lat="43.016575751826167" lon="-4.182859109714627">
        <ele>889.36000000000001</ele>
        <time>2013-05-13T14:48:31Z</time>
      </trkpt>
      <trkpt lat="43.016190100461245" lon="-4.181397221982479">
        <ele>887.42999999999995</ele>
        <time>2013-05-13T14:48:49Z</time>
      </trkpt>
      <trkpt lat="43.016166044399142" lon="-4.181319857016206">
        <ele>887.42999999999995</ele>
        <time>2013-05-13T14:48:50Z</time>
      </trkpt>
      <trkpt lat="43.015754576772451" lon="-4.180223252624273">
        <ele>886.47000000000003</ele>
        <time>2013-05-13T14:49:05Z</time>
      </trkpt>
      <trkpt lat="43.015022752806544" lon="-4.178889775648713">
        <ele>885.50999999999999</ele>
        <time>2013-05-13T14:49:25Z</time>
      </trkpt>
      <trkpt lat="43.014205768704414" lon="-4.177531404420734">
        <ele>884.54999999999995</ele>
        <time>2013-05-13T14:49:46Z</time>
      </trkpt>
      <trkpt lat="43.013711320236325" lon="-4.176504453644157">
        <ele>883.59000000000003</ele>
        <time>2013-05-13T14:50:00Z</time>
      </trkpt>
      <trkpt lat="43.013252997770905" lon="-4.175719320774078">
        <ele>882.63</ele>
        <time>2013-05-13T14:50:12Z</time>
      </trkpt>
      <trkpt lat="43.01271035335958" lon="-4.174965117126703">
        <ele>882.14999999999998</ele>
        <time>2013-05-13T14:50:26Z</time>
      </trkpt>
      <trkpt lat="43.012327635660768" lon="-4.174417359754443">
        <ele>881.19000000000005</ele>
        <time>2013-05-13T14:50:39Z</time>
      </trkpt>
      <trkpt lat="43.011924047023058" lon="-4.173841355368495">
        <ele>881.19000000000005</ele>
        <time>2013-05-13T14:50:52Z</time>
      </trkpt>
      <trkpt lat="43.011200269684196" lon="-4.172803424298763">
        <ele>881.19000000000005</ele>
        <time>2013-05-13T14:51:11Z</time>
      </trkpt>
      <trkpt lat="43.010910674929619" lon="-4.172364380210638">
        <ele>880.71000000000004</ele>
        <time>2013-05-13T14:51:20Z</time>
      </trkpt>
      <trkpt lat="43.010863233357668" lon="-4.172269580885768">
        <ele>880.71000000000004</ele>
        <time>2013-05-13T14:51:22Z</time>
      </trkpt>
      <trkpt lat="43.010831214487553" lon="-4.172226916998625">
        <ele>880.22000000000003</ele>
        <time>2013-05-13T14:51:23Z</time>
      </trkpt>
      <trkpt lat="43.010111292824149" lon="-4.171240869909525">
        <ele>880.22000000000003</ele>
        <time>2013-05-13T14:51:43Z</time>
      </trkpt>
      <trkpt lat="43.009401597082615" lon="-4.170224731788039">
        <ele>880.71000000000004</ele>
        <time>2013-05-13T14:52:04Z</time>
      </trkpt>
      <trkpt lat="43.008754765614867" lon="-4.169313283637166">
        <ele>880.71000000000004</ele>
        <time>2013-05-13T14:52:23Z</time>
      </trkpt>
      <trkpt lat="43.008113382384181" lon="-4.168372331187129">
        <ele>880.22000000000003</ele>
        <time>2013-05-13T14:52:41Z</time>
      </trkpt>
      <trkpt lat="43.007579036056995" lon="-4.167626593261957">
        <ele>880.22000000000003</ele>
        <time>2013-05-13T14:52:58Z</time>
      </trkpt>
      <trkpt lat="43.007108056917787" lon="-4.166950760409236">
        <ele>879.74000000000001</ele>
        <time>2013-05-13T14:53:12Z</time>
      </trkpt>
      <trkpt lat="43.006478827446699" lon="-4.166057584807277">
        <ele>878.29999999999995</ele>
        <time>2013-05-13T14:53:30Z</time>
      </trkpt>
      <trkpt lat="43.005785644054413" lon="-4.165071370080113">
        <ele>877.82000000000005</ele>
        <time>2013-05-13T14:53:49Z</time>
      </trkpt>
      <trkpt lat="43.005030183121562" lon="-4.163873177021742">
        <ele>877.82000000000005</ele>
        <time>2013-05-13T14:54:10Z</time>
      </trkpt>
      <trkpt lat="43.004517629742622" lon="-4.16282988153398">
        <ele>876.38</ele>
        <time>2013-05-13T14:54:28Z</time>
      </trkpt>
      <trkpt lat="43.003992587327957" lon="-4.161553401499987">
        <ele>874.46000000000004</ele>
        <time>2013-05-13T14:54:48Z</time>
      </trkpt>
      <trkpt lat="43.00345572642982" lon="-4.160238951444626">
        <ele>873.00999999999999</ele>
        <time>2013-05-13T14:55:10Z</time>
      </trkpt>
      <trkpt lat="43.002940407022834" lon="-4.158958867192268">
        <ele>871.57000000000005</ele>
        <time>2013-05-13T14:55:30Z</time>
      </trkpt>
      <trkpt lat="43.002420142292976" lon="-4.157690685242415">
        <ele>870.13</ele>
        <time>2013-05-13T14:55:50Z</time>
      </trkpt>
      <trkpt lat="43.001889316365123" lon="-4.15638922713697">
        <ele>868.69000000000005</ele>
        <time>2013-05-13T14:56:11Z</time>
      </trkpt>
      <trkpt lat="43.001457899808884" lon="-4.15533822029829">
        <ele>866.76999999999998</ele>
        <time>2013-05-13T14:56:28Z</time>
      </trkpt>
      <trkpt lat="43.001047605648637" lon="-4.154331469908357">
        <ele>866.28999999999996</ele>
        <time>2013-05-13T14:56:44Z</time>
      </trkpt>
      <trkpt lat="43.000672599300742" lon="-4.15342764928937">
        <ele>866.28999999999996</ele>
        <time>2013-05-13T14:56:58Z</time>
      </trkpt>
      <trkpt lat="43.000647453591228" lon="-4.15337341837585">
        <ele>865.79999999999995</ele>
        <time>2013-05-13T14:56:59Z</time>
      </trkpt>
      <trkpt lat="43.00026984885335" lon="-4.152403213083744">
        <ele>865.32000000000005</ele>
        <time>2013-05-13T14:57:16Z</time>
      </trkpt>
      <trkpt lat="43.000210002064705" lon="-4.152228534221649">
        <ele>864.84000000000003</ele>
        <time>2013-05-13T14:57:19Z</time>
      </trkpt>
      <trkpt lat="43.000196507200599" lon="-4.152165586128831">
        <ele>865.32000000000005</ele>
        <time>2013-05-13T14:57:20Z</time>
      </trkpt>
      <trkpt lat="43.000170774757862" lon="-4.152038935571909">
        <ele>865.32000000000005</ele>
        <time>2013-05-13T14:57:22Z</time>
      </trkpt>
      <trkpt lat="43.00004605203867" lon="-4.150797575712204">
        <ele>865.32000000000005</ele>
        <time>2013-05-13T14:57:41Z</time>
      </trkpt>
      <trkpt lat="42.999912779778242" lon="-4.149417160078883">
        <ele>862.91999999999996</ele>
        <time>2013-05-13T14:58:02Z</time>
      </trkpt>
      <trkpt lat="42.999800713732839" lon="-4.148296331986785">
        <ele>861.48000000000002</ele>
        <time>2013-05-13T14:58:19Z</time>
      </trkpt>
      <trkpt lat="42.999926609918475" lon="-4.147291006520391">
        <ele>861</ele>
        <time>2013-05-13T14:58:34Z</time>
      </trkpt>
      <trkpt lat="42.999970531091094" lon="-4.147018678486347">
        <ele>860.51999999999998</ele>
        <time>2013-05-13T14:58:38Z</time>
      </trkpt>
      <trkpt lat="43.000080166384578" lon="-4.146541245281696">
        <ele>860.03999999999996</ele>
        <time>2013-05-13T14:58:45Z</time>
      </trkpt>
      <trkpt lat="43.000204134732485" lon="-4.145423602312803">
        <ele>860.03999999999996</ele>
        <time>2013-05-13T14:59:02Z</time>
      </trkpt>
      <trkpt lat="43.000244786962867" lon="-4.144978355616331">
        <ele>860.03999999999996</ele>
        <time>2013-05-13T14:59:10Z</time>
      </trkpt>
      <trkpt lat="43.000249648466706" lon="-4.144922699779272">
        <ele>860.03999999999996</ele>
        <time>2013-05-13T14:59:11Z</time>
      </trkpt>
      <trkpt lat="43.00025375559926" lon="-4.144868385046721">
        <ele>860.51999999999998</ele>
        <time>2013-05-13T14:59:12Z</time>
      </trkpt>
      <trkpt lat="43.000318212434649" lon="-4.143839003518224">
        <ele>861.48000000000002</ele>
        <time>2013-05-13T14:59:30Z</time>
      </trkpt>
      <trkpt lat="43.000322571024299" lon="-4.143596598878503">
        <ele>861.96000000000004</ele>
        <time>2013-05-13T14:59:34Z</time>
      </trkpt>
      <trkpt lat="43.000349560752511" lon="-4.143077507615089">
        <ele>860.03999999999996</ele>
        <time>2013-05-13T14:59:42Z</time>
      </trkpt>
      <trkpt lat="43.000348135828972" lon="-4.143009698018432">
        <ele>860.51999999999998</ele>
        <time>2013-05-13T14:59:43Z</time>
      </trkpt>
      <trkpt lat="43.000427009537816" lon="-4.141797423362732">
        <ele>857.14999999999998</ele>
        <time>2013-05-13T14:59:58Z</time>
      </trkpt>
      <trkpt lat="43.000450059771538" lon="-4.141474887728691">
        <ele>855.71000000000004</ele>
        <time>2013-05-13T15:00:02Z</time>
      </trkpt>
      <trkpt lat="43.000452490523458" lon="-4.141400707885623">
        <ele>856.19000000000005</ele>
        <time>2013-05-13T15:00:03Z</time>
      </trkpt>
      <trkpt lat="43.000458357855678" lon="-4.141175737604499">
        <ele>855.23000000000002</ele>
        <time>2013-05-13T15:00:07Z</time>
      </trkpt>
      <trkpt lat="43.000489454716444" lon="-4.140544580295682">
        <ele>854.75</ele>
        <time>2013-05-13T15:00:16Z</time>
      </trkpt>
      <trkpt lat="43.000477384775877" lon="-4.140304522588849">
        <ele>854.75</ele>
        <time>2013-05-13T15:00:19Z</time>
      </trkpt>
      <trkpt lat="43.000503703951836" lon="-4.139578733593226">
        <ele>854.26999999999998</ele>
        <time>2013-05-13T15:00:28Z</time>
      </trkpt>
      <trkpt lat="43.000514600425959" lon="-4.139515785500407">
        <ele>854.26999999999998</ele>
        <time>2013-05-13T15:00:29Z</time>
      </trkpt>
      <trkpt lat="43.000514516606927" lon="-4.139450406655669">
        <ele>854.26999999999998</ele>
        <time>2013-05-13T15:00:30Z</time>
      </trkpt>
      <trkpt lat="43.00050194375217" lon="-4.139386117458344">
        <ele>854.26999999999998</ele>
        <time>2013-05-13T15:00:31Z</time>
      </trkpt>
      <trkpt lat="43.000484425574541" lon="-4.139330545440316">
        <ele>854.26999999999998</ele>
        <time>2013-05-13T15:00:32Z</time>
      </trkpt>
      <trkpt lat="43.000415274873376" lon="-4.139182018116117">
        <ele>853.30999999999995</ele>
        <time>2013-05-13T15:00:35Z</time>
      </trkpt>
      <trkpt lat="43.000164572149515" lon="-4.138805586844683">
        <ele>850.0703125</ele>
        <time>2013-05-13T15:13:06Z</time>
      </trkpt>
      <trkpt lat="43.000182593241334" lon="-4.138805586844683">
        <ele>850.0703125</ele>
        <time>2013-05-13T15:13:23Z</time>
      </trkpt>
      <trkpt lat="43.000434134155512" lon="-4.138407278805971">
        <ele>850.0703125</ele>
        <time>2013-05-13T15:13:41Z</time>
      </trkpt>
      <trkpt lat="43.00047461874783" lon="-4.13847366347909">
        <ele>850.0703125</ele>
        <time>2013-05-13T15:13:58Z</time>
      </trkpt>
      <trkpt lat="43.000797992572188" lon="-4.13751108571887">
        <ele>849.84765625</ele>
        <time>2013-05-13T15:14:19Z</time>
      </trkpt>
      <trkpt lat="43.000797992572188" lon="-4.137477893382311">
        <ele>849.82421875</ele>
        <time>2013-05-13T15:14:41Z</time>
      </trkpt>
      <trkpt lat="43.001283137127757" lon="-4.136714469641447">
        <ele>849.26171875</ele>
        <time>2013-05-13T15:15:02Z</time>
      </trkpt>
      <trkpt lat="43.002037676051259" lon="-4.135984238237143">
        <ele>849.703125</ele>
        <time>2013-05-13T15:15:21Z</time>
      </trkpt>
      <trkpt lat="43.002010770142078" lon="-4.135917853564024">
        <ele>849.62109375</ele>
        <time>2013-05-13T15:15:43Z</time>
      </trkpt>
      <trkpt lat="43.002388039603829" lon="-4.134158659726381">
        <ele>850.88671875</ele>
        <time>2013-05-13T15:15:49Z</time>
      </trkpt>
      <trkpt lat="43.002441935241222" lon="-4.134025890380144">
        <ele>851.15234375</ele>
        <time>2013-05-13T15:16:03Z</time>
      </trkpt>
      <trkpt lat="43.003412140533328" lon="-4.131967965513468">
        <ele>852.0390625</ele>
        <time>2013-05-13T15:16:23Z</time>
      </trkpt>
      <trkpt lat="43.003654712811112" lon="-4.129246193915606">
        <ele>854.80078125</ele>
        <time>2013-05-13T15:16:44Z</time>
      </trkpt>
      <trkpt lat="43.003843305632472" lon="-4.127785731106997">
        <ele>852.08203125</ele>
        <time>2013-05-13T15:17:04Z</time>
      </trkpt>
      <trkpt lat="43.003412140533328" lon="-4.125794190913439">
        <ele>849.234375</ele>
        <time>2013-05-13T15:17:24Z</time>
      </trkpt>
      <trkpt lat="43.002307238057256" lon="-4.121280116960406">
        <ele>846.36328125</ele>
        <time>2013-05-13T15:17:43Z</time>
      </trkpt>
      <trkpt lat="42.999854777008295" lon="-4.121213732287288">
        <ele>840.01171875</ele>
        <time>2013-05-13T15:18:01Z</time>
      </trkpt>
      <trkpt lat="42.997698867693543" lon="-4.121147347614169">
        <ele>840.92578125</ele>
        <time>2013-05-13T15:18:21Z</time>
      </trkpt>
      <trkpt lat="42.99764497205615" lon="-4.121213732287288">
        <ele>840.92578125</ele>
        <time>2013-05-13T15:18:38Z</time>
      </trkpt>
      <trkpt lat="42.996863443404436" lon="-4.120881808921695">
        <ele>840.97265625</ele>
        <time>2013-05-13T15:18:55Z</time>
      </trkpt>
      <trkpt lat="42.99379114061594" lon="-4.122972842305899">
        <ele>847.9609375</ele>
        <time>2013-05-13T15:19:09Z</time>
      </trkpt>
      <trkpt lat="42.991985594853759" lon="-4.12337115034461">
        <ele>849.12109375</ele>
        <time>2013-05-13T15:19:13Z</time>
      </trkpt>
      <trkpt lat="42.991958605125546" lon="-4.12337115034461">
        <ele>849.10546875</ele>
        <time>2013-05-13T15:19:14Z</time>
      </trkpt>
      <trkpt lat="42.991635231301188" lon="-4.124300535768271">
        <ele>848</ele>
        <time>2013-05-13T15:19:25Z</time>
      </trkpt>
      <trkpt lat="42.990880608558655" lon="-4.124499689787626">
        <ele>848.08984375</ele>
        <time>2013-05-13T15:19:26Z</time>
      </trkpt>
      <trkpt lat="42.9902652092278" lon="-4.124200958758593">
        <ele>848.015625</ele>
        <time>2013-05-13T15:19:30Z</time>
      </trkpt>
      <trkpt lat="42.990283230319619" lon="-4.124200958758593">
        <ele>848.0078125</ele>
        <time>2013-05-13T15:19:31Z</time>
      </trkpt>
      <trkpt lat="42.989977793768048" lon="-4.124267343431711">
        <ele>848.9453125</ele>
        <time>2013-05-13T15:19:34Z</time>
      </trkpt>
      <trkpt lat="42.989959772676229" lon="-4.124245215207338">
        <ele>849</ele>
        <time>2013-05-13T15:19:48Z</time>
      </trkpt>
      <trkpt lat="42.98989967443049" lon="-4.124273546040058">
        <ele>854.26999999999998</ele>
        <time>2013-05-13T15:20:08Z</time>
      </trkpt>
      <trkpt lat="42.989786099642515" lon="-4.123373916372657">
        <ele>856.19000000000005</ele>
        <time>2013-05-13T15:20:19Z</time>
      </trkpt>
      <trkpt lat="42.989915264770389" lon="-4.122476298362017">
        <ele>856.66999999999996</ele>
        <time>2013-05-13T15:20:21Z</time>
      </trkpt>
      <trkpt lat="42.990102851763368" lon="-4.12166970781982">
        <ele>857.63</ele>
        <time>2013-05-13T15:20:22Z</time>
      </trkpt>
      <trkpt lat="42.990335449576378" lon="-4.120666058734059">
        <ele>859.08000000000004</ele>
        <time>2013-05-13T15:20:23Z</time>
      </trkpt>
      <trkpt lat="42.990571316331625" lon="-4.119643718004227">
        <ele>860.51999999999998</ele>
        <time>2013-05-13T15:20:24Z</time>
      </trkpt>
      <trkpt lat="42.99069763161242" lon="-4.118598913773894">
        <ele>860.51999999999998</ele>
        <time>2013-05-13T15:20:25Z</time>
      </trkpt>
      <trkpt lat="42.990580284968019" lon="-4.117615297436714">
        <ele>861.48000000000002</ele>
        <time>2013-05-13T15:20:26Z</time>
      </trkpt>
      <trkpt lat="42.990411808714271" lon="-4.116480555385351">
        <ele>861.96000000000004</ele>
        <time>2013-05-13T15:20:27Z</time>
      </trkpt>
      <trkpt lat="42.99037266522646" lon="-4.116171095520258">
        <ele>863.39999999999998</ele>
        <time>2013-05-13T15:20:28Z</time>
      </trkpt>
      <trkpt lat="42.990274429321289" lon="-4.11548076197505">
        <ele>861.96000000000004</ele>
        <time>2013-05-13T15:20:29Z</time>
      </trkpt>
      <trkpt lat="42.990113748237491" lon="-4.11444291472435">
        <ele>863.88</ele>
        <time>2013-05-13T15:20:30Z</time>
      </trkpt>
      <trkpt lat="42.989941751584411" lon="-4.113294845446944">
        <ele>864.36000000000001</ele>
        <time>2013-05-13T15:20:31Z</time>
      </trkpt>
      <trkpt lat="42.989906882867217" lon="-4.11230368539691">
        <ele>864.84000000000003</ele>
        <time>2013-05-13T15:20:32Z</time>
      </trkpt>
      <trkpt lat="42.990082819014788" lon="-4.111307160928845">
        <ele>866.76999999999998</ele>
        <time>2013-05-13T15:20:33Z</time>
      </trkpt>
      <trkpt lat="42.990191867575049" lon="-4.110441226512194">
        <ele>867.25</ele>
        <time>2013-05-13T15:20:45Z</time>
      </trkpt>
      <trkpt lat="42.990127662196755" lon="-4.109564144164324">
        <ele>867.73000000000002</ele>
        <time>2013-05-13T15:21:00Z</time>
      </trkpt>
      <trkpt lat="42.989832451567054" lon="-4.10863945260644">
        <ele>868.69000000000005</ele>
        <time>2013-05-13T15:21:15Z</time>
      </trkpt>
      <trkpt lat="42.989478735253215" lon="-4.107876867055893">
        <ele>871.57000000000005</ele>
        <time>2013-05-13T15:21:34Z</time>
      </trkpt>
      <trkpt lat="42.989258375018835" lon="-4.106949912384152">
        <ele>869.64999999999998</ele>
        <time>2013-05-13T15:21:53Z</time>
      </trkpt>
      <trkpt lat="42.989197103306651" lon="-4.105804692953825">
        <ele>866.28999999999996</ele>
        <time>2013-05-13T15:21:54Z</time>
      </trkpt>
      <trkpt lat="42.989100040867925" lon="-4.105447456240654">
        <ele>864.84000000000003</ele>
        <time>2013-05-13T15:21:55Z</time>
      </trkpt>
      <trkpt lat="42.989063328132033" lon="-4.105361290276051">
        <ele>864.36000000000001</ele>
        <time>2013-05-13T15:21:58Z</time>
      </trkpt>
      <trkpt lat="42.988494532182813" lon="-4.104610104113817">
        <ele>864.84000000000003</ele>
        <time>2013-05-13T15:21:59Z</time>
      </trkpt>
      <trkpt lat="42.988431332632899" lon="-4.104573056101799">
        <ele>863.88</ele>
        <time>2013-05-13T15:22:00Z</time>
      </trkpt>
      <trkpt lat="42.988176522776484" lon="-4.104464929550886">
        <ele>864.36000000000001</ele>
        <time>2013-05-13T15:22:01Z</time>
      </trkpt>
      <trkpt lat="42.988114077597857" lon="-4.104450093582273">
        <ele>864.36000000000001</ele>
        <time>2013-05-13T15:22:02Z</time>
      </trkpt>
      <trkpt lat="42.98792808316648" lon="-4.104432575404644">
        <ele>864.36000000000001</ele>
        <time>2013-05-13T15:22:17Z</time>
      </trkpt>
      <trkpt lat="42.987129203975201" lon="-4.104779083281755">
        <ele>863.39999999999998</ele>
        <time>2013-05-13T15:22:18Z</time>
      </trkpt>
      <trkpt lat="42.986106108874083" lon="-4.105794550850987">
        <ele>862.44000000000005</ele>
        <time>2013-05-13T15:22:19Z</time>
      </trkpt>
      <trkpt lat="42.985376380383968" lon="-4.106458397582173">
        <ele>859.08000000000004</ele>
        <time>2013-05-13T15:22:30Z</time>
      </trkpt>
      <trkpt lat="42.985206563025713" lon="-4.106525955721736">
        <ele>858.11000000000001</ele>
        <time>2013-05-13T15:22:36Z</time>
      </trkpt>
      <trkpt lat="42.985118553042412" lon="-4.106543054804206">
        <ele>857.63</ele>
        <time>2013-05-13T15:22:41Z</time>
      </trkpt>
      <trkpt lat="42.985028112307191" lon="-4.10655059851706">
        <ele>857.14999999999998</ele>
        <time>2013-05-13T15:22:42Z</time>
      </trkpt>
      <trkpt lat="42.98493716865778" lon="-4.106545820832253">
        <ele>856.66999999999996</ele>
        <time>2013-05-13T15:22:56Z</time>
      </trkpt>
      <trkpt lat="42.98484681174159" lon="-4.106524866074324">
        <ele>856.66999999999996</ele>
        <time>2013-05-13T15:23:12Z</time>
      </trkpt>
      <trkpt lat="42.98475687392056" lon="-4.106489913538098">
        <ele>856.19000000000005</ele>
        <time>2013-05-13T15:23:22Z</time>
      </trkpt>
      <trkpt lat="42.98466894775629" lon="-4.10644406452775">
        <ele>855.71000000000004</ele>
        <time>2013-05-13T15:23:55Z</time>
      </trkpt>
      <trkpt lat="42.984586218371987" lon="-4.106388660147786">
        <ele>855.23000000000002</ele>
        <time>2013-05-13T15:24:08Z</time>
      </trkpt>
      <trkpt lat="42.984509021043777" lon="-4.106319425627589">
        <ele>855.23000000000002</ele>
        <time>2013-05-13T15:24:09Z</time>
      </trkpt>
      <trkpt lat="42.984436517581344" lon="-4.106239294633269">
        <ele>855.23000000000002</ele>
        <time>2013-05-13T15:24:23Z</time>
      </trkpt>
      <trkpt lat="42.984369127079844" lon="-4.106151619926095">
        <ele>854.26999999999998</ele>
        <time>2013-05-13T15:24:37Z</time>
      </trkpt>
      <trkpt lat="42.984307017177343" lon="-4.106054892763495">
        <ele>854.26999999999998</ele>
        <time>2013-05-13T15:24:52Z</time>
      </trkpt>
      <trkpt lat="42.984249433502555" lon="-4.105954896658659">
        <ele>853.78999999999996</ele>
        <time>2013-05-13T15:25:05Z</time>
      </trkpt>
      <trkpt lat="42.983479052782059" lon="-4.104973040521145">
        <ele>851.87</ele>
        <time>2013-05-13T15:25:06Z</time>
      </trkpt>
      <trkpt lat="42.98261764459312" lon="-4.104380439966917">
        <ele>853.30999999999995</ele>
        <time>2013-05-13T15:25:07Z</time>
      </trkpt>
      <trkpt lat="42.981840306892991" lon="-4.104052959010005">
        <ele>853.78999999999996</ele>
        <time>2013-05-13T15:25:08Z</time>
      </trkpt>
      <trkpt lat="42.980756862089038" lon="-4.104173239320517">
        <ele>853.78999999999996</ele>
        <time>2013-05-13T15:25:09Z</time>
      </trkpt>
      <trkpt lat="42.97968783415854" lon="-4.104230236262083">
        <ele>853.78999999999996</ele>
        <time>2013-05-13T15:25:24Z</time>
      </trkpt>
      <trkpt lat="42.979638129472733" lon="-4.104217747226358">
        <ele>853.30999999999995</ele>
        <time>2013-05-13T15:25:36Z</time>
      </trkpt>
      <trkpt lat="42.979588927701116" lon="-4.104200229048729">
        <ele>853.30999999999995</ele>
        <time>2013-05-13T15:25:44Z</time>
      </trkpt>
      <trkpt lat="42.97945230267942" lon="-4.104135353118181">
        <ele>853.78999999999996</ele>
        <time>2013-05-13T15:25:45Z</time>
      </trkpt>
      <trkpt lat="42.979409554973245" lon="-4.104105597361922">
        <ele>853.78999999999996</ele>
        <time>2013-05-13T15:25:49Z</time>
      </trkpt>
      <trkpt lat="42.979369405657053" lon="-4.104071147739887">
        <ele>853.78999999999996</ele>
        <time>2013-05-13T15:25:50Z</time>
      </trkpt>
      <trkpt lat="42.979330597445369" lon="-4.104031082242727">
        <ele>853.30999999999995</ele>
        <time>2013-05-13T15:25:51Z</time>
      </trkpt>
      <trkpt lat="42.979293214157224" lon="-4.103990262374282">
        <ele>853.30999999999995</ele>
        <time>2013-05-13T15:25:52Z</time>
      </trkpt>
      <trkpt lat="42.978803962469101" lon="-4.103332199156284">
        <ele>855.23000000000002</ele>
        <time>2013-05-13T15:25:53Z</time>
      </trkpt>
      <trkpt lat="42.978772446513176" lon="-4.103290289640427">
        <ele>855.71000000000004</ele>
        <time>2013-05-13T15:25:54Z</time>
      </trkpt>
      <trkpt lat="42.978743026033044" lon="-4.103250140324235">
        <ele>855.23000000000002</ele>
        <time>2013-05-13T15:25:55Z</time>
      </trkpt>
      <trkpt lat="42.978418646380305" lon="-4.102801457047463">
        <ele>857.63</ele>
        <time>2013-05-13T15:25:56Z</time>
      </trkpt>
      <trkpt lat="42.978228963911533" lon="-4.102580677717924">
        <ele>859.08000000000004</ele>
        <time>2013-05-13T15:25:59Z</time>
      </trkpt>
      <trkpt lat="42.978045148774981" lon="-4.10244413651526">
        <ele>858.59000000000003</ele>
        <time>2013-05-13T15:26:00Z</time>
      </trkpt>
      <trkpt lat="42.978005250915885" lon="-4.102425863966346">
        <ele>859.08000000000004</ele>
        <time>2013-05-13T15:26:01Z</time>
      </trkpt>
      <trkpt lat="42.977479873225093" lon="-4.102451344951987">
        <ele>861</ele>
        <time>2013-05-13T15:26:03Z</time>
      </trkpt>
      <trkpt lat="42.976992130279541" lon="-4.102786621078849">
        <ele>862.91999999999996</ele>
        <time>2013-05-13T15:26:12Z</time>
      </trkpt>
      <trkpt lat="42.976871766149998" lon="-4.102890724316239">
        <ele>863.39999999999998</ele>
        <time>2013-05-13T15:26:29Z</time>
      </trkpt>
      <trkpt lat="42.976873610168695" lon="-4.102881671860814">
        <ele>864.36000000000001</ele>
        <time>2013-05-13T15:26:43Z</time>
      </trkpt>
      <trkpt lat="42.976858103647828" lon="-4.102868931367993">
        <ele>863.88</ele>
        <time>2013-05-13T15:26:56Z</time>
      </trkpt>
      <trkpt lat="42.976848045364022" lon="-4.102869182825089">
        <ele>863.88</ele>
        <time>2013-05-13T15:27:10Z</time>
      </trkpt>
      <trkpt lat="42.976599773392081" lon="-4.102920647710562">
        <ele>864.36000000000001</ele>
        <time>2013-05-13T15:27:28Z</time>
      </trkpt>
      <trkpt lat="42.976187216117978" lon="-4.102853424847126">
        <ele>864.84000000000003</ele>
        <time>2013-05-13T15:27:43Z</time>
      </trkpt>
      <trkpt lat="42.97573434188962" lon="-4.102555196732283">
        <ele>867.25</ele>
        <time>2013-05-13T15:28:03Z</time>
      </trkpt>
      <trkpt lat="42.975330501794815" lon="-4.102202486246824">
        <ele>867.73000000000002</ele>
        <time>2013-05-13T15:28:20Z</time>
      </trkpt>
      <trkpt lat="42.975291442126036" lon="-4.102179352194071">
        <ele>867.73000000000002</ele>
        <time>2013-05-13T15:28:39Z</time>
      </trkpt>
      <trkpt lat="42.975257411599159" lon="-4.102154038846493">
        <ele>868.21000000000004</ele>
        <time>2013-05-13T15:28:51Z</time>
      </trkpt>
      <trkpt lat="42.975224638357759" lon="-4.1021260432899">
        <ele>868.21000000000004</ele>
        <time>2013-05-13T15:29:04Z</time>
      </trkpt>
      <trkpt lat="42.97519245184958" lon="-4.102095533162355">
        <ele>868.69000000000005</ele>
        <time>2013-05-13T15:29:08Z</time>
      </trkpt>
      <trkpt lat="42.974685849621892" lon="-4.101662104949355">
        <ele>868.69000000000005</ele>
        <time>2013-05-13T15:29:19Z</time>
      </trkpt>
      <trkpt lat="42.974295085296035" lon="-4.101299587637186">
        <ele>869.64999999999998</ele>
        <time>2013-05-13T15:29:31Z</time>
      </trkpt>
      <trkpt lat="42.974007921293378" lon="-4.101036731153727">
        <ele>870.13</ele>
        <time>2013-05-13T15:29:42Z</time>
      </trkpt>
      <trkpt lat="42.973976908251643" lon="-4.100991971790791">
        <ele>869.64999999999998</ele>
        <time>2013-05-13T15:29:55Z</time>
      </trkpt>
      <trkpt lat="42.97385067678988" lon="-4.100809497758746">
        <ele>869.64999999999998</ele>
        <time>2013-05-13T15:30:12Z</time>
      </trkpt>
      <trkpt lat="42.97382477670908" lon="-4.100755518302321">
        <ele>869.64999999999998</ele>
        <time>2013-05-13T15:30:27Z</time>
      </trkpt>
      <trkpt lat="42.973801223561168" lon="-4.100699024274945">
        <ele>869.64999999999998</ele>
        <time>2013-05-13T15:30:35Z</time>
      </trkpt>
      <trkpt lat="42.97377984970808" lon="-4.100640267133713">
        <ele>869.64999999999998</ele>
        <time>2013-05-13T15:30:52Z</time>
      </trkpt>
      <trkpt lat="42.973758978769183" lon="-4.100578911602497">
        <ele>870.13</ele>
        <time>2013-05-13T15:31:01Z</time>
      </trkpt>
      <trkpt lat="42.973738443106413" lon="-4.100515795871615">
        <ele>869.64999999999998</ele>
        <time>2013-05-13T15:31:11Z</time>
      </trkpt>
      <trkpt lat="42.973723271861672" lon="-4.100449495017529">
        <ele>869.64999999999998</ele>
        <time>2013-05-13T15:31:12Z</time>
      </trkpt>
      <trkpt lat="42.973711872473359" lon="-4.100379422307015">
        <ele>869.16999999999996</ele>
        <time>2013-05-13T15:31:25Z</time>
      </trkpt>
      <trkpt lat="42.973690163344145" lon="-4.100166270509362">
        <ele>869.16999999999996</ele>
        <time>2013-05-13T15:31:33Z</time>
      </trkpt>
      <trkpt lat="42.973692258819938" lon="-4.100095443427563">
        <ele>869.64999999999998</ele>
        <time>2013-05-13T15:31:34Z</time>
      </trkpt>
      <trkpt lat="42.97369871288538" lon="-4.100025370717049">
        <ele>869.64999999999998</ele>
        <time>2013-05-13T15:31:35Z</time>
      </trkpt>
      <trkpt lat="42.973723523318768" lon="-4.099890841171145">
        <ele>869.64999999999998</ele>
        <time>2013-05-13T15:31:36Z</time>
      </trkpt>
      <trkpt lat="42.973951511085033" lon="-4.099321709945798">
        <ele>868.69000000000005</ele>
        <time>2013-05-13T15:31:37Z</time>
      </trkpt>
      <trkpt lat="42.974467920139432" lon="-4.09824094735086">
        <ele>867.73000000000002</ele>
        <time>2013-05-13T15:31:38Z</time>
      </trkpt>
      <trkpt lat="42.97472289763391" lon="-4.097419604659081">
        <ele>869.64999999999998</ele>
        <time>2013-05-13T15:31:39Z</time>
      </trkpt>
      <trkpt lat="42.974655004218221" lon="-4.096844270825386">
        <ele>871.09000000000003</ele>
        <time>2013-05-13T15:31:40Z</time>
      </trkpt>
      <trkpt lat="42.974446127191186" lon="-4.096415285021067">
        <ele>873.98000000000002</ele>
        <time>2013-05-13T15:31:41Z</time>
      </trkpt>
      <trkpt lat="42.974079251289368" lon="-4.096122337505221">
        <ele>876.86000000000001</ele>
        <time>2013-05-13T15:31:42Z</time>
      </trkpt>
      <trkpt lat="42.97376275062561" lon="-4.096097778528929">
        <ele>879.74000000000001</ele>
        <time>2013-05-13T15:31:43Z</time>
      </trkpt>
      <trkpt lat="42.973322533071041" lon="-4.096292657777667">
        <ele>882.14999999999998</ele>
        <time>2013-05-13T15:31:44Z</time>
      </trkpt>
      <trkpt lat="42.972967894747853" lon="-4.096506396308541">
        <ele>885.50999999999999</ele>
        <time>2013-05-13T15:31:45Z</time>
      </trkpt>
      <trkpt lat="42.972595486789942" lon="-4.09674477763474">
        <ele>887.42999999999995</ele>
        <time>2013-05-13T15:31:46Z</time>
      </trkpt>
      <trkpt lat="42.972383257001638" lon="-4.096877882257104">
        <ele>888.88</ele>
        <time>2013-05-13T15:31:47Z</time>
      </trkpt>
      <trkpt lat="42.972125094383955" lon="-4.096998665481806">
        <ele>889.84000000000003</ele>
        <time>2013-05-13T15:31:48Z</time>
      </trkpt>
      <trkpt lat="42.972058542072773" lon="-4.097007466480136">
        <ele>890.32000000000005</ele>
        <time>2013-05-13T15:31:49Z</time>
      </trkpt>
      <trkpt lat="42.971807839348912" lon="-4.09697930328548">
        <ele>890.79999999999995</ele>
        <time>2013-05-13T15:31:59Z</time>
      </trkpt>
      <trkpt lat="42.971400562673807" lon="-4.096833961084485">
        <ele>892.24000000000001</ele>
        <time>2013-05-13T15:32:03Z</time>
      </trkpt>
      <trkpt lat="42.971260584890842" lon="-4.096410926431418">
        <ele>892.24000000000001</ele>
        <time>2013-05-13T15:32:04Z</time>
      </trkpt>
      <trkpt lat="42.97130492515862" lon="-4.095826959237456">
        <ele>892.72000000000003</ele>
        <time>2013-05-13T15:32:05Z</time>
      </trkpt>
      <trkpt lat="42.97160399146378" lon="-4.09502238035202">
        <ele>894.63999999999999</ele>
        <time>2013-05-13T15:32:17Z</time>
      </trkpt>
      <trkpt lat="42.971872463822365" lon="-4.094306984916329">
        <ele>894.63999999999999</ele>
        <time>2013-05-13T15:32:21Z</time>
      </trkpt>
      <trkpt lat="42.972005400806665" lon="-4.093924267217517">
        <ele>894.15999999999997</ele>
        <time>2013-05-13T15:32:23Z</time>
      </trkpt>
      <trkpt lat="42.972327265888453" lon="-4.093051375821233">
        <ele>894.15999999999997</ele>
        <time>2013-05-13T15:32:24Z</time>
      </trkpt>
      <trkpt lat="42.97251233831048" lon="-4.092641836032271">
        <ele>893.20000000000005</ele>
        <time>2013-05-13T15:32:25Z</time>
      </trkpt>
      <trkpt lat="42.972832946106791" lon="-4.0923036262393">
        <ele>892.72000000000003</ele>
        <time>2013-05-13T15:32:28Z</time>
      </trkpt>
      <trkpt lat="42.972870329394937" lon="-4.092281581833959">
        <ele>892.72000000000003</ele>
        <time>2013-05-13T15:32:29Z</time>
      </trkpt>
      <trkpt lat="42.973455972969532" lon="-4.091980839148164">
        <ele>889.84000000000003</ele>
        <time>2013-05-13T15:32:30Z</time>
      </trkpt>
      <trkpt lat="42.973790494725108" lon="-4.091577082872391">
        <ele>886.47000000000003</ele>
        <time>2013-05-13T15:32:32Z</time>
      </trkpt>
      <trkpt lat="42.973819999024272" lon="-4.091503825038672">
        <ele>886.47000000000003</ele>
        <time>2013-05-13T15:32:33Z</time>
      </trkpt>
      <trkpt lat="42.973846066743135" lon="-4.091424196958542">
        <ele>886.47000000000003</ele>
        <time>2013-05-13T15:32:34Z</time>
      </trkpt>
      <trkpt lat="42.973869116976857" lon="-4.091339288279414">
        <ele>885.02999999999997</ele>
        <time>2013-05-13T15:32:37Z</time>
      </trkpt>
      <trkpt lat="42.973887557163835" lon="-4.091254798695445">
        <ele>885.02999999999997</ele>
        <time>2013-05-13T15:32:45Z</time>
      </trkpt>
      <trkpt lat="42.973901219666004" lon="-4.091163771227002">
        <ele>885.50999999999999</ele>
        <time>2013-05-13T15:32:46Z</time>
      </trkpt>
      <trkpt lat="42.973907170817256" lon="-4.091071067377925">
        <ele>885.02999999999997</ele>
        <time>2013-05-13T15:32:47Z</time>
      </trkpt>
      <trkpt lat="42.9739083442837" lon="-4.090976687148213">
        <ele>885.02999999999997</ele>
        <time>2013-05-13T15:32:48Z</time>
      </trkpt>
      <trkpt lat="42.973905159160495" lon="-4.090879708528519">
        <ele>884.07000000000005</ele>
        <time>2013-05-13T15:32:49Z</time>
      </trkpt>
      <trkpt lat="42.973895352333784" lon="-4.090780047699809">
        <ele>884.07000000000005</ele>
        <time>2013-05-13T15:32:50Z</time>
      </trkpt>
      <trkpt lat="42.97387951053679" lon="-4.090680470690131">
        <ele>883.59000000000003</ele>
        <time>2013-05-13T15:32:51Z</time>
      </trkpt>
      <trkpt lat="42.97385754995048" lon="-4.090578546747565">
        <ele>883.59000000000003</ele>
        <time>2013-05-13T15:32:52Z</time>
      </trkpt>
      <trkpt lat="42.973828883841634" lon="-4.090477377176285">
        <ele>883.11000000000001</ele>
        <time>2013-05-13T15:32:53Z</time>
      </trkpt>
      <trkpt lat="42.973792003467679" lon="-4.090380985289812">
        <ele>882.63</ele>
        <time>2013-05-13T15:32:54Z</time>
      </trkpt>
      <trkpt lat="42.973749088123441" lon="-4.090286185964942">
        <ele>882.14999999999998</ele>
        <time>2013-05-13T15:32:55Z</time>
      </trkpt>
      <trkpt lat="42.973698545247316" lon="-4.090194152668119">
        <ele>881.66999999999996</ele>
        <time>2013-05-13T15:32:56Z</time>
      </trkpt>
      <trkpt lat="42.973642973229289" lon="-4.090105807408691">
        <ele>882.14999999999998</ele>
        <time>2013-05-13T15:32:57Z</time>
      </trkpt>
      <trkpt lat="42.973180459812284" lon="-4.0891417209059">
        <ele>878.77999999999997</ele>
        <time>2013-05-13T15:32:58Z</time>
      </trkpt>
      <trkpt lat="42.973096976056695" lon="-4.088725056499243">
        <ele>878.29999999999995</ele>
        <time>2013-05-13T15:32:59Z</time>
      </trkpt>
      <trkpt lat="42.973089516162872" lon="-4.088623803108931">
        <ele>878.29999999999995</ele>
        <time>2013-05-13T15:33:00Z</time>
      </trkpt>
      <trkpt lat="42.973089683800936" lon="-4.088525986298919">
        <ele>878.29999999999995</ele>
        <time>2013-05-13T15:33:01Z</time>
      </trkpt>
      <trkpt lat="42.973225135356188" lon="-4.087541531771421">
        <ele>878.77999999999997</ele>
        <time>2013-05-13T15:33:02Z</time>
      </trkpt>
      <trkpt lat="42.973200073465705" lon="-4.087233580648899">
        <ele>878.77999999999997</ele>
        <time>2013-05-13T15:33:03Z</time>
      </trkpt>
      <trkpt lat="42.973160510882735" lon="-4.087085388600826">
        <ele>878.77999999999997</ele>
        <time>2013-05-13T15:33:16Z</time>
      </trkpt>
      <trkpt lat="42.97313435934484" lon="-4.087013974785805">
        <ele>879.25999999999999</ele>
        <time>2013-05-13T15:33:33Z</time>
      </trkpt>
      <trkpt lat="42.973104352131486" lon="-4.086946081370115">
        <ele>878.77999999999997</ele>
        <time>2013-05-13T15:33:44Z</time>
      </trkpt>
      <trkpt lat="42.972999829798937" lon="-4.086757740005851">
        <ele>878.29999999999995</ele>
        <time>2013-05-13T15:33:48Z</time>
      </trkpt>
      <trkpt lat="42.972959177568555" lon="-4.08670443110168">
        <ele>878.29999999999995</ele>
        <time>2013-05-13T15:33:50Z</time>
      </trkpt>
      <trkpt lat="42.972915004938841" lon="-4.086655732244253">
        <ele>877.82000000000005</ele>
        <time>2013-05-13T15:33:51Z</time>
      </trkpt>
      <trkpt lat="42.972819032147527" lon="-4.086566381156445">
        <ele>877.82000000000005</ele>
        <time>2013-05-13T15:33:54Z</time>
      </trkpt>
      <trkpt lat="42.972764801234007" lon="-4.086531680077314">
        <ele>877.82000000000005</ele>
        <time>2013-05-13T15:33:55Z</time>
      </trkpt>
      <trkpt lat="42.972704954445362" lon="-4.086500834673643">
        <ele>877.34000000000003</ele>
        <time>2013-05-13T15:34:02Z</time>
      </trkpt>
      <trkpt lat="42.972517367452383" lon="-4.086421625688672">
        <ele>876.86000000000001</ele>
        <time>2013-05-13T15:34:17Z</time>
      </trkpt>
      <trkpt lat="42.971981847658753" lon="-4.086204785853624">
        <ele>875.41999999999996</ele>
        <time>2013-05-13T15:34:20Z</time>
      </trkpt>
      <trkpt lat="42.971920827403665" lon="-4.086148459464312">
        <ele>874.94000000000005</ele>
        <time>2013-05-13T15:34:24Z</time>
      </trkpt>
      <trkpt lat="42.971863076090813" lon="-4.086084002628923">
        <ele>875.41999999999996</ele>
        <time>2013-05-13T15:34:25Z</time>
      </trkpt>
      <trkpt lat="42.971815885975957" lon="-4.086010325700045">
        <ele>874.94000000000005</ele>
        <time>2013-05-13T15:34:26Z</time>
      </trkpt>
      <trkpt lat="42.971785459667444" lon="-4.085926674306393">
        <ele>875.41999999999996</ele>
        <time>2013-05-13T15:34:30Z</time>
      </trkpt>
      <trkpt lat="42.971764672547579" lon="-4.085840005427599">
        <ele>874.94000000000005</ele>
        <time>2013-05-13T15:34:31Z</time>
      </trkpt>
      <trkpt lat="42.97175251878798" lon="-4.085751995444298">
        <ele>874.94000000000005</ele>
        <time>2013-05-13T15:34:32Z</time>
      </trkpt>
      <trkpt lat="42.97174715436995" lon="-4.085665326565504">
        <ele>874.46000000000004</ele>
        <time>2013-05-13T15:34:33Z</time>
      </trkpt>
      <trkpt lat="42.971745058894157" lon="-4.085582429543138">
        <ele>874.46000000000004</ele>
        <time>2013-05-13T15:34:34Z</time>
      </trkpt>
      <trkpt lat="42.971752854064107" lon="-4.085499029606581">
        <ele>874.46000000000004</ele>
        <time>2013-05-13T15:34:35Z</time>
      </trkpt>
      <trkpt lat="42.971769534051418" lon="-4.085419904440641">
        <ele>873.98000000000002</ele>
        <time>2013-05-13T15:34:36Z</time>
      </trkpt>
      <trkpt lat="42.971796607598662" lon="-4.085344299674034">
        <ele>874.46000000000004</ele>
        <time>2013-05-13T15:34:37Z</time>
      </trkpt>
      <trkpt lat="42.971827788278461" lon="-4.085277579724789">
        <ele>874.46000000000004</ele>
        <time>2013-05-13T15:34:38Z</time>
      </trkpt>
      <trkpt lat="42.97186341136694" lon="-4.085218319669366">
        <ele>874.46000000000004</ele>
        <time>2013-05-13T15:34:50Z</time>
      </trkpt>
      <trkpt lat="42.971903393045068" lon="-4.085165346041322">
        <ele>874.94000000000005</ele>
        <time>2013-05-13T15:34:55Z</time>
      </trkpt>
      <trkpt lat="42.971945973113179" lon="-4.085118072107434">
        <ele>874.94000000000005</ele>
        <time>2013-05-13T15:34:59Z</time>
      </trkpt>
      <trkpt lat="42.971988972276449" lon="-4.085075575858355">
        <ele>874.94000000000005</ele>
        <time>2013-05-13T15:35:00Z</time>
      </trkpt>
      <trkpt lat="42.972034821286798" lon="-4.085041880607605">
        <ele>875.89999999999998</ele>
        <time>2013-05-13T15:35:02Z</time>
      </trkpt>
      <trkpt lat="42.972080921754241" lon="-4.085016567260027">
        <ele>874.94000000000005</ele>
        <time>2013-05-13T15:35:07Z</time>
      </trkpt>
      <trkpt lat="42.972557013854384" lon="-4.084914978593588">
        <ele>876.86000000000001</ele>
        <time>2013-05-13T15:35:09Z</time>
      </trkpt>
      <trkpt lat="42.973032854497433" lon="-4.08470006659627">
        <ele>878.77999999999997</ele>
        <time>2013-05-13T15:35:10Z</time>
      </trkpt>
      <trkpt lat="42.973177442327142" lon="-4.084228333085775">
        <ele>879.74000000000001</ele>
        <time>2013-05-13T15:35:14Z</time>
      </trkpt>
      <trkpt lat="42.973153721541166" lon="-4.084015348926187">
        <ele>878.77999999999997</ele>
        <time>2013-05-13T15:35:15Z</time>
      </trkpt>
      <trkpt lat="42.973121786490083" lon="-4.083904288709164">
        <ele>879.25999999999999</ele>
        <time>2013-05-13T15:35:19Z</time>
      </trkpt>
      <trkpt lat="42.973099322989583" lon="-4.08384838141501">
        <ele>878.77999999999997</ele>
        <time>2013-05-13T15:35:20Z</time>
      </trkpt>
      <trkpt lat="42.973011313006282" lon="-4.083681749179959">
        <ele>878.77999999999997</ele>
        <time>2013-05-13T15:35:26Z</time>
      </trkpt>
      <trkpt lat="42.9729706607759" lon="-4.083630871027708">
        <ele>878.29999999999995</ele>
        <time>2013-05-13T15:35:33Z</time>
      </trkpt>
      <trkpt lat="42.972635133191943" lon="-4.083265168592334">
        <ele>876.86000000000001</ele>
        <time>2013-05-13T15:35:34Z</time>
      </trkpt>
      <trkpt lat="42.971827536821365" lon="-4.082421446219087">
        <ele>873.98000000000002</ele>
        <time>2013-05-13T15:35:35Z</time>
      </trkpt>
      <trkpt lat="42.971676830202341" lon="-4.082222040742636">
        <ele>873.5</ele>
        <time>2013-05-13T15:35:36Z</time>
      </trkpt>
      <trkpt lat="42.971539199352264" lon="-4.081902522593737">
        <ele>871.57000000000005</ele>
        <time>2013-05-13T15:35:37Z</time>
      </trkpt>
      <trkpt lat="42.97151648439467" lon="-4.081814764067531">
        <ele>871.57000000000005</ele>
        <time>2013-05-13T15:35:38Z</time>
      </trkpt>
      <trkpt lat="42.971498882398009" lon="-4.081726586446166">
        <ele>872.04999999999995</ele>
        <time>2013-05-13T15:35:39Z</time>
      </trkpt>
      <trkpt lat="42.971453620120883" lon="-4.081380581483245">
        <ele>871.09000000000003</ele>
        <time>2013-05-13T15:35:40Z</time>
      </trkpt>
      <trkpt lat="42.971455045044422" lon="-4.081293996423483">
        <ele>871.57000000000005</ele>
        <time>2013-05-13T15:35:41Z</time>
      </trkpt>
      <trkpt lat="42.971461750566959" lon="-4.081209506839514">
        <ele>871.57000000000005</ele>
        <time>2013-05-13T15:35:42Z</time>
      </trkpt>
      <trkpt lat="42.971473736688495" lon="-4.08112577162683">
        <ele>872.04999999999995</ele>
        <time>2013-05-13T15:35:43Z</time>
      </trkpt>
      <trkpt lat="42.971488572657108" lon="-4.081043545156717">
        <ele>871.57000000000005</ele>
        <time>2013-05-13T15:35:44Z</time>
      </trkpt>
      <trkpt lat="42.971507599577308" lon="-4.080963833257556">
        <ele>872.04999999999995</ele>
        <time>2013-05-13T15:35:45Z</time>
      </trkpt>
      <trkpt lat="42.971531990915537" lon="-4.080887474119663">
        <ele>872.04999999999995</ele>
        <time>2013-05-13T15:35:57Z</time>
      </trkpt>
      <trkpt lat="42.971561495214701" lon="-4.080814719200134">
        <ele>872.04999999999995</ele>
        <time>2013-05-13T15:36:10Z</time>
      </trkpt>
      <trkpt lat="42.971591586247087" lon="-4.080743808299303">
        <ele>872.52999999999997</ele>
        <time>2013-05-13T15:36:26Z</time>
      </trkpt>
      <trkpt lat="42.97197874635458" lon="-4.080173838883638">
        <ele>873.5</ele>
        <time>2013-05-13T15:36:42Z</time>
      </trkpt>
      <trkpt lat="42.972108582034707" lon="-4.079945180565119">
        <ele>874.46000000000004</ele>
        <time>2013-05-13T15:36:56Z</time>
      </trkpt>
      <trkpt lat="42.972185108810663" lon="-4.07974150031805">
        <ele>875.41999999999996</ele>
        <time>2013-05-13T15:37:13Z</time>
      </trkpt>
      <trkpt lat="42.972197346389294" lon="-4.079687101766467">
        <ele>875.41999999999996</ele>
        <time>2013-05-13T15:37:19Z</time>
      </trkpt>
      <trkpt lat="42.972216121852398" lon="-4.079575454816222">
        <ele>875.89999999999998</ele>
        <time>2013-05-13T15:37:21Z</time>
      </trkpt>
      <trkpt lat="42.97221620567143" lon="-4.07928560860455">
        <ele>875.41999999999996</ele>
        <time>2013-05-13T15:37:22Z</time>
      </trkpt>
      <trkpt lat="42.972204387187958" lon="-4.079170692712069">
        <ele>875.89999999999998</ele>
        <time>2013-05-13T15:37:23Z</time>
      </trkpt>
      <trkpt lat="42.972192401066422" lon="-4.079111181199551">
        <ele>876.38</ele>
        <time>2013-05-13T15:37:25Z</time>
      </trkpt>
      <trkpt lat="42.97212140634656" lon="-4.078874308615923">
        <ele>874.94000000000005</ele>
        <time>2013-05-13T15:37:26Z</time>
      </trkpt>
      <trkpt lat="42.972095338627696" lon="-4.078819239512086">
        <ele>875.41999999999996</ele>
        <time>2013-05-13T15:37:27Z</time>
      </trkpt>
      <trkpt lat="42.971959970891476" lon="-4.078604327514768">
        <ele>875.41999999999996</ele>
        <time>2013-05-13T15:37:28Z</time>
      </trkpt>
      <trkpt lat="42.971917726099491" lon="-4.078559400513768">
        <ele>874.94000000000005</ele>
        <time>2013-05-13T15:37:29Z</time>
      </trkpt>
      <trkpt lat="42.971611199900508" lon="-4.078356977552176">
        <ele>874.46000000000004</ele>
        <time>2013-05-13T15:37:30Z</time>
      </trkpt>
      <trkpt lat="42.971188584342599" lon="-4.078240972012281">
        <ele>873.00999999999999</ele>
        <time>2013-05-13T15:37:43Z</time>
      </trkpt>
      <trkpt lat="42.971128569915891" lon="-4.078208366408944">
        <ele>872.52999999999997</ele>
        <time>2013-05-13T15:38:02Z</time>
      </trkpt>
      <trkpt lat="42.971071824431419" lon="-4.078167211264372">
        <ele>872.52999999999997</ele>
        <time>2013-05-13T15:38:19Z</time>
      </trkpt>
      <trkpt lat="42.971017677336931" lon="-4.078117674216628">
        <ele>873.00999999999999</ele>
        <time>2013-05-13T15:38:27Z</time>
      </trkpt>
      <trkpt lat="42.970969062298536" lon="-4.078060425817967">
        <ele>873.00999999999999</ele>
        <time>2013-05-13T15:38:43Z</time>
      </trkpt>
      <trkpt lat="42.970926398411393" lon="-4.077995968982577">
        <ele>873.00999999999999</ele>
        <time>2013-05-13T15:38:47Z</time>
      </trkpt>
      <trkpt lat="42.97088859602809" lon="-4.077928578481078">
        <ele>873.00999999999999</ele>
        <time>2013-05-13T15:39:01Z</time>
      </trkpt>
      <trkpt lat="42.97085733152926" lon="-4.077859930694103">
        <ele>872.52999999999997</ele>
        <time>2013-05-13T15:39:18Z</time>
      </trkpt>
      <trkpt lat="42.970831682905555" lon="-4.077791785821319">
        <ele>873.00999999999999</ele>
        <time>2013-05-13T15:39:35Z</time>
      </trkpt>
      <trkpt lat="42.970811650156975" lon="-4.077725065872073">
        <ele>873.00999999999999</ele>
        <time>2013-05-13T15:39:53Z</time>
      </trkpt>
      <trkpt lat="42.970798909664154" lon="-4.077658848837018">
        <ele>873.00999999999999</ele>
        <time>2013-05-13T15:40:08Z</time>
      </trkpt>
      <trkpt lat="42.970795137807727" lon="-4.077593302354217">
        <ele>873.5</ele>
        <time>2013-05-13T15:40:25Z</time>
      </trkpt>
      <trkpt lat="42.970796227455139" lon="-4.077531276270747">
        <ele>873.00999999999999</ele>
        <time>2013-05-13T15:40:38Z</time>
      </trkpt>
      <trkpt lat="42.970938635990024" lon="-4.077050825580955">
        <ele>875.41999999999996</ele>
        <time>2013-05-13T15:40:45Z</time>
      </trkpt>
      <trkpt lat="42.971166120842099" lon="-4.076757123693824">
        <ele>878.29999999999995</ele>
        <time>2013-05-13T15:40:46Z</time>
      </trkpt>
      <trkpt lat="42.971390504390001" lon="-4.076341046020389">
        <ele>881.66999999999996</ele>
        <time>2013-05-13T15:40:47Z</time>
      </trkpt>
      <trkpt lat="42.971387822180986" lon="-4.075813991948962">
        <ele>883.11000000000001</ele>
        <time>2013-05-13T15:40:48Z</time>
      </trkpt>
      <trkpt lat="42.971128569915891" lon="-4.07530864700675">
        <ele>882.63</ele>
        <time>2013-05-13T15:40:49Z</time>
      </trkpt>
      <trkpt lat="42.970506213605404" lon="-4.0744305588305">
        <ele>881.19000000000005</ele>
        <time>2013-05-13T15:40:58Z</time>
      </trkpt>
      <trkpt lat="42.970266323536634" lon="-4.074068544432521">
        <ele>881.19000000000005</ele>
        <time>2013-05-13T15:41:00Z</time>
      </trkpt>
      <trkpt lat="42.970207734033465" lon="-4.073918592184782">
        <ele>880.71000000000004</ele>
        <time>2013-05-13T15:41:05Z</time>
      </trkpt>
      <trkpt lat="42.970186611637473" lon="-4.073839299380779">
        <ele>880.71000000000004</ele>
        <time>2013-05-13T15:41:06Z</time>
      </trkpt>
      <trkpt lat="42.970171859487891" lon="-4.073757156729698">
        <ele>880.71000000000004</ele>
        <time>2013-05-13T15:41:07Z</time>
      </trkpt>
      <trkpt lat="42.970154257491231" lon="-4.073594212532044">
        <ele>881.19000000000005</ele>
        <time>2013-05-13T15:41:08Z</time>
      </trkpt>
      <trkpt lat="42.970154173672199" lon="-4.073512237519026">
        <ele>881.19000000000005</ele>
        <time>2013-05-13T15:41:09Z</time>
      </trkpt>
      <trkpt lat="42.970160460099578" lon="-4.073432357981801">
        <ele>881.66999999999996</ele>
        <time>2013-05-13T15:41:10Z</time>
      </trkpt>
      <trkpt lat="42.970171021297574" lon="-4.07335851341486">
        <ele>882.14999999999998</ele>
        <time>2013-05-13T15:41:11Z</time>
      </trkpt>
      <trkpt lat="42.970186779275537" lon="-4.073287853971124">
        <ele>881.66999999999996</ele>
        <time>2013-05-13T15:41:12Z</time>
      </trkpt>
      <trkpt lat="42.970206728205085" lon="-4.0732217207551">
        <ele>882.14999999999998</ele>
        <time>2013-05-13T15:41:23Z</time>
      </trkpt>
      <trkpt lat="42.970479978248477" lon="-4.072684608399868">
        <ele>884.54999999999995</ele>
        <time>2013-05-13T15:41:38Z</time>
      </trkpt>
      <trkpt lat="42.970677204430103" lon="-4.071991425007582">
        <ele>886.95000000000005</ele>
        <time>2013-05-13T15:41:52Z</time>
      </trkpt>
      <trkpt lat="42.970529599115252" lon="-4.071285920217633">
        <ele>888.39999999999998</ele>
        <time>2013-05-13T15:42:06Z</time>
      </trkpt>
      <trkpt lat="42.970306891947985" lon="-4.070993643254042">
        <ele>887.90999999999997</ele>
        <time>2013-05-13T15:42:11Z</time>
      </trkpt>
      <trkpt lat="42.969677830114961" lon="-4.07046097330749">
        <ele>887.42999999999995</ele>
        <time>2013-05-13T15:42:13Z</time>
      </trkpt>
      <trkpt lat="42.96954489313066" lon="-4.070237930864096">
        <ele>886.47000000000003</ele>
        <time>2013-05-13T15:42:28Z</time>
      </trkpt>
      <trkpt lat="42.96925756148994" lon="-4.069230761379004">
        <ele>885.50999999999999</ele>
        <time>2013-05-13T15:42:44Z</time>
      </trkpt>
      <trkpt lat="42.968905186280608" lon="-4.067870127037168">
        <ele>883.11000000000001</ele>
        <time>2013-05-13T15:42:47Z</time>
      </trkpt>
      <trkpt lat="42.968598827719688" lon="-4.066658606752753">
        <ele>883.11000000000001</ele>
        <time>2013-05-13T15:42:52Z</time>
      </trkpt>
      <trkpt lat="42.968386430293322" lon="-4.065698124468327">
        <ele>885.50999999999999</ele>
        <time>2013-05-13T15:42:55Z</time>
      </trkpt>
      <trkpt lat="42.968513499945402" lon="-4.064956996589899">
        <ele>887.90999999999997</ele>
        <time>2013-05-13T15:42:56Z</time>
      </trkpt>
      <trkpt lat="42.968739392235875" lon="-4.064091397449374">
        <ele>887.90999999999997</ele>
        <time>2013-05-13T15:42:57Z</time>
      </trkpt>
      <trkpt lat="42.968657836318016" lon="-4.063095878809691">
        <ele>885.99000000000001</ele>
        <time>2013-05-13T15:42:58Z</time>
      </trkpt>
      <trkpt lat="42.968591619282961" lon="-4.062362043187022">
        <ele>883.59000000000003</ele>
        <time>2013-05-13T15:42:59Z</time>
      </trkpt>
      <trkpt lat="42.968602431938052" lon="-4.062248803675175">
        <ele>883.59000000000003</ele>
        <time>2013-05-13T15:43:00Z</time>
      </trkpt>
      <trkpt lat="42.968622883781791" lon="-4.062136821448803">
        <ele>883.11000000000001</ele>
        <time>2013-05-13T15:43:01Z</time>
      </trkpt>
      <trkpt lat="42.968654735013843" lon="-4.062026096507907">
        <ele>882.14999999999998</ele>
        <time>2013-05-13T15:43:02Z</time>
      </trkpt>
      <trkpt lat="42.968690609559417" lon="-4.061915706843138">
        <ele>882.14999999999998</ele>
        <time>2013-05-13T15:43:03Z</time>
      </trkpt>
      <trkpt lat="42.969081876799464" lon="-4.061012053862214">
        <ele>878.77999999999997</ele>
        <time>2013-05-13T15:43:04Z</time>
      </trkpt>
      <trkpt lat="42.969163851812482" lon="-4.060849696397781">
        <ele>877.82000000000005</ele>
        <time>2013-05-13T15:43:10Z</time>
      </trkpt>
      <trkpt lat="42.969282036647201" lon="-4.060585498809815">
        <ele>876.86000000000001</ele>
        <time>2013-05-13T15:43:11Z</time>
      </trkpt>
      <trkpt lat="42.969270134344697" lon="-4.060559347271919">
        <ele>875.89999999999998</ele>
        <time>2013-05-13T15:43:12Z</time>
      </trkpt>
      <trkpt lat="42.969250185415149" lon="-4.060543086379767">
        <ele>876.38</ele>
        <time>2013-05-13T15:43:13Z</time>
      </trkpt>
      <trkpt lat="42.969223950058222" lon="-4.060532273724675">
        <ele>875.89999999999998</ele>
        <time>2013-05-13T15:43:14Z</time>
      </trkpt>
      <trkpt lat="42.969198552891612" lon="-4.06053545884788">
        <ele>875.41999999999996</ele>
        <time>2013-05-13T15:43:15Z</time>
      </trkpt>
      <trkpt lat="42.969170641154051" lon="-4.060545014217496">
        <ele>875.41999999999996</ele>
        <time>2013-05-13T15:43:16Z</time>
      </trkpt>
      <trkpt lat="42.96914080157876" lon="-4.060556497424841">
        <ele>875.89999999999998</ele>
        <time>2013-05-13T15:43:18Z</time>
      </trkpt>
      <trkpt lat="42.969114985316992" lon="-4.060568399727345">
        <ele>876.38</ele>
        <time>2013-05-13T15:43:20Z</time>
      </trkpt>
      <trkpt lat="42.968776188790798" lon="-4.060734864324331">
        <ele>873.5</ele>
        <time>2013-05-13T15:43:21Z</time>
      </trkpt>
      <trkpt lat="42.968207895755768" lon="-4.060897221788764">
        <ele>873.5</ele>
        <time>2013-05-13T15:43:22Z</time>
      </trkpt>
      <trkpt lat="42.967452937737107" lon="-4.060994954779744">
        <ele>871.57000000000005</ele>
        <time>2013-05-13T15:43:23Z</time>
      </trkpt>
      <trkpt lat="42.96657694503665" lon="-4.060769062489271">
        <ele>867.73000000000002</ele>
        <time>2013-05-13T15:43:24Z</time>
      </trkpt>
      <trkpt lat="42.966351890936494" lon="-4.060707874596119">
        <ele>870.13</ele>
        <time>2013-05-13T15:43:25Z</time>
      </trkpt>
      <trkpt lat="42.966267820447683" lon="-4.060702761635184">
        <ele>870.13</ele>
        <time>2013-05-13T15:43:26Z</time>
      </trkpt>
      <trkpt lat="42.965708579868078" lon="-4.060889007523656">
        <ele>870.61000000000001</ele>
        <time>2013-05-13T15:43:27Z</time>
      </trkpt>
      <trkpt lat="42.965037357062101" lon="-4.061184469610453">
        <ele>868.69000000000005</ele>
        <time>2013-05-13T15:43:33Z</time>
      </trkpt>
      <trkpt lat="42.964866533875465" lon="-4.061302989721298">
        <ele>868.21000000000004</ele>
        <time>2013-05-13T15:43:34Z</time>
      </trkpt>
      <trkpt lat="42.964553302153945" lon="-4.061596356332302">
        <ele>866.76999999999998</ele>
        <time>2013-05-13T15:43:35Z</time>
      </trkpt>
      <trkpt lat="42.964317603036761" lon="-4.061716636642814">
        <ele>865.32000000000005</ele>
        <time>2013-05-13T15:43:37Z</time>
      </trkpt>
      <trkpt lat="42.964233951643109" lon="-4.061734573915601">
        <ele>864.36000000000001</ele>
        <time>2013-05-13T15:43:38Z</time>
      </trkpt>
      <trkpt lat="42.964148875325918" lon="-4.061733735725284">
        <ele>864.36000000000001</ele>
        <time>2013-05-13T15:43:39Z</time>
      </trkpt>
      <trkpt lat="42.964063966646791" lon="-4.061713619157672">
        <ele>863.88</ele>
        <time>2013-05-13T15:43:40Z</time>
      </trkpt>
      <trkpt lat="42.963982578366995" lon="-4.061678750440478">
        <ele>863.39999999999998</ele>
        <time>2013-05-13T15:43:41Z</time>
      </trkpt>
      <trkpt lat="42.963907644152641" lon="-4.061629632487893">
        <ele>863.39999999999998</ele>
        <time>2013-05-13T15:43:42Z</time>
      </trkpt>
      <trkpt lat="42.963840924203396" lon="-4.061568109318614">
        <ele>863.88</ele>
        <time>2013-05-13T15:43:43Z</time>
      </trkpt>
      <trkpt lat="42.963778814300895" lon="-4.061502059921622">
        <ele>862.91999999999996</ele>
        <time>2013-05-13T15:43:48Z</time>
      </trkpt>
      <trkpt lat="42.96372240409255" lon="-4.061431903392077">
        <ele>863.39999999999998</ele>
        <time>2013-05-13T15:43:51Z</time>
      </trkpt>
      <trkpt lat="42.963670017197728" lon="-4.061358813196421">
        <ele>863.39999999999998</ele>
        <time>2013-05-13T15:43:54Z</time>
      </trkpt>
      <trkpt lat="42.96336323954165" lon="-4.060992607846856">
        <ele>863.88</ele>
        <time>2013-05-13T15:43:55Z</time>
      </trkpt>
      <trkpt lat="42.963302806019783" lon="-4.060955559834838">
        <ele>863.88</ele>
        <time>2013-05-13T15:43:56Z</time>
      </trkpt>
      <trkpt lat="42.963236756622791" lon="-4.060930833220482">
        <ele>863.88</ele>
        <time>2013-05-13T15:43:57Z</time>
      </trkpt>
      <trkpt lat="42.963167354464531" lon="-4.060920020565391">
        <ele>862.91999999999996</ele>
        <time>2013-05-13T15:43:58Z</time>
      </trkpt>
      <trkpt lat="42.963094599545002" lon="-4.060925049707294">
        <ele>863.39999999999998</ele>
        <time>2013-05-13T15:43:59Z</time>
      </trkpt>
      <trkpt lat="42.963019162416458" lon="-4.060943825170398">
        <ele>863.39999999999998</ele>
        <time>2013-05-13T15:44:00Z</time>
      </trkpt>
      <trkpt lat="42.962943892925978" lon="-4.06096980907023">
        <ele>862.91999999999996</ele>
        <time>2013-05-13T15:44:01Z</time>
      </trkpt>
      <trkpt lat="42.962791426107287" lon="-4.061030661687255">
        <ele>861.48000000000002</ele>
        <time>2013-05-13T15:44:02Z</time>
      </trkpt>
      <trkpt lat="42.962633343413472" lon="-4.061087993904948">
        <ele>861.48000000000002</ele>
        <time>2013-05-13T15:44:03Z</time>
      </trkpt>
      <trkpt lat="42.962549775838852" lon="-4.06109101139009">
        <ele>861</ele>
        <time>2013-05-13T15:44:06Z</time>
      </trkpt>
      <trkpt lat="42.962466543540359" lon="-4.061068296432495">
        <ele>860.51999999999998</ele>
        <time>2013-05-13T15:44:07Z</time>
      </trkpt>
      <trkpt lat="42.962387418374419" lon="-4.061020519584417">
        <ele>860.03999999999996</ele>
        <time>2013-05-13T15:44:08Z</time>
      </trkpt>
      <trkpt lat="42.962318602949381" lon="-4.060949273407459">
        <ele>859.55999999999995</ele>
        <time>2013-05-13T15:44:09Z</time>
      </trkpt>
      <trkpt lat="42.962260181084275" lon="-4.060863861814141">
        <ele>860.03999999999996</ele>
        <time>2013-05-13T15:44:10Z</time>
      </trkpt>
      <trkpt lat="42.962208380922675" lon="-4.060772582888603">
        <ele>859.55999999999995</ele>
        <time>2013-05-13T15:44:11Z</time>
      </trkpt>
      <trkpt lat="42.962159430608153" lon="-4.060680465772748">
        <ele>860.51999999999998</ele>
        <time>2013-05-13T15:44:12Z</time>
      </trkpt>
      <trkpt lat="42.96186656691134" lon="-4.060088619589806">
        <ele>857.63</ele>
        <time>2013-05-13T15:44:16Z</time>
      </trkpt>
      <trkpt lat="42.961822561919689" lon="-4.059969512745738">
        <ele>857.63</ele>
        <time>2013-05-13T15:44:21Z</time>
      </trkpt>
      <trkpt lat="42.961783418431878" lon="-4.059843951836228">
        <ele>857.14999999999998</ele>
        <time>2013-05-13T15:44:31Z</time>
      </trkpt>
      <trkpt lat="42.961706891655922" lon="-4.059592662379146">
        <ele>855.71000000000004</ele>
        <time>2013-05-13T15:44:41Z</time>
      </trkpt>
      <trkpt lat="42.961650816723704" lon="-4.059488978236914">
        <ele>854.75</ele>
        <time>2013-05-13T15:44:54Z</time>
      </trkpt>
      <trkpt lat="42.961582336574793" lon="-4.059401303529739">
        <ele>853.78999999999996</ele>
        <time>2013-05-13T15:45:05Z</time>
      </trkpt>
      <trkpt lat="42.961503630504012" lon="-4.059330141171813">
        <ele>853.30999999999995</ele>
        <time>2013-05-13T15:45:12Z</time>
      </trkpt>
      <trkpt lat="42.961416710168123" lon="-4.059279765933752">
        <ele>852.35000000000002</ele>
        <time>2013-05-13T15:45:25Z</time>
      </trkpt>
      <trkpt lat="42.961322665214539" lon="-4.059244226664305">
        <ele>851.38</ele>
        <time>2013-05-13T15:45:41Z</time>
      </trkpt>
      <trkpt lat="42.961226524785161" lon="-4.059209525585175">
        <ele>850.41999999999996</ele>
        <time>2013-05-13T15:45:52Z</time>
      </trkpt>
      <trkpt lat="42.960702739655972" lon="-4.059080444276333">
        <ele>847.53999999999996</ele>
        <time>2013-05-13T15:46:05Z</time>
      </trkpt>
      <trkpt lat="42.960364278405905" lon="-4.059080863371491">
        <ele>844.17999999999995</ele>
        <time>2013-05-13T15:46:17Z</time>
      </trkpt>
      <trkpt lat="42.960015423595905" lon="-4.059111457318068">
        <ele>842.25</ele>
        <time>2013-05-13T15:46:30Z</time>
      </trkpt>
      <trkpt lat="42.959901764988899" lon="-4.059103243052959">
        <ele>841.76999999999998</ele>
        <time>2013-05-13T15:46:44Z</time>
      </trkpt>
      <trkpt lat="42.959788525477052" lon="-4.059073319658637">
        <ele>841.28999999999996</ele>
        <time>2013-05-13T15:46:58Z</time>
      </trkpt>
      <trkpt lat="42.959680482745171" lon="-4.059016657993197">
        <ele>840.33000000000004</ele>
        <time>2013-05-13T15:47:05Z</time>
      </trkpt>
      <trkpt lat="42.959581073373556" lon="-4.058943400159478">
        <ele>839.37</ele>
        <time>2013-05-13T15:47:06Z</time>
      </trkpt>
      <trkpt lat="42.959497589617968" lon="-4.058857904747129">
        <ele>838.40999999999997</ele>
        <time>2013-05-13T15:47:17Z</time>
      </trkpt>
      <trkpt lat="42.95942391268909" lon="-4.05876805074513">
        <ele>837.92999999999995</ele>
        <time>2013-05-13T15:47:19Z</time>
      </trkpt>
      <trkpt lat="42.959364065900445" lon="-4.05868062749505">
        <ele>837.45000000000005</ele>
        <time>2013-05-13T15:47:20Z</time>
      </trkpt>
      <trkpt lat="42.959328191354871" lon="-4.058591527864337">
        <ele>837.45000000000005</ele>
        <time>2013-05-13T15:47:21Z</time>
      </trkpt>
      <trkpt lat="42.959307990968227" lon="-4.058495555073023">
        <ele>836.48000000000002</ele>
        <time>2013-05-13T15:47:22Z</time>
      </trkpt>
      <trkpt lat="42.959274295717478" lon="-4.058179054409266">
        <ele>836.48000000000002</ele>
        <time>2013-05-13T15:47:23Z</time>
      </trkpt>
      <trkpt lat="42.959245713427663" lon="-4.058068161830306">
        <ele>835.51999999999998</ele>
        <time>2013-05-13T15:47:26Z</time>
      </trkpt>
      <trkpt lat="42.95920304954052" lon="-4.057960538193584">
        <ele>835.51999999999998</ele>
        <time>2013-05-13T15:47:37Z</time>
      </trkpt>
      <trkpt lat="42.959148650988936" lon="-4.057854674756527">
        <ele>835.03999999999996</ele>
        <time>2013-05-13T15:47:42Z</time>
      </trkpt>
      <trkpt lat="42.95908335596323" lon="-4.057754343375564">
        <ele>833.60000000000002</ele>
        <time>2013-05-13T15:47:52Z</time>
      </trkpt>
      <trkpt lat="42.959007332101464" lon="-4.05766180716455">
        <ele>832.63999999999999</ele>
        <time>2013-05-13T15:48:03Z</time>
      </trkpt>
      <trkpt lat="42.958928709849715" lon="-4.057572456076741">
        <ele>832.15999999999997</ele>
        <time>2013-05-13T15:48:12Z</time>
      </trkpt>
      <trkpt lat="42.958595110103488" lon="-4.057217314839363">
        <ele>829.75999999999999</ele>
        <time>2013-05-13T15:48:22Z</time>
      </trkpt>
      <trkpt lat="42.958157490938902" lon="-4.056786736473441">
        <ele>826.38999999999999</ele>
        <time>2013-05-13T15:48:30Z</time>
      </trkpt>
      <trkpt lat="42.957338243722916" lon="-4.056216264143586">
        <ele>824.95000000000005</ele>
        <time>2013-05-13T15:48:31Z</time>
      </trkpt>
      <trkpt lat="42.956873215734959" lon="-4.055736651644111">
        <ele>825.42999999999995</ele>
        <time>2013-05-13T15:48:32Z</time>
      </trkpt>
      <trkpt lat="42.956196460872889" lon="-4.055276233702898">
        <ele>823.50999999999999</ele>
        <time>2013-05-13T15:48:33Z</time>
      </trkpt>
      <trkpt lat="42.955632945522666" lon="-4.055027542635799">
        <ele>823.99000000000001</ele>
        <time>2013-05-13T15:48:34Z</time>
      </trkpt>
      <trkpt lat="42.955258442088962" lon="-4.054895527660847">
        <ele>823.02999999999997</ele>
        <time>2013-05-13T15:48:48Z</time>
      </trkpt>
      <trkpt lat="42.954463670030236" lon="-4.054965516552329">
        <ele>822.54999999999995</ele>
        <time>2013-05-13T15:48:57Z</time>
      </trkpt>
      <trkpt lat="42.953604022040963" lon="-4.055171124637127">
        <ele>822.54999999999995</ele>
        <time>2013-05-13T15:49:08Z</time>
      </trkpt>
      <trkpt lat="42.953176377341151" lon="-4.055113373324275">
        <ele>823.50999999999999</ele>
        <time>2013-05-13T15:49:13Z</time>
      </trkpt>
      <trkpt lat="42.952757282182574" lon="-4.054924612864852">
        <ele>823.99000000000001</ele>
        <time>2013-05-13T15:49:27Z</time>
      </trkpt>
      <trkpt lat="42.952453102916479" lon="-4.0546371974051">
        <ele>825.42999999999995</ele>
        <time>2013-05-13T15:49:32Z</time>
      </trkpt>
      <trkpt lat="42.952095111832023" lon="-4.054527310654521">
        <ele>828.78999999999996</ele>
        <time>2013-05-13T15:49:34Z</time>
      </trkpt>
      <trkpt lat="42.951599825173616" lon="-4.054646752774715">
        <ele>829.26999999999998</ele>
        <time>2013-05-13T15:49:37Z</time>
      </trkpt>
      <trkpt lat="42.950970008969307" lon="-4.054821347817779">
        <ele>828.30999999999995</ele>
        <time>2013-05-13T15:49:38Z</time>
      </trkpt>
      <trkpt lat="42.950574215501547" lon="-4.054902484640479">
        <ele>827.35000000000002</ele>
        <time>2013-05-13T15:49:39Z</time>
      </trkpt>
      <trkpt lat="42.950517134740949" lon="-4.054894270375371">
        <ele>826.38999999999999</ele>
        <time>2013-05-13T15:49:40Z</time>
      </trkpt>
      <trkpt lat="42.949995193630457" lon="-4.054667372256517">
        <ele>826.38999999999999</ele>
        <time>2013-05-13T15:49:41Z</time>
      </trkpt>
      <trkpt lat="42.949914978817105" lon="-4.054603837430477">
        <ele>826.38999999999999</ele>
        <time>2013-05-13T15:49:53Z</time>
      </trkpt>
      <trkpt lat="42.949870470911264" lon="-4.054577853530645">
        <ele>826.38999999999999</ele>
        <time>2013-05-13T15:50:07Z</time>
      </trkpt>
      <trkpt lat="42.949828980490565" lon="-4.054544242098928">
        <ele>825.90999999999997</ele>
        <time>2013-05-13T15:50:14Z</time>
      </trkpt>
      <trkpt lat="42.949793776497245" lon="-4.054502500221133">
        <ele>825.90999999999997</ele>
        <time>2013-05-13T15:50:18Z</time>
      </trkpt>
      <trkpt lat="42.949759997427464" lon="-4.054454304277897">
        <ele>824.95000000000005</ele>
        <time>2013-05-13T15:50:19Z</time>
      </trkpt>
      <trkpt lat="42.949639046564698" lon="-4.054279709234834">
        <ele>824.47000000000003</ele>
        <time>2013-05-13T15:50:21Z</time>
      </trkpt>
      <trkpt lat="42.948970338329673" lon="-4.053668081760407">
        <ele>821.58000000000004</ele>
        <time>2013-05-13T15:50:26Z</time>
      </trkpt>
      <trkpt lat="42.948612347245216" lon="-4.053492648527026">
        <ele>821.58000000000004</ele>
        <time>2013-05-13T15:50:27Z</time>
      </trkpt>
      <trkpt lat="42.947986470535398" lon="-4.053350575268269">
        <ele>821.58000000000004</ele>
        <time>2013-05-13T15:50:41Z</time>
      </trkpt>
      <trkpt lat="42.947568716481328" lon="-4.053145386278629">
        <ele>822.54999999999995</ele>
        <time>2013-05-13T15:50:47Z</time>
      </trkpt>
      <trkpt lat="42.947285072878003" lon="-4.05297389253974">
        <ele>823.02999999999997</ele>
        <time>2013-05-13T15:50:49Z</time>
      </trkpt>
      <trkpt lat="42.947236122563481" lon="-4.052924355491996">
        <ele>823.50999999999999</ele>
        <time>2013-05-13T15:50:55Z</time>
      </trkpt>
      <trkpt lat="42.947227656841278" lon="-4.052855456247926">
        <ele>823.50999999999999</ele>
        <time>2013-05-13T15:50:58Z</time>
      </trkpt>
      <trkpt lat="42.94720770791173" lon="-4.052848080173135">
        <ele>823.50999999999999</ele>
        <time>2013-05-13T15:51:01Z</time>
      </trkpt>
      <trkpt lat="42.94719010591507" lon="-4.052836764603853">
        <ele>823.50999999999999</ele>
        <time>2013-05-13T15:51:08Z</time>
      </trkpt>
      <trkpt lat="42.947168732061982" lon="-4.052823018282652">
        <ele>823.02999999999997</ele>
        <time>2013-05-13T15:51:09Z</time>
      </trkpt>
      <trkpt lat="42.947144256904721" lon="-4.052810613065958">
        <ele>823.50999999999999</ele>
        <time>2013-05-13T15:51:10Z</time>
      </trkpt>
      <trkpt lat="42.946685096248984" lon="-4.052536189556122">
        <ele>823.02999999999997</ele>
        <time>2013-05-13T15:51:17Z</time>
      </trkpt>
      <trkpt lat="42.946272622793913" lon="-4.05234457924962">
        <ele>823.50999999999999</ele>
        <time>2013-05-13T15:51:30Z</time>
      </trkpt>
      <trkpt lat="42.945773061364889" lon="-4.051878461614251">
        <ele>823.50999999999999</ele>
        <time>2013-05-13T15:51:38Z</time>
      </trkpt>
      <trkpt lat="42.945552449673414" lon="-4.051669836044312">
        <ele>822.54999999999995</ele>
        <time>2013-05-13T15:51:39Z</time>
      </trkpt>
      <trkpt lat="42.945007709786296" lon="-4.051106320694089">
        <ele>822.54999999999995</ele>
        <time>2013-05-13T15:51:51Z</time>
      </trkpt>
      <trkpt lat="42.944852979853749" lon="-4.050873471423984">
        <ele>822.54999999999995</ele>
        <time>2013-05-13T15:52:02Z</time>
      </trkpt>
      <trkpt lat="42.944801598787308" lon="-4.050766602158546">
        <ele>823.02999999999997</ele>
        <time>2013-05-13T15:52:32Z</time>
      </trkpt>
      <trkpt lat="42.944742674008012" lon="-4.050601227208972">
        <ele>822.54999999999995</ele>
        <time>2013-05-13T15:53:10Z</time>
      </trkpt>
      <trkpt lat="42.944729262962937" lon="-4.050545487552881">
        <ele>822.54999999999995</ele>
        <time>2013-05-13T15:53:44Z</time>
      </trkpt>
      <trkpt lat="42.944718450307846" lon="-4.050489747896791">
        <ele>822.05999999999995</ele>
        <time>2013-05-13T15:54:08Z</time>
      </trkpt>
      <trkpt lat="42.944712080061436" lon="-4.05043501406908">
        <ele>822.54999999999995</ele>
        <time>2013-05-13T15:54:24Z</time>
      </trkpt>
      <trkpt lat="42.944706883281469" lon="-4.050381621345878">
        <ele>821.58000000000004</ele>
        <time>2013-05-13T15:54:26Z</time>
      </trkpt>
      <trkpt lat="42.944702105596662" lon="-4.049777369946241">
        <ele>823.50999999999999</ele>
        <time>2013-05-13T15:54:27Z</time>
      </trkpt>
      <trkpt lat="42.944511082023382" lon="-4.049088796600699">
        <ele>823.50999999999999</ele>
        <time>2013-05-13T15:54:28Z</time>
      </trkpt>
      <trkpt lat="42.944387784227729" lon="-4.048728626221418">
        <ele>823.50999999999999</ele>
        <time>2013-05-13T15:54:29Z</time>
      </trkpt>
      <trkpt lat="42.944287871941924" lon="-4.048520419746637">
        <ele>822.54999999999995</ele>
        <time>2013-05-13T15:54:30Z</time>
      </trkpt>
      <trkpt lat="42.944252751767635" lon="-4.048475744202733">
        <ele>823.02999999999997</ele>
        <time>2013-05-13T15:54:31Z</time>
      </trkpt>
      <trkpt lat="42.944171950221062" lon="-4.04838471673429">
        <ele>823.02999999999997</ele>
        <time>2013-05-13T15:54:32Z</time>
      </trkpt>
      <trkpt lat="42.943951589986682" lon="-4.048158740624785">
        <ele>822.05999999999995</ele>
        <time>2013-05-13T15:54:33Z</time>
      </trkpt>
      <trkpt lat="42.943906830623746" lon="-4.048116244375706">
        <ele>822.05999999999995</ele>
        <time>2013-05-13T15:54:44Z</time>
      </trkpt>
      <trkpt lat="42.943305680528283" lon="-4.047585753723979">
        <ele>821.58000000000004</ele>
        <time>2013-05-13T15:54:55Z</time>
      </trkpt>
      <trkpt lat="42.943062437698245" lon="-4.047374278306961">
        <ele>822.54999999999995</ele>
        <time>2013-05-13T15:54:56Z</time>
      </trkpt>
      <trkpt lat="42.942975182086229" lon="-4.047330357134342">
        <ele>822.05999999999995</ele>
        <time>2013-05-13T15:54:57Z</time>
      </trkpt>
      <trkpt lat="42.942690951749682" lon="-4.047269588336349">
        <ele>822.05999999999995</ele>
        <time>2013-05-13T15:54:58Z</time>
      </trkpt>
      <trkpt lat="42.942548040300608" lon="-4.047287274152041">
        <ele>822.54999999999995</ele>
        <time>2013-05-13T15:54:59Z</time>
      </trkpt>
      <trkpt lat="42.942409068346024" lon="-4.047339577227831">
        <ele>822.05999999999995</ele>
        <time>2013-05-13T15:55:00Z</time>
      </trkpt>
      <trkpt lat="42.942082844674587" lon="-4.047513082623482">
        <ele>821.58000000000004</ele>
        <time>2013-05-13T15:55:01Z</time>
      </trkpt>
      <trkpt lat="42.942037750035524" lon="-4.047543089836836">
        <ele>822.05999999999995</ele>
        <time>2013-05-13T15:55:02Z</time>
      </trkpt>
      <trkpt lat="42.94199014082551" lon="-4.047569241374731">
        <ele>822.05999999999995</ele>
        <time>2013-05-13T15:55:03Z</time>
      </trkpt>
      <trkpt lat="42.941650757566094" lon="-4.047744506970048">
        <ele>821.58000000000004</ele>
        <time>2013-05-13T15:55:04Z</time>
      </trkpt>
      <trkpt lat="42.941260244697332" lon="-4.048171816393733">
        <ele>822.05999999999995</ele>
        <time>2013-05-13T15:55:05Z</time>
      </trkpt>
      <trkpt lat="42.941070813685656" lon="-4.048383962363005">
        <ele>822.54999999999995</ele>
        <time>2013-05-13T15:55:15Z</time>
      </trkpt>
      <trkpt lat="42.941065365448594" lon="-4.048419166356325">
        <ele>822.54999999999995</ele>
        <time>2013-05-13T15:55:16Z</time>
      </trkpt>
      <trkpt lat="42.941134767606854" lon="-4.048684956505895">
        <ele>823.99000000000001</ele>
        <time>2013-05-13T15:55:17Z</time>
      </trkpt>
      <trkpt lat="42.941186064854264" lon="-4.048776989802718">
        <ele>824.95000000000005</ele>
        <time>2013-05-13T15:55:18Z</time>
      </trkpt>
      <trkpt lat="42.941188411787152" lon="-4.048826694488525">
        <ele>825.42999999999995</ele>
        <time>2013-05-13T15:55:19Z</time>
      </trkpt>
      <trkpt lat="42.94120249338448" lon="-4.048946471884847">
        <ele>824.95000000000005</ele>
        <time>2013-05-13T15:55:34Z</time>
      </trkpt>
      <trkpt lat="42.941198386251926" lon="-4.048964828252792">
        <ele>825.42999999999995</ele>
        <time>2013-05-13T15:55:50Z</time>
      </trkpt>
      <trkpt lat="42.94117952696979" lon="-4.048924762755632">
        <ele>825.42999999999995</ele>
        <time>2013-05-13T15:56:03Z</time>
      </trkpt>
      <trkpt lat="42.941192016005516" lon="-4.048951417207718">
        <ele>824.95000000000005</ele>
        <time>2013-05-13T15:56:18Z</time>
      </trkpt>
      <trkpt lat="42.941204253584146" lon="-4.048978826031089">
        <ele>825.42999999999995</ele>
        <time>2013-05-13T15:56:34Z</time>
      </trkpt>
      <trkpt lat="42.941216239705682" lon="-4.048991231247783">
        <ele>825.90999999999997</ele>
        <time>2013-05-13T15:56:35Z</time>
      </trkpt>
      <trkpt lat="42.941224789246917" lon="-4.049005815759301">
        <ele>825.42999999999995</ele>
        <time>2013-05-13T15:56:36Z</time>
      </trkpt>
      <trkpt lat="42.941233338788152" lon="-4.049024926498532">
        <ele>826.38999999999999</ele>
        <time>2013-05-13T15:56:50Z</time>
      </trkpt>
      <trkpt lat="42.941244905814528" lon="-4.049042779952288">
        <ele>825.90999999999997</ele>
        <time>2013-05-13T15:57:06Z</time>
      </trkpt>
      <trkpt lat="42.941257562488317" lon="-4.049057867377996">
        <ele>826.38999999999999</ele>
        <time>2013-05-13T15:57:20Z</time>
      </trkpt>
      <trkpt lat="42.941268542781472" lon="-4.049070943146944">
        <ele>826.38999999999999</ele>
        <time>2013-05-13T15:57:36Z</time>
      </trkpt>
      <trkpt lat="42.941278098151088" lon="-4.049083767458797">
        <ele>826.87</ele>
        <time>2013-05-13T15:57:54Z</time>
      </trkpt>
      <trkpt lat="42.941371304914355" lon="-4.049219554290175">
        <ele>827.83000000000004</ele>
        <time>2013-05-13T15:58:08Z</time>
      </trkpt>
      <trkpt lat="42.941471468657255" lon="-4.049350982531905">
        <ele>829.26999999999998</ele>
        <time>2013-05-13T15:58:24Z</time>
      </trkpt>
      <trkpt lat="42.941485047340393" lon="-4.049365231767297">
        <ele>829.75999999999999</ele>
        <time>2013-05-13T15:58:38Z</time>
      </trkpt>
      <trkpt lat="42.941499296575785" lon="-4.049380738288164">
        <ele>829.26999999999998</ele>
        <time>2013-05-13T15:58:41Z</time>
      </trkpt>
      <trkpt lat="42.941511869430542" lon="-4.04939666390419">
        <ele>829.75999999999999</ele>
        <time>2013-05-13T15:58:42Z</time>
      </trkpt>
      <trkpt lat="42.941524442285299" lon="-4.049409739673138">
        <ele>830.24000000000001</ele>
        <time>2013-05-13T15:58:43Z</time>
      </trkpt>
      <trkpt lat="42.941538272425532" lon="-4.049419797956944">
        <ele>830.24000000000001</ele>
        <time>2013-05-13T15:58:44Z</time>
      </trkpt>
      <trkpt lat="42.941548330709338" lon="-4.049433544278145">
        <ele>830.72000000000003</ele>
        <time>2013-05-13T15:58:45Z</time>
      </trkpt>
      <trkpt lat="42.941560903564095" lon="-4.049447206780314">
        <ele>830.72000000000003</ele>
        <time>2013-05-13T15:58:58Z</time>
      </trkpt>
      <trkpt lat="42.941577080637217" lon="-4.049457935616374">
        <ele>831.20000000000005</ele>
        <time>2013-05-13T15:59:07Z</time>
      </trkpt>
      <trkpt lat="42.941590240225196" lon="-4.0494738612324">
        <ele>831.20000000000005</ele>
        <time>2013-05-13T15:59:08Z</time>
      </trkpt>
      <trkpt lat="42.941602729260921" lon="-4.049491295590997">
        <ele>831.20000000000005</ele>
        <time>2013-05-13T15:59:09Z</time>
      </trkpt>
      <trkpt lat="42.941739605739713" lon="-4.049648875370622">
        <ele>832.15999999999997</ele>
        <time>2013-05-13T15:59:10Z</time>
      </trkpt>
      <trkpt lat="42.941750921308994" lon="-4.049669159576297">
        <ele>832.15999999999997</ele>
        <time>2013-05-13T15:59:24Z</time>
      </trkpt>
      <trkpt lat="42.941757375374436" lon="-4.049690533429384">
        <ele>832.63999999999999</ele>
        <time>2013-05-13T15:59:57Z</time>
      </trkpt>
      <trkpt lat="42.941770954057574" lon="-4.049709057435393">
        <ele>832.15999999999997</ele>
        <time>2013-05-13T15:59:58Z</time>
      </trkpt>
      <trkpt lat="42.94178444892168" lon="-4.049729257822037">
        <ele>832.63999999999999</ele>
        <time>2013-05-13T15:59:59Z</time>
      </trkpt>
      <trkpt lat="42.941959714516997" lon="-4.050027737393975">
        <ele>834.55999999999995</ele>
        <time>2013-05-13T16:00:04Z</time>
      </trkpt>
      <trkpt lat="42.942102290689945" lon="-4.05034557916224">
        <ele>836.96000000000004</ele>
        <time>2013-05-13T16:00:05Z</time>
      </trkpt>
      <trkpt lat="42.942283675074577" lon="-4.050554959103465">
        <ele>838.40999999999997</ele>
        <time>2013-05-13T16:00:17Z</time>
      </trkpt>
      <trkpt lat="42.942512836307287" lon="-4.050739109516144">
        <ele>839.37</ele>
        <time>2013-05-13T16:00:31Z</time>
      </trkpt>
      <trkpt lat="42.942691957578063" lon="-4.050952680408955">
        <ele>841.76999999999998</ele>
        <time>2013-05-13T16:00:49Z</time>
      </trkpt>
      <trkpt lat="42.942689275369048" lon="-4.05097640119493">
        <ele>841.76999999999998</ele>
        <time>2013-05-13T16:01:04Z</time>
      </trkpt>
      <trkpt lat="42.942679971456528" lon="-4.050998948514462">
        <ele>841.76999999999998</ele>
        <time>2013-05-13T16:01:23Z</time>
      </trkpt>
      <trkpt lat="42.942460533231497" lon="-4.051052173599601">
        <ele>843.69000000000005</ele>
        <time>2013-05-13T16:01:36Z</time>
      </trkpt>
      <trkpt lat="42.942252578213811" lon="-4.050919320434332">
        <ele>845.62</ele>
        <time>2013-05-13T16:01:54Z</time>
      </trkpt>
      <trkpt lat="42.942063566297293" lon="-4.050791915506125">
        <ele>848.01999999999998</ele>
        <time>2013-05-13T16:02:10Z</time>
      </trkpt>
      <trkpt lat="42.94183281250298" lon="-4.050678173080087">
        <ele>850.89999999999998</ele>
        <time>2013-05-13T16:02:26Z</time>
      </trkpt>
      <trkpt lat="42.941542714834213" lon="-4.050642298534513">
        <ele>853.30999999999995</ele>
        <time>2013-05-13T16:02:34Z</time>
      </trkpt>
      <trkpt lat="42.941330317407846" lon="-4.050537692382932">
        <ele>855.23000000000002</ele>
        <time>2013-05-13T16:02:52Z</time>
      </trkpt>
      <trkpt lat="42.941077770665288" lon="-4.050470972433686">
        <ele>857.14999999999998</ele>
        <time>2013-05-13T16:03:12Z</time>
      </trkpt>
      <trkpt lat="42.940897224470973" lon="-4.05060944147408">
        <ele>860.03999999999996</ele>
        <time>2013-05-13T16:03:30Z</time>
      </trkpt>
      <trkpt lat="42.940858667716384" lon="-4.050655541941524">
        <ele>860.51999999999998</ele>
        <time>2013-05-13T16:03:48Z</time>
      </trkpt>
      <trkpt lat="42.940842574462295" lon="-4.050668030977249">
        <ele>860.51999999999998</ele>
        <time>2013-05-13T16:04:04Z</time>
      </trkpt>
      <trkpt lat="42.940825307741761" lon="-4.050679765641689">
        <ele>861</ele>
        <time>2013-05-13T16:04:18Z</time>
      </trkpt>
      <trkpt lat="42.940810807049274" lon="-4.050694098696113">
        <ele>860.51999999999998</ele>
        <time>2013-05-13T16:04:33Z</time>
      </trkpt>
      <trkpt lat="42.940796641632915" lon="-4.050707593560219">
        <ele>860.03999999999996</ele>
        <time>2013-05-13T16:04:40Z</time>
      </trkpt>
      <trkpt lat="42.940612155944109" lon="-4.050868023186922">
        <ele>863.39999999999998</ele>
        <time>2013-05-13T16:04:56Z</time>
      </trkpt>
      <trkpt lat="42.940491707995534" lon="-4.050937509164214">
        <ele>860.03999999999996</ele>
        <time>2013-05-13T16:05:13Z</time>
      </trkpt>
      <trkpt lat="42.940479638054967" lon="-4.050942454487085">
        <ele>864.36000000000001</ele>
        <time>2013-05-13T16:05:28Z</time>
      </trkpt>
      <trkpt lat="42.940466394647956" lon="-4.050944047048688">
        <ele>864.36000000000001</ele>
        <time>2013-05-13T16:05:41Z</time>
      </trkpt>
      <trkpt lat="42.940455581992865" lon="-4.05094706453383">
        <ele>863.88</ele>
        <time>2013-05-13T16:05:42Z</time>
      </trkpt>
      <trkpt lat="42.940449211746454" lon="-4.050943711772561">
        <ele>864.36000000000001</ele>
        <time>2013-05-13T16:05:56Z</time>
      </trkpt>
      <trkpt lat="42.940392214804888" lon="-4.050921751186252">
        <ele>864.36000000000001</ele>
        <time>2013-05-13T16:06:12Z</time>
      </trkpt>
      <trkpt lat="42.940384922549129" lon="-4.050927283242345">
        <ele>864.84000000000003</ele>
        <time>2013-05-13T16:06:43Z</time>
      </trkpt>
      <trkpt lat="42.940376289188862" lon="-4.050938682630658">
        <ele>865.32000000000005</ele>
        <time>2013-05-13T16:07:12Z</time>
      </trkpt>
      <trkpt lat="42.940332870930433" lon="-4.0510194003582">
        <ele>865.79999999999995</ele>
        <time>2013-05-13T16:07:41Z</time>
      </trkpt>
      <trkpt lat="42.940321136265993" lon="-4.051037421450019">
        <ele>865.32000000000005</ele>
        <time>2013-05-13T16:08:06Z</time>
      </trkpt>
      <trkpt lat="42.94017881155014" lon="-4.051225678995252">
        <ele>868.69000000000005</ele>
        <time>2013-05-13T16:08:38Z</time>
      </trkpt>
      <trkpt lat="42.940010502934456" lon="-4.05149582773447">
        <ele>870.61000000000001</ele>
        <time>2013-05-13T16:09:00Z</time>
      </trkpt>
      <trkpt lat="42.939817551523447" lon="-4.051866475492716">
        <ele>872.52999999999997</ele>
        <time>2013-05-13T16:09:32Z</time>
      </trkpt>
      <trkpt lat="42.939605405554175" lon="-4.052049368619919">
        <ele>873.98000000000002</ele>
        <time>2013-05-13T16:10:02Z</time>
      </trkpt>
      <trkpt lat="42.939292090013623" lon="-4.052185574546456">
        <ele>875.89999999999998</ele>
        <time>2013-05-13T16:10:28Z</time>
      </trkpt>
      <trkpt lat="42.939089918509126" lon="-4.052291437983513">
        <ele>877.82000000000005</ele>
        <time>2013-05-13T16:10:58Z</time>
      </trkpt>
      <trkpt lat="42.938834186643362" lon="-4.05249210074544">
        <ele>880.22000000000003</ele>
        <time>2013-05-13T16:11:26Z</time>
      </trkpt>
      <trkpt lat="42.938645090907812" lon="-4.052694607526064">
        <ele>883.59000000000003</ele>
        <time>2013-05-13T16:12:02Z</time>
      </trkpt>
      <trkpt lat="42.938420288264751" lon="-4.052914213389158">
        <ele>885.50999999999999</ele>
        <time>2013-05-13T16:12:25Z</time>
      </trkpt>
      <trkpt lat="42.938311658799648" lon="-4.053026866167784">
        <ele>886.47000000000003</ele>
        <time>2013-05-13T16:13:00Z</time>
      </trkpt>
      <trkpt lat="42.938099261373281" lon="-4.053360214456916">
        <ele>888.39999999999998</ele>
        <time>2013-05-13T16:13:21Z</time>
      </trkpt>
      <trkpt lat="42.937886025756598" lon="-4.053760282695293">
        <ele>889.84000000000003</ele>
        <time>2013-05-13T16:14:02Z</time>
      </trkpt>
      <trkpt lat="42.937675891444087" lon="-4.054026994854212">
        <ele>891.27999999999997</ele>
        <time>2013-05-13T16:14:35Z</time>
      </trkpt>
      <trkpt lat="42.937448490411043" lon="-4.05427367426455">
        <ele>893.20000000000005</ele>
        <time>2013-05-13T16:14:55Z</time>
      </trkpt>
      <trkpt lat="42.937264842912555" lon="-4.054473163560033">
        <ele>896.57000000000005</ele>
        <time>2013-05-13T16:15:08Z</time>
      </trkpt>
      <trkpt lat="42.937085134908557" lon="-4.054625714197755">
        <ele>898.49000000000001</ele>
        <time>2013-05-13T16:15:23Z</time>
      </trkpt>
      <trkpt lat="42.93689914047718" lon="-4.054788574576378">
        <ele>899.92999999999995</ele>
        <time>2013-05-13T16:15:38Z</time>
      </trkpt>
      <trkpt lat="42.936815237626433" lon="-4.054885637015104">
        <ele>901.37</ele>
        <time>2013-05-13T16:15:52Z</time>
      </trkpt>
      <trkpt lat="42.936605522409081" lon="-4.055062746629119">
        <ele>902.82000000000005</ele>
        <time>2013-05-13T16:16:08Z</time>
      </trkpt>
      <trkpt lat="42.936335122212768" lon="-4.055130891501904">
        <ele>905.22000000000003</ele>
        <time>2013-05-13T16:16:13Z</time>
      </trkpt>
      <trkpt lat="42.936128424480557" lon="-4.055277574807406">
        <ele>908.58000000000004</ele>
        <time>2013-05-13T16:16:30Z</time>
      </trkpt>
      <trkpt lat="42.935990206897259" lon="-4.055462060496211">
        <ele>910.50999999999999</ele>
        <time>2013-05-13T16:16:50Z</time>
      </trkpt>
      <trkpt lat="42.935974700376391" lon="-4.055470274761319">
        <ele>910.99000000000001</ele>
        <time>2013-05-13T16:16:53Z</time>
      </trkpt>
      <trkpt lat="42.93579088523984" lon="-4.05551478266716">
        <ele>911.95000000000005</ele>
        <time>2013-05-13T16:17:08Z</time>
      </trkpt>
      <trkpt lat="42.935766912996769" lon="-4.055545460432768">
        <ele>912.90999999999997</ele>
        <time>2013-05-13T16:17:26Z</time>
      </trkpt>
      <trkpt lat="42.935772780328989" lon="-4.055523499846458">
        <ele>913.38999999999999</ele>
        <time>2013-05-13T16:17:41Z</time>
      </trkpt>
      <trkpt lat="42.935757776722312" lon="-4.055521236732602">
        <ele>912.90999999999997</ele>
        <time>2013-05-13T16:17:53Z</time>
      </trkpt>
      <trkpt lat="42.93580899015069" lon="-4.055542275309563">
        <ele>913.87</ele>
        <time>2013-05-13T16:18:09Z</time>
      </trkpt>
      <trkpt lat="42.935790633782744" lon="-4.055518554523587">
        <ele>912.90999999999997</ele>
        <time>2013-05-13T16:18:11Z</time>
      </trkpt>
      <trkpt lat="42.935788789764047" lon="-4.05554655008018">
        <ele>913.87</ele>
        <time>2013-05-13T16:18:12Z</time>
      </trkpt>
      <trkpt lat="42.935791304334998" lon="-4.055546717718244">
        <ele>913.38999999999999</ele>
        <time>2013-05-13T16:18:13Z</time>
      </trkpt>
      <trkpt lat="42.935766996815801" lon="-4.055556273087859">
        <ele>913.38999999999999</ele>
        <time>2013-05-13T16:18:31Z</time>
      </trkpt>
      <trkpt lat="42.935788119211793" lon="-4.055525008589029">
        <ele>913.38999999999999</ele>
        <time>2013-05-13T16:18:47Z</time>
      </trkpt>
      <trkpt lat="42.935784934088588" lon="-4.055557446554303">
        <ele>913.38999999999999</ele>
        <time>2013-05-13T16:19:03Z</time>
      </trkpt>
      <trkpt lat="42.935751406475902" lon="-4.055544873699546">
        <ele>912.90999999999997</ele>
        <time>2013-05-13T16:19:20Z</time>
      </trkpt>
      <trkpt lat="42.935741012915969" lon="-4.055576808750629">
        <ele>912.90999999999997</ele>
        <time>2013-05-13T16:19:34Z</time>
      </trkpt>
      <trkpt lat="42.935772612690926" lon="-4.055536910891533">
        <ele>912.90999999999997</ele>
        <time>2013-05-13T16:19:50Z</time>
      </trkpt>
      <trkpt lat="42.935736067593098" lon="-4.055562894791365">
        <ele>913.38999999999999</ele>
        <time>2013-05-13T16:20:06Z</time>
      </trkpt>
      <trkpt lat="42.935716537758708" lon="-4.055541688576341">
        <ele>913.38999999999999</ele>
        <time>2013-05-13T16:20:19Z</time>
      </trkpt>
      <trkpt lat="42.935747215524316" lon="-4.055537581443787">
        <ele>913.38999999999999</ele>
        <time>2013-05-13T16:20:32Z</time>
      </trkpt>
      <trkpt lat="42.935757273808122" lon="-4.055563313886523">
        <ele>913.38999999999999</ele>
        <time>2013-05-13T16:20:47Z</time>
      </trkpt>
      <trkpt lat="42.935772193595767" lon="-4.055556859821081">
        <ele>913.38999999999999</ele>
        <time>2013-05-13T16:21:01Z</time>
      </trkpt>
      <trkpt lat="42.935734642669559" lon="-4.055519392713904">
        <ele>913.38999999999999</ele>
        <time>2013-05-13T16:21:12Z</time>
      </trkpt>
      <trkpt lat="42.935576979070902" lon="-4.055458540096879">
        <ele>915.30999999999995</ele>
        <time>2013-05-13T16:21:26Z</time>
      </trkpt>
      <trkpt lat="42.935374137014151" lon="-4.055439764633775">
        <ele>917.24000000000001</ele>
        <time>2013-05-13T16:21:28Z</time>
      </trkpt>
      <trkpt lat="42.935166014358401" lon="-4.055412774905562">
        <ele>920.12</ele>
        <time>2013-05-13T16:21:29Z</time>
      </trkpt>
      <trkpt lat="42.934992592781782" lon="-4.055314287543297">
        <ele>923</ele>
        <time>2013-05-13T16:21:30Z</time>
      </trkpt>
      <trkpt lat="42.934889998286963" lon="-4.055053610354662">
        <ele>925.40999999999997</ele>
        <time>2013-05-13T16:21:43Z</time>
      </trkpt>
      <trkpt lat="42.934890333563089" lon="-4.054965935647488">
        <ele>926.37</ele>
        <time>2013-05-13T16:22:08Z</time>
      </trkpt>
      <trkpt lat="42.934998711571097" lon="-4.054646920412779">
        <ele>928.28999999999996</ele>
        <time>2013-05-13T16:22:34Z</time>
      </trkpt>
      <trkpt lat="42.935130810365081" lon="-4.054227992892265">
        <ele>930.21000000000004</ele>
        <time>2013-05-13T16:22:49Z</time>
      </trkpt>
      <trkpt lat="42.935151429846883" lon="-4.054169906303287">
        <ele>931.64999999999998</ele>
        <time>2013-05-13T16:22:50Z</time>
      </trkpt>
      <trkpt lat="42.935271793976426" lon="-4.053875030949712">
        <ele>934.05999999999995</ele>
        <time>2013-05-13T16:22:51Z</time>
      </trkpt>
      <trkpt lat="42.935389978811145" lon="-4.053520057350397">
        <ele>937.41999999999996</ele>
        <time>2013-05-13T16:23:04Z</time>
      </trkpt>
      <trkpt lat="42.935319822281599" lon="-4.053215207532048">
        <ele>940.30999999999995</ele>
        <time>2013-05-13T16:23:05Z</time>
      </trkpt>
      <trkpt lat="42.93512050062418" lon="-4.05312049202621">
        <ele>943.19000000000005</ele>
        <time>2013-05-13T16:23:06Z</time>
      </trkpt>
      <trkpt lat="42.934857560321689" lon="-4.053061986342073">
        <ele>945.59000000000003</ele>
        <time>2013-05-13T16:23:17Z</time>
      </trkpt>
      <trkpt lat="42.934827134013176" lon="-4.053052766248584">
        <ele>946.55999999999995</ele>
        <time>2013-05-13T16:23:44Z</time>
      </trkpt>
      <trkpt lat="42.934811124578118" lon="-4.053059220314026">
        <ele>946.07000000000005</ele>
        <time>2013-05-13T16:24:17Z</time>
      </trkpt>
      <trkpt lat="42.934796791523695" lon="-4.053057543933392">
        <ele>946.55999999999995</ele>
        <time>2013-05-13T16:24:42Z</time>
      </trkpt>
      <trkpt lat="42.934527145698667" lon="-4.052999541163445">
        <ele>949.44000000000005</ele>
        <time>2013-05-13T16:25:05Z</time>
      </trkpt>
      <trkpt lat="42.934282477945089" lon="-4.052937431260943">
        <ele>952.79999999999995</ele>
        <time>2013-05-13T16:25:32Z</time>
      </trkpt>
      <trkpt lat="42.934041498228908" lon="-4.052789490669966">
        <ele>955.69000000000005</ele>
        <time>2013-05-13T16:26:09Z</time>
      </trkpt>
      <trkpt lat="42.933819461613894" lon="-4.052599808201194">
        <ele>958.09000000000003</ele>
        <time>2013-05-13T16:26:37Z</time>
      </trkpt>
      <trkpt lat="42.933623911812901" lon="-4.052400151267648">
        <ele>959.04999999999995</ele>
        <time>2013-05-13T16:26:52Z</time>
      </trkpt>
      <trkpt lat="42.933412101119757" lon="-4.052147353067994">
        <ele>961.46000000000004</ele>
        <time>2013-05-13T16:27:07Z</time>
      </trkpt>
      <trkpt lat="42.933184364810586" lon="-4.051859769970179">
        <ele>963.86000000000001</ele>
        <time>2013-05-13T16:27:22Z</time>
      </trkpt>
      <trkpt lat="42.93302871286869" lon="-4.051600433886051">
        <ele>964.82000000000005</ele>
        <time>2013-05-13T16:27:54Z</time>
      </trkpt>
      <trkpt lat="42.932969955727458" lon="-4.051517536863685">
        <ele>964.82000000000005</ele>
        <time>2013-05-13T16:28:13Z</time>
      </trkpt>
      <trkpt lat="42.932769795879722" lon="-4.051332296803594">
        <ele>966.25999999999999</ele>
        <time>2013-05-13T16:28:42Z</time>
      </trkpt>
      <trkpt lat="42.93258698657155" lon="-4.051063153892756">
        <ele>966.74000000000001</ele>
        <time>2013-05-13T16:28:58Z</time>
      </trkpt>
      <trkpt lat="42.932463772594929" lon="-4.050896689295769">
        <ele>969.63</ele>
        <time>2013-05-13T16:29:14Z</time>
      </trkpt>
      <trkpt lat="42.93234215117991" lon="-4.050603657960892">
        <ele>971.07000000000005</ele>
        <time>2013-05-13T16:29:29Z</time>
      </trkpt>
      <trkpt lat="42.932325722649693" lon="-4.050558563321829">
        <ele>972.02999999999997</ele>
        <time>2013-05-13T16:29:46Z</time>
      </trkpt>
      <trkpt lat="42.93231432326138" lon="-4.050540877506137">
        <ele>972.02999999999997</ele>
        <time>2013-05-13T16:30:03Z</time>
      </trkpt>
      <trkpt lat="42.932300828397274" lon="-4.050524951890111">
        <ele>972.50999999999999</ele>
        <time>2013-05-13T16:30:15Z</time>
      </trkpt>
      <trkpt lat="42.932260427623987" lon="-4.050447167828679">
        <ele>972.50999999999999</ele>
        <time>2013-05-13T16:30:29Z</time>
      </trkpt>
      <trkpt lat="42.932238886132836" lon="-4.050470301881433">
        <ele>972.50999999999999</ele>
        <time>2013-05-13T16:30:42Z</time>
      </trkpt>
      <trkpt lat="42.932271910831332" lon="-4.050463009625673">
        <ele>971.54999999999995</ele>
        <time>2013-05-13T16:31:01Z</time>
      </trkpt>
      <trkpt lat="42.932241903617978" lon="-4.050375334918499">
        <ele>971.54999999999995</ele>
        <time>2013-05-13T16:45:23Z</time>
      </trkpt>
      <trkpt lat="42.932227402925491" lon="-4.050352368503809">
        <ele>971.07000000000005</ele>
        <time>2013-05-13T16:45:24Z</time>
      </trkpt>
      <trkpt lat="42.932214327156544" lon="-4.050327809527516">
        <ele>971.54999999999995</ele>
        <time>2013-05-13T16:45:25Z</time>
      </trkpt>
      <trkpt lat="42.931944848969579" lon="-4.04995615594089">
        <ele>971.07000000000005</ele>
        <time>2013-05-13T16:45:34Z</time>
      </trkpt>
      <trkpt lat="42.931925654411316" lon="-4.049946684390307">
        <ele>971.07000000000005</ele>
        <time>2013-05-13T16:45:45Z</time>
      </trkpt>
      <trkpt lat="42.931907800957561" lon="-4.049939811229706">
        <ele>971.07000000000005</ele>
        <time>2013-05-13T16:46:01Z</time>
      </trkpt>
      <trkpt lat="42.931865053251386" lon="-4.049984822049737">
        <ele>972.02999999999997</ele>
        <time>2013-05-13T16:46:19Z</time>
      </trkpt>
      <trkpt lat="42.931886846199632" lon="-4.050003346055746">
        <ele>971.54999999999995</ele>
        <time>2013-05-13T16:46:28Z</time>
      </trkpt>
      <trkpt lat="42.931837141513824" lon="-4.05000351369381">
        <ele>971.54999999999995</ele>
        <time>2013-05-13T16:46:29Z</time>
      </trkpt>
      <trkpt lat="42.931827669963241" lon="-4.049998903647065">
        <ele>971.54999999999995</ele>
        <time>2013-05-13T16:46:30Z</time>
      </trkpt>
      <trkpt lat="42.931845020502806" lon="-4.050009967759252">
        <ele>971.54999999999995</ele>
        <time>2013-05-13T16:46:31Z</time>
      </trkpt>
      <trkpt lat="42.931867651641369" lon="-4.049985660240054">
        <ele>971.54999999999995</ele>
        <time>2013-05-13T16:46:32Z</time>
      </trkpt>
      <trkpt lat="42.931898664683104" lon="-4.050057996064425">
        <ele>971.54999999999995</ele>
        <time>2013-05-13T16:46:48Z</time>
      </trkpt>
      <trkpt lat="42.931907465681434" lon="-4.050051709637046">
        <ele>971.54999999999995</ele>
        <time>2013-05-13T16:47:02Z</time>
      </trkpt>
      <trkpt lat="42.93169423006475" lon="-4.049994796514511">
        <ele>970.59000000000003</ele>
        <time>2013-05-13T16:47:03Z</time>
      </trkpt>
      <trkpt lat="42.93142550624907" lon="-4.05005631968379">
        <ele>969.63</ele>
        <time>2013-05-13T16:47:04Z</time>
      </trkpt>
      <trkpt lat="42.931408993899822" lon="-4.050046764314175">
        <ele>969.63</ele>
        <time>2013-05-13T16:47:05Z</time>
      </trkpt>
      <trkpt lat="42.931389296427369" lon="-4.050034107640386">
        <ele>969.63</ele>
        <time>2013-05-13T16:47:06Z</time>
      </trkpt>
      <trkpt lat="42.931295335292816" lon="-4.05006512068212">
        <ele>970.11000000000001</ele>
        <time>2013-05-13T16:47:07Z</time>
      </trkpt>
      <trkpt lat="42.931310590356588" lon="-4.050032515078783">
        <ele>970.59000000000003</ele>
        <time>2013-05-13T16:47:08Z</time>
      </trkpt>
      <trkpt lat="42.93131997808814" lon="-4.050077944993973">
        <ele>970.59000000000003</ele>
        <time>2013-05-13T16:47:09Z</time>
      </trkpt>
      <trkpt lat="42.931246804073453" lon="-4.05032554641366">
        <ele>971.07000000000005</ele>
        <time>2013-05-13T16:47:10Z</time>
      </trkpt>
      <trkpt lat="42.931170193478465" lon="-4.050494860857725">
        <ele>972.02999999999997</ele>
        <time>2013-05-13T16:47:11Z</time>
      </trkpt>
      <trkpt lat="42.931083524599671" lon="-4.050703821703792">
        <ele>972.50999999999999</ele>
        <time>2013-05-13T16:47:12Z</time>
      </trkpt>
      <trkpt lat="42.93100674636662" lon="-4.050857126712799">
        <ele>972.99000000000001</ele>
        <time>2013-05-13T16:47:13Z</time>
      </trkpt>
      <trkpt lat="42.93095008470118" lon="-4.05098226852715">
        <ele>972.99000000000001</ele>
        <time>2013-05-13T16:47:27Z</time>
      </trkpt>
      <trkpt lat="42.930873055011034" lon="-4.051162898540497">
        <ele>972.99000000000001</ele>
        <time>2013-05-13T16:47:44Z</time>
      </trkpt>
      <trkpt lat="42.930810274556279" lon="-4.051290638744831">
        <ele>972.50999999999999</ele>
        <time>2013-05-13T16:47:59Z</time>
      </trkpt>
      <trkpt lat="42.930831061676145" lon="-4.051368925720453">
        <ele>972.99000000000001</ele>
        <time>2013-05-13T16:48:03Z</time>
      </trkpt>
      <trkpt lat="42.930795438587666" lon="-4.051379403099418">
        <ele>974.42999999999995</ele>
        <time>2013-05-13T16:48:04Z</time>
      </trkpt>
      <trkpt lat="42.930699549615383" lon="-4.05141712166369">
        <ele>973.47000000000003</ele>
        <time>2013-05-13T16:48:21Z</time>
      </trkpt>
      <trkpt lat="42.930604247376323" lon="-4.051455175504088">
        <ele>973.47000000000003</ele>
        <time>2013-05-13T16:48:39Z</time>
      </trkpt>
      <trkpt lat="42.929985579103231" lon="-4.0517049562186">
        <ele>973.95000000000005</ele>
        <time>2013-05-13T16:48:51Z</time>
      </trkpt>
      <trkpt lat="42.929716184735298" lon="-4.051800090819597">
        <ele>975.88</ele>
        <time>2013-05-13T16:48:52Z</time>
      </trkpt>
      <trkpt lat="42.929393900558352" lon="-4.051832864060998">
        <ele>978.27999999999997</ele>
        <time>2013-05-13T16:48:53Z</time>
      </trkpt>
      <trkpt lat="42.929011099040508" lon="-4.051923640072346">
        <ele>981.15999999999997</ele>
        <time>2013-05-13T16:49:08Z</time>
      </trkpt>
      <trkpt lat="42.928849328309298" lon="-4.051996394991875">
        <ele>983.09000000000003</ele>
        <time>2013-05-13T16:49:24Z</time>
      </trkpt>
      <trkpt lat="42.928830552846193" lon="-4.052001256495714">
        <ele>982.60000000000002</ele>
        <time>2013-05-13T16:49:42Z</time>
      </trkpt>
      <trkpt lat="42.928811525925994" lon="-4.052005615085363">
        <ele>983.09000000000003</ele>
        <time>2013-05-13T16:50:00Z</time>
      </trkpt>
      <trkpt lat="42.92879275046289" lon="-4.052010225132108">
        <ele>982.60000000000002</ele>
        <time>2013-05-13T16:50:14Z</time>
      </trkpt>
      <trkpt lat="42.928775316104293" lon="-4.052014499902725">
        <ele>983.09000000000003</ele>
        <time>2013-05-13T16:50:31Z</time>
      </trkpt>
      <trkpt lat="42.928488990291953" lon="-4.052059845998883">
        <ele>985.97000000000003</ele>
        <time>2013-05-13T16:50:48Z</time>
      </trkpt>
      <trkpt lat="42.928266786038876" lon="-4.051984325051308">
        <ele>986.92999999999995</ele>
        <time>2013-05-13T16:51:04Z</time>
      </trkpt>
      <trkpt lat="42.928256560117006" lon="-4.051972338929772">
        <ele>987.88999999999999</ele>
        <time>2013-05-13T16:51:14Z</time>
      </trkpt>
      <trkpt lat="42.928244909271598" lon="-4.051957083866">
        <ele>987.40999999999997</ele>
        <time>2013-05-13T16:51:27Z</time>
      </trkpt>
      <trkpt lat="42.928235186263919" lon="-4.051940068602562">
        <ele>987.40999999999997</ele>
        <time>2013-05-13T16:51:38Z</time>
      </trkpt>
      <trkpt lat="42.928224792703986" lon="-4.051925567910075">
        <ele>987.88999999999999</ele>
        <time>2013-05-13T16:52:07Z</time>
      </trkpt>
      <trkpt lat="42.928210962563753" lon="-4.051913246512413">
        <ele>987.88999999999999</ele>
        <time>2013-05-13T16:52:08Z</time>
      </trkpt>
      <trkpt lat="42.928199395537376" lon="-4.051896817982197">
        <ele>987.40999999999997</ele>
        <time>2013-05-13T16:52:24Z</time>
      </trkpt>
      <trkpt lat="42.928191432729363" lon="-4.051880808547139">
        <ele>987.88999999999999</ele>
        <time>2013-05-13T16:52:37Z</time>
      </trkpt>
      <trkpt lat="42.928186235949397" lon="-4.051861362531781">
        <ele>987.40999999999997</ele>
        <time>2013-05-13T16:52:53Z</time>
      </trkpt>
      <trkpt lat="42.928181290626526" lon="-4.051842922344804">
        <ele>987.88999999999999</ele>
        <time>2013-05-13T16:53:09Z</time>
      </trkpt>
      <trkpt lat="42.928175507113338" lon="-4.05182565562427">
        <ele>987.88999999999999</ele>
        <time>2013-05-13T16:53:23Z</time>
      </trkpt>
      <trkpt lat="42.928171316161752" lon="-4.051805287599564">
        <ele>987.88999999999999</ele>
        <time>2013-05-13T16:53:40Z</time>
      </trkpt>
      <trkpt lat="42.928087497130036" lon="-4.051543269306421">
        <ele>989.80999999999995</ele>
        <time>2013-05-13T16:53:58Z</time>
      </trkpt>
      <trkpt lat="42.927999822422862" lon="-4.051224002614617">
        <ele>992.22000000000003</ele>
        <time>2013-05-13T16:54:05Z</time>
      </trkpt>
      <trkpt lat="42.927935030311346" lon="-4.050937760621309">
        <ele>994.13999999999999</ele>
        <time>2013-05-13T16:54:06Z</time>
      </trkpt>
      <trkpt lat="42.927925307303667" lon="-4.050865676254034">
        <ele>994.62</ele>
        <time>2013-05-13T16:54:22Z</time>
      </trkpt>
      <trkpt lat="42.927919691428542" lon="-4.050845559686422">
        <ele>994.62</ele>
        <time>2013-05-13T16:54:37Z</time>
      </trkpt>
      <trkpt lat="42.927815252915025" lon="-4.050475498661399">
        <ele>997.01999999999998</ele>
        <time>2013-05-13T16:54:53Z</time>
      </trkpt>
      <trkpt lat="42.927619619295001" lon="-4.050143156200647">
        <ele>998.95000000000005</ele>
        <time>2013-05-13T16:55:09Z</time>
      </trkpt>
      <trkpt lat="42.927497327327728" lon="-4.049947103485465">
        <ele>1000.87</ele>
        <time>2013-05-13T16:55:23Z</time>
      </trkpt>
      <trkpt lat="42.927486766129732" lon="-4.049933692440391">
        <ele>1001.35</ele>
        <time>2013-05-13T16:55:41Z</time>
      </trkpt>
      <trkpt lat="42.927477546036243" lon="-4.049918269738555">
        <ele>1001.83</ele>
        <time>2013-05-13T16:55:54Z</time>
      </trkpt>
      <trkpt lat="42.927322648465633" lon="-4.049678547307849">
        <ele>1003.27</ele>
        <time>2013-05-13T16:56:11Z</time>
      </trkpt>
      <trkpt lat="42.927125673741102" lon="-4.049437148496509">
        <ele>1005.6799999999999</ele>
        <time>2013-05-13T16:56:30Z</time>
      </trkpt>
      <trkpt lat="42.926914282143116" lon="-4.049108158797026">
        <ele>1008.5599999999999</ele>
        <time>2013-05-13T16:56:47Z</time>
      </trkpt>
      <trkpt lat="42.926721498370171" lon="-4.048776905983686">
        <ele>1010.48</ele>
        <time>2013-05-13T16:57:04Z</time>
      </trkpt>
      <trkpt lat="42.926599709317088" lon="-4.048497118055821">
        <ele>1012.89</ele>
        <time>2013-05-13T16:57:18Z</time>
      </trkpt>
      <trkpt lat="42.926471717655659" lon="-4.048125883564353">
        <ele>1015.77</ele>
        <time>2013-05-13T16:57:34Z</time>
      </trkpt>
      <trkpt lat="42.926386306062341" lon="-4.047676865011454">
        <ele>1018.17</ele>
        <time>2013-05-13T16:57:49Z</time>
      </trkpt>
      <trkpt lat="42.926395023241639" lon="-4.04741526581347">
        <ele>1019.13</ele>
        <time>2013-05-13T16:58:03Z</time>
      </trkpt>
      <trkpt lat="42.926402986049652" lon="-4.047230863943696">
        <ele>1020.1</ele>
        <time>2013-05-13T16:58:19Z</time>
      </trkpt>
      <trkpt lat="42.926490912213922" lon="-4.046923751011491">
        <ele>1023.46</ele>
        <time>2013-05-13T16:58:35Z</time>
      </trkpt>
      <trkpt lat="42.926517901942134" lon="-4.046824341639876">
        <ele>1023.9400000000001</ele>
        <time>2013-05-13T16:58:55Z</time>
      </trkpt>
      <trkpt lat="42.926521757617593" lon="-4.046841692179442">
        <ele>1023.46</ele>
        <time>2013-05-13T16:59:09Z</time>
      </trkpt>
      <trkpt lat="42.92651773430407" lon="-4.046824928373098">
        <ele>1022.98</ele>
        <time>2013-05-13T16:59:17Z</time>
      </trkpt>
      <trkpt lat="42.926412122324109" lon="-4.046463668346405">
        <ele>1024.4200000000001</ele>
        <time>2013-05-13T16:59:44Z</time>
      </trkpt>
      <trkpt lat="42.926267785951495" lon="-4.046212043613195">
        <ele>1027.79</ele>
        <time>2013-05-13T17:00:14Z</time>
      </trkpt>
      <trkpt lat="42.925943154841661" lon="-4.046027725562453">
        <ele>1028.27</ele>
        <time>2013-05-13T17:00:45Z</time>
      </trkpt>
      <trkpt lat="42.925578290596604" lon="-4.045865451917052">
        <ele>1028.75</ele>
        <time>2013-05-13T17:00:50Z</time>
      </trkpt>
      <trkpt lat="42.925267992541194" lon="-4.045709716156125">
        <ele>1030.6700000000001</ele>
        <time>2013-05-13T17:01:02Z</time>
      </trkpt>
      <trkpt lat="42.924894914031029" lon="-4.045498659834266">
        <ele>1031.1500000000001</ele>
        <time>2013-05-13T17:01:15Z</time>
      </trkpt>
      <trkpt lat="42.924509346485138" lon="-4.045287519693375">
        <ele>1033.0699999999999</ele>
        <time>2013-05-13T17:01:18Z</time>
      </trkpt>
      <trkpt lat="42.924369452521205" lon="-4.045223062857986">
        <ele>1036.4400000000001</ele>
        <time>2013-05-13T17:01:23Z</time>
      </trkpt>
      <trkpt lat="42.924348833039403" lon="-4.045211579650641">
        <ele>1033.0699999999999</ele>
        <time>2013-05-13T17:01:27Z</time>
      </trkpt>
      <trkpt lat="42.924009952694178" lon="-4.045016365125775">
        <ele>1034.04</ele>
        <time>2013-05-13T17:01:28Z</time>
      </trkpt>
      <trkpt lat="42.923709880560637" lon="-4.044709587469697">
        <ele>1036.4400000000001</ele>
        <time>2013-05-13T17:01:29Z</time>
      </trkpt>
      <trkpt lat="42.923463871702552" lon="-4.044367438182235">
        <ele>1039.3199999999999</ele>
        <time>2013-05-13T17:01:30Z</time>
      </trkpt>
      <trkpt lat="42.923203445971012" lon="-4.044077256694436">
        <ele>1041.25</ele>
        <time>2013-05-13T17:01:31Z</time>
      </trkpt>
      <trkpt lat="42.922977972775698" lon="-4.04383409768343">
        <ele>1042.6900000000001</ele>
        <time>2013-05-13T17:01:32Z</time>
      </trkpt>
      <trkpt lat="42.922679409384727" lon="-4.043548610061407">
        <ele>1046.53</ele>
        <time>2013-05-13T17:01:33Z</time>
      </trkpt>
      <trkpt lat="42.922487882897258" lon="-4.0434212051332">
        <ele>1047.01</ele>
        <time>2013-05-13T17:01:34Z</time>
      </trkpt>
      <trkpt lat="42.922199545428157" lon="-4.043254321441054">
        <ele>1049.4200000000001</ele>
        <time>2013-05-13T17:01:35Z</time>
      </trkpt>
      <trkpt lat="42.921850690618157" lon="-4.042998002842069">
        <ele>1052.3</ele>
        <time>2013-05-13T17:01:36Z</time>
      </trkpt>
      <trkpt lat="42.921549528837204" lon="-4.042694661766291">
        <ele>1054.7</ele>
        <time>2013-05-13T17:01:52Z</time>
      </trkpt>
      <trkpt lat="42.921244008466601" lon="-4.042363576591015">
        <ele>1057.1099999999999</ele>
        <time>2013-05-13T17:02:06Z</time>
      </trkpt>
      <trkpt lat="42.920958017930388" lon="-4.04209116473794">
        <ele>1058.55</ele>
        <time>2013-05-13T17:02:07Z</time>
      </trkpt>
      <trkpt lat="42.92062877677381" lon="-4.041796792298555">
        <ele>1060.47</ele>
        <time>2013-05-13T17:02:21Z</time>
      </trkpt>
      <trkpt lat="42.9202442150563" lon="-4.041714230552316">
        <ele>1062.3900000000001</ele>
        <time>2013-05-13T17:02:23Z</time>
      </trkpt>
      <trkpt lat="42.919904161244631" lon="-4.041671734303236">
        <ele>1064.3199999999999</ele>
        <time>2013-05-13T17:02:58Z</time>
      </trkpt>
      <trkpt lat="42.91953862644732" lon="-4.041626304388046">
        <ele>1066.24</ele>
        <time>2013-05-13T17:03:32Z</time>
      </trkpt>
      <trkpt lat="42.919163452461362" lon="-4.041588753461838">
        <ele>1068.6400000000001</ele>
        <time>2013-05-13T17:04:05Z</time>
      </trkpt>
      <trkpt lat="42.918704375624657" lon="-4.041523709893227">
        <ele>1071.05</ele>
        <time>2013-05-13T17:04:19Z</time>
      </trkpt>
      <trkpt lat="42.918679565191269" lon="-4.041544497013092">
        <ele>1071.53</ele>
        <time>2013-05-13T17:04:22Z</time>
      </trkpt>
      <trkpt lat="42.918676128610969" lon="-4.041515495628119">
        <ele>1071.53</ele>
        <time>2013-05-13T17:04:37Z</time>
      </trkpt>
      <trkpt lat="42.918657939881086" lon="-4.041540557518601">
        <ele>1071.53</ele>
        <time>2013-05-13T17:04:44Z</time>
      </trkpt>
      <trkpt lat="42.918676966801286" lon="-4.041515830904245">
        <ele>1072.49</ele>
        <time>2013-05-13T17:04:45Z</time>
      </trkpt>
      <trkpt lat="42.91867034509778" lon="-4.041512729600072">
        <ele>1072.01</ele>
        <time>2013-05-13T17:04:46Z</time>
      </trkpt>
      <trkpt lat="42.918595327064395" lon="-4.04150677844882">
        <ele>1071.53</ele>
        <time>2013-05-13T17:04:47Z</time>
      </trkpt>
      <trkpt lat="42.918256865814328" lon="-4.041468221694231">
        <ele>1071.05</ele>
        <time>2013-05-13T17:04:48Z</time>
      </trkpt>
      <trkpt lat="42.917752945795655" lon="-4.041411308571696">
        <ele>1070.5699999999999</ele>
        <time>2013-05-13T17:04:49Z</time>
      </trkpt>
      <trkpt lat="42.917623110115528" lon="-4.04139437712729">
        <ele>1070.5699999999999</ele>
        <time>2013-05-13T17:04:50Z</time>
      </trkpt>
      <trkpt lat="42.917384225875139" lon="-4.041448356583715">
        <ele>1069.5999999999999</ele>
        <time>2013-05-13T17:04:51Z</time>
      </trkpt>
      <trkpt lat="42.917182389646769" lon="-4.041558997705579">
        <ele>1069.5999999999999</ele>
        <time>2013-05-13T17:04:52Z</time>
      </trkpt>
      <trkpt lat="42.917135031893849" lon="-4.041604846715927">
        <ele>1069.5999999999999</ele>
        <time>2013-05-13T17:04:53Z</time>
      </trkpt>
      <trkpt lat="42.917091026902199" lon="-4.041657904163003">
        <ele>1069.1199999999999</ele>
        <time>2013-05-13T17:04:54Z</time>
      </trkpt>
      <trkpt lat="42.917054146528244" lon="-4.041718924418092">
        <ele>1069.5999999999999</ele>
        <time>2013-05-13T17:05:05Z</time>
      </trkpt>
      <trkpt lat="42.917022295296192" lon="-4.041786314919591">
        <ele>1069.1199999999999</ele>
        <time>2013-05-13T17:05:17Z</time>
      </trkpt>
      <trkpt lat="42.916997987776995" lon="-4.041857142001391">
        <ele>1069.1199999999999</ele>
        <time>2013-05-13T17:05:18Z</time>
      </trkpt>
      <trkpt lat="42.916975524276495" lon="-4.041929477825761">
        <ele>1068.1600000000001</ele>
        <time>2013-05-13T17:05:19Z</time>
      </trkpt>
      <trkpt lat="42.916954904794693" lon="-4.042001981288195">
        <ele>1068.6400000000001</ele>
        <time>2013-05-13T17:05:30Z</time>
      </trkpt>
      <trkpt lat="42.916940068826079" lon="-4.042077166959643">
        <ele>1068.6400000000001</ele>
        <time>2013-05-13T17:05:42Z</time>
      </trkpt>
      <trkpt lat="42.916929675266147" lon="-4.042152855545282">
        <ele>1068.1600000000001</ele>
        <time>2013-05-13T17:05:47Z</time>
      </trkpt>
      <trkpt lat="42.916740495711565" lon="-4.043423049151897">
        <ele>1066.72</ele>
        <time>2013-05-13T17:05:57Z</time>
      </trkpt>
      <trkpt lat="42.916605798527598" lon="-4.04437012039125">
        <ele>1063.3599999999999</ele>
        <time>2013-05-13T17:05:58Z</time>
      </trkpt>
      <trkpt lat="42.916600434109569" lon="-4.044403564184904">
        <ele>1063.3599999999999</ele>
        <time>2013-05-13T17:06:15Z</time>
      </trkpt>
      <trkpt lat="42.916597668081522" lon="-4.044441031292081">
        <ele>1064.3199999999999</ele>
        <time>2013-05-13T17:06:21Z</time>
      </trkpt>
      <trkpt lat="42.916598254814744" lon="-4.044445557519794">
        <ele>1063.8399999999999</ele>
        <time>2013-05-13T17:06:35Z</time>
      </trkpt>
      <trkpt lat="42.916614348068833" lon="-4.044465506449342">
        <ele>1063.3599999999999</ele>
        <time>2013-05-13T17:06:36Z</time>
      </trkpt>
      <trkpt lat="42.916615186259151" lon="-4.04446785338223">
        <ele>1061.4300000000001</ele>
        <time>2013-05-13T17:06:37Z</time>
      </trkpt>
      <trkpt lat="42.916611079126596" lon="-4.044442623853684">
        <ele>1063.3599999999999</ele>
        <time>2013-05-13T17:06:38Z</time>
      </trkpt>
      <trkpt lat="42.91662247851491" lon="-4.044444048777223">
        <ele>1066.72</ele>
        <time>2013-05-13T17:06:39Z</time>
      </trkpt>
      <trkpt lat="42.916624071076512" lon="-4.04444832354784">
        <ele>1063.3599999999999</ele>
        <time>2013-05-13T17:06:40Z</time>
      </trkpt>
      <trkpt lat="42.916551902890205" lon="-4.044672371819615">
        <ele>1063.8399999999999</ele>
        <time>2013-05-13T17:06:41Z</time>
      </trkpt>
      <trkpt lat="42.916353335604072" lon="-4.044867334887385">
        <ele>1063.3599999999999</ele>
        <time>2013-05-13T17:06:58Z</time>
      </trkpt>
      <trkpt lat="42.916313102468848" lon="-4.044873118400574">
        <ele>1063.3599999999999</ele>
        <time>2013-05-13T17:07:14Z</time>
      </trkpt>
      <trkpt lat="42.91627362370491" lon="-4.044869095087051">
        <ele>1062.8699999999999</ele>
        <time>2013-05-13T17:07:20Z</time>
      </trkpt>
      <trkpt lat="42.91623305529356" lon="-4.044854762032628">
        <ele>1062.8699999999999</ele>
        <time>2013-05-13T17:07:25Z</time>
      </trkpt>
      <trkpt lat="42.916191983968019" lon="-4.044831795617938">
        <ele>1062.8699999999999</ele>
        <time>2013-05-13T17:07:29Z</time>
      </trkpt>
      <trkpt lat="42.916150996461511" lon="-4.044805141165853">
        <ele>1062.3900000000001</ele>
        <time>2013-05-13T17:07:30Z</time>
      </trkpt>
      <trkpt lat="42.916111098602414" lon="-4.044772367924452">
        <ele>1062.3900000000001</ele>
        <time>2013-05-13T17:07:31Z</time>
      </trkpt>
      <trkpt lat="42.916073966771364" lon="-4.044735571369529">
        <ele>1062.3900000000001</ele>
        <time>2013-05-13T17:07:39Z</time>
      </trkpt>
      <trkpt lat="42.91603809222579" lon="-4.044700870290399">
        <ele>1062.8699999999999</ele>
        <time>2013-05-13T17:07:43Z</time>
      </trkpt>
      <trkpt lat="42.916003055870533" lon="-4.044667761772871">
        <ele>1062.3900000000001</ele>
        <time>2013-05-13T17:07:47Z</time>
      </trkpt>
      <trkpt lat="42.915970617905259" lon="-4.044635323807597">
        <ele>1064.3199999999999</ele>
        <time>2013-05-13T17:07:49Z</time>
      </trkpt>
      <trkpt lat="42.915605334565043" lon="-4.044277584180236">
        <ele>1062.8699999999999</ele>
        <time>2013-05-13T17:07:54Z</time>
      </trkpt>
      <trkpt lat="42.915246672928333" lon="-4.043936859816313">
        <ele>1062.8699999999999</ele>
        <time>2013-05-13T17:07:55Z</time>
      </trkpt>
      <trkpt lat="42.915218593552709" lon="-4.043913725763559">
        <ele>1056.6300000000001</ele>
        <time>2013-05-13T17:07:56Z</time>
      </trkpt>
      <trkpt lat="42.91518934071064" lon="-4.043890172615647">
        <ele>1063.3599999999999</ele>
        <time>2013-05-13T17:07:59Z</time>
      </trkpt>
      <trkpt lat="42.914847526699305" lon="-4.043632512912154">
        <ele>1062.3900000000001</ele>
        <time>2013-05-13T17:08:02Z</time>
      </trkpt>
      <trkpt lat="42.914422564208508" lon="-4.043301679193974">
        <ele>1061.9100000000001</ele>
        <time>2013-05-13T17:08:07Z</time>
      </trkpt>
      <trkpt lat="42.914243107661605" lon="-4.04314024373889">
        <ele>1061.4300000000001</ele>
        <time>2013-05-13T17:08:10Z</time>
      </trkpt>
      <trkpt lat="42.913904981687665" lon="-4.042863557115197">
        <ele>1057.5899999999999</ele>
        <time>2013-05-13T17:08:14Z</time>
      </trkpt>
      <trkpt lat="42.913871789351106" lon="-4.04284025542438">
        <ele>1061.9100000000001</ele>
        <time>2013-05-13T17:08:15Z</time>
      </trkpt>
      <trkpt lat="42.913245242089033" lon="-4.042452340945602">
        <ele>1060.47</ele>
        <time>2013-05-13T17:08:20Z</time>
      </trkpt>
      <trkpt lat="42.912962520495057" lon="-4.04227145947516">
        <ele>1059.51</ele>
        <time>2013-05-13T17:08:25Z</time>
      </trkpt>
      <trkpt lat="42.912207813933492" lon="-4.041897961869836">
        <ele>1059.99</ele>
        <time>2013-05-13T17:08:31Z</time>
      </trkpt>
      <trkpt lat="42.91215249337256" lon="-4.041898213326931">
        <ele>1059.99</ele>
        <time>2013-05-13T17:08:33Z</time>
      </trkpt>
      <trkpt lat="42.912098597735167" lon="-4.041906511411071">
        <ele>1059.51</ele>
        <time>2013-05-13T17:08:37Z</time>
      </trkpt>
      <trkpt lat="42.912049060687423" lon="-4.041922185570002">
        <ele>1059.99</ele>
        <time>2013-05-13T17:08:42Z</time>
      </trkpt>
      <trkpt lat="42.912001200020313" lon="-4.041945151984692">
        <ele>1059.99</ele>
        <time>2013-05-13T17:08:48Z</time>
      </trkpt>
      <trkpt lat="42.911955686286092" lon="-4.041976081207395">
        <ele>1060.47</ele>
        <time>2013-05-13T17:08:53Z</time>
      </trkpt>
      <trkpt lat="42.9119121003896" lon="-4.042009776458144">
        <ele>1060.47</ele>
        <time>2013-05-13T17:08:54Z</time>
      </trkpt>
      <trkpt lat="42.911210283637047" lon="-4.042520737275481">
        <ele>1061.4300000000001</ele>
        <time>2013-05-13T17:08:59Z</time>
      </trkpt>
      <trkpt lat="42.910606116056442" lon="-4.043306289240718">
        <ele>1059.51</ele>
        <time>2013-05-13T17:09:04Z</time>
      </trkpt>
      <trkpt lat="42.910316186025739" lon="-4.043745752424002">
        <ele>1058.0699999999999</ele>
        <time>2013-05-13T17:09:09Z</time>
      </trkpt>
      <trkpt lat="42.910048216581345" lon="-4.044169541448355">
        <ele>1055.6700000000001</ele>
        <time>2013-05-13T17:09:23Z</time>
      </trkpt>
      <trkpt lat="42.909815367311239" lon="-4.044496519491077">
        <ele>1054.22</ele>
        <time>2013-05-13T17:09:32Z</time>
      </trkpt>
      <trkpt lat="42.909747892990708" lon="-4.044555779546499">
        <ele>1054.22</ele>
        <time>2013-05-13T17:09:37Z</time>
      </trkpt>
      <trkpt lat="42.909677317366004" lon="-4.044608501717448">
        <ele>1054.22</ele>
        <time>2013-05-13T17:09:41Z</time>
      </trkpt>
      <trkpt lat="42.909010285511613" lon="-4.045023741200566">
        <ele>1050.8599999999999</ele>
        <time>2013-05-13T17:09:42Z</time>
      </trkpt>
      <trkpt lat="42.908622873947024" lon="-4.045274360105395">
        <ele>1047.01</ele>
        <time>2013-05-13T17:09:51Z</time>
      </trkpt>
      <trkpt lat="42.908226577565074" lon="-4.045577952638269">
        <ele>1045.5699999999999</ele>
        <time>2013-05-13T17:09:52Z</time>
      </trkpt>
      <trkpt lat="42.908034883439541" lon="-4.04576319269836">
        <ele>1043.6500000000001</ele>
        <time>2013-05-13T17:09:53Z</time>
      </trkpt>
      <trkpt lat="42.907624589279294" lon="-4.046369288116694">
        <ele>1040.28</ele>
        <time>2013-05-13T17:09:54Z</time>
      </trkpt>
      <trkpt lat="42.907561305910349" lon="-4.046509098261595">
        <ele>1039.8</ele>
        <time>2013-05-13T17:09:55Z</time>
      </trkpt>
      <trkpt lat="42.907508164644241" lon="-4.046654021367431">
        <ele>1038.8399999999999</ele>
        <time>2013-05-13T17:09:56Z</time>
      </trkpt>
      <trkpt lat="42.907379418611526" lon="-4.047109074890614">
        <ele>1037.4000000000001</ele>
        <time>2013-05-13T17:09:57Z</time>
      </trkpt>
      <trkpt lat="42.907277243211865" lon="-4.047568570822477">
        <ele>1035.96</ele>
        <time>2013-05-13T17:09:58Z</time>
      </trkpt>
      <trkpt lat="42.907179091125727" lon="-4.048330653458834">
        <ele>1033.0699999999999</ele>
        <time>2013-05-13T17:09:59Z</time>
      </trkpt>
      <trkpt lat="42.907148664817214" lon="-4.048793837428093">
        <ele>1031.1500000000001</ele>
        <time>2013-05-13T17:10:06Z</time>
      </trkpt>
      <trkpt lat="42.907109018415213" lon="-4.049405129626393">
        <ele>1027.3099999999999</ele>
        <time>2013-05-13T17:10:15Z</time>
      </trkpt>
      <trkpt lat="42.90709912776947" lon="-4.049555836245418">
        <ele>1028.27</ele>
        <time>2013-05-13T17:10:17Z</time>
      </trkpt>
      <trkpt lat="42.907027211040258" lon="-4.050285648554564">
        <ele>1025.8599999999999</ele>
        <time>2013-05-13T17:10:29Z</time>
      </trkpt>
      <trkpt lat="42.906851274892688" lon="-4.050989141687751">
        <ele>1022.98</ele>
        <time>2013-05-13T17:10:45Z</time>
      </trkpt>
      <trkpt lat="42.906608702614903" lon="-4.051832696422935">
        <ele>1019.62</ele>
        <time>2013-05-13T17:11:05Z</time>
      </trkpt>
      <trkpt lat="42.906526559963822" lon="-4.052108377218247">
        <ele>1018.65</ele>
        <time>2013-05-13T17:11:22Z</time>
      </trkpt>
      <trkpt lat="42.906372416764498" lon="-4.052651692181826">
        <ele>1016.73</ele>
        <time>2013-05-13T17:11:27Z</time>
      </trkpt>
      <trkpt lat="42.906224057078362" lon="-4.053322495892644">
        <ele>1015.29</ele>
        <time>2013-05-13T17:11:28Z</time>
      </trkpt>
      <trkpt lat="42.906130515038967" lon="-4.054149705916643">
        <ele>1011.9299999999999</ele>
        <time>2013-05-13T17:11:29Z</time>
      </trkpt>
      <trkpt lat="42.906118864193559" lon="-4.054879434406757">
        <ele>1009.04</ele>
        <time>2013-05-13T17:11:41Z</time>
      </trkpt>
      <trkpt lat="42.906121630221605" lon="-4.05502762645483">
        <ele>1009.04</ele>
        <time>2013-05-13T17:11:57Z</time>
      </trkpt>
      <trkpt lat="42.906160019338131" lon="-4.055777890607715">
        <ele>1006.64</ele>
        <time>2013-05-13T17:12:03Z</time>
      </trkpt>
      <trkpt lat="42.906221710145473" lon="-4.056522622704506">
        <ele>1003.75</ele>
        <time>2013-05-13T17:12:04Z</time>
      </trkpt>
      <trkpt lat="42.906277030706406" lon="-4.057243131101131">
        <ele>1001.35</ele>
        <time>2013-05-13T17:12:05Z</time>
      </trkpt>
      <trkpt lat="42.90644190274179" lon="-4.058937197551131">
        <ele>1000.39</ele>
        <time>2013-05-13T17:12:06Z</time>
      </trkpt>
      <trkpt lat="42.90663200430572" lon="-4.059853339567781">
        <ele>997.01999999999998</ele>
        <time>2013-05-13T17:12:07Z</time>
      </trkpt>
      <trkpt lat="42.90684599429369" lon="-4.060451220721006">
        <ele>993.65999999999997</ele>
        <time>2013-05-13T17:12:11Z</time>
      </trkpt>
      <trkpt lat="42.90708496235311" lon="-4.060891270637512">
        <ele>990.29999999999995</ele>
        <time>2013-05-13T17:12:12Z</time>
      </trkpt>
      <trkpt lat="42.907149335369468" lon="-4.060993529856205">
        <ele>990.29999999999995</ele>
        <time>2013-05-13T17:12:13Z</time>
      </trkpt>
      <trkpt lat="42.907745288684964" lon="-4.06175946816802">
        <ele>987.88999999999999</ele>
        <time>2013-05-13T17:12:14Z</time>
      </trkpt>
      <trkpt lat="42.907804381102324" lon="-4.061839180067182">
        <ele>986.92999999999995</ele>
        <time>2013-05-13T17:12:15Z</time>
      </trkpt>
      <trkpt lat="42.907855678349733" lon="-4.061925429850817">
        <ele>986.92999999999995</ele>
        <time>2013-05-13T17:12:16Z</time>
      </trkpt>
      <trkpt lat="42.907896749675274" lon="-4.06201746314764">
        <ele>985.49000000000001</ele>
        <time>2013-05-13T17:12:17Z</time>
      </trkpt>
      <trkpt lat="42.907924326136708" lon="-4.062116872519255">
        <ele>985.49000000000001</ele>
        <time>2013-05-13T17:12:18Z</time>
      </trkpt>
      <trkpt lat="42.90793564170599" lon="-4.062219969928265">
        <ele>985.49000000000001</ele>
        <time>2013-05-13T17:12:19Z</time>
      </trkpt>
      <trkpt lat="42.907932540401816" lon="-4.062321642413735">
        <ele>985.97000000000003</ele>
        <time>2013-05-13T17:12:22Z</time>
      </trkpt>
      <trkpt lat="42.907919296994805" lon="-4.062414430081844">
        <ele>986.45000000000005</ele>
        <time>2013-05-13T17:12:23Z</time>
      </trkpt>
      <trkpt lat="42.907902700826526" lon="-4.062502272427082">
        <ele>985.49000000000001</ele>
        <time>2013-05-13T17:12:24Z</time>
      </trkpt>
      <trkpt lat="42.907772865146399" lon="-4.06305187381804">
        <ele>985.49000000000001</ele>
        <time>2013-05-13T17:12:25Z</time>
      </trkpt>
      <trkpt lat="42.907627774402499" lon="-4.063673559576273">
        <ele>986.45000000000005</ele>
        <time>2013-05-13T17:12:26Z</time>
      </trkpt>
      <trkpt lat="42.907601958140731" lon="-4.06378386542201">
        <ele>986.45000000000005</ele>
        <time>2013-05-13T17:12:27Z</time>
      </trkpt>
      <trkpt lat="42.907557869330049" lon="-4.064245373010635">
        <ele>987.40999999999997</ele>
        <time>2013-05-13T17:12:28Z</time>
      </trkpt>
      <trkpt lat="42.907662391662598" lon="-4.06477184034884">
        <ele>989.33000000000004</ele>
        <time>2013-05-13T17:12:29Z</time>
      </trkpt>
      <trkpt lat="42.907854337245226" lon="-4.065480614081025">
        <ele>992.22000000000003</ele>
        <time>2013-05-13T17:12:30Z</time>
      </trkpt>
      <trkpt lat="42.907903371378779" lon="-4.066159129142761">
        <ele>990.29999999999995</ele>
        <time>2013-05-13T17:12:32Z</time>
      </trkpt>
      <trkpt lat="42.907904963940382" lon="-4.066423662006855">
        <ele>989.33000000000004</ele>
        <time>2013-05-13T17:12:37Z</time>
      </trkpt>
      <trkpt lat="42.907923823222518" lon="-4.066489124670625">
        <ele>988.85000000000002</ele>
        <time>2013-05-13T17:12:38Z</time>
      </trkpt>
      <trkpt lat="42.907950393855572" lon="-4.066555509343743">
        <ele>989.33000000000004</ele>
        <time>2013-05-13T17:12:39Z</time>
      </trkpt>
      <trkpt lat="42.90838030166924" lon="-4.067346006631851">
        <ele>985.97000000000003</ele>
        <time>2013-05-13T17:12:52Z</time>
      </trkpt>
      <trkpt lat="42.908851532265544" lon="-4.068245133385062">
        <ele>984.04999999999995</ele>
        <time>2013-05-13T17:12:56Z</time>
      </trkpt>
      <trkpt lat="42.908963682129979" lon="-4.06856800429523">
        <ele>983.57000000000005</ele>
        <time>2013-05-13T17:13:06Z</time>
      </trkpt>
      <trkpt lat="42.908991342410445" lon="-4.068615613505244">
        <ele>983.57000000000005</ele>
        <time>2013-05-13T17:13:17Z</time>
      </trkpt>
      <trkpt lat="42.909018667414784" lon="-4.068660205230117">
        <ele>983.57000000000005</ele>
        <time>2013-05-13T17:13:18Z</time>
      </trkpt>
      <trkpt lat="42.909043813124299" lon="-4.068707060068846">
        <ele>983.09000000000003</ele>
        <time>2013-05-13T17:13:22Z</time>
      </trkpt>
      <trkpt lat="42.909067198634148" lon="-4.068755507469177">
        <ele>982.12</ele>
        <time>2013-05-13T17:13:23Z</time>
      </trkpt>
      <trkpt lat="42.909139199182391" lon="-4.068976789712906">
        <ele>983.09000000000003</ele>
        <time>2013-05-13T17:13:36Z</time>
      </trkpt>
      <trkpt lat="42.909150347113609" lon="-4.0690409950912">
        <ele>982.12</ele>
        <time>2013-05-13T17:13:39Z</time>
      </trkpt>
      <trkpt lat="42.90915722027421" lon="-4.069106206297875">
        <ele>982.60000000000002</ele>
        <time>2013-05-13T17:13:40Z</time>
      </trkpt>
      <trkpt lat="42.909157974645495" lon="-4.069171920418739">
        <ele>981.63999999999999</ele>
        <time>2013-05-13T17:13:45Z</time>
      </trkpt>
      <trkpt lat="42.909151185303926" lon="-4.069236377254129">
        <ele>982.12</ele>
        <time>2013-05-13T17:13:55Z</time>
      </trkpt>
      <trkpt lat="42.909136181697249" lon="-4.069296978414059">
        <ele>982.12</ele>
        <time>2013-05-13T17:14:05Z</time>
      </trkpt>
      <trkpt lat="42.909113382920623" lon="-4.069354562088847">
        <ele>982.12</ele>
        <time>2013-05-13T17:14:07Z</time>
      </trkpt>
      <trkpt lat="42.909087650477886" lon="-4.069410050287843">
        <ele>981.63999999999999</ele>
        <time>2013-05-13T17:14:08Z</time>
      </trkpt>
      <trkpt lat="42.909056469798088" lon="-4.069462940096855">
        <ele>982.60000000000002</ele>
        <time>2013-05-13T17:14:09Z</time>
      </trkpt>
      <trkpt lat="42.908946918323636" lon="-4.069618592038751">
        <ele>981.15999999999997</ele>
        <time>2013-05-13T17:14:16Z</time>
      </trkpt>
      <trkpt lat="42.908913725987077" lon="-4.069678774103522">
        <ele>981.15999999999997</ele>
      </trkpt>
      <trkpt lat="42.908884892240167" lon="-4.069746499881148">
        <ele>981.15999999999997</ele>
      </trkpt>
      <trkpt lat="42.908863099291921" lon="-4.069820009171963">
        <ele>980.67999999999995</ele>
      </trkpt>
      <trkpt lat="42.908852370455861" lon="-4.069899888709188">
        <ele>981.15999999999997</ele>
      </trkpt>
      <trkpt lat="42.908851196989417" lon="-4.069982366636396">
        <ele>981.15999999999997</ele>
      </trkpt>
      <trkpt lat="42.908858824521303" lon="-4.070067442953587">
        <ele>980.67999999999995</ele>
      </trkpt>
      <trkpt lat="42.908871984109282" lon="-4.070152351632714">
        <ele>981.15999999999997</ele>
      </trkpt>
      <trkpt lat="42.908888664096594" lon="-4.070237511768937">
        <ele>980.67999999999995</ele>
      </trkpt>
      <trkpt lat="42.908920766785741" lon="-4.070408418774605">
        <ele>979.72000000000003</ele>
      </trkpt>
      <trkpt lat="42.909050015732646" lon="-4.070822317153215">
        <ele>979.24000000000001</ele>
      </trkpt>
      <trkpt lat="42.909092595800757" lon="-4.070894988253713">
        <ele>978.27999999999997</ele>
      </trkpt>
      <trkpt lat="42.909139785915613" lon="-4.070961624383926">
        <ele>978.75999999999999</ele>
      </trkpt>
      <trkpt lat="42.90976507589221" lon="-4.071580376476049">
        <ele>977.79999999999995</ele>
      </trkpt>
      <trkpt lat="42.909918883815408" lon="-4.071770394220948">
        <ele>977.32000000000005</ele>
      </trkpt>
      <trkpt lat="42.910243095830083" lon="-4.072397528216243">
        <ele>974.42999999999995</ele>
      </trkpt>
      <trkpt lat="42.910542916506529" lon="-4.073147960007191">
        <ele>972.50999999999999</ele>
      </trkpt>
      <trkpt lat="42.91055372916162" lon="-4.073213757947087">
        <ele>973.47000000000003</ele>
      </trkpt>
      <trkpt lat="42.910573929548264" lon="-4.073451720178127">
        <ele>972.50999999999999</ele>
      </trkpt>
      <trkpt lat="42.910572588443756" lon="-4.073507376015186">
        <ele>972.99000000000001</ele>
      </trkpt>
      <trkpt lat="42.910497989505529" lon="-4.074220759794116">
        <ele>970.11000000000001</ele>
      </trkpt>
      <trkpt lat="42.910455660894513" lon="-4.074403066188097">
        <ele>968.66999999999996</ele>
      </trkpt>
      <trkpt lat="42.910433197394013" lon="-4.074465846642852">
        <ele>968.66999999999996</ele>
      </trkpt>
      <trkpt lat="42.910290118306875" lon="-4.074748903512955">
        <ele>965.77999999999997</ele>
      </trkpt>
      <trkpt lat="42.910170508548617" lon="-4.075022656470537">
        <ele>964.34000000000003</ele>
      </trkpt>
      <trkpt lat="42.91018140502274" lon="-4.075488187372685">
        <ele>962.41999999999996</ele>
      </trkpt>
      <trkpt lat="42.910154918208718" lon="-4.075607880949974">
        <ele>961.94000000000005</ele>
      </trkpt>
      <trkpt lat="42.910129856318235" lon="-4.075660267844796">
        <ele>960.98000000000002</ele>
      </trkpt>
      <trkpt lat="42.91009834036231" lon="-4.075696896761656">
        <ele>960.98000000000002</ele>
      </trkpt>
      <trkpt lat="42.90975971147418" lon="-4.075981797650456">
        <ele>957.61000000000001</ele>
      </trkpt>
      <trkpt lat="42.909448239952326" lon="-4.076348254457116">
        <ele>950.8125</ele>
      </trkpt>
      <trkpt lat="42.909448239952326" lon="-4.076315062120557">
        <ele>950.73828125</ele>
      </trkpt>
      <trkpt lat="42.909151772037148" lon="-4.076729966327548">
        <ele>950.328125</ele>
      </trkpt>
      <trkpt lat="42.909138277173042" lon="-4.076696773990989">
        <ele>950.125</ele>
      </trkpt>
      <trkpt lat="42.909003579989076" lon="-4.077194659039378">
        <ele>950.54296875</ele>
      </trkpt>
      <trkpt lat="42.909003579989076" lon="-4.077178062871099">
        <ele>950.53125</ele>
      </trkpt>
      <trkpt lat="42.909178761765361" lon="-4.07804106362164">
        <ele>951.07421875</ele>
      </trkpt>
      <trkpt lat="42.909165266901255" lon="-4.078024467453361">
        <ele>951.05859375</ele>
      </trkpt>
      <trkpt lat="42.908868798986077" lon="-4.079368757084012">
        <ele>943.078125</ele>
      </trkpt>
      <trkpt lat="42.908882293850183" lon="-4.079368757084012">
        <ele>943.23828125</ele>
      </trkpt>
      <trkpt lat="42.909151772037148" lon="-4.079584507271648">
        <ele>946.34375</ele>
      </trkpt>
      <trkpt lat="42.909151772037148" lon="-4.079567911103368">
        <ele>946.328125</ele>
      </trkpt>
      <trkpt lat="42.910081576555967" lon="-4.079020237550139">
        <ele>955.39453125</ele>
      </trkpt>
      <trkpt lat="42.910094987601042" lon="-4.079020237550139">
        <ele>955.55078125</ele>
      </trkpt>
      <trkpt lat="42.909973785281181" lon="-4.078555544838309">
        <ele>955.54296875</ele>
      </trkpt>
      <trkpt lat="42.909151436761022" lon="-4.077441338449717">
        <ele>948.96000000000004</ele>
        <time>2014-05-25T08:13:31Z</time>
      </trkpt>
      <trkpt lat="42.909145150333643" lon="-4.077452151104808">
        <ele>948.96000000000004</ele>
        <time>2014-05-25T08:13:32Z</time>
      </trkpt>
      <trkpt lat="42.909171720966697" lon="-4.077437818050385">
        <ele>942.23000000000002</ele>
        <time>2014-05-25T08:13:35Z</time>
      </trkpt>
      <trkpt lat="42.9091767501086" lon="-4.077431447803974">
        <ele>942.23000000000002</ele>
        <time>2014-05-25T08:13:36Z</time>
      </trkpt>
      <trkpt lat="42.909197704866529" lon="-4.077413678169251">
        <ele>941.75</ele>
        <time>2014-05-25T08:13:53Z</time>
      </trkpt>
      <trkpt lat="42.909409180283546" lon="-4.077363135293126">
        <ele>943.66999999999996</ele>
        <time>2014-05-25T08:14:04Z</time>
      </trkpt>
      <trkpt lat="42.909581512212753" lon="-4.077391549944878">
        <ele>945.59000000000003</ele>
        <time>2014-05-25T08:14:10Z</time>
      </trkpt>
      <trkpt lat="42.909610932692885" lon="-4.077428178861737">
        <ele>945.59000000000003</ele>
        <time>2014-05-25T08:14:11Z</time>
      </trkpt>
      <trkpt lat="42.909635324031115" lon="-4.077469417825341">
        <ele>946.07000000000005</ele>
        <time>2014-05-25T08:14:12Z</time>
      </trkpt>
      <trkpt lat="42.909656530246139" lon="-4.07751576974988">
        <ele>946.07000000000005</ele>
        <time>2014-05-25T08:14:13Z</time>
      </trkpt>
      <trkpt lat="42.90967614389956" lon="-4.077566731721163">
        <ele>946.07000000000005</ele>
        <time>2014-05-25T08:14:14Z</time>
      </trkpt>
      <trkpt lat="42.909694500267506" lon="-4.077620375901461">
        <ele>945.59000000000003</ele>
        <time>2014-05-25T08:14:15Z</time>
      </trkpt>
      <trkpt lat="42.909711599349976" lon="-4.077672511339188">
        <ele>946.07000000000005</ele>
        <time>2014-05-25T08:14:16Z</time>
      </trkpt>
      <trkpt lat="42.909962218254805" lon="-4.07800829038024">
        <ele>947.51999999999998</ele>
        <time>2014-05-25T08:14:26Z</time>
      </trkpt>
      <trkpt lat="42.910123066976666" lon="-4.078153548762202">
        <ele>947.03999999999996</ele>
        <time>2014-05-25T08:14:32Z</time>
      </trkpt>
      <trkpt lat="42.910141674801707" lon="-4.078196212649345">
        <ele>946.55999999999995</ele>
        <time>2014-05-25T08:14:33Z</time>
      </trkpt>
      <trkpt lat="42.910156175494194" lon="-4.078241474926472">
        <ele>946.55999999999995</ele>
        <time>2014-05-25T08:14:34Z</time>
      </trkpt>
      <trkpt lat="42.910234965384007" lon="-4.07887221314013">
        <ele>946.07000000000005</ele>
        <time>2014-05-25T08:14:48Z</time>
      </trkpt>
      <trkpt lat="42.910231277346611" lon="-4.078879086300731">
        <ele>946.07000000000005</ele>
        <time>2014-05-25T08:15:05Z</time>
      </trkpt>
      <trkpt lat="42.910235803574324" lon="-4.078881097957492">
        <ele>946.55999999999995</ele>
        <time>2014-05-25T08:15:44Z</time>
      </trkpt>
      <trkpt lat="42.910262374207377" lon="-4.078865926712751">
        <ele>947.03999999999996</ele>
        <time>2014-05-25T08:16:12Z</time>
      </trkpt>
      <trkpt lat="42.910259272903204" lon="-4.078873638063669">
        <ele>946.07000000000005</ele>
        <time>2014-05-25T08:16:13Z</time>
      </trkpt>
      <trkpt lat="42.910251896828413" lon="-4.078887468203902">
        <ele>946.55999999999995</ele>
        <time>2014-05-25T08:16:14Z</time>
      </trkpt>
      <trkpt lat="42.910186937078834" lon="-4.078947314992547">
        <ele>945.59000000000003</ele>
        <time>2014-05-25T08:16:24Z</time>
      </trkpt>
      <trkpt lat="42.910094987601042" lon="-4.079013867303729">
        <ele>943.66999999999996</ele>
        <time>2014-05-25T08:16:27Z</time>
      </trkpt>
      <trkpt lat="42.909900275990367" lon="-4.079145966097713">
        <ele>939.35000000000002</ele>
        <time>2014-05-25T08:16:31Z</time>
      </trkpt>
      <trkpt lat="42.909463746473193" lon="-4.079436231404543">
        <ele>935.5</ele>
        <time>2014-05-25T08:16:37Z</time>
      </trkpt>
      <trkpt lat="42.909244224429131" lon="-4.079582998529077">
        <ele>933.58000000000004</ele>
        <time>2014-05-25T08:16:40Z</time>
      </trkpt>
      <trkpt lat="42.909170212224126" lon="-4.079598085954785">
        <ele>932.62</ele>
        <time>2014-05-25T08:16:41Z</time>
      </trkpt>
      <trkpt lat="42.90909955278039" lon="-4.079590039327741">
        <ele>932.13999999999999</ele>
        <time>2014-05-25T08:16:42Z</time>
      </trkpt>
      <trkpt lat="42.909032413735986" lon="-4.079565647989512">
        <ele>931.64999999999998</ele>
        <time>2014-05-25T08:16:43Z</time>
      </trkpt>
      <trkpt lat="42.908974746242166" lon="-4.079533042386174">
        <ele>931.64999999999998</ele>
        <time>2014-05-25T08:16:44Z</time>
      </trkpt>
      <trkpt lat="42.908921940252185" lon="-4.079507980495691">
        <ele>931.64999999999998</ele>
        <time>2014-05-25T08:16:45Z</time>
      </trkpt>
      <trkpt lat="42.908874247223139" lon="-4.079500436782837">
        <ele>932.13999999999999</ele>
        <time>2014-05-25T08:16:46Z</time>
      </trkpt>
      <trkpt lat="42.908831834793091" lon="-4.079517619684339">
        <ele>932.62</ele>
        <time>2014-05-25T08:16:47Z</time>
      </trkpt>
      <trkpt lat="42.908798474818468" lon="-4.079557098448277">
        <ele>932.13999999999999</ele>
        <time>2014-05-25T08:16:48Z</time>
      </trkpt>
      <trkpt lat="42.908769808709621" lon="-4.079608144238591">
        <ele>932.13999999999999</ele>
        <time>2014-05-25T08:16:49Z</time>
      </trkpt>
      <trkpt lat="42.908746590837836" lon="-4.079663380980492">
        <ele>931.64999999999998</ele>
        <time>2014-05-25T08:16:50Z</time>
      </trkpt>
      <trkpt lat="42.908724965527654" lon="-4.079717779532075">
        <ele>931.64999999999998</ele>
        <time>2014-05-25T08:16:51Z</time>
      </trkpt>
      <trkpt lat="42.90870082564652" lon="-4.079768909141421">
        <ele>932.13999999999999</ele>
        <time>2014-05-25T08:16:52Z</time>
      </trkpt>
      <trkpt lat="42.908675679937005" lon="-4.07981869764626">
        <ele>932.13999999999999</ele>
        <time>2014-05-25T08:16:53Z</time>
      </trkpt>
      <trkpt lat="42.908595046028495" lon="-4.079963117837906">
        <ele>932.13999999999999</ele>
        <time>2014-05-25T08:16:56Z</time>
      </trkpt>
      <trkpt lat="42.90856453590095" lon="-4.080010307952762">
        <ele>932.13999999999999</ele>
        <time>2014-05-25T08:16:57Z</time>
      </trkpt>
      <trkpt lat="42.908529918640852" lon="-4.08005615696311">
        <ele>932.62</ele>
        <time>2014-05-25T08:16:58Z</time>
      </trkpt>
      <trkpt lat="42.907837405800819" lon="-4.080479945987463">
        <ele>930.21000000000004</ele>
        <time>2014-05-25T08:17:12Z</time>
      </trkpt>
      <trkpt lat="42.907548816874623" lon="-4.080687733367086">
        <ele>928.28999999999996</ele>
        <time>2014-05-25T08:17:17Z</time>
      </trkpt>
      <trkpt lat="42.907499028369784" lon="-4.080758728086948">
        <ele>927.80999999999995</ele>
        <time>2014-05-25T08:17:18Z</time>
      </trkpt>
      <trkpt lat="42.907246984541416" lon="-4.081172458827496">
        <ele>924.45000000000005</ele>
        <time>2014-05-25T08:17:23Z</time>
      </trkpt>
      <trkpt lat="42.906985217705369" lon="-4.081506980583072">
        <ele>921.55999999999995</ele>
        <time>2014-05-25T08:17:27Z</time>
      </trkpt>
      <trkpt lat="42.906555728986859" lon="-4.081852817907929">
        <ele>917.24000000000001</ele>
        <time>2014-05-25T08:17:32Z</time>
      </trkpt>
      <trkpt lat="42.906458415091038" lon="-4.081912832334638">
        <ele>917.24000000000001</ele>
        <time>2014-05-25T08:17:33Z</time>
      </trkpt>
      <trkpt lat="42.906085168942809" lon="-4.082239558920264">
        <ele>914.35000000000002</ele>
        <time>2014-05-25T08:17:37Z</time>
      </trkpt>
      <trkpt lat="42.905764309689403" lon="-4.082710286602378">
        <ele>910.50999999999999</ele>
        <time>2014-05-25T08:17:41Z</time>
      </trkpt>
      <trkpt lat="42.905571023002267" lon="-4.083142457529903">
        <ele>906.17999999999995</ele>
        <time>2014-05-25T08:17:44Z</time>
      </trkpt>
      <trkpt lat="42.905388968065381" lon="-4.083610251545906">
        <ele>901.85000000000002</ele>
        <time>2014-05-25T08:17:47Z</time>
      </trkpt>
      <trkpt lat="42.905249241739511" lon="-4.084122553467751">
        <ele>897.52999999999997</ele>
        <time>2014-05-25T08:17:50Z</time>
      </trkpt>
      <trkpt lat="42.905115634202957" lon="-4.084575595334172">
        <ele>896.09000000000003</ele>
        <time>2014-05-25T08:17:53Z</time>
      </trkpt>
      <trkpt lat="42.905060397461057" lon="-4.084688918665052">
        <ele>896.57000000000005</ele>
        <time>2014-05-25T08:17:54Z</time>
      </trkpt>
      <trkpt lat="42.90500046685338" lon="-4.084780365228653">
        <ele>897.52999999999997</ele>
        <time>2014-05-25T08:17:55Z</time>
      </trkpt>
      <trkpt lat="42.904942631721497" lon="-4.08485890366137">
        <ele>897.52999999999997</ele>
        <time>2014-05-25T08:17:56Z</time>
      </trkpt>
      <trkpt lat="42.904666950926185" lon="-4.085172051563859">
        <ele>898.00999999999999</ele>
        <time>2014-05-25T08:18:02Z</time>
      </trkpt>
      <trkpt lat="42.904628813266754" lon="-4.085200550034642">
        <ele>898.49000000000001</ele>
        <time>2014-05-25T08:18:03Z</time>
      </trkpt>
      <trkpt lat="42.904595704749227" lon="-4.085220163688064">
        <ele>898.49000000000001</ele>
        <time>2014-05-25T08:18:04Z</time>
      </trkpt>
      <trkpt lat="42.904566619545221" lon="-4.085227455943823">
        <ele>899.45000000000005</ele>
        <time>2014-05-25T08:18:05Z</time>
      </trkpt>
      <trkpt lat="42.904542898759246" lon="-4.085219241678715">
        <ele>899.45000000000005</ele>
        <time>2014-05-25T08:18:06Z</time>
      </trkpt>
      <trkpt lat="42.90452940389514" lon="-4.085199544206262">
        <ele>899.45000000000005</ele>
        <time>2014-05-25T08:18:07Z</time>
      </trkpt>
      <trkpt lat="42.904519848525524" lon="-4.085175907239318">
        <ele>898.97000000000003</ele>
        <time>2014-05-25T08:18:08Z</time>
      </trkpt>
      <trkpt lat="42.904510209336877" lon="-4.085153192281723">
        <ele>898.49000000000001</ele>
        <time>2014-05-25T08:18:09Z</time>
      </trkpt>
      <trkpt lat="42.904500402510166" lon="-4.085128968581557">
        <ele>898.49000000000001</ele>
        <time>2014-05-25T08:18:10Z</time>
      </trkpt>
      <trkpt lat="42.904490511864424" lon="-4.085105750709772">
        <ele>898.49000000000001</ele>
        <time>2014-05-25T08:18:11Z</time>
      </trkpt>
      <trkpt lat="42.90448104031384" lon="-4.085080185905099">
        <ele>898.97000000000003</ele>
        <time>2014-05-25T08:18:12Z</time>
      </trkpt>
      <trkpt lat="42.904470982030034" lon="-4.085053196176887">
        <ele>898.97000000000003</ele>
        <time>2014-05-25T08:18:13Z</time>
      </trkpt>
      <trkpt lat="42.90443460457027" lon="-4.08491070382297">
        <ele>898.49000000000001</ele>
        <time>2014-05-25T08:18:23Z</time>
      </trkpt>
      <trkpt lat="42.904260847717524" lon="-4.084400497376919">
        <ele>897.04999999999995</ele>
        <time>2014-05-25T08:18:35Z</time>
      </trkpt>
      <trkpt lat="42.904244419187307" lon="-4.084350960329175">
        <ele>896.57000000000005</ele>
        <time>2014-05-25T08:18:36Z</time>
      </trkpt>
      <trkpt lat="42.904226733371615" lon="-4.084299160167575">
        <ele>896.09000000000003</ele>
        <time>2014-05-25T08:18:37Z</time>
      </trkpt>
      <trkpt lat="42.903901096433401" lon="-4.083442026749253">
        <ele>893.20000000000005</ele>
        <time>2014-05-25T08:18:51Z</time>
      </trkpt>
      <trkpt lat="42.903743097558618" lon="-4.08309786580503">
        <ele>892.24000000000001</ele>
        <time>2014-05-25T08:18:56Z</time>
      </trkpt>
      <trkpt lat="42.903111940249801" lon="-4.082282893359661">
        <ele>888.88</ele>
        <time>2014-05-25T08:19:09Z</time>
      </trkpt>
      <trkpt lat="42.902343906462193" lon="-4.081403715535998">
        <ele>885.50999999999999</ele>
        <time>2014-05-25T08:19:23Z</time>
      </trkpt>
      <trkpt lat="42.901714090257883" lon="-4.080421691760421">
        <ele>881.66999999999996</ele>
        <time>2014-05-25T08:19:36Z</time>
      </trkpt>
      <trkpt lat="42.900864165276289" lon="-4.079626584425569">
        <ele>878.29999999999995</ele>
        <time>2014-05-25T08:19:50Z</time>
      </trkpt>
      <trkpt lat="42.899684244766831" lon="-4.079034570604563">
        <ele>875.89999999999998</ele>
        <time>2014-05-25T08:20:07Z</time>
      </trkpt>
      <trkpt lat="42.899035066366196" lon="-4.078720165416598">
        <ele>872.52999999999997</ele>
        <time>2014-05-25T08:20:16Z</time>
      </trkpt>
      <trkpt lat="42.898302152752876" lon="-4.078364185988903">
        <ele>869.16999999999996</ele>
        <time>2014-05-25T08:20:26Z</time>
      </trkpt>
      <trkpt lat="42.898228392004967" lon="-4.078330574557185">
        <ele>869.16999999999996</ele>
        <time>2014-05-25T08:20:27Z</time>
      </trkpt>
      <trkpt lat="42.896968340501189" lon="-4.078060677275062">
        <ele>866.76999999999998</ele>
        <time>2014-05-25T08:20:44Z</time>
      </trkpt>
      <trkpt lat="42.895716251805425" lon="-4.078262262046337">
        <ele>865.32000000000005</ele>
        <time>2014-05-25T08:21:02Z</time>
      </trkpt>
      <trkpt lat="42.894458714872599" lon="-4.078513216227293">
        <ele>865.32000000000005</ele>
        <time>2014-05-25T08:21:22Z</time>
      </trkpt>
      <trkpt lat="42.893327744677663" lon="-4.078515730798245">
        <ele>867.25</ele>
        <time>2014-05-25T08:21:42Z</time>
      </trkpt>
      <trkpt lat="42.892506318166852" lon="-4.078303249552846">
        <ele>869.16999999999996</ele>
        <time>2014-05-25T08:22:00Z</time>
      </trkpt>
      <trkpt lat="42.891867784783244" lon="-4.077844005078077">
        <ele>871.57000000000005</ele>
        <time>2014-05-25T08:22:18Z</time>
      </trkpt>
      <trkpt lat="42.891441900283098" lon="-4.077315609902144">
        <ele>874.46000000000004</ele>
        <time>2014-05-25T08:22:33Z</time>
      </trkpt>
      <trkpt lat="42.891061026602983" lon="-4.076624438166618">
        <ele>876.38</ele>
        <time>2014-05-25T08:22:50Z</time>
      </trkpt>
      <trkpt lat="42.89070026949048" lon="-4.07603426836431">
        <ele>877.34000000000003</ele>
        <time>2014-05-25T08:23:05Z</time>
      </trkpt>
      <trkpt lat="42.890128372237086" lon="-4.075720030814409">
        <ele>876.86000000000001</ele>
        <time>2014-05-25T08:23:21Z</time>
      </trkpt>
      <trkpt lat="42.889330917969346" lon="-4.075652472674847">
        <ele>876.38</ele>
        <time>2014-05-25T08:23:39Z</time>
      </trkpt>
      <trkpt lat="42.889175266027451" lon="-4.075590362772346">
        <ele>874.94000000000005</ele>
        <time>2014-05-25T08:23:42Z</time>
      </trkpt>
      <trkpt lat="42.888792213052511" lon="-4.075336558744311">
        <ele>873.00999999999999</ele>
        <time>2014-05-25T08:23:49Z</time>
      </trkpt>
      <trkpt lat="42.888218639418483" lon="-4.074894497171044">
        <ele>869.64999999999998</ele>
        <time>2014-05-25T08:23:58Z</time>
      </trkpt>
      <trkpt lat="42.887708768248558" lon="-4.074495434761047">
        <ele>866.28999999999996</ele>
        <time>2014-05-25T08:24:05Z</time>
      </trkpt>
      <trkpt lat="42.887070905417204" lon="-4.074001824483275">
        <ele>862.91999999999996</ele>
        <time>2014-05-25T08:24:13Z</time>
      </trkpt>
      <trkpt lat="42.886486854404211" lon="-4.073548866435885">
        <ele>859.55999999999995</ele>
        <time>2014-05-25T08:24:20Z</time>
      </trkpt>
      <trkpt lat="42.886058455333114" lon="-4.073228091001511">
        <ele>857.63</ele>
        <time>2014-05-25T08:24:25Z</time>
      </trkpt>
      <trkpt lat="42.885642126202583" lon="-4.072909662500024">
        <ele>854.26999999999998</ele>
        <time>2014-05-25T08:24:30Z</time>
      </trkpt>
      <trkpt lat="42.884706621989608" lon="-4.072604393586516">
        <ele>851.87</ele>
        <time>2014-05-25T08:24:41Z</time>
      </trkpt>
      <trkpt lat="42.883382281288505" lon="-4.072382440790534">
        <ele>849.46000000000004</ele>
        <time>2014-05-25T08:24:57Z</time>
      </trkpt>
      <trkpt lat="42.882357928901911" lon="-4.071703758090735">
        <ele>845.62</ele>
        <time>2014-05-25T08:25:11Z</time>
      </trkpt>
      <trkpt lat="42.881216732785106" lon="-4.071236299350858">
        <ele>842.25</ele>
        <time>2014-05-25T08:25:26Z</time>
      </trkpt>
      <trkpt lat="42.879773201420903" lon="-4.070848636329174">
        <ele>839.37</ele>
        <time>2014-05-25T08:25:45Z</time>
      </trkpt>
      <trkpt lat="42.879123101010919" lon="-4.070245390757918">
        <ele>836.48000000000002</ele>
        <time>2014-05-25T08:25:56Z</time>
      </trkpt>
      <trkpt lat="42.878853371366858" lon="-4.069810789078474">
        <ele>835.03999999999996</ele>
        <time>2014-05-25T08:26:02Z</time>
      </trkpt>
      <trkpt lat="42.87842882797122" lon="-4.068458620458841">
        <ele>833.12</ele>
        <time>2014-05-25T08:26:18Z</time>
      </trkpt>
      <trkpt lat="42.87816546857357" lon="-4.067627722397447">
        <ele>832.15999999999997</ele>
        <time>2014-05-25T08:26:28Z</time>
      </trkpt>
      <trkpt lat="42.87806237116456" lon="-4.067404763773084">
        <ele>832.15999999999997</ele>
        <time>2014-05-25T08:26:31Z</time>
      </trkpt>
      <trkpt lat="42.877192413434386" lon="-4.066081512719393">
        <ele>831.20000000000005</ele>
        <time>2014-05-25T08:26:52Z</time>
      </trkpt>
      <trkpt lat="42.87639663554728" lon="-4.064963031560183">
        <ele>829.75999999999999</ele>
        <time>2014-05-25T08:27:11Z</time>
      </trkpt>
      <trkpt lat="42.875643018633127" lon="-4.064198266714811">
        <ele>829.26999999999998</ele>
        <time>2014-05-25T08:27:27Z</time>
      </trkpt>
      <trkpt lat="42.87520045414567" lon="-4.063923759385943">
        <ele>827.83000000000004</ele>
        <time>2014-05-25T08:27:35Z</time>
      </trkpt>
      <trkpt lat="42.874860651791096" lon="-4.063865337520838">
        <ele>827.35000000000002</ele>
        <time>2014-05-25T08:27:41Z</time>
      </trkpt>
      <trkpt lat="42.874804325401783" lon="-4.063873970881105">
        <ele>827.35000000000002</ele>
        <time>2014-05-25T08:27:42Z</time>
      </trkpt>
      <trkpt lat="42.874525124207139" lon="-4.063960472121835">
        <ele>827.83000000000004</ele>
        <time>2014-05-25T08:27:47Z</time>
      </trkpt>
      <trkpt lat="42.87447290495038" lon="-4.063989892601967">
        <ele>827.35000000000002</ele>
        <time>2014-05-25T08:27:48Z</time>
      </trkpt>
      <trkpt lat="42.873707469552755" lon="-4.064339166507125">
        <ele>826.87</ele>
        <time>2014-05-25T08:28:03Z</time>
      </trkpt>
      <trkpt lat="42.873654663562775" lon="-4.0643301140517">
        <ele>826.38999999999999</ele>
        <time>2014-05-25T08:28:04Z</time>
      </trkpt>
      <trkpt lat="42.873602779582143" lon="-4.064313266426325">
        <ele>826.87</ele>
        <time>2014-05-25T08:28:05Z</time>
      </trkpt>
      <trkpt lat="42.873551566153765" lon="-4.064289294183254">
        <ele>826.38999999999999</ele>
        <time>2014-05-25T08:28:06Z</time>
      </trkpt>
      <trkpt lat="42.873501945286989" lon="-4.06425878405571">
        <ele>826.38999999999999</ele>
        <time>2014-05-25T08:28:07Z</time>
      </trkpt>
      <trkpt lat="42.873453330248594" lon="-4.064221987500787">
        <ele>826.38999999999999</ele>
        <time>2014-05-25T08:28:08Z</time>
      </trkpt>
      <trkpt lat="42.873407062143087" lon="-4.06418108381331">
        <ele>825.90999999999997</ele>
        <time>2014-05-25T08:28:09Z</time>
      </trkpt>
      <trkpt lat="42.873362051323056" lon="-4.064134983345866">
        <ele>825.90999999999997</ele>
        <time>2014-05-25T08:28:10Z</time>
      </trkpt>
      <trkpt lat="42.873200699687004" lon="-4.063916634768248">
        <ele>824.95000000000005</ele>
        <time>2014-05-25T08:28:14Z</time>
      </trkpt>
      <trkpt lat="42.873171614482999" lon="-4.063850753009319">
        <ele>824.95000000000005</ele>
        <time>2014-05-25T08:28:15Z</time>
      </trkpt>
      <trkpt lat="42.873145798221231" lon="-4.06378235667944">
        <ele>824.95000000000005</ele>
        <time>2014-05-25T08:28:16Z</time>
      </trkpt>
      <trkpt lat="42.873125011101365" lon="-4.063711781054735">
        <ele>824.95000000000005</ele>
        <time>2014-05-25T08:28:17Z</time>
      </trkpt>
      <trkpt lat="42.873105145990849" lon="-4.063639612868428">
        <ele>824.95000000000005</ele>
        <time>2014-05-25T08:28:18Z</time>
      </trkpt>
      <trkpt lat="42.872967682778835" lon="-4.062499338760972">
        <ele>825.42999999999995</ele>
        <time>2014-05-25T08:28:33Z</time>
      </trkpt>
      <trkpt lat="42.872877074405551" lon="-4.061980415135622">
        <ele>825.42999999999995</ele>
        <time>2014-05-25T08:28:42Z</time>
      </trkpt>
      <trkpt lat="42.8728779964149" lon="-4.061936913058162">
        <ele>832.15625</ele>
        <time>2014-05-25T08:33:16Z</time>
      </trkpt>
      <trkpt lat="42.872532997280359" lon="-4.062023162841797">
        <ele>829.28125</ele>
        <time>2014-05-25T08:33:17Z</time>
      </trkpt>
      <trkpt lat="42.872874392196536" lon="-4.061934649944305">
        <ele>832.12109375</ele>
        <time>2014-05-25T08:33:33Z</time>
      </trkpt>
      <trkpt lat="42.872876152396202" lon="-4.061888214200735">
        <ele>832.6796875</ele>
        <time>2014-05-25T08:33:53Z</time>
      </trkpt>
      <trkpt lat="42.872868692502379" lon="-4.061876563355327">
        <ele>826.87</ele>
        <time>2014-05-25T08:33:57Z</time>
      </trkpt>
      <trkpt lat="42.872864753007889" lon="-4.061840018257499">
        <ele>827.35000000000002</ele>
        <time>2014-05-25T08:34:00Z</time>
      </trkpt>
      <trkpt lat="42.87269426509738" lon="-4.06101917847991">
        <ele>825.42999999999995</ele>
        <time>2014-05-25T08:34:14Z</time>
      </trkpt>
      <trkpt lat="42.87229847162962" lon="-4.059833893552423">
        <ele>824.95000000000005</ele>
        <time>2014-05-25T08:34:21Z</time>
      </trkpt>
      <trkpt lat="42.872170731425285" lon="-4.05960951000452">
        <ele>824.95000000000005</ele>
        <time>2014-05-25T08:34:28Z</time>
      </trkpt>
      <trkpt lat="42.872058497741818" lon="-4.059459809213877">
        <ele>824.47000000000003</ele>
        <time>2014-05-25T08:34:38Z</time>
      </trkpt>
      <trkpt lat="42.871330194175243" lon="-4.059035601094365">
        <ele>822.54999999999995</ele>
        <time>2014-05-25T08:34:41Z</time>
      </trkpt>
      <trkpt lat="42.870860220864415" lon="-4.059080611914396">
        <ele>820.13999999999999</ele>
        <time>2014-05-25T08:34:42Z</time>
      </trkpt>
      <trkpt lat="42.870396114885807" lon="-4.059379426762462">
        <ele>816.77999999999997</ele>
        <time>2014-05-25T08:34:50Z</time>
      </trkpt>
      <trkpt lat="42.869687424972653" lon="-4.059801204130054">
        <ele>813.40999999999997</ele>
        <time>2014-05-25T08:34:54Z</time>
      </trkpt>
      <trkpt lat="42.869447031989694" lon="-4.059811094775796">
        <ele>812.92999999999995</ele>
        <time>2014-05-25T08:35:09Z</time>
      </trkpt>
      <trkpt lat="42.869370589032769" lon="-4.059790726751089">
        <ele>812.45000000000005</ele>
        <time>2014-05-25T08:35:28Z</time>
      </trkpt>
      <trkpt lat="42.86876424215734" lon="-4.059484787285328">
        <ele>809.09000000000003</ele>
        <time>2014-05-25T08:35:42Z</time>
      </trkpt>
      <trkpt lat="42.86847741343081" lon="-4.059272473677993">
        <ele>807.63999999999999</ele>
        <time>2014-05-25T08:36:00Z</time>
      </trkpt>
      <trkpt lat="42.867556242272258" lon="-4.05824426561594">
        <ele>804.75999999999999</ele>
        <time>2014-05-25T08:36:04Z</time>
      </trkpt>
      <trkpt lat="42.866739258170128" lon="-4.056871058419347">
        <ele>802.36000000000001</ele>
        <time>2014-05-25T08:36:10Z</time>
      </trkpt>
      <trkpt lat="42.866374645382166" lon="-4.055878557264805">
        <ele>801.39999999999998</ele>
        <time>2014-05-25T08:36:27Z</time>
      </trkpt>
      <trkpt lat="42.866269955411553" lon="-4.054638789966703">
        <ele>801.88</ele>
        <time>2014-05-25T08:36:47Z</time>
      </trkpt>
      <trkpt lat="42.866187812760472" lon="-4.054409544914961">
        <ele>802.84000000000003</ele>
        <time>2014-05-25T08:37:02Z</time>
      </trkpt>
      <trkpt lat="42.866017492488027" lon="-4.054111400619149">
        <ele>802.84000000000003</ele>
        <time>2014-05-25T08:37:10Z</time>
      </trkpt>
      <trkpt lat="42.865350125357509" lon="-4.05355148948729">
        <ele>804.75999999999999</ele>
        <time>2014-05-25T08:37:18Z</time>
      </trkpt>
      <trkpt lat="42.864469774067402" lon="-4.052953021600843">
        <ele>803.79999999999995</ele>
        <time>2014-05-25T08:37:22Z</time>
      </trkpt>
      <trkpt lat="42.863573916256428" lon="-4.052850175648928">
        <ele>801.88</ele>
        <time>2014-05-25T08:37:25Z</time>
      </trkpt>
      <trkpt lat="42.863014591857791" lon="-4.052717238664627">
        <ele>798.99000000000001</ele>
        <time>2014-05-25T08:37:28Z</time>
      </trkpt>
      <trkpt lat="42.862406484782696" lon="-4.052310297265649">
        <ele>795.14999999999998</ele>
        <time>2014-05-25T08:37:32Z</time>
      </trkpt>
      <trkpt lat="42.862084116786718" lon="-4.052011398598552">
        <ele>791.77999999999997</ele>
        <time>2014-05-25T08:37:37Z</time>
      </trkpt>
      <trkpt lat="42.861847579479218" lon="-4.051736304536462">
        <ele>788.41999999999996</ele>
        <time>2014-05-25T08:37:40Z</time>
      </trkpt>
      <trkpt lat="42.861618837341666" lon="-4.051430029794574">
        <ele>785.04999999999995</ele>
        <time>2014-05-25T08:37:48Z</time>
      </trkpt>
      <trkpt lat="42.861342653632164" lon="-4.050972796976566">
        <ele>781.21000000000004</ele>
        <time>2014-05-25T08:38:00Z</time>
      </trkpt>
      <trkpt lat="42.861046520993114" lon="-4.050339041277766">
        <ele>777.36000000000001</ele>
        <time>2014-05-25T08:38:15Z</time>
      </trkpt>
      <trkpt lat="42.860899921506643" lon="-4.049942409619689">
        <ele>775.44000000000005</ele>
        <time>2014-05-25T08:38:28Z</time>
      </trkpt>
      <trkpt lat="42.860643016174436" lon="-4.048910848796368">
        <ele>772.08000000000004</ele>
        <time>2014-05-25T08:38:29Z</time>
      </trkpt>
      <trkpt lat="42.860642680898309" lon="-4.047572258859873">
        <ele>773.51999999999998</ele>
        <time>2014-05-25T08:38:32Z</time>
      </trkpt>
      <trkpt lat="42.860860526561737" lon="-4.046381609514356">
        <ele>774.96000000000004</ele>
        <time>2014-05-25T08:38:33Z</time>
      </trkpt>
      <trkpt lat="42.860717447474599" lon="-4.04542213305831">
        <ele>774</ele>
        <time>2014-05-25T08:38:35Z</time>
      </trkpt>
      <trkpt lat="42.860683919861913" lon="-4.045352814719081">
        <ele>773.51999999999998</ele>
        <time>2014-05-25T08:38:37Z</time>
      </trkpt>
      <trkpt lat="42.860569842159748" lon="-4.045151900500059">
        <ele>773.03999999999996</ele>
        <time>2014-05-25T08:38:38Z</time>
      </trkpt>
      <trkpt lat="42.860523322597146" lon="-4.045091718435288">
        <ele>772.55999999999995</ele>
        <time>2014-05-25T08:38:48Z</time>
      </trkpt>
      <trkpt lat="42.860421985387802" lon="-4.044975461438298">
        <ele>771.60000000000002</ele>
        <time>2014-05-25T08:38:52Z</time>
      </trkpt>
      <trkpt lat="42.860310673713684" lon="-4.044870939105749">
        <ele>772.08000000000004</ele>
        <time>2014-05-25T08:38:58Z</time>
      </trkpt>
      <trkpt lat="42.860250072553754" lon="-4.044826934114099">
        <ele>771.60000000000002</ele>
        <time>2014-05-25T08:39:05Z</time>
      </trkpt>
      <trkpt lat="42.859587064012885" lon="-4.044298706576228">
        <ele>768.71000000000004</ele>
        <time>2014-05-25T08:39:07Z</time>
      </trkpt>
      <trkpt lat="42.859363351017237" lon="-4.043938703835011">
        <ele>766.30999999999995</ele>
        <time>2014-05-25T08:39:08Z</time>
      </trkpt>
      <trkpt lat="42.85917635075748" lon="-4.043272007256746">
        <ele>762.94000000000005</ele>
        <time>2014-05-25T08:39:09Z</time>
      </trkpt>
      <trkpt lat="42.859052885323763" lon="-4.042403809726238">
        <ele>760.53999999999996</ele>
        <time>2014-05-25T08:39:10Z</time>
      </trkpt>
      <trkpt lat="42.858977951109409" lon="-4.04215419664979">
        <ele>759.10000000000002</ele>
        <time>2014-05-25T08:39:11Z</time>
      </trkpt>
      <trkpt lat="42.858929084613919" lon="-4.042035508900881">
        <ele>759.10000000000002</ele>
        <time>2014-05-25T08:39:17Z</time>
      </trkpt>
      <trkpt lat="42.858875188976526" lon="-4.041921766474843">
        <ele>758.13999999999999</ele>
        <time>2014-05-25T08:39:19Z</time>
      </trkpt>
      <trkpt lat="42.858815174549818" lon="-4.041811712086201">
        <ele>759.10000000000002</ele>
        <time>2014-05-25T08:39:25Z</time>
      </trkpt>
      <trkpt lat="42.858751555904746" lon="-4.041704004630446">
        <ele>758.13999999999999</ele>
        <time>2014-05-25T08:39:26Z</time>
      </trkpt>
      <trkpt lat="42.858376717194915" lon="-4.041044348850846">
        <ele>754.76999999999998</ele>
        <time>2014-05-25T08:39:28Z</time>
      </trkpt>
      <trkpt lat="42.858282756060362" lon="-4.040795490145683">
        <ele>753.80999999999995</ele>
        <time>2014-05-25T08:39:29Z</time>
      </trkpt>
      <trkpt lat="42.857978660613298" lon="-4.040061570703983">
        <ele>750.92999999999995</ele>
        <time>2014-05-25T08:39:30Z</time>
      </trkpt>
      <trkpt lat="42.857912024483085" lon="-4.039956210181117">
        <ele>750.45000000000005</ele>
        <time>2014-05-25T08:39:31Z</time>
      </trkpt>
      <trkpt lat="42.857767939567566" lon="-4.039770299568772">
        <ele>750.45000000000005</ele>
        <time>2014-05-25T08:39:32Z</time>
      </trkpt>
      <trkpt lat="42.857690323144197" lon="-4.039690503850579">
        <ele>749.49000000000001</ele>
        <time>2014-05-25T08:39:33Z</time>
      </trkpt>
      <trkpt lat="42.8576107788831" lon="-4.039618670940399">
        <ele>750.45000000000005</ele>
        <time>2014-05-25T08:39:46Z</time>
      </trkpt>
      <trkpt lat="42.857526205480099" lon="-4.039559410884976">
        <ele>749.97000000000003</ele>
        <time>2014-05-25T08:39:51Z</time>
      </trkpt>
      <trkpt lat="42.857440793886781" lon="-4.039508197456598">
        <ele>750.45000000000005</ele>
        <time>2014-05-25T08:40:06Z</time>
      </trkpt>
      <trkpt lat="42.857356304302812" lon="-4.039465449750423">
        <ele>750.45000000000005</ele>
        <time>2014-05-25T08:40:13Z</time>
      </trkpt>
      <trkpt lat="42.856334885582328" lon="-4.039225475862622">
        <ele>749</ele>
        <time>2014-05-25T08:40:23Z</time>
      </trkpt>
      <trkpt lat="42.855980582535267" lon="-4.039182979613543">
        <ele>750.45000000000005</ele>
        <time>2014-05-25T08:40:31Z</time>
      </trkpt>
      <trkpt lat="42.854955056682229" lon="-4.038828928023577">
        <ele>747.55999999999995</ele>
        <time>2014-05-25T08:40:34Z</time>
      </trkpt>
      <trkpt lat="42.854498326778412" lon="-4.038469428196549">
        <ele>744.67999999999995</ele>
        <time>2014-05-25T08:40:35Z</time>
      </trkpt>
      <trkpt lat="42.853804724290967" lon="-4.037949163466692">
        <ele>742.27999999999997</ele>
        <time>2014-05-25T08:40:36Z</time>
      </trkpt>
      <trkpt lat="42.853202484548092" lon="-4.037578850984573">
        <ele>738.90999999999997</ele>
        <time>2014-05-25T08:40:37Z</time>
      </trkpt>
      <trkpt lat="42.85297323949635" lon="-4.03750048018992">
        <ele>738.42999999999995</ele>
        <time>2014-05-25T08:40:38Z</time>
      </trkpt>
      <trkpt lat="42.852894617244601" lon="-4.037496540695429">
        <ele>738.42999999999995</ele>
        <time>2014-05-25T08:40:39Z</time>
      </trkpt>
      <trkpt lat="42.852817503735423" lon="-4.037502575665712">
        <ele>738.90999999999997</ele>
        <time>2014-05-25T08:40:40Z</time>
      </trkpt>
      <trkpt lat="42.852742904797196" lon="-4.03751908801496">
        <ele>738.42999999999995</ele>
        <time>2014-05-25T08:40:41Z</time>
      </trkpt>
      <trkpt lat="42.852671071887016" lon="-4.037542724981904">
        <ele>738.90999999999997</ele>
        <time>2014-05-25T08:40:42Z</time>
      </trkpt>
      <trkpt lat="42.852602507919073" lon="-4.037573235109448">
        <ele>738.42999999999995</ele>
        <time>2014-05-25T08:40:43Z</time>
      </trkpt>
      <trkpt lat="42.852537883445621" lon="-4.037611288949847">
        <ele>738.90999999999997</ele>
        <time>2014-05-25T08:40:44Z</time>
      </trkpt>
      <trkpt lat="42.852477785199881" lon="-4.037657054141164">
        <ele>739.38999999999999</ele>
        <time>2014-05-25T08:40:50Z</time>
      </trkpt>
      <trkpt lat="42.852422799915075" lon="-4.037710530683398">
        <ele>738.90999999999997</ele>
        <time>2014-05-25T08:40:52Z</time>
      </trkpt>
      <trkpt lat="42.852374603971839" lon="-4.037770126014948">
        <ele>738.90999999999997</ele>
        <time>2014-05-25T08:40:58Z</time>
      </trkpt>
      <trkpt lat="42.852331856265664" lon="-4.037834331393242">
        <ele>738.90999999999997</ele>
        <time>2014-05-25T08:41:01Z</time>
      </trkpt>
      <trkpt lat="42.852116860449314" lon="-4.038215624168515">
        <ele>739.38999999999999</ele>
        <time>2014-05-25T08:41:02Z</time>
      </trkpt>
      <trkpt lat="42.852048799395561" lon="-4.038318134844303">
        <ele>740.83000000000004</ele>
        <time>2014-05-25T08:41:03Z</time>
      </trkpt>
      <trkpt lat="42.8518205601722" lon="-4.038537573069334">
        <ele>741.30999999999995</ele>
        <time>2014-05-25T08:41:04Z</time>
      </trkpt>
      <trkpt lat="42.851686365902424" lon="-4.038601024076343">
        <ele>741.30999999999995</ele>
        <time>2014-05-25T08:41:05Z</time>
      </trkpt>
      <trkpt lat="42.851638589054346" lon="-4.038608819246292">
        <ele>741.78999999999996</ele>
        <time>2014-05-25T08:41:12Z</time>
      </trkpt>
      <trkpt lat="42.851591315120459" lon="-4.038612088188529">
        <ele>742.27999999999997</ele>
        <time>2014-05-25T08:41:25Z</time>
      </trkpt>
      <trkpt lat="42.851543286815286" lon="-4.038617117330432">
        <ele>741.78999999999996</ele>
        <time>2014-05-25T08:41:37Z</time>
      </trkpt>
      <trkpt lat="42.851496934890747" lon="-4.038622817024589">
        <ele>741.78999999999996</ele>
        <time>2014-05-25T08:41:52Z</time>
      </trkpt>
      <trkpt lat="42.851174734532833" lon="-4.038636311888695">
        <ele>741.78999999999996</ele>
        <time>2014-05-25T08:42:07Z</time>
      </trkpt>
      <trkpt lat="42.850651703774929" lon="-4.038547463715076">
        <ele>742.75999999999999</ele>
        <time>2014-05-25T08:42:11Z</time>
      </trkpt>
      <trkpt lat="42.850190028548241" lon="-4.038469595834613">
        <ele>743.72000000000003</ele>
        <time>2014-05-25T08:42:27Z</time>
      </trkpt>
      <trkpt lat="42.849637996405363" lon="-4.038360631093383">
        <ele>743.24000000000001</ele>
        <time>2014-05-25T08:42:40Z</time>
      </trkpt>
      <trkpt lat="42.848969288170338" lon="-4.038174133747816">
        <ele>741.78999999999996</ele>
        <time>2014-05-25T08:42:58Z</time>
      </trkpt>
      <trkpt lat="42.848772648721933" lon="-4.03808830305934">
        <ele>741.78999999999996</ele>
        <time>2014-05-25T08:43:13Z</time>
      </trkpt>
      <trkpt lat="42.847935883328319" lon="-4.037496373057365">
        <ele>738.90999999999997</ele>
        <time>2014-05-25T08:43:20Z</time>
      </trkpt>
      <trkpt lat="42.847180087119341" lon="-4.037230834364891">
        <ele>738.42999999999995</ele>
        <time>2014-05-25T08:43:28Z</time>
      </trkpt>
      <trkpt lat="42.846198147162795" lon="-4.037354132160544">
        <ele>737.95000000000005</ele>
        <time>2014-05-25T08:43:34Z</time>
      </trkpt>
      <trkpt lat="42.845495492219925" lon="-4.037465611472726">
        <ele>737.95000000000005</ele>
        <time>2014-05-25T08:43:35Z</time>
      </trkpt>
      <trkpt lat="42.845179410651326" lon="-4.037492936477065">
        <ele>738.90999999999997</ele>
        <time>2014-05-25T08:43:54Z</time>
      </trkpt>
      <trkpt lat="42.844829214736819" lon="-4.037544820457697">
        <ele>738.42999999999995</ele>
        <time>2014-05-25T08:44:10Z</time>
      </trkpt>
      <trkpt lat="42.844586558640003" lon="-4.037579772993922">
        <ele>737.95000000000005</ele>
        <time>2014-05-25T08:44:26Z</time>
      </trkpt>
      <trkpt lat="42.844545152038336" lon="-4.037586729973555">
        <ele>737.95000000000005</ele>
        <time>2014-05-25T08:44:46Z</time>
      </trkpt>
      <trkpt lat="42.84377527423203" lon="-4.037712542340159">
        <ele>737.47000000000003</ele>
        <time>2014-05-25T08:45:02Z</time>
      </trkpt>
      <trkpt lat="42.843158030882478" lon="-4.037798373028636">
        <ele>738.42999999999995</ele>
        <time>2014-05-25T08:45:12Z</time>
      </trkpt>
      <trkpt lat="42.842559814453125" lon="-4.037893675267696">
        <ele>738.42999999999995</ele>
        <time>2014-05-25T08:45:13Z</time>
      </trkpt>
      <trkpt lat="42.841785410419106" lon="-4.037973890081048">
        <ele>737.95000000000005</ele>
        <time>2014-05-25T08:45:28Z</time>
      </trkpt>
      <trkpt lat="42.841118797659874" lon="-4.037932567298412">
        <ele>737.47000000000003</ele>
        <time>2014-05-25T08:45:43Z</time>
      </trkpt>
      <trkpt lat="42.840683860704303" lon="-4.037859980016947">
        <ele>736.99000000000001</ele>
        <time>2014-05-25T08:46:01Z</time>
      </trkpt>
      <trkpt lat="42.840640274807811" lon="-4.037853190675378">
        <ele>736.02999999999997</ele>
        <time>2014-05-25T08:46:15Z</time>
      </trkpt>
      <trkpt lat="42.839977014809847" lon="-4.037760570645332">
        <ele>736.50999999999999</ele>
        <time>2014-05-25T08:46:33Z</time>
      </trkpt>
      <trkpt lat="42.839336050674319" lon="-4.037871127948165">
        <ele>736.02999999999997</ele>
        <time>2014-05-25T08:46:35Z</time>
      </trkpt>
      <trkpt lat="42.838603556156158" lon="-4.038323080167174">
        <ele>735.07000000000005</ele>
        <time>2014-05-25T08:46:52Z</time>
      </trkpt>
      <trkpt lat="42.838068120181561" lon="-4.038792550563812">
        <ele>735.54999999999995</ele>
        <time>2014-05-25T08:47:07Z</time>
      </trkpt>
      <trkpt lat="42.837405446916819" lon="-4.039494954049587">
        <ele>735.07000000000005</ele>
        <time>2014-05-25T08:47:24Z</time>
      </trkpt>
      <trkpt lat="42.837335038930178" lon="-4.03956351801753">
        <ele>735.54999999999995</ele>
        <time>2014-05-25T08:47:39Z</time>
      </trkpt>
      <trkpt lat="42.836789879947901" lon="-4.040178162977099">
        <ele>734.58000000000004</ele>
        <time>2014-05-25T08:47:56Z</time>
      </trkpt>
      <trkpt lat="42.836329210549593" lon="-4.040792221203446">
        <ele>734.10000000000002</ele>
        <time>2014-05-25T08:48:10Z</time>
      </trkpt>
      <trkpt lat="42.835967866703868" lon="-4.041576515883207">
        <ele>735.07000000000005</ele>
        <time>2014-05-25T08:48:22Z</time>
      </trkpt>
      <trkpt lat="42.835659245029092" lon="-4.042227538302541">
        <ele>735.54999999999995</ele>
        <time>2014-05-25T08:48:38Z</time>
      </trkpt>
      <trkpt lat="42.835239060223103" lon="-4.042931031435728">
        <ele>735.07000000000005</ele>
        <time>2014-05-25T08:48:45Z</time>
      </trkpt>
      <trkpt lat="42.834828346967697" lon="-4.043438890948892">
        <ele>736.02999999999997</ele>
        <time>2014-05-25T08:48:48Z</time>
      </trkpt>
      <trkpt lat="42.834421321749687" lon="-4.04379797168076">
        <ele>736.50999999999999</ele>
        <time>2014-05-25T08:48:49Z</time>
      </trkpt>
      <trkpt lat="42.833822099491954" lon="-4.044064348563552">
        <ele>736.02999999999997</ele>
        <time>2014-05-25T08:49:06Z</time>
      </trkpt>
      <trkpt lat="42.83354826271534" lon="-4.044101312756538">
        <ele>735.54999999999995</ele>
        <time>2014-05-25T08:49:22Z</time>
      </trkpt>
      <trkpt lat="42.833425719290972" lon="-4.044096115976572">
        <ele>735.54999999999995</ele>
        <time>2014-05-25T08:49:38Z</time>
      </trkpt>
      <trkpt lat="42.833384731784463" lon="-4.044089997187257">
        <ele>735.07000000000005</ele>
        <time>2014-05-25T08:49:53Z</time>
      </trkpt>
      <trkpt lat="42.832561628893018" lon="-4.043847173452377">
        <ele>733.13999999999999</ele>
        <time>2014-05-25T08:50:00Z</time>
      </trkpt>
      <trkpt lat="42.831650096923113" lon="-4.043520446866751">
        <ele>731.70000000000005</ele>
        <time>2014-05-25T08:50:15Z</time>
      </trkpt>
      <trkpt lat="42.830682992935181" lon="-4.043453559279442">
        <ele>729.29999999999995</ele>
        <time>2014-05-25T08:50:17Z</time>
      </trkpt>
      <trkpt lat="42.829911019653082" lon="-4.043283825740218">
        <ele>730.74000000000001</ele>
        <time>2014-05-25T08:50:33Z</time>
      </trkpt>
      <trkpt lat="42.82957817427814" lon="-4.043153990060091">
        <ele>731.22000000000003</ele>
        <time>2014-05-25T08:50:52Z</time>
      </trkpt>
      <trkpt lat="42.828958164900541" lon="-4.042927511036396">
        <ele>729.77999999999997</ele>
        <time>2014-05-25T08:51:08Z</time>
      </trkpt>
      <trkpt lat="42.828872250393033" lon="-4.042897755280137">
        <ele>730.74000000000001</ele>
        <time>2014-05-25T08:51:11Z</time>
      </trkpt>
      <trkpt lat="42.82821879722178" lon="-4.042653255164623">
        <ele>731.70000000000005</ele>
        <time>2014-05-25T08:51:29Z</time>
      </trkpt>
      <trkpt lat="42.827526368200779" lon="-4.042182276025415">
        <ele>732.17999999999995</ele>
        <time>2014-05-25T08:51:44Z</time>
      </trkpt>
      <trkpt lat="42.826931923627853" lon="-4.041668381541967">
        <ele>731.70000000000005</ele>
        <time>2014-05-25T08:51:47Z</time>
      </trkpt>
      <trkpt lat="42.826818516477942" lon="-4.041570732370019">
        <ele>731.70000000000005</ele>
        <time>2014-05-25T08:51:59Z</time>
      </trkpt>
      <trkpt lat="42.826000275090337" lon="-4.041044265031815">
        <ele>730.25999999999999</ele>
        <time>2014-05-25T08:52:04Z</time>
      </trkpt>
      <trkpt lat="42.825276413932443" lon="-4.04090085066855">
        <ele>729.77999999999997</ele>
        <time>2014-05-25T08:52:06Z</time>
      </trkpt>
      <trkpt lat="42.82513945363462" lon="-4.040886098518968">
        <ele>730.74000000000001</ele>
        <time>2014-05-25T08:52:17Z</time>
      </trkpt>
      <trkpt lat="42.824596138671041" lon="-4.040849888697267">
        <ele>730.25999999999999</ele>
        <time>2014-05-25T08:52:22Z</time>
      </trkpt>
      <trkpt lat="42.824375694617629" lon="-4.040828431025147">
        <ele>730.25999999999999</ele>
        <time>2014-05-25T08:52:33Z</time>
      </trkpt>
      <trkpt lat="42.824284583330154" lon="-4.040822647511959">
        <ele>729.77999999999997</ele>
        <time>2014-05-25T08:52:47Z</time>
      </trkpt>
      <trkpt lat="42.823783261701465" lon="-4.040879979729652">
        <ele>730.74000000000001</ele>
        <time>2014-05-25T08:53:03Z</time>
      </trkpt>
      <trkpt lat="42.823556698858738" lon="-4.040964217856526">
        <ele>730.74000000000001</ele>
        <time>2014-05-25T08:53:19Z</time>
      </trkpt>
      <trkpt lat="42.823096616193652" lon="-4.041198324412108">
        <ele>730.74000000000001</ele>
        <time>2014-05-25T08:53:35Z</time>
      </trkpt>
      <trkpt lat="42.822564449161291" lon="-4.041452631354332">
        <ele>731.22000000000003</ele>
        <time>2014-05-25T08:53:52Z</time>
      </trkpt>
      <trkpt lat="42.821913594380021" lon="-4.041725127026439">
        <ele>730.74000000000001</ele>
        <time>2014-05-25T08:54:10Z</time>
      </trkpt>
      <trkpt lat="42.821166682988405" lon="-4.041996449232101">
        <ele>729.77999999999997</ele>
        <time>2014-05-25T08:54:25Z</time>
      </trkpt>
      <trkpt lat="42.820390099659562" lon="-4.042259221896529">
        <ele>728.82000000000005</ele>
        <time>2014-05-25T08:54:42Z</time>
      </trkpt>
      <trkpt lat="42.819496085867286" lon="-4.042531969025731">
        <ele>727.86000000000001</ele>
        <time>2014-05-25T08:54:59Z</time>
      </trkpt>
      <trkpt lat="42.818435272201896" lon="-4.042744282633066">
        <ele>726.40999999999997</ele>
        <time>2014-05-25T08:55:16Z</time>
      </trkpt>
      <trkpt lat="42.817606972530484" lon="-4.042606987059116">
        <ele>726.40999999999997</ele>
        <time>2014-05-25T08:55:18Z</time>
      </trkpt>
      <trkpt lat="42.816891074180603" lon="-4.042096612975001">
        <ele>727.37</ele>
        <time>2014-05-25T08:55:19Z</time>
      </trkpt>
      <trkpt lat="42.816295959055424" lon="-4.041429497301579">
        <ele>728.34000000000003</ele>
        <time>2014-05-25T08:55:36Z</time>
      </trkpt>
      <trkpt lat="42.81567963771522" lon="-4.040700355544686">
        <ele>728.34000000000003</ele>
        <time>2014-05-25T08:55:41Z</time>
      </trkpt>
      <trkpt lat="42.815607972443104" lon="-4.040612932294607">
        <ele>723.52999999999997</ele>
        <time>2014-05-25T08:55:57Z</time>
      </trkpt>
      <trkpt lat="42.815569583326578" lon="-4.040570268407464">
        <ele>729.29999999999995</ele>
        <time>2014-05-25T08:56:12Z</time>
      </trkpt>
      <trkpt lat="42.814850080758333" lon="-4.039784045889974">
        <ele>726.88999999999999</ele>
        <time>2014-05-25T08:56:29Z</time>
      </trkpt>
      <trkpt lat="42.814596192911267" lon="-4.039587071165443">
        <ele>726.40999999999997</ele>
        <time>2014-05-25T08:56:46Z</time>
      </trkpt>
      <trkpt lat="42.813702598214149" lon="-4.039245424792171">
        <ele>725.92999999999995</ele>
        <time>2014-05-25T08:57:02Z</time>
      </trkpt>
      <trkpt lat="42.812990806996822" lon="-4.039287669584155">
        <ele>727.86000000000001</ele>
        <time>2014-05-25T08:57:20Z</time>
      </trkpt>
      <trkpt lat="42.812221935018897" lon="-4.039334272965789">
        <ele>729.77999999999997</ele>
        <time>2014-05-25T08:57:35Z</time>
      </trkpt>
      <trkpt lat="42.811403023079038" lon="-4.039386911317706">
        <ele>728.34000000000003</ele>
        <time>2014-05-25T08:57:52Z</time>
      </trkpt>
      <trkpt lat="42.810581848025322" lon="-4.039367130026221">
        <ele>728.34000000000003</ele>
        <time>2014-05-25T08:58:08Z</time>
      </trkpt>
      <trkpt lat="42.809615330770612" lon="-4.039323460310698">
        <ele>726.40999999999997</ele>
        <time>2014-05-25T08:58:20Z</time>
      </trkpt>
      <trkpt lat="42.808820391073823" lon="-4.039380792528391">
        <ele>726.88999999999999</ele>
        <time>2014-05-25T08:58:31Z</time>
      </trkpt>
      <trkpt lat="42.808000389486551" lon="-4.03945991769433">
        <ele>726.40999999999997</ele>
        <time>2014-05-25T08:58:43Z</time>
      </trkpt>
      <trkpt lat="42.807386917993426" lon="-4.039527475833893">
        <ele>726.88999999999999</ele>
        <time>2014-05-25T08:58:55Z</time>
      </trkpt>
      <trkpt lat="42.807003781199455" lon="-4.039775161072612">
        <ele>727.37</ele>
        <time>2014-05-25T08:59:13Z</time>
      </trkpt>
      <trkpt lat="42.806712593883276" lon="-4.039777172729373">
        <ele>727.86000000000001</ele>
        <time>2014-05-25T08:59:18Z</time>
      </trkpt>
      <trkpt lat="42.806655261665583" lon="-4.039275432005525">
        <ele>727.86000000000001</ele>
        <time>2014-05-25T08:59:24Z</time>
      </trkpt>
      <trkpt lat="42.80661066994071" lon="-4.038666235283017">
        <ele>728.34000000000003</ele>
        <time>2014-05-25T08:59:30Z</time>
      </trkpt>
      <trkpt lat="42.806403217837214" lon="-4.037643726915121">
        <ele>727.37</ele>
        <time>2014-05-25T08:59:32Z</time>
      </trkpt>
      <trkpt lat="42.806354267522693" lon="-4.037353629246354">
        <ele>727.37</ele>
        <time>2014-05-25T08:59:47Z</time>
      </trkpt>
      <trkpt lat="42.806264329701662" lon="-4.03702799230814">
        <ele>726.88999999999999</ele>
        <time>2014-05-25T09:00:06Z</time>
      </trkpt>
      <trkpt lat="42.806119406595826" lon="-4.036737559363246">
        <ele>725.45000000000005</ele>
        <time>2014-05-25T09:00:24Z</time>
      </trkpt>
      <trkpt lat="42.806056961417198" lon="-4.036642089486122">
        <ele>724.49000000000001</ele>
        <time>2014-05-25T09:00:41Z</time>
      </trkpt>
      <trkpt lat="42.805440472438931" lon="-4.036045130342245">
        <ele>724.00999999999999</ele>
        <time>2014-05-25T09:00:44Z</time>
      </trkpt>
      <trkpt lat="42.804512092843652" lon="-4.035519752651453">
        <ele>723.52999999999997</ele>
        <time>2014-05-25T09:01:00Z</time>
      </trkpt>
      <trkpt lat="42.803699802607298" lon="-4.034946598112583">
        <ele>724.00999999999999</ele>
        <time>2014-05-25T09:01:18Z</time>
      </trkpt>
      <trkpt lat="42.803229913115501" lon="-4.033921156078577">
        <ele>724.49000000000001</ele>
        <time>2014-05-25T09:01:23Z</time>
      </trkpt>
      <trkpt lat="42.803198229521513" lon="-4.033709764480591">
        <ele>724.97000000000003</ele>
        <time>2014-05-25T09:01:41Z</time>
      </trkpt>
      <trkpt lat="42.803241144865751" lon="-4.032611651346088">
        <ele>724.00999999999999</ele>
        <time>2014-05-25T09:01:56Z</time>
      </trkpt>
      <trkpt lat="42.803391180932522" lon="-4.031392084434629">
        <ele>724.49000000000001</ele>
        <time>2014-05-25T09:02:16Z</time>
      </trkpt>
      <trkpt lat="42.803430575877428" lon="-4.031080026179552">
        <ele>724.97000000000003</ele>
        <time>2014-05-25T09:02:34Z</time>
      </trkpt>
      <trkpt lat="42.803745986893773" lon="-4.030074113979936">
        <ele>724.97000000000003</ele>
        <time>2014-05-25T09:02:50Z</time>
      </trkpt>
      <trkpt lat="42.804100373759866" lon="-4.029353186488152">
        <ele>725.45000000000005</ele>
        <time>2014-05-25T09:03:05Z</time>
      </trkpt>
      <trkpt lat="42.804656010121107" lon="-4.02836412191391">
        <ele>724.97000000000003</ele>
        <time>2014-05-25T09:03:24Z</time>
      </trkpt>
      <trkpt lat="42.805267218500376" lon="-4.027553256601095">
        <ele>724.97000000000003</ele>
        <time>2014-05-25T09:03:41Z</time>
      </trkpt>
      <trkpt lat="42.805877756327391" lon="-4.026986891403794">
        <ele>725.92999999999995</ele>
        <time>2014-05-25T09:03:58Z</time>
      </trkpt>
      <trkpt lat="42.806488294154406" lon="-4.026562096551061">
        <ele>725.92999999999995</ele>
        <time>2014-05-25T09:04:12Z</time>
      </trkpt>
      <trkpt lat="42.807187177240849" lon="-4.025807892903686">
        <ele>726.88999999999999</ele>
        <time>2014-05-25T09:04:23Z</time>
      </trkpt>
      <trkpt lat="42.807625969871879" lon="-4.024903737008572">
        <ele>727.37</ele>
        <time>2014-05-25T09:04:42Z</time>
      </trkpt>
      <trkpt lat="42.807872062548995" lon="-4.023761115968227">
        <ele>727.37</ele>
        <time>2014-05-25T09:04:59Z</time>
      </trkpt>
      <trkpt lat="42.807897292077541" lon="-4.02258362621069">
        <ele>724.49000000000001</ele>
        <time>2014-05-25T09:05:16Z</time>
      </trkpt>
      <trkpt lat="42.807896537706256" lon="-4.021488362923265">
        <ele>721.61000000000001</ele>
        <time>2014-05-25T09:05:35Z</time>
      </trkpt>
      <trkpt lat="42.807907434180379" lon="-4.01950771920383">
        <ele>719.20000000000005</ele>
        <time>2014-05-25T09:05:47Z</time>
      </trkpt>
      <trkpt lat="42.807820932939649" lon="-4.017985481768847">
        <ele>720.64999999999998</ele>
        <time>2014-05-25T09:05:57Z</time>
      </trkpt>
      <trkpt lat="42.807597387582064" lon="-4.016559133306146">
        <ele>720.64999999999998</ele>
        <time>2014-05-25T09:06:13Z</time>
      </trkpt>
      <trkpt lat="42.807252472266555" lon="-4.014996411278844">
        <ele>719.20000000000005</ele>
        <time>2014-05-25T09:06:29Z</time>
      </trkpt>
      <trkpt lat="42.806628607213497" lon="-4.014380509033799">
        <ele>719.67999999999995</ele>
        <time>2014-05-25T09:06:45Z</time>
      </trkpt>
      <trkpt lat="42.805996192619205" lon="-4.014207841828466">
        <ele>719.20000000000005</ele>
        <time>2014-05-25T09:07:03Z</time>
      </trkpt>
      <trkpt lat="42.805003859102726" lon="-4.014178002253175">
        <ele>718.72000000000003</ele>
        <time>2014-05-25T09:07:19Z</time>
      </trkpt>
      <trkpt lat="42.804040107876062" lon="-4.014183366671205">
        <ele>719.20000000000005</ele>
        <time>2014-05-25T09:07:34Z</time>
      </trkpt>
      <trkpt lat="42.80305540189147" lon="-4.014090579003096">
        <ele>718.72000000000003</ele>
        <time>2014-05-25T09:07:50Z</time>
      </trkpt>
      <trkpt lat="42.801766935735941" lon="-4.01414061896503">
        <ele>716.79999999999995</ele>
        <time>2014-05-25T09:08:06Z</time>
      </trkpt>
      <trkpt lat="42.80075247399509" lon="-4.014118574559689">
        <ele>717.75999999999999</ele>
        <time>2014-05-25T09:08:21Z</time>
      </trkpt>
      <trkpt lat="42.799998773261905" lon="-4.01363049633801">
        <ele>719.20000000000005</ele>
        <time>2014-05-25T09:08:22Z</time>
      </trkpt>
      <trkpt lat="42.799154464155436" lon="-4.013160690665245">
        <ele>718.72000000000003</ele>
        <time>2014-05-25T09:08:26Z</time>
      </trkpt>
      <trkpt lat="42.798486677929759" lon="-4.012378994375467">
        <ele>718.72000000000003</ele>
        <time>2014-05-25T09:08:42Z</time>
      </trkpt>
      <trkpt lat="42.797758542001247" lon="-4.011855712160468">
        <ele>718.24000000000001</ele>
        <time>2014-05-25T09:08:57Z</time>
      </trkpt>
      <trkpt lat="42.797712860628963" lon="-4.011818915605545">
        <ele>718.72000000000003</ele>
        <time>2014-05-25T09:09:09Z</time>
      </trkpt>
      <trkpt lat="42.797554191201925" lon="-4.011625545099378">
        <ele>717.75999999999999</ele>
        <time>2014-05-25T09:09:26Z</time>
      </trkpt>
      <trkpt lat="42.797104585915804" lon="-4.010762125253677">
        <ele>719.20000000000005</ele>
        <time>2014-05-25T09:09:45Z</time>
      </trkpt>
      <trkpt lat="42.796713067218661" lon="-4.010020829737186">
        <ele>717.27999999999997</ele>
        <time>2014-05-25T09:10:06Z</time>
      </trkpt>
      <trkpt lat="42.796567808836699" lon="-4.009236618876457">
        <ele>717.75999999999999</ele>
        <time>2014-05-25T09:10:26Z</time>
      </trkpt>
      <trkpt lat="42.796403020620346" lon="-4.008080754429102">
        <ele>718.24000000000001</ele>
        <time>2014-05-25T09:10:39Z</time>
      </trkpt>
      <trkpt lat="42.796501675620675" lon="-4.00667586363852">
        <ele>717.27999999999997</ele>
        <time>2014-05-25T09:10:57Z</time>
      </trkpt>
      <trkpt lat="42.796742152422667" lon="-4.005054384469986">
        <ele>717.75999999999999</ele>
        <time>2014-05-25T09:11:14Z</time>
      </trkpt>
      <trkpt lat="42.796993358060718" lon="-4.003595178946853">
        <ele>717.75999999999999</ele>
        <time>2014-05-25T09:11:30Z</time>
      </trkpt>
      <trkpt lat="42.797334752976894" lon="-4.00281272828579">
        <ele>718.72000000000003</ele>
        <time>2014-05-25T09:11:48Z</time>
      </trkpt>
      <trkpt lat="42.798118963837624" lon="-4.002070343121886">
        <ele>717.27999999999997</ele>
        <time>2014-05-25T09:11:50Z</time>
      </trkpt>
      <trkpt lat="42.798979030922055" lon="-4.001453518867493">
        <ele>715.84000000000003</ele>
        <time>2014-05-25T09:12:07Z</time>
      </trkpt>
      <trkpt lat="42.79982996173203" lon="-4.001204073429108">
        <ele>715.84000000000003</ele>
        <time>2014-05-25T09:12:14Z</time>
      </trkpt>
      <trkpt lat="42.80080821365118" lon="-4.000872485339642">
        <ele>714.88</ele>
        <time>2014-05-25T09:12:20Z</time>
      </trkpt>
      <trkpt lat="42.800921704620123" lon="-4.000814566388726">
        <ele>714.88</ele>
        <time>2014-05-25T09:12:24Z</time>
      </trkpt>
      <trkpt lat="42.801737012341619" lon="-4.000017279759049">
        <ele>714.88</ele>
        <time>2014-05-25T09:12:28Z</time>
      </trkpt>
      <trkpt lat="42.80202685855329" lon="-3.999664569273591">
        <ele>715.36000000000001</ele>
        <time>2014-05-25T09:12:32Z</time>
      </trkpt>
      <trkpt lat="42.802165662869811" lon="-3.999238517135382">
        <ele>714.88</ele>
        <time>2014-05-25T09:12:47Z</time>
      </trkpt>
      <trkpt lat="42.80218468979001" lon="-3.998931320384145">
        <ele>716.32000000000005</ele>
        <time>2014-05-25T09:12:55Z</time>
      </trkpt>
      <trkpt lat="42.802132219076157" lon="-3.998643234372139">
        <ele>716.32000000000005</ele>
        <time>2014-05-25T09:13:08Z</time>
      </trkpt>
      <trkpt lat="42.802041610702872" lon="-3.998384568840265">
        <ele>717.27999999999997</ele>
        <time>2014-05-25T09:13:13Z</time>
      </trkpt>
      <trkpt lat="42.801458733156323" lon="-3.997684931382537">
        <ele>716.79999999999995</ele>
        <time>2014-05-25T09:13:29Z</time>
      </trkpt>
      <trkpt lat="42.80116687528789" lon="-3.997389636933804">
        <ele>716.79999999999995</ele>
        <time>2014-05-25T09:13:43Z</time>
      </trkpt>
      <trkpt lat="42.800625739619136" lon="-3.99688471108675">
        <ele>715.36000000000001</ele>
        <time>2014-05-25T09:13:58Z</time>
      </trkpt>
      <trkpt lat="42.800379227846861" lon="-3.996708691120148">
        <ele>714.39999999999998</ele>
        <time>2014-05-25T09:14:16Z</time>
      </trkpt>
      <trkpt lat="42.79950549826026" lon="-3.996388670057058">
        <ele>714.39999999999998</ele>
        <time>2014-05-25T09:14:20Z</time>
      </trkpt>
      <trkpt lat="42.798725059255958" lon="-3.996196808293462">
        <ele>714.39999999999998</ele>
        <time>2014-05-25T09:14:36Z</time>
      </trkpt>
      <trkpt lat="42.797905141487718" lon="-3.996158083900809">
        <ele>714.88</ele>
        <time>2014-05-25T09:14:51Z</time>
      </trkpt>
      <trkpt lat="42.797049432992935" lon="-3.996278950944543">
        <ele>717.27999999999997</ele>
        <time>2014-05-25T09:14:57Z</time>
      </trkpt>
      <trkpt lat="42.796873580664396" lon="-3.996265707537532">
        <ele>716.79999999999995</ele>
        <time>2014-05-25T09:15:02Z</time>
      </trkpt>
      <trkpt lat="42.796187857165933" lon="-3.995948284864426">
        <ele>717.27999999999997</ele>
        <time>2014-05-25T09:15:22Z</time>
      </trkpt>
      <trkpt lat="42.795621743425727" lon="-3.995361467823386">
        <ele>716.79999999999995</ele>
        <time>2014-05-25T09:15:39Z</time>
      </trkpt>
      <trkpt lat="42.795373890548944" lon="-3.995116632431746">
        <ele>716.79999999999995</ele>
        <time>2014-05-25T09:15:55Z</time>
      </trkpt>
      <trkpt lat="42.795116901397705" lon="-3.995023258030415">
        <ele>716.32000000000005</ele>
        <time>2014-05-25T09:16:13Z</time>
      </trkpt>
      <trkpt lat="42.794056506827474" lon="-3.995128534734249">
        <ele>715.84000000000003</ele>
        <time>2014-05-25T09:16:31Z</time>
      </trkpt>
      <trkpt lat="42.793177077546716" lon="-3.995245881378651">
        <ele>715.84000000000003</ele>
        <time>2014-05-25T09:16:51Z</time>
      </trkpt>
      <trkpt lat="42.792335450649261" lon="-3.995341854169965">
        <ele>715.84000000000003</ele>
        <time>2014-05-25T09:17:12Z</time>
      </trkpt>
      <trkpt lat="42.791346721351147" lon="-3.995316037908196">
        <ele>714.88</ele>
        <time>2014-05-25T09:17:28Z</time>
      </trkpt>
      <trkpt lat="42.790384395048022" lon="-3.995212689042091">
        <ele>714.39999999999998</ele>
        <time>2014-05-25T09:17:39Z</time>
      </trkpt>
      <trkpt lat="42.789404718205333" lon="-3.994913455098867">
        <ele>714.88</ele>
        <time>2014-05-25T09:17:55Z</time>
      </trkpt>
      <trkpt lat="42.788407020270824" lon="-3.994307778775692">
        <ele>714.39999999999998</ele>
        <time>2014-05-25T09:18:12Z</time>
      </trkpt>
      <trkpt lat="42.787876026704907" lon="-3.99347897619009">
        <ele>713.44000000000005</ele>
        <time>2014-05-25T09:18:28Z</time>
      </trkpt>
      <trkpt lat="42.787732109427452" lon="-3.992762407287955">
        <ele>714.39999999999998</ele>
        <time>2014-05-25T09:18:43Z</time>
      </trkpt>
      <trkpt lat="42.787850378081203" lon="-3.991722967475653">
        <ele>713.44000000000005</ele>
        <time>2014-05-25T09:19:02Z</time>
      </trkpt>
      <trkpt lat="42.78825388289988" lon="-3.990702051669359">
        <ele>714.39999999999998</ele>
        <time>2014-05-25T09:19:14Z</time>
      </trkpt>
      <trkpt lat="42.788629056885839" lon="-3.989777527749538">
        <ele>713.44000000000005</ele>
        <time>2014-05-25T09:19:17Z</time>
      </trkpt>
      <trkpt lat="42.789168348535895" lon="-3.98891662247479">
        <ele>711.99000000000001</ele>
        <time>2014-05-25T09:19:21Z</time>
      </trkpt>
      <trkpt lat="42.790108630433679" lon="-3.988134758546948">
        <ele>711.50999999999999</ele>
        <time>2014-05-25T09:19:36Z</time>
      </trkpt>
      <trkpt lat="42.79065010137856" lon="-3.987678196281195">
        <ele>711.50999999999999</ele>
        <time>2014-05-25T09:19:55Z</time>
      </trkpt>
      <trkpt lat="42.790784211829305" lon="-3.987559759989381">
        <ele>711.50999999999999</ele>
        <time>2014-05-25T09:20:10Z</time>
      </trkpt>
      <trkpt lat="42.790956208482385" lon="-3.987382734194398">
        <ele>711.99000000000001</ele>
        <time>2014-05-25T09:20:13Z</time>
      </trkpt>
      <trkpt lat="42.7916737832129" lon="-3.986898008733988">
        <ele>711.50999999999999</ele>
        <time>2014-05-25T09:20:34Z</time>
      </trkpt>
      <trkpt lat="42.792644994333386" lon="-3.986236676573753">
        <ele>711.02999999999997</ele>
        <time>2014-05-25T09:20:49Z</time>
      </trkpt>
      <trkpt lat="42.793367262929678" lon="-3.985665868967772">
        <ele>709.59000000000003</ele>
        <time>2014-05-25T09:20:53Z</time>
      </trkpt>
      <trkpt lat="42.79347388073802" lon="-3.985528657212853">
        <ele>710.07000000000005</ele>
        <time>2014-05-25T09:20:57Z</time>
      </trkpt>
      <trkpt lat="42.79441743157804" lon="-3.984581083059311">
        <ele>709.11000000000001</ele>
        <time>2014-05-25T09:21:08Z</time>
      </trkpt>
      <trkpt lat="42.795013468712568" lon="-3.98411731235683">
        <ele>710.54999999999995</ele>
        <time>2014-05-25T09:21:20Z</time>
      </trkpt>
      <trkpt lat="42.795157134532928" lon="-3.984002145007253">
        <ele>710.54999999999995</ele>
        <time>2014-05-25T09:21:33Z</time>
      </trkpt>
      <trkpt lat="42.795301303267479" lon="-3.983887061476708">
        <ele>711.02999999999997</ele>
        <time>2014-05-25T09:21:53Z</time>
      </trkpt>
      <trkpt lat="42.795503977686167" lon="-3.983453549444675">
        <ele>710.54999999999995</ele>
        <time>2014-05-25T09:22:17Z</time>
      </trkpt>
      <trkpt lat="42.795476065948606" lon="-3.983072843402624">
        <ele>712.47000000000003</ele>
        <time>2014-05-25T09:22:41Z</time>
      </trkpt>
      <trkpt lat="42.795455530285835" lon="-3.982761288061738">
        <ele>711.99000000000001</ele>
        <time>2014-05-25T09:23:15Z</time>
      </trkpt>
      <trkpt lat="42.795441616326571" lon="-3.982677301391959">
        <ele>712.47000000000003</ele>
        <time>2014-05-25T09:23:50Z</time>
      </trkpt>
      <trkpt lat="42.795444969087839" lon="-3.982638157904148">
        <ele>711.99000000000001</ele>
        <time>2014-05-25T09:24:17Z</time>
      </trkpt>
      <trkpt lat="42.795439939945936" lon="-3.982632961124182">
        <ele>712.47000000000003</ele>
        <time>2014-05-25T09:24:36Z</time>
      </trkpt>
      <trkpt lat="42.795478831976652" lon="-3.982678055763245">
        <ele>712.95000000000005</ele>
        <time>2014-05-25T09:24:40Z</time>
      </trkpt>
      <trkpt lat="42.795396605506539" lon="-3.98264997638762">
        <ele>712.47000000000003</ele>
        <time>2014-05-25T09:24:54Z</time>
      </trkpt>
      <trkpt lat="42.795411609113216" lon="-3.982571437954903">
        <ele>711.99000000000001</ele>
        <time>2014-05-25T09:25:36Z</time>
      </trkpt>
      <trkpt lat="42.79540398158133" lon="-3.982305647805333">
        <ele>711.99000000000001</ele>
        <time>2014-05-25T09:26:14Z</time>
      </trkpt>
      <trkpt lat="42.795412447303534" lon="-3.982220068573952">
        <ele>712.47000000000003</ele>
        <time>2014-05-25T09:26:57Z</time>
      </trkpt>
      <trkpt lat="42.795395096763968" lon="-3.982159970328212">
        <ele>711.99000000000001</ele>
        <time>2014-05-25T09:27:31Z</time>
      </trkpt>
      <trkpt lat="42.79539761133492" lon="-3.982148403301835">
        <ele>712.47000000000003</ele>
        <time>2014-05-25T09:28:14Z</time>
      </trkpt>
      <trkpt lat="42.795331813395023" lon="-3.982156114652753">
        <ele>712.95000000000005</ele>
        <time>2014-05-25T09:28:54Z</time>
      </trkpt>
      <trkpt lat="42.795327035710216" lon="-3.982142033055425">
        <ele>712.47000000000003</ele>
        <time>2014-05-25T09:29:31Z</time>
      </trkpt>
      <trkpt lat="42.795362994074821" lon="-3.982148990035057">
        <ele>711.99000000000001</ele>
        <time>2014-05-25T09:30:14Z</time>
      </trkpt>
      <trkpt lat="42.795386463403702" lon="-3.982122419402003">
        <ele>712.47000000000003</ele>
        <time>2014-05-25T09:30:59Z</time>
      </trkpt>
      <trkpt lat="42.79534581117332" lon="-3.982124850153923">
        <ele>711.99000000000001</ele>
        <time>2014-05-25T09:31:44Z</time>
      </trkpt>
      <trkpt lat="42.795344972983003" lon="-3.982104146853089">
        <ele>711.50999999999999</ele>
        <time>2014-05-25T09:32:26Z</time>
      </trkpt>
      <trkpt lat="42.795347655192018" lon="-3.982087885960937">
        <ele>711.50999999999999</ele>
        <time>2014-05-25T09:33:11Z</time>
      </trkpt>
      <trkpt lat="42.79540641233325" lon="-3.982088472694159">
        <ele>711.02999999999997</ele>
        <time>2014-05-25T09:34:00Z</time>
      </trkpt>
      <trkpt lat="42.795326700434089" lon="-3.982130466029048">
        <ele>711.50999999999999</ele>
        <time>2014-05-25T09:34:41Z</time>
      </trkpt>
      <trkpt lat="42.795337680727243" lon="-3.98209878243506">
        <ele>711.50999999999999</ele>
        <time>2014-05-25T09:35:19Z</time>
      </trkpt>
      <trkpt lat="42.79536684975028" lon="-3.982127951458097">
        <ele>711.02999999999997</ele>
        <time>2014-05-25T09:36:01Z</time>
      </trkpt>
      <trkpt lat="42.795350672677159" lon="-3.982113115489483">
        <ele>711.02999999999997</ele>
        <time>2014-05-25T09:36:30Z</time>
      </trkpt>
      <trkpt lat="42.79533751308918" lon="-3.982181763276458">
        <ele>711.50999999999999</ele>
        <time>2014-05-25T09:37:00Z</time>
      </trkpt>
      <trkpt lat="42.795304069295526" lon="-3.98221705108881">
        <ele>710.07000000000005</ele>
        <time>2014-05-25T09:37:41Z</time>
      </trkpt>
      <trkpt lat="42.795346146449447" lon="-3.982216715812683">
        <ele>711.02999999999997</ele>
        <time>2014-05-25T09:38:17Z</time>
      </trkpt>
      <trkpt lat="42.795371124520898" lon="-3.982213782146573">
        <ele>711.02999999999997</ele>
        <time>2014-05-25T09:38:56Z</time>
      </trkpt>
      <trkpt lat="42.795330472290516" lon="-3.982159467414022">
        <ele>711.50999999999999</ele>
        <time>2014-05-25T09:39:46Z</time>
      </trkpt>
      <trkpt lat="42.795355031266809" lon="-3.982136249542236">
        <ele>711.50999999999999</ele>
        <time>2014-05-25T09:40:00Z</time>
      </trkpt>
      <trkpt lat="42.795320078730583" lon="-3.98214865475893">
        <ele>711.02999999999997</ele>
        <time>2014-05-25T09:40:04Z</time>
      </trkpt>
      <trkpt lat="42.795352935791016" lon="-3.982189139351249">
        <ele>711.02999999999997</ele>
        <time>2014-05-25T09:40:06Z</time>
      </trkpt>
      <trkpt lat="42.795322425663471" lon="-3.982140189036727">
        <ele>711.02999999999997</ele>
        <time>2014-05-25T09:40:10Z</time>
      </trkpt>
      <trkpt lat="42.79532971791923" lon="-3.982083359733224">
        <ele>707.19000000000005</ele>
        <time>2014-05-25T09:40:23Z</time>
      </trkpt>
      <trkpt lat="42.795321671292186" lon="-3.982017310336232">
        <ele>710.54999999999995</ele>
        <time>2014-05-25T09:40:34Z</time>
      </trkpt>
      <trkpt lat="42.795321000739932" lon="-3.981970371678472">
        <ele>710.54999999999995</ele>
        <time>2014-05-25T09:40:45Z</time>
      </trkpt>
      <trkpt lat="42.795265093445778" lon="-3.981878170743585">
        <ele>710.54999999999995</ele>
        <time>2014-05-25T09:40:56Z</time>
      </trkpt>
      <trkpt lat="42.794929314404726" lon="-3.981555048376322">
        <ele>709.11000000000001</ele>
        <time>2014-05-25T09:41:08Z</time>
      </trkpt>
      <trkpt lat="42.794773327186704" lon="-3.981253635138273">
        <ele>710.07000000000005</ele>
        <time>2014-05-25T09:41:21Z</time>
      </trkpt>
      <trkpt lat="42.794708870351315" lon="-3.980890195816755">
        <ele>711.50999999999999</ele>
        <time>2014-05-25T09:41:35Z</time>
      </trkpt>
      <trkpt lat="42.794668804854155" lon="-3.980583418160677">
        <ele>712.47000000000003</ele>
        <time>2014-05-25T09:41:50Z</time>
      </trkpt>
      <trkpt lat="42.794588170945644" lon="-3.980198269709945">
        <ele>713.91999999999996</ele>
        <time>2014-05-25T09:42:05Z</time>
      </trkpt>
      <trkpt lat="42.794473087415099" lon="-3.979807253926992">
        <ele>715.84000000000003</ele>
        <time>2014-05-25T09:42:24Z</time>
      </trkpt>
      <trkpt lat="42.794351214542985" lon="-3.979395451024175">
        <ele>718.24000000000001</ele>
        <time>2014-05-25T09:42:35Z</time>
      </trkpt>
      <trkpt lat="42.794348448514938" lon="-3.978964621201158">
        <ele>721.13</ele>
        <time>2014-05-25T09:42:52Z</time>
      </trkpt>
      <trkpt lat="42.794468142092228" lon="-3.97859388962388">
        <ele>722.09000000000003</ele>
        <time>2014-05-25T09:43:08Z</time>
      </trkpt>
      <trkpt lat="42.794699985533953" lon="-3.978026350960136">
        <ele>724.49000000000001</ele>
        <time>2014-05-25T09:43:22Z</time>
      </trkpt>
      <trkpt lat="42.794742062687874" lon="-3.977958457544446">
        <ele>724.97000000000003</ele>
        <time>2014-05-25T09:43:39Z</time>
      </trkpt>
      <trkpt lat="42.794828815385699" lon="-3.977838512510061">
        <ele>724.97000000000003</ele>
        <time>2014-05-25T09:43:58Z</time>
      </trkpt>
      <trkpt lat="42.795075578615069" lon="-3.977542547509074">
        <ele>724.97000000000003</ele>
        <time>2014-05-25T09:43:59Z</time>
      </trkpt>
      <trkpt lat="42.79533701017499" lon="-3.977099983021617">
        <ele>724.97000000000003</ele>
        <time>2014-05-25T09:44:05Z</time>
      </trkpt>
      <trkpt lat="42.795602045953274" lon="-3.976494893431664">
        <ele>726.40999999999997</ele>
        <time>2014-05-25T09:44:16Z</time>
      </trkpt>
      <trkpt lat="42.795993648469448" lon="-3.97577689960599">
        <ele>725.92999999999995</ele>
        <time>2014-05-25T09:44:22Z</time>
      </trkpt>
      <trkpt lat="42.796018542721868" lon="-3.975729709491134">
        <ele>725.92999999999995</ele>
        <time>2014-05-25T09:44:28Z</time>
      </trkpt>
      <trkpt lat="42.79621752910316" lon="-3.975489148870111">
        <ele>725.45000000000005</ele>
        <time>2014-05-25T09:44:31Z</time>
      </trkpt>
      <trkpt lat="42.796716587617993" lon="-3.975254707038403">
        <ele>722.57000000000005</ele>
        <time>2014-05-25T09:44:36Z</time>
      </trkpt>
      <trkpt lat="42.797020683065057" lon="-3.974977601319552">
        <ele>719.67999999999995</ele>
        <time>2014-05-25T09:44:41Z</time>
      </trkpt>
      <trkpt lat="42.797310864552855" lon="-3.974481979385018">
        <ele>715.84000000000003</ele>
        <time>2014-05-25T09:44:50Z</time>
      </trkpt>
      <trkpt lat="42.797461487352848" lon="-3.974204622209072">
        <ele>714.39999999999998</ele>
        <time>2014-05-25T09:44:54Z</time>
      </trkpt>
      <trkpt lat="42.797820987179875" lon="-3.973942855373025">
        <ele>711.50999999999999</ele>
        <time>2014-05-25T09:44:58Z</time>
      </trkpt>
      <trkpt lat="42.798197837546468" lon="-3.973815534263849">
        <ele>711.99000000000001</ele>
        <time>2014-05-25T09:45:00Z</time>
      </trkpt>
      <trkpt lat="42.798817679286003" lon="-3.973377915099263">
        <ele>708.14999999999998</ele>
        <time>2014-05-25T09:45:13Z</time>
      </trkpt>
      <trkpt lat="42.799111967906356" lon="-3.973175240680575">
        <ele>707.66999999999996</ele>
        <time>2014-05-25T09:45:20Z</time>
      </trkpt>
      <trkpt lat="42.799336686730385" lon="-3.972845748066902">
        <ele>705.25999999999999</ele>
        <time>2014-05-25T09:45:35Z</time>
      </trkpt>
      <trkpt lat="42.799358395859599" lon="-3.972635194659233">
        <ele>705.75</ele>
        <time>2014-05-25T09:45:51Z</time>
      </trkpt>
      <trkpt lat="42.799339955672622" lon="-3.971552839502692">
        <ele>706.71000000000004</ele>
        <time>2014-05-25T09:46:06Z</time>
      </trkpt>
      <trkpt lat="42.799148093909025" lon="-3.971295515075326">
        <ele>707.19000000000005</ele>
        <time>2014-05-25T09:46:25Z</time>
      </trkpt>
      <trkpt lat="42.798402858898044" lon="-3.971238853409886">
        <ele>706.71000000000004</ele>
        <time>2014-05-25T09:46:41Z</time>
      </trkpt>
      <trkpt lat="42.797588557004929" lon="-3.971132151782513">
        <ele>705.75</ele>
        <time>2014-05-25T09:46:57Z</time>
      </trkpt>
      <trkpt lat="42.796929236501455" lon="-3.971006674692035">
        <ele>706.71000000000004</ele>
        <time>2014-05-25T09:47:13Z</time>
      </trkpt>
      <trkpt lat="42.796166483312845" lon="-3.970773741602898">
        <ele>709.11000000000001</ele>
        <time>2014-05-25T09:47:28Z</time>
      </trkpt>
      <trkpt lat="42.79567806981504" lon="-3.970395885407925">
        <ele>709.11000000000001</ele>
        <time>2014-05-25T09:47:45Z</time>
      </trkpt>
      <trkpt lat="42.79530281201005" lon="-3.969799429178238">
        <ele>711.02999999999997</ele>
        <time>2014-05-25T09:48:04Z</time>
      </trkpt>
      <trkpt lat="42.795123187825084" lon="-3.969146395102143">
        <ele>711.99000000000001</ele>
        <time>2014-05-25T09:48:15Z</time>
      </trkpt>
      <trkpt lat="42.795084128156304" lon="-3.968483889475465">
        <ele>713.91999999999996</ele>
        <time>2014-05-25T09:48:16Z</time>
      </trkpt>
      <trkpt lat="42.79520901851356" lon="-3.967738151550293">
        <ele>715.84000000000003</ele>
        <time>2014-05-25T09:48:19Z</time>
      </trkpt>
      <trkpt lat="42.795448489487171" lon="-3.966888729482889">
        <ele>715.36000000000001</ele>
        <time>2014-05-25T09:48:20Z</time>
      </trkpt>
      <trkpt lat="42.795669352635741" lon="-3.966206442564726">
        <ele>711.99000000000001</ele>
        <time>2014-05-25T09:48:23Z</time>
      </trkpt>
      <trkpt lat="42.795699443668127" lon="-3.966133603826165">
        <ele>711.99000000000001</ele>
        <time>2014-05-25T09:48:33Z</time>
      </trkpt>
      <trkpt lat="42.795792818069458" lon="-3.965904358774424">
        <ele>715.36000000000001</ele>
        <time>2014-05-25T09:48:37Z</time>
      </trkpt>
      <trkpt lat="42.795821065083146" lon="-3.96582699380815">
        <ele>711.50999999999999</ele>
        <time>2014-05-25T09:48:40Z</time>
      </trkpt>
      <trkpt lat="42.795886360108852" lon="-3.965634629130364">
        <ele>710.07000000000005</ele>
        <time>2014-05-25T09:48:57Z</time>
      </trkpt>
      <trkpt lat="42.796050729230046" lon="-3.965315194800496">
        <ele>709.11000000000001</ele>
        <time>2014-05-25T09:49:13Z</time>
      </trkpt>
      <trkpt lat="42.796193724498153" lon="-3.965180916711688">
        <ele>708.63</ele>
        <time>2014-05-25T09:49:29Z</time>
      </trkpt>
      <trkpt lat="42.796348454430699" lon="-3.965100198984146">
        <ele>707.19000000000005</ele>
        <time>2014-05-25T09:49:43Z</time>
      </trkpt>
      <trkpt lat="42.79737020842731" lon="-3.964685965329409">
        <ele>704.77999999999997</ele>
        <time>2014-05-25T09:49:54Z</time>
      </trkpt>
      <trkpt lat="42.79823019169271" lon="-3.964273659512401">
        <ele>704.77999999999997</ele>
        <time>2014-05-25T09:50:10Z</time>
      </trkpt>
      <trkpt lat="42.79897877946496" lon="-3.96359296515584">
        <ele>703.82000000000005</ele>
        <time>2014-05-25T09:50:27Z</time>
      </trkpt>
      <trkpt lat="42.799599124118686" lon="-3.962992653250694">
        <ele>703.82000000000005</ele>
        <time>2014-05-25T09:50:40Z</time>
      </trkpt>
      <trkpt lat="42.800054429098964" lon="-3.962445566430688">
        <ele>704.29999999999995</ele>
        <time>2014-05-25T09:50:54Z</time>
      </trkpt>
      <trkpt lat="42.800353579223156" lon="-3.961363546550274">
        <ele>707.19000000000005</ele>
        <time>2014-05-25T09:51:09Z</time>
      </trkpt>
      <trkpt lat="42.800827994942665" lon="-3.960288316011429">
        <ele>705.25999999999999</ele>
        <time>2014-05-25T09:51:25Z</time>
      </trkpt>
      <trkpt lat="42.801243485882878" lon="-3.959235632792115">
        <ele>703.82000000000005</ele>
        <time>2014-05-25T09:51:40Z</time>
      </trkpt>
      <trkpt lat="42.80140726827085" lon="-3.958058226853609">
        <ele>702.86000000000001</ele>
        <time>2014-05-25T09:51:53Z</time>
      </trkpt>
      <trkpt lat="42.801585216075182" lon="-3.956970926374197">
        <ele>703.34000000000003</ele>
        <time>2014-05-25T09:52:10Z</time>
      </trkpt>
      <trkpt lat="42.802049238234758" lon="-3.955785725265741">
        <ele>701.41999999999996</ele>
        <time>2014-05-25T09:52:28Z</time>
      </trkpt>
      <trkpt lat="42.80253941193223" lon="-3.954928256571293">
        <ele>701.89999999999998</ele>
        <time>2014-05-25T09:52:46Z</time>
      </trkpt>
      <trkpt lat="42.802900420501828" lon="-3.954070033505559">
        <ele>702.86000000000001</ele>
        <time>2014-05-25T09:52:51Z</time>
      </trkpt>
      <trkpt lat="42.803378356620669" lon="-3.952975776046515">
        <ele>702.86000000000001</ele>
        <time>2014-05-25T09:53:06Z</time>
      </trkpt>
      <trkpt lat="42.804001802578568" lon="-3.951919907703996">
        <ele>701.89999999999998</ele>
        <time>2014-05-25T09:53:21Z</time>
      </trkpt>
      <trkpt lat="42.804370857775211" lon="-3.950498923659325">
        <ele>700.46000000000004</ele>
        <time>2014-05-25T09:53:36Z</time>
      </trkpt>
      <trkpt lat="42.804455682635307" lon="-3.950097598135471">
        <ele>699.98000000000002</ele>
        <time>2014-05-25T09:53:51Z</time>
      </trkpt>
      <trkpt lat="42.80438887886703" lon="-3.948906445875764">
        <ele>700.94000000000005</ele>
        <time>2014-05-25T09:53:57Z</time>
      </trkpt>
      <trkpt lat="42.804360631853342" lon="-3.947887877002358">
        <ele>701.89999999999998</ele>
        <time>2014-05-25T09:54:16Z</time>
      </trkpt>
      <trkpt lat="42.804390136152506" lon="-3.947105593979359">
        <ele>703.34000000000003</ele>
        <time>2014-05-25T09:54:31Z</time>
      </trkpt>
      <trkpt lat="42.804497005417943" lon="-3.946425402536988">
        <ele>705.25999999999999</ele>
        <time>2014-05-25T09:54:48Z</time>
      </trkpt>
      <trkpt lat="42.804544111713767" lon="-3.946155086159706">
        <ele>706.23000000000002</ele>
        <time>2014-05-25T09:55:04Z</time>
      </trkpt>
      <trkpt lat="42.804788695648313" lon="-3.94529334269464">
        <ele>707.66999999999996</ele>
        <time>2014-05-25T09:55:20Z</time>
      </trkpt>
      <trkpt lat="42.804889278486371" lon="-3.94465371966362">
        <ele>710.07000000000005</ele>
        <time>2014-05-25T09:55:37Z</time>
      </trkpt>
      <trkpt lat="42.804913753643632" lon="-3.943991968408227">
        <ele>712.47000000000003</ele>
        <time>2014-05-25T09:55:52Z</time>
      </trkpt>
      <trkpt lat="42.80503093264997" lon="-3.943269951269031">
        <ele>712.95000000000005</ele>
        <time>2014-05-25T09:56:07Z</time>
      </trkpt>
      <trkpt lat="42.805157331749797" lon="-3.942515915259719">
        <ele>713.44000000000005</ele>
        <time>2014-05-25T10:29:58Z</time>
      </trkpt>
      <trkpt lat="42.8053695615381" lon="-3.94179280847311">
        <ele>713.44000000000005</ele>
        <time>2014-05-25T10:30:17Z</time>
      </trkpt>
      <trkpt lat="42.80566762201488" lon="-3.941158801317215">
        <ele>714.39999999999998</ele>
        <time>2014-05-25T10:30:26Z</time>
      </trkpt>
      <trkpt lat="42.805780861526728" lon="-3.940613558515906">
        <ele>714.39999999999998</ele>
        <time>2014-05-25T10:30:39Z</time>
      </trkpt>
      <trkpt lat="42.805724116042256" lon="-3.94041976891458">
        <ele>718.24000000000001</ele>
        <time>2014-05-25T10:30:50Z</time>
      </trkpt>
      <trkpt lat="42.805735347792506" lon="-3.939692135900259">
        <ele>717.75999999999999</ele>
        <time>2014-05-25T10:31:04Z</time>
      </trkpt>
      <trkpt lat="42.805790500715375" lon="-3.939430369064212">
        <ele>718.72000000000003</ele>
        <time>2014-05-25T10:31:13Z</time>
      </trkpt>
      <trkpt lat="42.805840037763119" lon="-3.939276644960046">
        <ele>717.75999999999999</ele>
        <time>2014-05-25T10:31:27Z</time>
      </trkpt>
      <trkpt lat="42.805825537070632" lon="-3.939141947776079">
        <ele>718.24000000000001</ele>
        <time>2014-05-25T10:31:46Z</time>
      </trkpt>
      <trkpt lat="42.805848084390163" lon="-3.939149072393775">
        <ele>718.24000000000001</ele>
        <time>2014-05-25T10:35:47Z</time>
      </trkpt>
      <trkpt lat="42.805931400507689" lon="-3.938903482630849">
        <ele>717.75999999999999</ele>
        <time>2014-05-25T10:36:01Z</time>
      </trkpt>
      <trkpt lat="42.805965095758438" lon="-3.938345834612846">
        <ele>717.27999999999997</ele>
        <time>2014-05-25T10:36:15Z</time>
      </trkpt>
      <trkpt lat="42.805965011939406" lon="-3.93741175532341">
        <ele>715.84000000000003</ele>
        <time>2014-05-25T10:36:28Z</time>
      </trkpt>
      <trkpt lat="42.80594615265727" lon="-3.937057284638286">
        <ele>715.37109375</ele>
        <time>2014-05-25T10:36:41Z</time>
      </trkpt>
      <trkpt lat="42.805109806358814" lon="-3.933827737346292">
        <ele>708.44140625</ele>
        <time>2014-05-25T10:36:49Z</time>
      </trkpt>
      <trkpt lat="42.804971504956484" lon="-3.932906063273549">
        <ele>708.69140625</ele>
        <time>2014-05-25T10:37:01Z</time>
      </trkpt>
      <trkpt lat="42.804814260452986" lon="-3.931930242106319">
        <ele>706.4765625</ele>
        <time>2014-05-25T10:37:17Z</time>
      </trkpt>
      <trkpt lat="42.804644526913762" lon="-3.931233203038573">
        <ele>705.73046875</ele>
        <time>2014-05-25T10:37:30Z</time>
      </trkpt>
      <trkpt lat="42.804424501955509" lon="-3.930048169568181">
        <ele>703.62890625</ele>
        <time>2014-05-25T10:37:40Z</time>
      </trkpt>
      <trkpt lat="42.803946565836668" lon="-3.929877765476704">
        <ele>700.30859375</ele>
        <time>2014-05-25T10:37:43Z</time>
      </trkpt>
      <trkpt lat="42.80379569157958" lon="-3.929598983377218">
        <ele>699.5</ele>
        <time>2014-05-25T10:37:46Z</time>
      </trkpt>
      <trkpt lat="42.80365101993084" lon="-3.929103277623653">
        <ele>698.9140625</ele>
        <time>2014-05-25T10:37:51Z</time>
      </trkpt>
      <trkpt lat="42.803628472611308" lon="-3.929111575707793">
        <ele>701.89999999999998</ele>
        <time>2014-05-25T10:38:00Z</time>
      </trkpt>
      <trkpt lat="42.803482040762901" lon="-3.928453344851732">
        <ele>701.41999999999996</ele>
        <time>2014-05-25T10:38:02Z</time>
      </trkpt>
      <trkpt lat="42.803405681625009" lon="-3.927861079573631">
        <ele>704.29999999999995</ele>
        <time>2014-05-25T10:38:05Z</time>
      </trkpt>
      <trkpt lat="42.803072165697813" lon="-3.927502334117889">
        <ele>705.25999999999999</ele>
        <time>2014-05-25T10:38:21Z</time>
      </trkpt>
      <trkpt lat="42.802763879299164" lon="-3.927099164575338">
        <ele>704.29999999999995</ele>
        <time>2014-05-25T10:38:29Z</time>
      </trkpt>
      <trkpt lat="42.802883991971612" lon="-3.926804373040795">
        <ele>704.29999999999995</ele>
        <time>2014-05-25T10:38:42Z</time>
      </trkpt>
      <trkpt lat="42.8031091298908" lon="-3.926422409713268">
        <ele>704.29999999999995</ele>
        <time>2014-05-25T10:38:58Z</time>
      </trkpt>
      <trkpt lat="42.803342817351222" lon="-3.925667032599449">
        <ele>705.25999999999999</ele>
        <time>2014-05-25T10:39:13Z</time>
      </trkpt>
      <trkpt lat="42.803465528413653" lon="-3.92504652030766">
        <ele>706.23000000000002</ele>
        <time>2014-05-25T10:39:33Z</time>
      </trkpt>
      <trkpt lat="42.803627718240023" lon="-3.924591466784477">
        <ele>705.75</ele>
        <time>2014-05-25T10:39:49Z</time>
      </trkpt>
      <trkpt lat="42.803733749315143" lon="-3.924471605569124">
        <ele>705.75</ele>
        <time>2014-05-25T10:40:05Z</time>
      </trkpt>
      <trkpt lat="42.803869536146522" lon="-3.924368340522051">
        <ele>704.29999999999995</ele>
        <time>2014-05-25T10:40:23Z</time>
      </trkpt>
      <trkpt lat="42.804125268012285" lon="-3.924085535109043">
        <ele>701.41999999999996</ele>
        <time>2014-05-25T10:40:39Z</time>
      </trkpt>
      <trkpt lat="42.804489461705089" lon="-3.923567617312074">
        <ele>700.94000000000005</ele>
        <time>2014-05-25T10:40:55Z</time>
      </trkpt>
      <trkpt lat="42.804551739245653" lon="-3.923438955098391">
        <ele>700.46000000000004</ele>
        <time>2014-05-25T10:41:12Z</time>
      </trkpt>
      <trkpt lat="42.804665397852659" lon="-3.923262683674693">
        <ele>700.46000000000004</ele>
        <time>2014-05-25T10:41:26Z</time>
      </trkpt>
      <trkpt lat="42.805228242650628" lon="-3.922730013728142">
        <ele>703.34000000000003</ele>
        <time>2014-05-25T10:41:42Z</time>
      </trkpt>
      <trkpt lat="42.805444747209549" lon="-3.922571428120136">
        <ele>704.77999999999997</ele>
        <time>2014-05-25T10:42:02Z</time>
      </trkpt>
      <trkpt lat="42.805623030290008" lon="-3.922135820612311">
        <ele>707.66999999999996</ele>
        <time>2014-05-25T10:42:17Z</time>
      </trkpt>
      <trkpt lat="42.805783711373806" lon="-3.92160021699965">
        <ele>711.02999999999997</ele>
        <time>2014-05-25T10:42:31Z</time>
      </trkpt>
      <trkpt lat="42.805990912020206" lon="-3.921120017766953">
        <ele>713.91999999999996</ele>
        <time>2014-05-25T10:42:49Z</time>
      </trkpt>
      <trkpt lat="42.806277237832546" lon="-3.920519789680839">
        <ele>716.79999999999995</ele>
        <time>2014-05-25T10:43:05Z</time>
      </trkpt>
      <trkpt lat="42.806542441248894" lon="-3.92007127404213">
        <ele>718.72000000000003</ele>
        <time>2014-05-25T10:43:19Z</time>
      </trkpt>
      <trkpt lat="42.806895906105638" lon="-3.919763658195734">
        <ele>721.61000000000001</ele>
        <time>2014-05-25T10:43:22Z</time>
      </trkpt>
      <trkpt lat="42.807351714000106" lon="-3.919539777562022">
        <ele>722.57000000000005</ele>
        <time>2014-05-25T10:43:33Z</time>
      </trkpt>
      <trkpt lat="42.807750608772039" lon="-3.919258732348681">
        <ele>724.49000000000001</ele>
        <time>2014-05-25T10:43:44Z</time>
      </trkpt>
      <trkpt lat="42.808053363114595" lon="-3.918797476217151">
        <ele>726.88999999999999</ele>
        <time>2014-05-25T10:43:45Z</time>
      </trkpt>
      <trkpt lat="42.808380592614412" lon="-3.918270338326693">
        <ele>727.37</ele>
        <time>2014-05-25T10:43:50Z</time>
      </trkpt>
      <trkpt lat="42.808702290058136" lon="-3.917768346145749">
        <ele>726.88999999999999</ele>
        <time>2014-05-25T10:43:58Z</time>
      </trkpt>
      <trkpt lat="42.809059359133244" lon="-3.917225282639265">
        <ele>728.82000000000005</ele>
        <time>2014-05-25T10:44:00Z</time>
      </trkpt>
      <trkpt lat="42.809447441250086" lon="-3.916614912450314">
        <ele>730.74000000000001</ele>
        <time>2014-05-25T10:44:06Z</time>
      </trkpt>
      <trkpt lat="42.809721948578954" lon="-3.916162792593241">
        <ele>733.13999999999999</ele>
        <time>2014-05-25T10:44:07Z</time>
      </trkpt>
      <trkpt lat="42.809971142560244" lon="-3.915741518139839">
        <ele>736.02999999999997</ele>
        <time>2014-05-25T10:44:13Z</time>
      </trkpt>
      <trkpt lat="42.810263335704803" lon="-3.915236676111817">
        <ele>737.47000000000003</ele>
        <time>2014-05-25T10:44:25Z</time>
      </trkpt>
      <trkpt lat="42.810525856912136" lon="-3.914762511849403">
        <ele>739.38999999999999</ele>
        <time>2014-05-25T10:44:26Z</time>
      </trkpt>
      <trkpt lat="42.810918968170881" lon="-3.914396055042744">
        <ele>737.95000000000005</ele>
        <time>2014-05-25T10:44:28Z</time>
      </trkpt>
      <trkpt lat="42.811066824942827" lon="-3.914333693683147">
        <ele>736.50999999999999</ele>
        <time>2014-05-25T10:44:45Z</time>
      </trkpt>
      <trkpt lat="42.811696054413915" lon="-3.914106041193008">
        <ele>732.65999999999997</ele>
        <time>2014-05-25T10:44:47Z</time>
      </trkpt>
      <trkpt lat="42.812402229756117" lon="-3.913838742300868">
        <ele>729.29999999999995</ele>
        <time>2014-05-25T10:45:02Z</time>
      </trkpt>
      <trkpt lat="42.812472134828568" lon="-3.913813009858131">
        <ele>728.82000000000005</ele>
        <time>2014-05-25T10:45:15Z</time>
      </trkpt>
      <trkpt lat="42.812828784808517" lon="-3.913656687363982">
        <ele>727.37</ele>
        <time>2014-05-25T10:45:18Z</time>
      </trkpt>
      <trkpt lat="42.813261123374104" lon="-3.913062242791057">
        <ele>725.45000000000005</ele>
        <time>2014-05-25T10:45:24Z</time>
      </trkpt>
      <trkpt lat="42.813387103378773" lon="-3.912939447909594">
        <ele>723.52999999999997</ele>
        <time>2014-05-25T10:45:27Z</time>
      </trkpt>
      <trkpt lat="42.81381013803184" lon="-3.912630071863532">
        <ele>720.64999999999998</ele>
        <time>2014-05-25T10:45:33Z</time>
      </trkpt>
      <trkpt lat="42.81388197094202" lon="-3.912577265873551">
        <ele>720.15999999999997</ele>
        <time>2014-05-25T10:45:38Z</time>
      </trkpt>
      <trkpt lat="42.814302742481232" lon="-3.912256071344018">
        <ele>719.20000000000005</ele>
        <time>2014-05-25T10:45:39Z</time>
      </trkpt>
      <trkpt lat="42.814824935048819" lon="-3.911432549357414">
        <ele>719.20000000000005</ele>
        <time>2014-05-25T10:45:42Z</time>
      </trkpt>
      <trkpt lat="42.81486508436501" lon="-3.911377815529704">
        <ele>718.72000000000003</ele>
        <time>2014-05-25T10:45:48Z</time>
      </trkpt>
      <trkpt lat="42.814948735758662" lon="-3.911280585452914">
        <ele>719.20000000000005</ele>
        <time>2014-05-25T10:45:50Z</time>
      </trkpt>
      <trkpt lat="42.815741747617722" lon="-3.910643476992846">
        <ele>717.27999999999997</ele>
        <time>2014-05-25T10:46:00Z</time>
      </trkpt>
      <trkpt lat="42.815836798399687" lon="-3.91059871762991">
        <ele>717.75999999999999</ele>
        <time>2014-05-25T10:46:13Z</time>
      </trkpt>
      <trkpt lat="42.816445492208004" lon="-3.910477347671986">
        <ele>721.13</ele>
        <time>2014-05-25T10:46:28Z</time>
      </trkpt>
      <trkpt lat="42.816841201856732" lon="-3.910361090674996">
        <ele>723.04999999999995</ele>
        <time>2014-05-25T10:46:42Z</time>
      </trkpt>
      <trkpt lat="42.816930804401636" lon="-3.910287246108055">
        <ele>721.13</ele>
        <time>2014-05-25T10:46:50Z</time>
      </trkpt>
      <trkpt lat="42.817094083875418" lon="-3.909979127347469">
        <ele>719.20000000000005</ele>
        <time>2014-05-25T10:47:02Z</time>
      </trkpt>
      <trkpt lat="42.817179663106799" lon="-3.909781482070684">
        <ele>718.24000000000001</ele>
        <time>2014-05-25T10:47:04Z</time>
      </trkpt>
      <trkpt lat="42.817440172657371" lon="-3.909485768526793">
        <ele>716.79999999999995</ele>
        <time>2014-05-25T10:47:16Z</time>
      </trkpt>
      <trkpt lat="42.817714596167207" lon="-3.909343192353845">
        <ele>716.32000000000005</ele>
        <time>2014-05-25T10:47:26Z</time>
      </trkpt>
      <trkpt lat="42.817765809595585" lon="-3.909312849864364">
        <ele>716.32000000000005</ele>
        <time>2014-05-25T10:47:40Z</time>
      </trkpt>
      <trkpt lat="42.817897154018283" lon="-3.909196257591248">
        <ele>715.84000000000003</ele>
        <time>2014-05-25T10:47:56Z</time>
      </trkpt>
      <trkpt lat="42.818097313866019" lon="-3.908877996727824">
        <ele>715.84000000000003</ele>
        <time>2014-05-25T10:48:11Z</time>
      </trkpt>
      <trkpt lat="42.818178283050656" lon="-3.90879618935287">
        <ele>714.88</ele>
        <time>2014-05-25T10:48:14Z</time>
      </trkpt>
      <trkpt lat="42.818469973281026" lon="-3.908603489398956">
        <ele>715.84000000000003</ele>
        <time>2014-05-25T10:48:30Z</time>
      </trkpt>
      <trkpt lat="42.818729979917407" lon="-3.908359324559569">
        <ele>715.36000000000001</ele>
        <time>2014-05-25T10:48:50Z</time>
      </trkpt>
      <trkpt lat="42.819131137803197" lon="-3.908047014847398">
        <ele>713.91999999999996</ele>
        <time>2014-05-25T10:49:08Z</time>
      </trkpt>
      <trkpt lat="42.81954905949533" lon="-3.907762030139566">
        <ele>711.02999999999997</ele>
        <time>2014-05-25T10:49:25Z</time>
      </trkpt>
      <trkpt lat="42.819903194904327" lon="-3.907535970211029">
        <ele>708.14999999999998</ele>
        <time>2014-05-25T10:49:41Z</time>
      </trkpt>
      <trkpt lat="42.820522366091609" lon="-3.907225085422397">
        <ele>704.77999999999997</ele>
        <time>2014-05-25T10:50:02Z</time>
      </trkpt>
      <trkpt lat="42.820632755756378" lon="-3.907153839245439">
        <ele>704.29999999999995</ele>
        <time>2014-05-25T10:50:23Z</time>
      </trkpt>
      <trkpt lat="42.82112343236804" lon="-3.906390750780702">
        <ele>703.82000000000005</ele>
        <time>2014-05-25T10:50:44Z</time>
      </trkpt>
      <trkpt lat="42.821430461481214" lon="-3.905840143561363">
        <ele>707.19000000000005</ele>
        <time>2014-05-25T10:50:52Z</time>
      </trkpt>
      <trkpt lat="42.821896160021424" lon="-3.905437644571066">
        <ele>706.23000000000002</ele>
        <time>2014-05-25T10:50:53Z</time>
      </trkpt>
      <trkpt lat="42.822413071990013" lon="-3.904945459216833">
        <ele>702.86000000000001</ele>
        <time>2014-05-25T10:51:06Z</time>
      </trkpt>
      <trkpt lat="42.822899725288153" lon="-3.904257975518704">
        <ele>702.86000000000001</ele>
        <time>2014-05-25T10:51:18Z</time>
      </trkpt>
      <trkpt lat="42.822983460500836" lon="-3.904189830645919">
        <ele>703.82000000000005</ele>
        <time>2014-05-25T10:51:35Z</time>
      </trkpt>
      <trkpt lat="42.823500037193298" lon="-3.903837539255619">
        <ele>704.29999999999995</ele>
        <time>2014-05-25T10:51:47Z</time>
      </trkpt>
      <trkpt lat="42.824080483987927" lon="-3.903227169066668">
        <ele>706.71000000000004</ele>
        <time>2014-05-25T10:51:48Z</time>
      </trkpt>
      <trkpt lat="42.824569065123796" lon="-3.902687709778547">
        <ele>707.66999999999996</ele>
        <time>2014-05-25T10:52:06Z</time>
      </trkpt>
      <trkpt lat="42.8250627592206" lon="-3.902117908000946">
        <ele>708.63</ele>
        <time>2014-05-25T10:52:23Z</time>
      </trkpt>
      <trkpt lat="42.825353527441621" lon="-3.901467137038708">
        <ele>711.02999999999997</ele>
        <time>2014-05-25T10:52:40Z</time>
      </trkpt>
      <trkpt lat="42.825724761933088" lon="-3.900591898709536">
        <ele>712.47000000000003</ele>
        <time>2014-05-25T10:52:41Z</time>
      </trkpt>
      <trkpt lat="42.826110748574138" lon="-3.899690927937627">
        <ele>712.95000000000005</ele>
        <time>2014-05-25T10:52:55Z</time>
      </trkpt>
      <trkpt lat="42.826388524845243" lon="-3.898648638278246">
        <ele>713.44000000000005</ele>
        <time>2014-05-25T10:53:07Z</time>
      </trkpt>
      <trkpt lat="42.826485503464937" lon="-3.898239601403475">
        <ele>709.11000000000001</ele>
        <time>2014-05-25T10:53:25Z</time>
      </trkpt>
      <trkpt lat="42.826495142653584" lon="-3.898187046870589">
        <ele>713.44000000000005</ele>
        <time>2014-05-25T10:53:41Z</time>
      </trkpt>
      <trkpt lat="42.826671162620187" lon="-3.897412559017539">
        <ele>709.11000000000001</ele>
        <time>2014-05-25T10:53:53Z</time>
      </trkpt>
      <trkpt lat="42.826879620552063" lon="-3.896477473899722">
        <ele>707.66999999999996</ele>
        <time>2014-05-25T10:54:09Z</time>
      </trkpt>
      <trkpt lat="42.827160330489278" lon="-3.895169058814645">
        <ele>708.63</ele>
        <time>2014-05-25T10:54:20Z</time>
      </trkpt>
      <trkpt lat="42.827354874461889" lon="-3.89449205249548">
        <ele>710.07000000000005</ele>
        <time>2014-05-25T10:54:36Z</time>
      </trkpt>
      <trkpt lat="42.827372476458549" lon="-3.89444318599999">
        <ele>709.59000000000003</ele>
        <time>2014-05-25T10:54:51Z</time>
      </trkpt>
      <trkpt lat="42.827790230512619" lon="-3.893674397841096">
        <ele>711.50999999999999</ele>
        <time>2014-05-25T10:55:06Z</time>
      </trkpt>
      <trkpt lat="42.828137660399079" lon="-3.892905861139298">
        <ele>712.95000000000005</ele>
        <time>2014-05-25T10:55:14Z</time>
      </trkpt>
      <trkpt lat="42.828376796096563" lon="-3.892045542597771">
        <ele>713.44000000000005</ele>
        <time>2014-05-25T10:55:24Z</time>
      </trkpt>
      <trkpt lat="42.828383920714259" lon="-3.891995251178742">
        <ele>713.91999999999996</ele>
        <time>2014-05-25T10:55:27Z</time>
      </trkpt>
      <trkpt lat="42.828394398093224" lon="-3.891280526295304">
        <ele>715.84000000000003</ele>
        <time>2014-05-25T10:55:30Z</time>
      </trkpt>
      <trkpt lat="42.828437061980367" lon="-3.890706533566117">
        <ele>719.20000000000005</ele>
        <time>2014-05-25T10:55:33Z</time>
      </trkpt>
      <trkpt lat="42.828464303165674" lon="-3.890009494498372">
        <ele>721.13</ele>
        <time>2014-05-25T10:55:39Z</time>
      </trkpt>
      <trkpt lat="42.828435134142637" lon="-3.889368446543813">
        <ele>722.57000000000005</ele>
        <time>2014-05-25T10:55:46Z</time>
      </trkpt>
      <trkpt lat="42.828445443883538" lon="-3.889015484601259">
        <ele>725.45000000000005</ele>
        <time>2014-05-25T10:55:48Z</time>
      </trkpt>
      <trkpt lat="42.828435972332954" lon="-3.888525562360883">
        <ele>728.34000000000003</ele>
        <time>2014-05-25T10:56:00Z</time>
      </trkpt>
      <trkpt lat="42.828466231003404" lon="-3.888174444437027">
        <ele>731.22000000000003</ele>
        <time>2014-05-25T10:56:14Z</time>
      </trkpt>
      <trkpt lat="42.828624900430441" lon="-3.887701453641057">
        <ele>734.58000000000004</ele>
        <time>2014-05-25T10:56:30Z</time>
      </trkpt>
      <trkpt lat="42.828765297308564" lon="-3.887104410678148">
        <ele>734.10000000000002</ele>
        <time>2014-05-25T10:56:49Z</time>
      </trkpt>
      <trkpt lat="42.829004600644112" lon="-3.88638423755765">
        <ele>731.70000000000005</ele>
        <time>2014-05-25T10:56:50Z</time>
      </trkpt>
      <trkpt lat="42.829307857900858" lon="-3.885874953120947">
        <ele>728.34000000000003</ele>
        <time>2014-05-25T10:56:57Z</time>
      </trkpt>
      <trkpt lat="42.829748913645744" lon="-3.8851900678128">
        <ele>724.97000000000003</ele>
        <time>2014-05-25T10:57:05Z</time>
      </trkpt>
      <trkpt lat="42.829914540052414" lon="-3.884933665394783">
        <ele>721.13</ele>
        <time>2014-05-25T10:57:23Z</time>
      </trkpt>
      <trkpt lat="42.830107910558581" lon="-3.884645579382777">
        <ele>717.27999999999997</ele>
        <time>2014-05-25T10:57:39Z</time>
      </trkpt>
      <trkpt lat="42.830304130911827" lon="-3.884347602725029">
        <ele>714.39999999999998</ele>
        <time>2014-05-25T10:57:53Z</time>
      </trkpt>
      <trkpt lat="42.83069665543735" lon="-3.883741842582822">
        <ele>711.50999999999999</ele>
        <time>2014-05-25T10:58:09Z</time>
      </trkpt>
      <trkpt lat="42.830989016219974" lon="-3.882798794656992">
        <ele>706.71000000000004</ele>
        <time>2014-05-25T10:58:25Z</time>
      </trkpt>
      <trkpt lat="42.831082390621305" lon="-3.882537614554167">
        <ele>705.25999999999999</ele>
        <time>2014-05-25T10:58:39Z</time>
      </trkpt>
      <trkpt lat="42.831569714471698" lon="-3.881123838946223">
        <ele>702.86000000000001</ele>
        <time>2014-05-25T10:58:55Z</time>
      </trkpt>
      <trkpt lat="42.831779262050986" lon="-3.87969883158803">
        <ele>699.98000000000002</ele>
        <time>2014-05-25T10:59:11Z</time>
      </trkpt>
      <trkpt lat="42.831753361970186" lon="-3.878325121477246">
        <ele>698.52999999999997</ele>
        <time>2014-05-25T10:59:25Z</time>
      </trkpt>
      <trkpt lat="42.831610534340143" lon="-3.87696985155344">
        <ele>698.04999999999995</ele>
        <time>2014-05-25T10:59:41Z</time>
      </trkpt>
      <trkpt lat="42.831603912636638" lon="-3.876911848783493">
        <ele>698.04999999999995</ele>
        <time>2014-05-25T10:59:55Z</time>
      </trkpt>
      <trkpt lat="42.831563847139478" lon="-3.876491328701377">
        <ele>697.57000000000005</ele>
        <time>2014-05-25T11:00:07Z</time>
      </trkpt>
      <trkpt lat="42.831506598740816" lon="-3.876050272956491">
        <ele>698.04999999999995</ele>
        <time>2014-05-25T11:00:28Z</time>
      </trkpt>
      <trkpt lat="42.831334937363863" lon="-3.875049473717809">
        <ele>697.57000000000005</ele>
        <time>2014-05-25T11:00:41Z</time>
      </trkpt>
      <trkpt lat="42.83118674531579" lon="-3.874312452971935">
        <ele>697.09000000000003</ele>
        <time>2014-05-25T11:00:56Z</time>
      </trkpt>
      <trkpt lat="42.831096556037664" lon="-3.873807862401009">
        <ele>697.09000000000003</ele>
        <time>2014-05-25T11:01:12Z</time>
      </trkpt>
      <trkpt lat="42.831013910472393" lon="-3.873280389234424">
        <ele>697.09000000000003</ele>
        <time>2014-05-25T11:01:15Z</time>
      </trkpt>
      <trkpt lat="42.830705037340522" lon="-3.872730620205402">
        <ele>699.5</ele>
        <time>2014-05-25T11:01:23Z</time>
      </trkpt>
      <trkpt lat="42.830371269956231" lon="-3.87240213342011">
        <ele>701.41999999999996</ele>
        <time>2014-05-25T11:01:35Z</time>
      </trkpt>
      <trkpt lat="42.830043202266097" lon="-3.872047159820795">
        <ele>703.34000000000003</ele>
        <time>2014-05-25T11:01:44Z</time>
      </trkpt>
      <trkpt lat="42.829728461802006" lon="-3.871696293354034">
        <ele>705.25999999999999</ele>
        <time>2014-05-25T11:04:26Z</time>
      </trkpt>
      <trkpt lat="42.829426042735577" lon="-3.871450619772077">
        <ele>706.71000000000004</ele>
        <time>2014-05-25T11:04:27Z</time>
      </trkpt>
      <trkpt lat="42.829133179038763" lon="-3.871203605085611">
        <ele>709.59000000000003</ele>
        <time>2014-05-25T11:04:37Z</time>
      </trkpt>
      <trkpt lat="42.828959506005049" lon="-3.870961368083954">
        <ele>712.95000000000005</ele>
        <time>2014-05-25T11:04:42Z</time>
      </trkpt>
      <trkpt lat="42.828821456059813" lon="-3.870718460530043">
        <ele>713.91999999999996</ele>
        <time>2014-05-25T11:04:47Z</time>
      </trkpt>
      <trkpt lat="42.828575614839792" lon="-3.870304059237242">
        <ele>716.79999999999995</ele>
        <time>2014-05-25T11:04:53Z</time>
      </trkpt>
      <trkpt lat="42.828441504389048" lon="-3.870002645999193">
        <ele>719.67999999999995</ele>
        <time>2014-05-25T11:04:54Z</time>
      </trkpt>
      <trkpt lat="42.828479139134288" lon="-3.86953191831708">
        <ele>721.61000000000001</ele>
        <time>2014-05-25T11:04:58Z</time>
      </trkpt>
      <trkpt lat="42.828614255413413" lon="-3.869003858417273">
        <ele>721.13</ele>
        <time>2014-05-25T11:05:02Z</time>
      </trkpt>
      <trkpt lat="42.828642083331943" lon="-3.868913082405925">
        <ele>720.64999999999998</ele>
        <time>2014-05-25T11:35:54Z</time>
      </trkpt>
      <trkpt lat="42.828752221539617" lon="-3.868975611403585">
        <ele>720.64999999999998</ele>
        <time>2014-05-25T11:36:01Z</time>
      </trkpt>
      <trkpt lat="42.828793125227094" lon="-3.869009055197239">
        <ele>720.64999999999998</ele>
        <time>2014-05-25T11:36:08Z</time>
      </trkpt>
      <trkpt lat="42.82878365367651" lon="-3.869057083502412">
        <ele>720.15999999999997</ele>
        <time>2014-05-25T11:36:09Z</time>
      </trkpt>
      <trkpt lat="42.828793125227094" lon="-3.869009055197239">
        <ele>714.88</ele>
        <time>2014-05-25T11:36:21Z</time>
      </trkpt>
      <trkpt lat="42.828746605664492" lon="-3.868992291390896">
        <ele>705.25999999999999</ele>
        <time>2014-05-25T11:36:32Z</time>
      </trkpt>
      <trkpt lat="42.828693212941289" lon="-3.869016682729125">
        <ele>706.71000000000004</ele>
        <time>2014-05-25T11:36:37Z</time>
      </trkpt>
      <trkpt lat="42.828700253739953" lon="-3.869018610566855">
        <ele>710.54999999999995</ele>
        <time>2014-05-25T11:36:39Z</time>
      </trkpt>
      <trkpt lat="42.828711150214076" lon="-3.869027076289058">
        <ele>714.39999999999998</ele>
        <time>2014-05-25T11:36:43Z</time>
      </trkpt>
      <trkpt lat="42.828712239861488" lon="-3.869048031046987">
        <ele>719.20000000000005</ele>
        <time>2014-05-25T11:36:55Z</time>
      </trkpt>
      <trkpt lat="42.828711569309235" lon="-3.869051383808255">
        <ele>717.75999999999999</ele>
        <time>2014-05-25T11:37:09Z</time>
      </trkpt>
      <trkpt lat="42.828713078051805" lon="-3.869055071845651">
        <ele>719.67999999999995</ele>
        <time>2014-05-25T11:37:18Z</time>
      </trkpt>
      <trkpt lat="42.82871718518436" lon="-3.869054485112429">
        <ele>720.64999999999998</ele>
        <time>2014-05-25T11:37:34Z</time>
      </trkpt>
      <trkpt lat="42.828793125227094" lon="-3.869009055197239">
        <ele>699.98000000000002</ele>
        <time>2014-05-25T11:37:47Z</time>
      </trkpt>
      <trkpt lat="42.829188499599695" lon="-3.86758228763938">
        <ele>701.41999999999996</ele>
        <time>2014-05-25T11:37:57Z</time>
      </trkpt>
      <trkpt lat="42.829185063019395" lon="-3.867582455277443">
        <ele>704.77999999999997</ele>
        <time>2014-05-25T11:38:07Z</time>
      </trkpt>
      <trkpt lat="42.829186655580997" lon="-3.867582622915506">
        <ele>704.77999999999997</ele>
        <time>2014-05-25T11:38:08Z</time>
      </trkpt>
      <trkpt lat="42.829309869557619" lon="-3.867168137803674">
        <ele>705.25999999999999</ele>
        <time>2014-05-25T11:38:17Z</time>
      </trkpt>
      <trkpt lat="42.829617317765951" lon="-3.866286110132933">
        <ele>702.86000000000001</ele>
        <time>2014-05-25T11:38:18Z</time>
      </trkpt>
      <trkpt lat="42.829791661351919" lon="-3.865741202607751">
        <ele>699.01999999999998</ele>
        <time>2014-05-25T11:38:25Z</time>
      </trkpt>
      <trkpt lat="42.829858129844069" lon="-3.865492343902588">
        <ele>697.09000000000003</ele>
        <time>2014-05-25T11:38:30Z</time>
      </trkpt>
      <trkpt lat="42.830061223357916" lon="-3.865041565150023">
        <ele>695.16999999999996</ele>
        <time>2014-05-25T11:38:40Z</time>
      </trkpt>
      <trkpt lat="42.830770583823323" lon="-3.864046046510339">
        <ele>694.69000000000005</ele>
        <time>2014-05-25T11:38:54Z</time>
      </trkpt>
      <trkpt lat="42.831125808879733" lon="-3.862966792657971">
        <ele>696.13</ele>
        <time>2014-05-25T11:39:07Z</time>
      </trkpt>
      <trkpt lat="42.831216165795922" lon="-3.862644759938121">
        <ele>696.13</ele>
        <time>2014-05-25T11:39:21Z</time>
      </trkpt>
      <trkpt lat="42.831278778612614" lon="-3.862101947888732">
        <ele>696.61000000000001</ele>
        <time>2014-05-25T11:39:36Z</time>
      </trkpt>
      <trkpt lat="42.831217339262366" lon="-3.86145880445838">
        <ele>695.16999999999996</ele>
        <time>2014-05-25T11:39:47Z</time>
      </trkpt>
      <trkpt lat="42.831177860498428" lon="-3.861110452562571">
        <ele>695.16999999999996</ele>
        <time>2014-05-25T11:40:05Z</time>
      </trkpt>
      <trkpt lat="42.831357819959521" lon="-3.860808536410332">
        <ele>694.21000000000004</ele>
        <time>2014-05-25T11:40:17Z</time>
      </trkpt>
      <trkpt lat="42.831405261531472" lon="-3.860793365165591">
        <ele>693.73000000000002</ele>
        <time>2014-05-25T11:40:27Z</time>
      </trkpt>
      <trkpt lat="42.831919910386205" lon="-3.86066135019064">
        <ele>690.36000000000001</ele>
        <time>2014-05-25T11:40:31Z</time>
      </trkpt>
      <trkpt lat="42.831979254260659" lon="-3.860651878640056">
        <ele>689.88</ele>
        <time>2014-05-25T11:40:43Z</time>
      </trkpt>
      <trkpt lat="42.83229298889637" lon="-3.860637210309506">
        <ele>689.39999999999998</ele>
        <time>2014-05-25T11:40:57Z</time>
      </trkpt>
      <trkpt lat="42.832363061606884" lon="-3.860527658835053">
        <ele>688.91999999999996</ele>
        <time>2014-05-25T11:41:12Z</time>
      </trkpt>
      <trkpt lat="42.832519384101033" lon="-3.86020839214325">
        <ele>688.91999999999996</ele>
        <time>2014-05-25T11:41:25Z</time>
      </trkpt>
      <trkpt lat="42.832641424611211" lon="-3.859785944223404">
        <ele>688.91999999999996</ele>
        <time>2014-05-25T11:41:38Z</time>
      </trkpt>
      <trkpt lat="42.832734463736415" lon="-3.859407668933272">
        <ele>689.88</ele>
        <time>2014-05-25T11:41:51Z</time>
      </trkpt>
      <trkpt lat="42.832961194217205" lon="-3.858886146917939">
        <ele>689.39999999999998</ele>
        <time>2014-05-25T11:42:06Z</time>
      </trkpt>
      <trkpt lat="42.833243748173118" lon="-3.858341239392757">
        <ele>689.88</ele>
        <time>2014-05-25T11:42:21Z</time>
      </trkpt>
      <trkpt lat="42.83332010731101" lon="-3.858132530003786">
        <ele>690.36000000000001</ele>
        <time>2014-05-25T11:42:34Z</time>
      </trkpt>
      <trkpt lat="42.833322621881962" lon="-3.85814837180078">
        <ele>689.88</ele>
        <time>2014-05-25T11:42:48Z</time>
      </trkpt>
      <trkpt lat="42.833401998504996" lon="-3.857974112033844">
        <ele>688.91999999999996</ele>
        <time>2014-05-25T11:42:58Z</time>
      </trkpt>
      <trkpt lat="42.833620933815837" lon="-3.857637830078602">
        <ele>688.44000000000005</ele>
        <time>2014-05-25T11:43:13Z</time>
      </trkpt>
      <trkpt lat="42.833729311823845" lon="-3.857480250298977">
        <ele>687.96000000000004</ele>
        <time>2014-05-25T11:43:26Z</time>
      </trkpt>
      <trkpt lat="42.833880605176091" lon="-3.85710658505559">
        <ele>689.39999999999998</ele>
        <time>2014-05-25T11:43:33Z</time>
      </trkpt>
      <trkpt lat="42.834034748375416" lon="-3.856628397479653">
        <ele>689.39999999999998</ele>
        <time>2014-05-25T11:43:36Z</time>
      </trkpt>
      <trkpt lat="42.834183275699615" lon="-3.855980476364493">
        <ele>687.48000000000002</ele>
        <time>2014-05-25T11:43:40Z</time>
      </trkpt>
      <trkpt lat="42.834296599030495" lon="-3.855337919667363">
        <ele>687.48000000000002</ele>
        <time>2014-05-25T11:43:56Z</time>
      </trkpt>
      <trkpt lat="42.834264328703284" lon="-3.854789827018976">
        <ele>687.96000000000004</ele>
        <time>2014-05-25T11:44:08Z</time>
      </trkpt>
      <trkpt lat="42.834203643724322" lon="-3.854244416579604">
        <ele>687.96000000000004</ele>
        <time>2014-05-25T11:44:10Z</time>
      </trkpt>
      <trkpt lat="42.834090990945697" lon="-3.853618036955595">
        <ele>687.48000000000002</ele>
        <time>2014-05-25T11:44:19Z</time>
      </trkpt>
      <trkpt lat="42.834032904356718" lon="-3.853018563240767">
        <ele>687.96000000000004</ele>
        <time>2014-05-25T11:44:30Z</time>
      </trkpt>
      <trkpt lat="42.833982110023499" lon="-3.852513888850808">
        <ele>688.44000000000005</ele>
        <time>2014-05-25T11:44:31Z</time>
      </trkpt>
      <trkpt lat="42.833909606561065" lon="-3.852011729031801">
        <ele>688.44000000000005</ele>
        <time>2014-05-25T11:44:32Z</time>
      </trkpt>
      <trkpt lat="42.833850430324674" lon="-3.851695563644171">
        <ele>691.80999999999995</ele>
        <time>2014-05-25T11:44:33Z</time>
      </trkpt>
      <trkpt lat="42.833862416446209" lon="-3.851269176229835">
        <ele>694.69000000000005</ele>
        <time>2014-05-25T11:44:34Z</time>
      </trkpt>
      <trkpt lat="42.833801563829184" lon="-3.850781265646219">
        <ele>695.16999999999996</ele>
        <time>2014-05-25T11:44:35Z</time>
      </trkpt>
      <trkpt lat="42.833786141127348" lon="-3.850367618724704">
        <ele>692.28999999999996</ele>
        <time>2014-05-25T11:44:41Z</time>
      </trkpt>
      <trkpt lat="42.833784716203809" lon="-3.850171901285648">
        <ele>692.28999999999996</ele>
        <time>2014-05-25T11:44:42Z</time>
      </trkpt>
      <trkpt lat="42.833751104772091" lon="-3.849954474717379">
        <ele>692.28999999999996</ele>
        <time>2014-05-25T11:44:43Z</time>
      </trkpt>
      <trkpt lat="42.833683462813497" lon="-3.849268332123756">
        <ele>693.25</ele>
        <time>2014-05-25T11:44:44Z</time>
      </trkpt>
      <trkpt lat="42.833610037341714" lon="-3.848776482045651">
        <ele>692.76999999999998</ele>
        <time>2014-05-25T11:44:45Z</time>
      </trkpt>
      <trkpt lat="42.833576845005155" lon="-3.848669193685055">
        <ele>692.76999999999998</ele>
        <time>2014-05-25T11:44:46Z</time>
      </trkpt>
      <trkpt lat="42.833313569426537" lon="-3.848298043012619">
        <ele>691.80999999999995</ele>
        <time>2014-05-25T11:44:50Z</time>
      </trkpt>
      <trkpt lat="42.832973012700677" lon="-3.847929323092103">
        <ele>690.84000000000003</ele>
        <time>2014-05-25T11:44:54Z</time>
      </trkpt>
      <trkpt lat="42.832945268601179" lon="-3.847886743023992">
        <ele>690.84000000000003</ele>
        <time>2014-05-25T11:45:05Z</time>
      </trkpt>
      <trkpt lat="42.832917524501681" lon="-3.847840391099453">
        <ele>689.88</ele>
        <time>2014-05-25T11:45:16Z</time>
      </trkpt>
      <trkpt lat="42.832900173962116" lon="-3.847779873758555">
        <ele>690.36000000000001</ele>
        <time>2014-05-25T11:45:17Z</time>
      </trkpt>
      <trkpt lat="42.832892965525389" lon="-3.847713991999626">
        <ele>689.88</ele>
        <time>2014-05-25T11:45:18Z</time>
      </trkpt>
      <trkpt lat="42.832881482318044" lon="-3.847652804106474">
        <ele>689.39999999999998</ele>
        <time>2014-05-25T11:45:21Z</time>
      </trkpt>
      <trkpt lat="42.832802943885326" lon="-3.847324987873435">
        <ele>688.44000000000005</ele>
        <time>2014-05-25T11:45:32Z</time>
      </trkpt>
      <trkpt lat="42.832777798175812" lon="-3.847275450825691">
        <ele>687.48000000000002</ele>
        <time>2014-05-25T11:45:45Z</time>
      </trkpt>
      <trkpt lat="42.832747958600521" lon="-3.847224405035377">
        <ele>687.48000000000002</ele>
        <time>2014-05-25T11:45:54Z</time>
      </trkpt>
      <trkpt lat="42.832715855911374" lon="-3.84717813692987">
        <ele>687.48000000000002</ele>
        <time>2014-05-25T11:46:06Z</time>
      </trkpt>
      <trkpt lat="42.8326799813658" lon="-3.847133880481124">
        <ele>686.51999999999998</ele>
        <time>2014-05-25T11:46:18Z</time>
      </trkpt>
      <trkpt lat="42.832638490945101" lon="-3.847091300413013">
        <ele>686.51999999999998</ele>
        <time>2014-05-25T11:46:28Z</time>
      </trkpt>
      <trkpt lat="42.832485772669315" lon="-3.846955765038729">
        <ele>685.08000000000004</ele>
        <time>2014-05-25T11:46:39Z</time>
      </trkpt>
      <trkpt lat="42.832364235073328" lon="-3.846801118925214">
        <ele>685.55999999999995</ele>
        <time>2014-05-25T11:46:40Z</time>
      </trkpt>
      <trkpt lat="42.832145886495709" lon="-3.846289739012718">
        <ele>686.51999999999998</ele>
        <time>2014-05-25T11:46:41Z</time>
      </trkpt>
      <trkpt lat="42.831864757463336" lon="-3.845834182575345">
        <ele>686.03999999999996</ele>
        <time>2014-05-25T11:46:42Z</time>
      </trkpt>
      <trkpt lat="42.831830810755491" lon="-3.845787327736616">
        <ele>685.55999999999995</ele>
        <time>2014-05-25T11:46:43Z</time>
      </trkpt>
      <trkpt lat="42.831798288971186" lon="-3.84573720395565">
        <ele>685.55999999999995</ele>
        <time>2014-05-25T11:46:49Z</time>
      </trkpt>
      <trkpt lat="42.83170759677887" lon="-3.845574008300901">
        <ele>685.08000000000004</ele>
        <time>2014-05-25T11:47:00Z</time>
      </trkpt>
      <trkpt lat="42.831404339522123" lon="-3.845086097717285">
        <ele>685.08000000000004</ele>
        <time>2014-05-25T11:47:13Z</time>
      </trkpt>
      <trkpt lat="42.831137627363205" lon="-3.844481175765395">
        <ele>685.08000000000004</ele>
        <time>2014-05-25T11:47:22Z</time>
      </trkpt>
      <trkpt lat="42.830983316525817" lon="-3.843993851915002">
        <ele>683.63</ele>
        <time>2014-05-25T11:47:23Z</time>
      </trkpt>
      <trkpt lat="42.830630606040359" lon="-3.843505186960101">
        <ele>684.12</ele>
        <time>2014-05-25T11:47:24Z</time>
      </trkpt>
      <trkpt lat="42.830403540283442" lon="-3.843099251389504">
        <ele>685.08000000000004</ele>
        <time>2014-05-25T11:47:32Z</time>
      </trkpt>
      <trkpt lat="42.830293821170926" lon="-3.842698931694031">
        <ele>687</ele>
        <time>2014-05-25T11:47:43Z</time>
      </trkpt>
      <trkpt lat="42.830291725695133" lon="-3.842210518196225">
        <ele>687.48000000000002</ele>
        <time>2014-05-25T11:47:57Z</time>
      </trkpt>
      <trkpt lat="42.830287115648389" lon="-3.8421790022403">
        <ele>687.48000000000002</ele>
        <time>2014-05-25T11:48:08Z</time>
      </trkpt>
      <trkpt lat="42.830282673239708" lon="-3.842152263969183">
        <ele>687.48000000000002</ele>
        <time>2014-05-25T11:48:10Z</time>
      </trkpt>
      <trkpt lat="42.830275716260076" lon="-3.842125693336129">
        <ele>687</ele>
        <time>2014-05-25T11:48:11Z</time>
      </trkpt>
      <trkpt lat="42.830271190032363" lon="-3.842097194865346">
        <ele>687.48000000000002</ele>
        <time>2014-05-25T11:48:12Z</time>
      </trkpt>
      <trkpt lat="42.830218803137541" lon="-3.841802822425962">
        <ele>688.44000000000005</ele>
        <time>2014-05-25T11:48:25Z</time>
      </trkpt>
      <trkpt lat="42.830109084025025" lon="-3.841437958180904">
        <ele>687.48000000000002</ele>
        <time>2014-05-25T11:48:37Z</time>
      </trkpt>
      <trkpt lat="42.829972542822361" lon="-3.840761203318834">
        <ele>686.03999999999996</ele>
        <time>2014-05-25T11:48:48Z</time>
      </trkpt>
      <trkpt lat="42.829825608059764" lon="-3.840271197259426">
        <ele>684.60000000000002</ele>
        <time>2014-05-25T11:48:51Z</time>
      </trkpt>
      <trkpt lat="42.829812867566943" lon="-3.840208500623703">
        <ele>684.12</ele>
        <time>2014-05-25T11:48:52Z</time>
      </trkpt>
      <trkpt lat="42.829804569482803" lon="-3.84014530107379">
        <ele>683.63</ele>
        <time>2014-05-25T11:48:53Z</time>
      </trkpt>
      <trkpt lat="42.829767186194658" lon="-3.83970458060503">
        <ele>682.66999999999996</ele>
        <time>2014-05-25T11:48:54Z</time>
      </trkpt>
      <trkpt lat="42.829669788479805" lon="-3.839282216504216">
        <ele>683.63</ele>
        <time>2014-05-25T11:48:55Z</time>
      </trkpt>
      <trkpt lat="42.829616982489824" lon="-3.838772429153323">
        <ele>684.12</ele>
        <time>2014-05-25T11:48:56Z</time>
      </trkpt>
      <trkpt lat="42.82971060834825" lon="-3.83832173421979">
        <ele>683.14999999999998</ele>
        <time>2014-05-25T11:48:57Z</time>
      </trkpt>
      <trkpt lat="42.82973550260067" lon="-3.838208578526974">
        <ele>682.19000000000005</ele>
        <time>2014-05-25T11:48:58Z</time>
      </trkpt>
      <trkpt lat="42.829747321084142" lon="-3.838155269622803">
        <ele>682.66999999999996</ele>
        <time>2014-05-25T11:48:59Z</time>
      </trkpt>
      <trkpt lat="42.829757463186979" lon="-3.838102547451854">
        <ele>682.66999999999996</ele>
        <time>2014-05-25T11:49:00Z</time>
      </trkpt>
      <trkpt lat="42.829869696870446" lon="-3.837484214454889">
        <ele>682.19000000000005</ele>
        <time>2014-05-25T11:49:01Z</time>
      </trkpt>
      <trkpt lat="42.829949827864766" lon="-3.836992951110005">
        <ele>681.71000000000004</ele>
        <time>2014-05-25T11:49:09Z</time>
      </trkpt>
      <trkpt lat="42.829985115677118" lon="-3.83656857535243">
        <ele>682.19000000000005</ele>
        <time>2014-05-25T11:49:10Z</time>
      </trkpt>
      <trkpt lat="42.829985115677118" lon="-3.836454330012202">
        <ele>681.71000000000004</ele>
        <time>2014-05-25T11:49:11Z</time>
      </trkpt>
      <trkpt lat="42.829985534772277" lon="-3.836413342505693">
        <ele>681.71000000000004</ele>
        <time>2014-05-25T11:49:22Z</time>
      </trkpt>
      <trkpt lat="42.829989306628704" lon="-3.836374534294009">
        <ele>681.23000000000002</ele>
        <time>2014-05-25T11:49:34Z</time>
      </trkpt>
      <trkpt lat="42.829999951645732" lon="-3.836329272016883">
        <ele>682.19000000000005</ele>
        <time>2014-05-25T11:49:35Z</time>
      </trkpt>
      <trkpt lat="42.830012524500489" lon="-3.836281159892678">
        <ele>682.19000000000005</ele>
        <time>2014-05-25T11:49:36Z</time>
      </trkpt>
      <trkpt lat="42.830021996051073" lon="-3.836233718320727">
        <ele>682.19000000000005</ele>
        <time>2014-05-25T11:49:45Z</time>
      </trkpt>
      <trkpt lat="42.830029204487801" lon="-3.836187785491347">
        <ele>681.71000000000004</ele>
        <time>2014-05-25T11:49:51Z</time>
      </trkpt>
      <trkpt lat="42.830031719058752" lon="-3.836144031956792">
        <ele>682.19000000000005</ele>
        <time>2014-05-25T11:49:52Z</time>
      </trkpt>
      <trkpt lat="42.830035155639052" lon="-3.836100278422236">
        <ele>681.71000000000004</ele>
        <time>2014-05-25T11:49:53Z</time>
      </trkpt>
      <trkpt lat="42.830035323277116" lon="-3.836054177954793">
        <ele>681.71000000000004</ele>
        <time>2014-05-25T11:50:05Z</time>
      </trkpt>
      <trkpt lat="42.830033479258418" lon="-3.836013106629252">
        <ele>682.19000000000005</ele>
        <time>2014-05-25T11:50:14Z</time>
      </trkpt>
      <trkpt lat="42.830017637461424" lon="-3.835739605128765">
        <ele>682.19000000000005</ele>
        <time>2014-05-25T11:50:25Z</time>
      </trkpt>
      <trkpt lat="42.83001696690917" lon="-3.835710268467665">
        <ele>682.66999999999996</ele>
        <time>2014-05-25T11:50:34Z</time>
      </trkpt>
      <trkpt lat="42.830013362690806" lon="-3.835680093616247">
        <ele>683.63</ele>
        <time>2014-05-25T11:50:35Z</time>
      </trkpt>
      <trkpt lat="42.830047979950905" lon="-3.835210036486387">
        <ele>684.12</ele>
        <time>2014-05-25T11:50:46Z</time>
      </trkpt>
      <trkpt lat="42.830268004909158" lon="-3.834597403183579">
        <ele>682.66999999999996</ele>
        <time>2014-05-25T11:50:47Z</time>
      </trkpt>
      <trkpt lat="42.830285774543881" lon="-3.834547949954867">
        <ele>682.66999999999996</ele>
        <time>2014-05-25T11:51:01Z</time>
      </trkpt>
      <trkpt lat="42.830304633826017" lon="-3.834496233612299">
        <ele>682.66999999999996</ele>
        <time>2014-05-25T11:51:14Z</time>
      </trkpt>
      <trkpt lat="42.830448802560568" lon="-3.834150899201632">
        <ele>683.14999999999998</ele>
        <time>2014-05-25T11:51:27Z</time>
      </trkpt>
      <trkpt lat="42.830492220818996" lon="-3.83396465331316">
        <ele>683.63</ele>
        <time>2014-05-25T11:51:29Z</time>
      </trkpt>
      <trkpt lat="42.830495489761233" lon="-3.833940681070089">
        <ele>684.60000000000002</ele>
        <time>2014-05-25T11:51:30Z</time>
      </trkpt>
      <trkpt lat="42.830500518903136" lon="-3.833915702998638">
        <ele>684.12</ele>
        <time>2014-05-25T11:51:43Z</time>
      </trkpt>
      <trkpt lat="42.830598251894116" lon="-3.833632310852408">
        <ele>682.66999999999996</ele>
        <time>2014-05-25T11:51:49Z</time>
      </trkpt>
      <trkpt lat="42.830721717327833" lon="-3.83330793119967">
        <ele>681.23000000000002</ele>
        <time>2014-05-25T11:52:01Z</time>
      </trkpt>
      <trkpt lat="42.830759016796947" lon="-3.832759838551283">
        <ele>682.19000000000005</ele>
        <time>2014-05-25T11:52:15Z</time>
      </trkpt>
      <trkpt lat="42.830746108666062" lon="-3.832374019548297">
        <ele>679.30999999999995</ele>
        <time>2014-05-25T11:52:24Z</time>
      </trkpt>
      <trkpt lat="42.830744348466396" lon="-3.832352729514241">
        <ele>682.19000000000005</ele>
        <time>2014-05-25T11:52:25Z</time>
      </trkpt>
      <trkpt lat="42.830572770908475" lon="-3.831982165575028">
        <ele>681.71000000000004</ele>
        <time>2014-05-25T11:52:26Z</time>
      </trkpt>
      <trkpt lat="42.8305524867028" lon="-3.831952325999737">
        <ele>683.14999999999998</ele>
        <time>2014-05-25T11:52:27Z</time>
      </trkpt>
      <trkpt lat="42.8302295319736" lon="-3.831611601635814">
        <ele>685.08000000000004</ele>
        <time>2014-05-25T11:52:28Z</time>
      </trkpt>
      <trkpt lat="42.829931639134884" lon="-3.831545133143663">
        <ele>685.08000000000004</ele>
        <time>2014-05-25T11:52:40Z</time>
      </trkpt>
      <trkpt lat="42.829551519826055" lon="-3.831515964120626">
        <ele>685.55999999999995</ele>
        <time>2014-05-25T11:52:53Z</time>
      </trkpt>
      <trkpt lat="42.829500557854772" lon="-3.831517975777388">
        <ele>689.39999999999998</ele>
        <time>2014-05-25T11:53:04Z</time>
      </trkpt>
      <trkpt lat="42.829479100182652" lon="-3.831519819796085">
        <ele>686.03999999999996</ele>
        <time>2014-05-25T11:53:17Z</time>
      </trkpt>
      <trkpt lat="42.829203251749277" lon="-3.831639513373375">
        <ele>687.48000000000002</ele>
        <time>2014-05-25T11:53:27Z</time>
      </trkpt>
      <trkpt lat="42.829111972823739" lon="-3.831560974940658">
        <ele>688.44000000000005</ele>
        <time>2014-05-25T11:53:34Z</time>
      </trkpt>
      <trkpt lat="42.82868348993361" lon="-3.831230057403445">
        <ele>687.48000000000002</ele>
        <time>2014-05-25T11:53:35Z</time>
      </trkpt>
      <trkpt lat="42.82817093655467" lon="-3.831279426813126">
        <ele>688.91999999999996</ele>
        <time>2014-05-25T11:53:36Z</time>
      </trkpt>
      <trkpt lat="42.827850328758359" lon="-3.83131773211062">
        <ele>688.44000000000005</ele>
        <time>2014-05-25T11:53:37Z</time>
      </trkpt>
      <trkpt lat="42.827810766175389" lon="-3.831328460946679">
        <ele>688.44000000000005</ele>
        <time>2014-05-25T11:53:38Z</time>
      </trkpt>
      <trkpt lat="42.827773718163371" lon="-3.831343883648515">
        <ele>688.91999999999996</ele>
        <time>2014-05-25T11:53:39Z</time>
      </trkpt>
      <trkpt lat="42.827738933265209" lon="-3.83136123418808">
        <ele>688.44000000000005</ele>
        <time>2014-05-25T11:53:40Z</time>
      </trkpt>
      <trkpt lat="42.827704986557364" lon="-3.831380009651184">
        <ele>688.91999999999996</ele>
        <time>2014-05-25T11:53:41Z</time>
      </trkpt>
      <trkpt lat="42.827296117320657" lon="-3.831522669643164">
        <ele>689.39999999999998</ele>
        <time>2014-05-25T11:53:42Z</time>
      </trkpt>
      <trkpt lat="42.826944664120674" lon="-3.831746131181717">
        <ele>689.88</ele>
        <time>2014-05-25T11:53:43Z</time>
      </trkpt>
      <trkpt lat="42.826676024124026" lon="-3.831889294087887">
        <ele>690.84000000000003</ele>
        <time>2014-05-25T11:53:44Z</time>
      </trkpt>
      <trkpt lat="42.826318871229887" lon="-3.831871608272195">
        <ele>690.84000000000003</ele>
        <time>2014-05-25T11:53:57Z</time>
      </trkpt>
      <trkpt lat="42.826042603701353" lon="-3.831833554431796">
        <ele>690.36000000000001</ele>
        <time>2014-05-25T11:54:08Z</time>
      </trkpt>
      <trkpt lat="42.825979487970471" lon="-3.831520490348339">
        <ele>687.48000000000002</ele>
        <time>2014-05-25T11:54:21Z</time>
      </trkpt>
      <trkpt lat="42.825967250391841" lon="-3.831469360738993">
        <ele>687.48000000000002</ele>
        <time>2014-05-25T11:54:30Z</time>
      </trkpt>
      <trkpt lat="42.825951995328069" lon="-3.831419991329312">
        <ele>686.51999999999998</ele>
        <time>2014-05-25T11:54:32Z</time>
      </trkpt>
      <trkpt lat="42.82593104057014" lon="-3.831380428746343">
        <ele>686.51999999999998</ele>
        <time>2014-05-25T11:54:34Z</time>
      </trkpt>
      <trkpt lat="42.825901703909039" lon="-3.831357881426811">
        <ele>687</ele>
        <time>2014-05-25T11:54:43Z</time>
      </trkpt>
      <trkpt lat="42.825869852676988" lon="-3.831345308572054">
        <ele>686.03999999999996</ele>
        <time>2014-05-25T11:54:52Z</time>
      </trkpt>
      <trkpt lat="42.825837582349777" lon="-3.831340614706278">
        <ele>686.03999999999996</ele>
        <time>2014-05-25T11:55:05Z</time>
      </trkpt>
      <trkpt lat="42.825806569308043" lon="-3.831340027973056">
        <ele>686.03999999999996</ele>
        <time>2014-05-25T11:55:08Z</time>
      </trkpt>
      <trkpt lat="42.825777484104037" lon="-3.83133927360177">
        <ele>685.55999999999995</ele>
        <time>2014-05-25T11:55:09Z</time>
      </trkpt>
      <trkpt lat="42.825748482719064" lon="-3.831339189782739">
        <ele>685.55999999999995</ele>
        <time>2014-05-25T11:55:10Z</time>
      </trkpt>
      <trkpt lat="42.825718894600868" lon="-3.831341620534658">
        <ele>685.55999999999995</ele>
        <time>2014-05-25T11:55:11Z</time>
      </trkpt>
      <trkpt lat="42.825315305963159" lon="-3.831261824816465">
        <ele>683.14999999999998</ele>
        <time>2014-05-25T11:55:12Z</time>
      </trkpt>
      <trkpt lat="42.825021352618933" lon="-3.83101967163384">
        <ele>684.12</ele>
        <time>2014-05-25T11:55:13Z</time>
      </trkpt>
      <trkpt lat="42.824738714843988" lon="-3.830724377185106">
        <ele>685.55999999999995</ele>
        <time>2014-05-25T11:55:17Z</time>
      </trkpt>
      <trkpt lat="42.824581302702427" lon="-3.83049538359046">
        <ele>684.60000000000002</ele>
        <time>2014-05-25T11:55:18Z</time>
      </trkpt>
      <trkpt lat="42.824533609673381" lon="-3.830381389707327">
        <ele>683.14999999999998</ele>
        <time>2014-05-25T11:55:27Z</time>
      </trkpt>
      <trkpt lat="42.824463453143835" lon="-3.830248452723026">
        <ele>682.19000000000005</ele>
        <time>2014-05-25T12:08:06Z</time>
      </trkpt>
      <trkpt lat="42.824285002425313" lon="-3.829755429178476">
        <ele>683.63</ele>
        <time>2014-05-25T12:08:08Z</time>
      </trkpt>
      <trkpt lat="42.824250301346183" lon="-3.829436749219894">
        <ele>687.48000000000002</ele>
        <time>2014-05-25T12:08:10Z</time>
      </trkpt>
      <trkpt lat="42.824315931648016" lon="-3.828959483653307">
        <ele>688.44000000000005</ele>
        <time>2014-05-25T12:08:14Z</time>
      </trkpt>
      <trkpt lat="42.82432934269309" lon="-3.828874994069338">
        <ele>688.91999999999996</ele>
        <time>2014-05-25T12:08:20Z</time>
      </trkpt>
      <trkpt lat="42.824337305501103" lon="-3.828835096210241">
        <ele>688.91999999999996</ele>
        <time>2014-05-25T12:08:24Z</time>
      </trkpt>
      <trkpt lat="42.824339317157865" lon="-3.828808609396219">
        <ele>688.91999999999996</ele>
        <time>2014-05-25T12:08:36Z</time>
      </trkpt>
      <trkpt lat="42.824345184490085" lon="-3.828777931630611">
        <ele>688.91999999999996</ele>
        <time>2014-05-25T12:08:40Z</time>
      </trkpt>
      <trkpt lat="42.824346944689751" lon="-3.828741470351815">
        <ele>688.91999999999996</ele>
        <time>2014-05-25T12:08:41Z</time>
      </trkpt>
      <trkpt lat="42.824351387098432" lon="-3.828703248873353">
        <ele>688.91999999999996</ele>
        <time>2014-05-25T12:08:42Z</time>
      </trkpt>
      <trkpt lat="42.824358763173223" lon="-3.828575676307082">
        <ele>689.39999999999998</ele>
        <time>2014-05-25T12:08:43Z</time>
      </trkpt>
      <trkpt lat="42.824341747909784" lon="-3.828557822853327">
        <ele>689.88</ele>
        <time>2014-05-25T12:08:44Z</time>
      </trkpt>
      <trkpt lat="42.824287014082074" lon="-3.828469645231962">
        <ele>690.36000000000001</ele>
        <time>2014-05-25T12:08:45Z</time>
      </trkpt>
      <trkpt lat="42.824280224740505" lon="-3.828474255278707">
        <ele>691.33000000000004</ele>
        <time>2014-05-25T12:08:46Z</time>
      </trkpt>
      <trkpt lat="42.824371419847012" lon="-3.828469309955835">
        <ele>690.36000000000001</ele>
        <time>2014-05-25T12:08:47Z</time>
      </trkpt>
      <trkpt lat="42.824374604970217" lon="-3.828491773456335">
        <ele>690.84000000000003</ele>
        <time>2014-05-25T12:08:56Z</time>
      </trkpt>
      <trkpt lat="42.824374353513122" lon="-3.828566623851657">
        <ele>689.88</ele>
        <time>2014-05-25T12:08:58Z</time>
      </trkpt>
      <trkpt lat="42.824363205581903" lon="-3.828711546957493">
        <ele>688.44000000000005</ele>
        <time>2014-05-25T12:08:59Z</time>
      </trkpt>
      <trkpt lat="42.824358260259032" lon="-3.828801149502397">
        <ele>687.48000000000002</ele>
        <time>2014-05-25T12:09:00Z</time>
      </trkpt>
      <trkpt lat="42.824228089302778" lon="-3.829238433390856">
        <ele>684.12</ele>
        <time>2014-05-25T12:09:01Z</time>
      </trkpt>
      <trkpt lat="42.824212918058038" lon="-3.82943850941956">
        <ele>682.66999999999996</ele>
        <time>2014-05-25T12:09:02Z</time>
      </trkpt>
      <trkpt lat="42.824220042675734" lon="-3.829503552988172">
        <ele>681.71000000000004</ele>
        <time>2014-05-25T12:09:12Z</time>
      </trkpt>
      <trkpt lat="42.824234962463379" lon="-3.829573709517717">
        <ele>680.75</ele>
        <time>2014-05-25T12:09:22Z</time>
      </trkpt>
      <trkpt lat="42.824250888079405" lon="-3.829651409760118">
        <ele>679.78999999999996</ele>
        <time>2014-05-25T12:09:34Z</time>
      </trkpt>
      <trkpt lat="42.824264215305448" lon="-3.829734809696674">
        <ele>679.30999999999995</ele>
        <time>2014-05-25T12:09:45Z</time>
      </trkpt>
      <trkpt lat="42.824276871979237" lon="-3.829819550737739">
        <ele>679.30999999999995</ele>
        <time>2014-05-25T12:09:55Z</time>
      </trkpt>
      <trkpt lat="42.824295228347182" lon="-3.829897586256266">
        <ele>679.30999999999995</ele>
        <time>2014-05-25T12:09:56Z</time>
      </trkpt>
      <trkpt lat="42.824322637170553" lon="-3.829970173537731">
        <ele>679.78999999999996</ele>
        <time>2014-05-25T12:09:57Z</time>
      </trkpt>
      <trkpt lat="42.824550122022629" lon="-3.830436207354069">
        <ele>681.71000000000004</ele>
        <time>2014-05-25T12:09:58Z</time>
      </trkpt>
      <trkpt lat="42.824578871950507" lon="-3.830491108819842">
        <ele>682.19000000000005</ele>
        <time>2014-05-25T12:09:59Z</time>
      </trkpt>
      <trkpt lat="42.824594546109438" lon="-3.83051197975874">
        <ele>682.19000000000005</ele>
        <time>2014-05-25T12:10:12Z</time>
      </trkpt>
      <trkpt lat="42.82461223192513" lon="-3.830536203458905">
        <ele>682.66999999999996</ele>
        <time>2014-05-25T12:10:26Z</time>
      </trkpt>
      <trkpt lat="42.824636287987232" lon="-3.830567551776767">
        <ele>682.66999999999996</ele>
        <time>2014-05-25T12:10:34Z</time>
      </trkpt>
      <trkpt lat="42.824661349877715" lon="-3.830599570646882">
        <ele>682.66999999999996</ele>
        <time>2014-05-25T12:10:35Z</time>
      </trkpt>
      <trkpt lat="42.824970558285713" lon="-3.830920681357384">
        <ele>679.78999999999996</ele>
        <time>2014-05-25T12:10:36Z</time>
      </trkpt>
      <trkpt lat="42.825389569625258" lon="-3.831218993291259">
        <ele>680.26999999999998</ele>
        <time>2014-05-25T12:10:46Z</time>
      </trkpt>
      <trkpt lat="42.825766503810883" lon="-3.83125176653266">
        <ele>683.14999999999998</ele>
        <time>2014-05-25T12:10:47Z</time>
      </trkpt>
      <trkpt lat="42.825977057218552" lon="-3.831591736525297">
        <ele>685.08000000000004</ele>
        <time>2014-05-25T12:10:48Z</time>
      </trkpt>
      <trkpt lat="42.826059116050601" lon="-3.831857023760676">
        <ele>687.48000000000002</ele>
        <time>2014-05-25T12:10:49Z</time>
      </trkpt>
      <trkpt lat="42.826084764674306" lon="-3.831870686262846">
        <ele>687.48000000000002</ele>
        <time>2014-05-25T12:10:50Z</time>
      </trkpt>
      <trkpt lat="42.826109491288662" lon="-3.831881918013096">
        <ele>687</ele>
        <time>2014-05-25T12:10:54Z</time>
      </trkpt>
      <trkpt lat="42.826134134083986" lon="-3.831889377906919">
        <ele>687</ele>
        <time>2014-05-25T12:10:59Z</time>
      </trkpt>
      <trkpt lat="42.82616120763123" lon="-3.831891557201743">
        <ele>687.48000000000002</ele>
        <time>2014-05-25T12:11:00Z</time>
      </trkpt>
      <trkpt lat="42.826545098796487" lon="-3.83185819722712">
        <ele>687.48000000000002</ele>
        <time>2014-05-25T12:11:03Z</time>
      </trkpt>
      <trkpt lat="42.827056478708982" lon="-3.831654349341989">
        <ele>687</ele>
        <time>2014-05-25T12:11:04Z</time>
      </trkpt>
      <trkpt lat="42.827383624389768" lon="-3.831513114273548">
        <ele>686.03999999999996</ele>
        <time>2014-05-25T12:11:18Z</time>
      </trkpt>
      <trkpt lat="42.82742134295404" lon="-3.831498865038157">
        <ele>686.03999999999996</ele>
        <time>2014-05-25T12:11:23Z</time>
      </trkpt>
      <trkpt lat="42.827457217499614" lon="-3.831480341032147">
        <ele>686.03999999999996</ele>
        <time>2014-05-25T12:11:24Z</time>
      </trkpt>
      <trkpt lat="42.827852508053184" lon="-3.831335250288248">
        <ele>686.51999999999998</ele>
        <time>2014-05-25T12:11:25Z</time>
      </trkpt>
      <trkpt lat="42.827894082292914" lon="-3.831331478431821">
        <ele>685.55999999999995</ele>
        <time>2014-05-25T12:11:26Z</time>
      </trkpt>
      <trkpt lat="42.827934147790074" lon="-3.83133290335536">
        <ele>686.03999999999996</ele>
        <time>2014-05-25T12:11:27Z</time>
      </trkpt>
      <trkpt lat="42.827973291277885" lon="-3.831332819536328">
        <ele>686.51999999999998</ele>
        <time>2014-05-25T12:11:28Z</time>
      </trkpt>
      <trkpt lat="42.828011848032475" lon="-3.831328125670552">
        <ele>686.03999999999996</ele>
        <time>2014-05-25T12:11:29Z</time>
      </trkpt>
      <trkpt lat="42.82817387022078" lon="-3.831294849514961">
        <ele>686.03999999999996</ele>
        <time>2014-05-25T12:11:30Z</time>
      </trkpt>
      <trkpt lat="42.828390123322606" lon="-3.831227878108621">
        <ele>686.03999999999996</ele>
        <time>2014-05-25T12:11:31Z</time>
      </trkpt>
      <trkpt lat="42.828435804694891" lon="-3.831223016604781">
        <ele>685.08000000000004</ele>
        <time>2014-05-25T12:11:32Z</time>
      </trkpt>
      <trkpt lat="42.828573435544968" lon="-3.831222681328654">
        <ele>684.60000000000002</ele>
        <time>2014-05-25T12:11:33Z</time>
      </trkpt>
      <trkpt lat="42.828616434708238" lon="-3.83123273961246">
        <ele>685.08000000000004</ele>
        <time>2014-05-25T12:11:34Z</time>
      </trkpt>
      <trkpt lat="42.829092694446445" lon="-3.831539852544665">
        <ele>686.03999999999996</ele>
        <time>2014-05-25T12:11:35Z</time>
      </trkpt>
      <trkpt lat="42.829208867624402" lon="-3.831609589979053">
        <ele>686.03999999999996</ele>
        <time>2014-05-25T12:11:38Z</time>
      </trkpt>
      <trkpt lat="42.829249687492847" lon="-3.831597520038486">
        <ele>684.60000000000002</ele>
        <time>2014-05-25T12:11:39Z</time>
      </trkpt>
      <trkpt lat="42.829293105751276" lon="-3.831568518653512">
        <ele>684.60000000000002</ele>
        <time>2014-05-25T12:11:40Z</time>
      </trkpt>
      <trkpt lat="42.829338200390339" lon="-3.831537086516619">
        <ele>684.60000000000002</ele>
        <time>2014-05-25T12:11:41Z</time>
      </trkpt>
      <trkpt lat="42.829385977238417" lon="-3.831509258598089">
        <ele>684.12</ele>
        <time>2014-05-25T12:11:42Z</time>
      </trkpt>
      <trkpt lat="42.82943501137197" lon="-3.8314897287637">
        <ele>683.63</ele>
        <time>2014-05-25T12:11:50Z</time>
      </trkpt>
      <trkpt lat="42.829484967514873" lon="-3.831483274698257">
        <ele>683.63</ele>
        <time>2014-05-25T12:11:51Z</time>
      </trkpt>
      <trkpt lat="42.829535594210029" lon="-3.831480005756021">
        <ele>684.12</ele>
        <time>2014-05-25T12:11:52Z</time>
      </trkpt>
      <trkpt lat="42.829588064923882" lon="-3.831483609974384">
        <ele>683.14999999999998</ele>
        <time>2014-05-25T12:11:53Z</time>
      </trkpt>
      <trkpt lat="42.829641457647085" lon="-3.831493332982063">
        <ele>683.14999999999998</ele>
        <time>2014-05-25T12:11:54Z</time>
      </trkpt>
      <trkpt lat="42.829688228666782" lon="-3.83148386143148">
        <ele>683.63</ele>
        <time>2014-05-25T12:11:56Z</time>
      </trkpt>
      <trkpt lat="42.829736089333892" lon="-3.83147899992764">
        <ele>683.63</ele>
        <time>2014-05-25T12:11:57Z</time>
      </trkpt>
      <trkpt lat="42.829791074618697" lon="-3.831490902230144">
        <ele>683.63</ele>
        <time>2014-05-25T12:12:00Z</time>
      </trkpt>
      <trkpt lat="42.82996466383338" lon="-3.831503726541996">
        <ele>683.63</ele>
        <time>2014-05-25T12:12:08Z</time>
      </trkpt>
      <trkpt lat="42.830019565299153" lon="-3.831503391265869">
        <ele>683.14999999999998</ele>
        <time>2014-05-25T12:12:18Z</time>
      </trkpt>
      <trkpt lat="42.830073041841388" lon="-3.831512611359358">
        <ele>683.14999999999998</ele>
        <time>2014-05-25T12:12:19Z</time>
      </trkpt>
      <trkpt lat="42.830119142308831" lon="-3.831533566117287">
        <ele>683.63</ele>
        <time>2014-05-25T12:12:31Z</time>
      </trkpt>
      <trkpt lat="42.830162812024355" lon="-3.831561645492911">
        <ele>683.14999999999998</ele>
        <time>2014-05-25T12:13:07Z</time>
      </trkpt>
      <trkpt lat="42.830520467832685" lon="-3.831944782286882">
        <ele>680.26999999999998</ele>
        <time>2014-05-25T12:13:39Z</time>
      </trkpt>
      <trkpt lat="42.830547876656055" lon="-3.831984763965011">
        <ele>679.78999999999996</ele>
        <time>2014-05-25T12:14:13Z</time>
      </trkpt>
      <trkpt lat="42.830602023750544" lon="-3.83207805454731">
        <ele>679.30999999999995</ele>
        <time>2014-05-25T12:14:42Z</time>
      </trkpt>
      <trkpt lat="42.830637814477086" lon="-3.832156760618091">
        <ele>679.30999999999995</ele>
        <time>2014-05-25T12:14:53Z</time>
      </trkpt>
      <trkpt lat="42.830668240785599" lon="-3.832240495830774">
        <ele>679.30999999999995</ele>
        <time>2014-05-25T12:14:58Z</time>
      </trkpt>
      <trkpt lat="42.830713838338852" lon="-3.83241131901741">
        <ele>678.35000000000002</ele>
        <time>2014-05-25T12:15:00Z</time>
      </trkpt>
      <trkpt lat="42.830726327374578" lon="-3.832497568801045">
        <ele>678.83000000000004</ele>
        <time>2014-05-25T12:15:01Z</time>
      </trkpt>
      <trkpt lat="42.830731188878417" lon="-3.832750618457794">
        <ele>679.30999999999995</ele>
        <time>2014-05-25T12:15:02Z</time>
      </trkpt>
      <trkpt lat="42.830673018470407" lon="-3.833347661420703">
        <ele>679.78999999999996</ele>
        <time>2014-05-25T12:15:11Z</time>
      </trkpt>
      <trkpt lat="42.830563802272081" lon="-3.833786034956574">
        <ele>682.66999999999996</ele>
        <time>2014-05-25T12:15:21Z</time>
      </trkpt>
      <trkpt lat="42.830567071214318" lon="-3.833815287798643">
        <ele>683.63</ele>
        <time>2014-05-25T12:15:34Z</time>
      </trkpt>
      <trkpt lat="42.830689949914813" lon="-3.833900867030025">
        <ele>683.63</ele>
        <time>2014-05-25T12:15:46Z</time>
      </trkpt>
      <trkpt lat="42.830759100615978" lon="-3.833938082680106">
        <ele>684.12</ele>
        <time>2014-05-25T12:16:00Z</time>
      </trkpt>
      <trkpt lat="42.830750048160553" lon="-3.833921067416668">
        <ele>683.63</ele>
        <time>2014-05-25T12:16:12Z</time>
      </trkpt>
      <trkpt lat="42.830703277140856" lon="-3.83392165414989">
        <ele>683.63</ele>
        <time>2014-05-25T12:16:24Z</time>
      </trkpt>
      <trkpt lat="42.830749629065394" lon="-3.833946632221341">
        <ele>683.63</ele>
        <time>2014-05-25T12:16:39Z</time>
      </trkpt>
      <trkpt lat="42.830912657082081" lon="-3.83405844680965">
        <ele>684.12</ele>
        <time>2014-05-25T12:16:55Z</time>
      </trkpt>
      <trkpt lat="42.831022460013628" lon="-3.834121897816658">
        <ele>684.60000000000002</ele>
        <time>2014-05-25T12:17:09Z</time>
      </trkpt>
      <trkpt lat="42.831056322902441" lon="-3.834094321355224">
        <ele>684.60000000000002</ele>
        <time>2014-05-25T12:17:23Z</time>
      </trkpt>
      <trkpt lat="42.831067387014627" lon="-3.834067163988948">
        <ele>684.60000000000002</ele>
        <time>2014-05-25T12:17:36Z</time>
      </trkpt>
      <trkpt lat="42.831076439470053" lon="-3.834035396575928">
        <ele>684.60000000000002</ele>
        <time>2014-05-25T12:17:50Z</time>
      </trkpt>
      <trkpt lat="42.831166125833988" lon="-3.833791567012668">
        <ele>684.12</ele>
        <time>2014-05-25T12:18:04Z</time>
      </trkpt>
      <trkpt lat="42.831226224079728" lon="-3.833434917032719">
        <ele>684.12</ele>
        <time>2014-05-25T12:18:18Z</time>
      </trkpt>
      <trkpt lat="42.831270229071379" lon="-3.832947006449103">
        <ele>684.60000000000002</ele>
        <time>2014-05-25T12:18:33Z</time>
      </trkpt>
      <trkpt lat="42.83122044056654" lon="-3.832498993724585">
        <ele>684.60000000000002</ele>
        <time>2014-05-25T12:18:44Z</time>
      </trkpt>
      <trkpt lat="42.831061268225312" lon="-3.83199842646718">
        <ele>685.08000000000004</ele>
        <time>2014-05-25T12:19:00Z</time>
      </trkpt>
      <trkpt lat="42.830914417281747" lon="-3.831620318815112">
        <ele>685.55999999999995</ele>
        <time>2014-05-25T12:19:16Z</time>
      </trkpt>
      <trkpt lat="42.830708054825664" lon="-3.831196278333664">
        <ele>685.55999999999995</ele>
        <time>2014-05-25T12:19:31Z</time>
      </trkpt>
      <trkpt lat="42.830319972708821" lon="-3.830664278939366">
        <ele>685.55999999999995</ele>
        <time>2014-05-25T12:19:48Z</time>
      </trkpt>
      <trkpt lat="42.829905487596989" lon="-3.830201011151075">
        <ele>686.03999999999996</ele>
        <time>2014-05-25T12:20:02Z</time>
      </trkpt>
      <trkpt lat="42.829491253942251" lon="-3.829967156052589">
        <ele>686.51999999999998</ele>
        <time>2014-05-25T12:20:14Z</time>
      </trkpt>
      <trkpt lat="42.829050198197365" lon="-3.829847713932395">
        <ele>687</ele>
        <time>2014-05-25T12:20:28Z</time>
      </trkpt>
      <trkpt lat="42.828635964542627" lon="-3.829788034781814">
        <ele>686.51999999999998</ele>
        <time>2014-05-25T12:20:33Z</time>
      </trkpt>
      <trkpt lat="42.828217120841146" lon="-3.829800272360444">
        <ele>686.51999999999998</ele>
        <time>2014-05-25T12:20:34Z</time>
      </trkpt>
      <trkpt lat="42.827802551910281" lon="-3.829947793856263">
        <ele>687</ele>
        <time>2014-05-25T12:20:43Z</time>
      </trkpt>
      <trkpt lat="42.827386055141687" lon="-3.830075366422534">
        <ele>687</ele>
        <time>2014-05-25T12:20:56Z</time>
      </trkpt>
      <trkpt lat="42.8269571531564" lon="-3.830236298963428">
        <ele>687.96000000000004</ele>
        <time>2014-05-25T12:21:13Z</time>
      </trkpt>
      <trkpt lat="42.826630175113678" lon="-3.830371918156743">
        <ele>687.96000000000004</ele>
        <time>2014-05-25T12:21:27Z</time>
      </trkpt>
      <trkpt lat="42.826111922040582" lon="-3.830458503216505">
        <ele>687</ele>
        <time>2014-05-25T12:21:40Z</time>
      </trkpt>
      <trkpt lat="42.825616048648953" lon="-3.830289859324694">
        <ele>687.48000000000002</ele>
        <time>2014-05-25T12:21:50Z</time>
      </trkpt>
      <trkpt lat="42.82523819245398" lon="-3.829936059191823">
        <ele>687.48000000000002</ele>
        <time>2014-05-25T12:22:08Z</time>
      </trkpt>
      <trkpt lat="42.824972737580538" lon="-3.829278498888016">
        <ele>686.51999999999998</ele>
        <time>2014-05-25T12:22:22Z</time>
      </trkpt>
      <trkpt lat="42.824895037338138" lon="-3.8285281509161">
        <ele>685.55999999999995</ele>
        <time>2014-05-25T12:22:38Z</time>
      </trkpt>
      <trkpt lat="42.824848936870694" lon="-3.827949045225978">
        <ele>686.51999999999998</ele>
        <time>2014-05-25T12:22:52Z</time>
      </trkpt>
      <trkpt lat="42.824790934100747" lon="-3.827346302568913">
        <ele>687</ele>
        <time>2014-05-25T12:22:54Z</time>
      </trkpt>
      <trkpt lat="42.824787832796574" lon="-3.827249994501472">
        <ele>687.48000000000002</ele>
        <time>2014-05-25T12:22:55Z</time>
      </trkpt>
      <trkpt lat="42.824785150587559" lon="-3.827237086370587">
        <ele>687</ele>
        <time>2014-05-25T12:22:57Z</time>
      </trkpt>
      <trkpt lat="42.82472999766469" lon="-3.826841711997986">
        <ele>687</ele>
        <time>2014-05-25T12:23:01Z</time>
      </trkpt>
      <trkpt lat="42.8246327675879" lon="-3.826178452000022">
        <ele>687</ele>
        <time>2014-05-25T12:23:06Z</time>
      </trkpt>
      <trkpt lat="42.82456872984767" lon="-3.825153596699238">
        <ele>687</ele>
        <time>2014-05-25T12:23:07Z</time>
      </trkpt>
      <trkpt lat="42.824636036530137" lon="-3.82445546798408">
        <ele>687.96000000000004</ele>
        <time>2014-05-25T12:23:11Z</time>
      </trkpt>
      <trkpt lat="42.824828568845987" lon="-3.823621049523354">
        <ele>685.55999999999995</ele>
        <time>2014-05-25T12:23:12Z</time>
      </trkpt>
      <trkpt lat="42.825159737840295" lon="-3.822894338518381">
        <ele>683.14999999999998</ele>
        <time>2014-05-25T12:23:13Z</time>
      </trkpt>
      <trkpt lat="42.825964400544763" lon="-3.821840900927782">
        <ele>681.71000000000004</ele>
        <time>2014-05-25T12:23:14Z</time>
      </trkpt>
      <trkpt lat="42.826587008312345" lon="-3.821118548512459">
        <ele>680.26999999999998</ele>
        <time>2014-05-25T12:23:15Z</time>
      </trkpt>
      <trkpt lat="42.827257812023163" lon="-3.820368954911828">
        <ele>680.26999999999998</ele>
        <time>2014-05-25T12:23:27Z</time>
      </trkpt>
      <trkpt lat="42.827755277976394" lon="-3.819757914170623">
        <ele>680.75</ele>
        <time>2014-05-25T12:23:29Z</time>
      </trkpt>
      <trkpt lat="42.827810347080231" lon="-3.819661187008023">
        <ele>680.75</ele>
        <time>2014-05-25T12:23:34Z</time>
      </trkpt>
      <trkpt lat="42.827836079522967" lon="-3.819611901417375">
        <ele>681.23000000000002</ele>
        <time>2014-05-25T12:23:42Z</time>
      </trkpt>
      <trkpt lat="42.827889053151011" lon="-3.819518694654107">
        <ele>681.23000000000002</ele>
        <time>2014-05-25T12:23:46Z</time>
      </trkpt>
      <trkpt lat="42.827985696494579" lon="-3.819330604746938">
        <ele>681.23000000000002</ele>
        <time>2014-05-25T12:23:47Z</time>
      </trkpt>
      <trkpt lat="42.828114861622453" lon="-3.819094486534596">
        <ele>680.75</ele>
        <time>2014-05-25T12:23:51Z</time>
      </trkpt>
      <trkpt lat="42.828134810552001" lon="-3.819042267277837">
        <ele>681.23000000000002</ele>
        <time>2014-05-25T12:23:59Z</time>
      </trkpt>
      <trkpt lat="42.828202284872532" lon="-3.818846801295877">
        <ele>681.23000000000002</ele>
        <time>2014-05-25T12:24:08Z</time>
      </trkpt>
      <trkpt lat="42.828213265165687" lon="-3.818794749677181">
        <ele>681.23000000000002</ele>
        <time>2014-05-25T12:24:16Z</time>
      </trkpt>
      <trkpt lat="42.828223071992397" lon="-3.818741943687201">
        <ele>681.23000000000002</ele>
        <time>2014-05-25T12:24:17Z</time>
      </trkpt>
      <trkpt lat="42.828235393390059" lon="-3.818690897896886">
        <ele>681.23000000000002</ele>
        <time>2014-05-25T12:24:18Z</time>
      </trkpt>
      <trkpt lat="42.828247882425785" lon="-3.818641779944301">
        <ele>681.71000000000004</ele>
        <time>2014-05-25T12:24:19Z</time>
      </trkpt>
      <trkpt lat="42.828342597931623" lon="-3.817993104457855">
        <ele>679.78999999999996</ele>
        <time>2014-05-25T12:24:20Z</time>
      </trkpt>
      <trkpt lat="42.828359361737967" lon="-3.817847175523639">
        <ele>679.78999999999996</ele>
        <time>2014-05-25T12:24:21Z</time>
      </trkpt>
      <trkpt lat="42.828387105837464" lon="-3.817430678755045">
        <ele>679.30999999999995</ele>
        <time>2014-05-25T12:24:28Z</time>
      </trkpt>
      <trkpt lat="42.82841719686985" lon="-3.816847298294306">
        <ele>679.78999999999996</ele>
        <time>2014-05-25T12:24:30Z</time>
      </trkpt>
      <trkpt lat="42.828512331470847" lon="-3.816582262516022">
        <ele>680.26999999999998</ele>
        <time>2014-05-25T12:24:31Z</time>
      </trkpt>
      <trkpt lat="42.828541835770011" lon="-3.816521409898996">
        <ele>680.26999999999998</ele>
        <time>2014-05-25T12:24:37Z</time>
      </trkpt>
      <trkpt lat="42.828646190464497" lon="-3.81626894697547">
        <ele>680.75</ele>
        <time>2014-05-25T12:24:38Z</time>
      </trkpt>
      <trkpt lat="42.828834112733603" lon="-3.81578816100955">
        <ele>680.75</ele>
        <time>2014-05-25T12:24:52Z</time>
      </trkpt>
      <trkpt lat="42.829070901498199" lon="-3.815311314538121">
        <ele>679.78999999999996</ele>
        <time>2014-05-25T12:25:05Z</time>
      </trkpt>
      <trkpt lat="42.829358903691173" lon="-3.814987940713763">
        <ele>679.30999999999995</ele>
        <time>2014-05-25T12:25:18Z</time>
      </trkpt>
      <trkpt lat="42.829400394111872" lon="-3.814957095310092">
        <ele>679.30999999999995</ele>
        <time>2014-05-25T12:25:20Z</time>
      </trkpt>
      <trkpt lat="42.829440794885159" lon="-3.814925076439977">
        <ele>679.30999999999995</ele>
        <time>2014-05-25T12:25:22Z</time>
      </trkpt>
      <trkpt lat="42.829484045505524" lon="-3.814896577969194">
        <ele>679.78999999999996</ele>
        <time>2014-05-25T12:25:29Z</time>
      </trkpt>
      <trkpt lat="42.829529475420713" lon="-3.814871767535806">
        <ele>679.78999999999996</ele>
        <time>2014-05-25T12:25:30Z</time>
      </trkpt>
      <trkpt lat="42.829574150964618" lon="-3.814849890768528">
        <ele>678.83000000000004</ele>
        <time>2014-05-25T12:25:36Z</time>
      </trkpt>
      <trkpt lat="42.829859387129545" lon="-3.814691137522459">
        <ele>679.30999999999995</ele>
        <time>2014-05-25T12:25:37Z</time>
      </trkpt>
      <trkpt lat="42.829943038523197" lon="-3.814649814739823">
        <ele>679.78999999999996</ele>
        <time>2014-05-25T12:25:40Z</time>
      </trkpt>
      <trkpt lat="42.829983774572611" lon="-3.814628357067704">
        <ele>679.78999999999996</ele>
        <time>2014-05-25T12:25:46Z</time>
      </trkpt>
      <trkpt lat="42.830227268859744" lon="-3.814513189718127">
        <ele>679.78999999999996</ele>
        <time>2014-05-25T12:25:48Z</time>
      </trkpt>
      <trkpt lat="42.83026959747076" lon="-3.814497096464038">
        <ele>679.78999999999996</ele>
        <time>2014-05-25T12:25:49Z</time>
      </trkpt>
      <trkpt lat="42.830798244103789" lon="-3.81418445147574">
        <ele>679.78999999999996</ele>
        <time>2014-05-25T12:25:50Z</time>
      </trkpt>
      <trkpt lat="42.83125757239759" lon="-3.813898041844368">
        <ele>680.75</ele>
        <time>2014-05-25T12:25:54Z</time>
      </trkpt>
      <trkpt lat="42.831723522394896" lon="-3.813509540632367">
        <ele>681.23000000000002</ele>
        <time>2014-05-25T12:25:56Z</time>
      </trkpt>
      <trkpt lat="42.831804072484374" lon="-3.813429325819016">
        <ele>680.75</ele>
        <time>2014-05-25T12:25:58Z</time>
      </trkpt>
      <trkpt lat="42.831879425793886" lon="-3.813343495130539">
        <ele>681.23000000000002</ele>
        <time>2014-05-25T12:26:13Z</time>
      </trkpt>
      <trkpt lat="42.832110095769167" lon="-3.8130640424788">
        <ele>681.23000000000002</ele>
        <time>2014-05-25T12:26:26Z</time>
      </trkpt>
      <trkpt lat="42.832144713029265" lon="-3.813020791858435">
        <ele>680.75</ele>
        <time>2014-05-25T12:26:30Z</time>
      </trkpt>
      <trkpt lat="42.832351410761476" lon="-3.8127635512501">
        <ele>681.23000000000002</ele>
        <time>2014-05-25T12:26:35Z</time>
      </trkpt>
      <trkpt lat="42.832381334155798" lon="-3.812715439125896">
        <ele>681.23000000000002</ele>
        <time>2014-05-25T12:26:46Z</time>
      </trkpt>
      <trkpt lat="42.832486694678664" lon="-3.81258468143642">
        <ele>680.75</ele>
        <time>2014-05-25T12:27:02Z</time>
      </trkpt>
      <trkpt lat="42.832730524241924" lon="-3.81237362511456">
        <ele>680.75</ele>
        <time>2014-05-25T12:27:16Z</time>
      </trkpt>
      <trkpt lat="42.832816438749433" lon="-3.812294583767653">
        <ele>680.26999999999998</ele>
        <time>2014-05-25T12:27:32Z</time>
      </trkpt>
      <trkpt lat="42.832860611379147" lon="-3.812253596261144">
        <ele>680.26999999999998</ele>
        <time>2014-05-25T12:27:44Z</time>
      </trkpt>
      <trkpt lat="42.832905035465956" lon="-3.812216967344284">
        <ele>680.26999999999998</ele>
        <time>2014-05-25T12:27:59Z</time>
      </trkpt>
      <trkpt lat="42.833089353516698" lon="-3.812074810266495">
        <ele>679.78999999999996</ele>
        <time>2014-05-25T12:28:02Z</time>
      </trkpt>
      <trkpt lat="42.833170993253589" lon="-3.811991242691875">
        <ele>679.78999999999996</ele>
        <time>2014-05-25T12:28:03Z</time>
      </trkpt>
      <trkpt lat="42.833239221945405" lon="-3.811896275728941">
        <ele>680.75</ele>
        <time>2014-05-25T12:28:09Z</time>
      </trkpt>
      <trkpt lat="42.833607187494636" lon="-3.81113444454968">
        <ele>679.30999999999995</ele>
        <time>2014-05-25T12:28:10Z</time>
      </trkpt>
      <trkpt lat="42.8338473290205" lon="-3.810374960303307">
        <ele>678.35000000000002</ele>
        <time>2014-05-25T12:28:19Z</time>
      </trkpt>
      <trkpt lat="42.833917150273919" lon="-3.810143200680614">
        <ele>678.83000000000004</ele>
        <time>2014-05-25T12:28:32Z</time>
      </trkpt>
      <trkpt lat="42.833974733948708" lon="-3.80983910523355">
        <ele>678.35000000000002</ele>
        <time>2014-05-25T12:28:33Z</time>
      </trkpt>
      <trkpt lat="42.833953779190779" lon="-3.809189675375819">
        <ele>677.87</ele>
        <time>2014-05-25T12:28:35Z</time>
      </trkpt>
      <trkpt lat="42.833909187465906" lon="-3.80824277177453">
        <ele>678.35000000000002</ele>
        <time>2014-05-25T12:28:52Z</time>
      </trkpt>
      <trkpt lat="42.83386199735105" lon="-3.807461578398943">
        <ele>678.83000000000004</ele>
        <time>2014-05-25T12:28:57Z</time>
      </trkpt>
      <trkpt lat="42.833752194419503" lon="-3.80663956515491">
        <ele>679.30999999999995</ele>
        <time>2014-05-25T12:28:58Z</time>
      </trkpt>
      <trkpt lat="42.833548095077276" lon="-3.806106559932232">
        <ele>679.78999999999996</ele>
        <time>2014-05-25T12:29:00Z</time>
      </trkpt>
      <trkpt lat="42.833250956609845" lon="-3.805312793701887">
        <ele>679.30999999999995</ele>
        <time>2014-05-25T12:29:10Z</time>
      </trkpt>
      <trkpt lat="42.833181889727712" lon="-3.805153369903565">
        <ele>679.30999999999995</ele>
        <time>2014-05-25T12:29:24Z</time>
      </trkpt>
      <trkpt lat="42.833157079294324" lon="-3.805106431245804">
        <ele>679.30999999999995</ele>
        <time>2014-05-25T12:29:34Z</time>
      </trkpt>
      <trkpt lat="42.83294141292572" lon="-3.804851034656167">
        <ele>678.83000000000004</ele>
        <time>2014-05-25T12:29:38Z</time>
      </trkpt>
      <trkpt lat="42.832896988838911" lon="-3.804811807349324">
        <ele>678.83000000000004</ele>
        <time>2014-05-25T12:29:52Z</time>
      </trkpt>
      <trkpt lat="42.832477726042271" lon="-3.804454486817122">
        <ele>678.35000000000002</ele>
        <time>2014-05-25T12:29:53Z</time>
      </trkpt>
      <trkpt lat="42.831792924553156" lon="-3.804270252585411">
        <ele>678.35000000000002</ele>
        <time>2014-05-25T12:29:54Z</time>
      </trkpt>
      <trkpt lat="42.831739196553826" lon="-3.804276036098599">
        <ele>677.87</ele>
        <time>2014-05-25T12:30:05Z</time>
      </trkpt>
      <trkpt lat="42.831630986183882" lon="-3.804306797683239">
        <ele>677.38999999999999</ele>
        <time>2014-05-25T12:30:07Z</time>
      </trkpt>
      <trkpt lat="42.830735882744193" lon="-3.804617263376713">
        <ele>678.35000000000002</ele>
        <time>2014-05-25T12:30:08Z</time>
      </trkpt>
      <trkpt lat="42.830494903028011" lon="-3.804691024124622">
        <ele>678.83000000000004</ele>
        <time>2014-05-25T12:30:24Z</time>
      </trkpt>
      <trkpt lat="42.830450981855392" lon="-3.804695885628462">
        <ele>678.83000000000004</ele>
        <time>2014-05-25T12:30:29Z</time>
      </trkpt>
      <trkpt lat="42.830365402624011" lon="-3.804712314158678">
        <ele>678.35000000000002</ele>
        <time>2014-05-25T12:30:32Z</time>
      </trkpt>
      <trkpt lat="42.829980840906501" lon="-3.804810382425785">
        <ele>678.35000000000002</ele>
        <time>2014-05-25T12:30:35Z</time>
      </trkpt>
      <trkpt lat="42.829466694965959" lon="-3.805009620264173">
        <ele>678.35000000000002</ele>
        <time>2014-05-25T12:30:50Z</time>
      </trkpt>
      <trkpt lat="42.829085318371654" lon="-3.805132666602731">
        <ele>677.87</ele>
        <time>2014-05-25T12:30:52Z</time>
      </trkpt>
      <trkpt lat="42.828917847946286" lon="-3.805240960791707">
        <ele>678.35000000000002</ele>
        <time>2014-05-25T12:30:53Z</time>
      </trkpt>
      <trkpt lat="42.828298844397068" lon="-3.805577997118235">
        <ele>678.35000000000002</ele>
        <time>2014-05-25T12:30:57Z</time>
      </trkpt>
      <trkpt lat="42.828257186338305" lon="-3.805603729560971">
        <ele>677.38999999999999</ele>
        <time>2014-05-25T12:31:13Z</time>
      </trkpt>
      <trkpt lat="42.828213516622782" lon="-3.805630970746279">
        <ele>677.38999999999999</ele>
        <time>2014-05-25T12:31:28Z</time>
      </trkpt>
      <trkpt lat="42.827723929658532" lon="-3.805943112820387">
        <ele>677.87</ele>
        <time>2014-05-25T12:31:41Z</time>
      </trkpt>
      <trkpt lat="42.827647738158703" lon="-3.806006228551269">
        <ele>677.87</ele>
        <time>2014-05-25T12:31:53Z</time>
      </trkpt>
      <trkpt lat="42.827603816986084" lon="-3.806030284613371">
        <ele>678.35000000000002</ele>
        <time>2014-05-25T12:31:59Z</time>
      </trkpt>
      <trkpt lat="42.826927648857236" lon="-3.80644996650517">
        <ele>678.35000000000002</ele>
        <time>2014-05-25T12:32:00Z</time>
      </trkpt>
      <trkpt lat="42.826716005802155" lon="-3.806586088612676">
        <ele>677.87</ele>
        <time>2014-05-25T12:32:01Z</time>
      </trkpt>
      <trkpt lat="42.826597485691309" lon="-3.806664207950234">
        <ele>678.35000000000002</ele>
        <time>2014-05-25T12:32:02Z</time>
      </trkpt>
      <trkpt lat="42.826486928388476" lon="-3.806744003668428">
        <ele>678.35000000000002</ele>
        <time>2014-05-25T12:32:06Z</time>
      </trkpt>
      <trkpt lat="42.825872283428907" lon="-3.806991521269083">
        <ele>678.83000000000004</ele>
        <time>2014-05-25T12:32:23Z</time>
      </trkpt>
      <trkpt lat="42.825786452740431" lon="-3.806999484077096">
        <ele>679.30999999999995</ele>
        <time>2014-05-25T12:32:37Z</time>
      </trkpt>
      <trkpt lat="42.825745213776827" lon="-3.807000406086445">
        <ele>679.30999999999995</ele>
        <time>2014-05-25T12:32:53Z</time>
      </trkpt>
      <trkpt lat="42.825576821342111" lon="-3.807005016133189">
        <ele>679.78999999999996</ele>
        <time>2014-05-25T12:33:05Z</time>
      </trkpt>
      <trkpt lat="42.824960667639971" lon="-3.806865876540542">
        <ele>681.23000000000002</ele>
        <time>2014-05-25T12:33:16Z</time>
      </trkpt>
      <trkpt lat="42.824570070952177" lon="-3.806615425273776">
        <ele>683.63</ele>
        <time>2014-05-25T12:33:31Z</time>
      </trkpt>
      <trkpt lat="42.824343675747514" lon="-3.806152325123549">
        <ele>685.55999999999995</ele>
        <time>2014-05-25T12:33:42Z</time>
      </trkpt>
      <trkpt lat="42.824193304404616" lon="-3.805615045130253">
        <ele>686.03999999999996</ele>
        <time>2014-05-25T12:33:47Z</time>
      </trkpt>
      <trkpt lat="42.824145443737507" lon="-3.805212797597051">
        <ele>684.12</ele>
        <time>2014-05-25T12:33:56Z</time>
      </trkpt>
      <trkpt lat="42.824147203937173" lon="-3.805135432630777">
        <ele>683.63</ele>
        <time>2014-05-25T12:33:58Z</time>
      </trkpt>
      <trkpt lat="42.82415684312582" lon="-3.805059073492885">
        <ele>683.63</ele>
        <time>2014-05-25T12:34:01Z</time>
      </trkpt>
      <trkpt lat="42.824166985228658" lon="-3.804979110136628">
        <ele>683.14999999999998</ele>
        <time>2014-05-25T12:34:15Z</time>
      </trkpt>
      <trkpt lat="42.824192382395267" lon="-3.804628746584058">
        <ele>681.23000000000002</ele>
        <time>2014-05-25T12:34:30Z</time>
      </trkpt>
      <trkpt lat="42.824299419298768" lon="-3.803036101162434">
        <ele>679.30999999999995</ele>
        <time>2014-05-25T12:34:46Z</time>
      </trkpt>
      <trkpt lat="42.824374353513122" lon="-3.801878979429603">
        <ele>678.35000000000002</ele>
        <time>2014-05-25T12:34:51Z</time>
      </trkpt>
      <trkpt lat="42.824498573318124" lon="-3.800705932080746">
        <ele>677.38999999999999</ele>
        <time>2014-05-25T12:34:59Z</time>
      </trkpt>
      <trkpt lat="42.824789257720113" lon="-3.799991877749562">
        <ele>675.94000000000005</ele>
        <time>2014-05-25T12:35:13Z</time>
      </trkpt>
      <trkpt lat="42.82523525878787" lon="-3.799543110653758">
        <ele>675.46000000000004</ele>
        <time>2014-05-25T12:35:28Z</time>
      </trkpt>
      <trkpt lat="42.825842192396522" lon="-3.799157794564962">
        <ele>675.46000000000004</ele>
        <time>2014-05-25T12:35:40Z</time>
      </trkpt>
      <trkpt lat="42.826217785477638" lon="-3.798926621675491">
        <ele>675.94000000000005</ele>
        <time>2014-05-25T12:35:54Z</time>
      </trkpt>
      <trkpt lat="42.826358433812857" lon="-3.798810113221407">
        <ele>674.5</ele>
        <time>2014-05-25T12:35:55Z</time>
      </trkpt>
      <trkpt lat="42.826639395207167" lon="-3.798571480438113">
        <ele>674.5</ele>
        <time>2014-05-25T12:35:56Z</time>
      </trkpt>
      <trkpt lat="42.826717682182789" lon="-3.79850928671658">
        <ele>674.01999999999998</ele>
        <time>2014-05-25T12:35:57Z</time>
      </trkpt>
      <trkpt lat="42.82685506157577" lon="-3.798428904265165">
        <ele>673.53999999999996</ele>
        <time>2014-05-25T12:35:58Z</time>
      </trkpt>
      <trkpt lat="42.827571965754032" lon="-3.797978209331632">
        <ele>673.53999999999996</ele>
        <time>2014-05-25T12:35:59Z</time>
      </trkpt>
      <trkpt lat="42.828458016738296" lon="-3.797644274309278">
        <ele>673.05999999999995</ele>
        <time>2014-05-25T12:36:12Z</time>
      </trkpt>
      <trkpt lat="42.829328393563628" lon="-3.797245798632503">
        <ele>673.53999999999996</ele>
        <time>2014-05-25T12:36:39Z</time>
      </trkpt>
      <trkpt lat="42.829586388543248" lon="-3.797112191095948">
        <ele>673.05999999999995</ele>
        <time>2014-05-25T12:36:55Z</time>
      </trkpt>
      <trkpt lat="42.829895010218024" lon="-3.796797702088952">
        <ele>674.01999999999998</ele>
        <time>2014-05-25T12:41:01Z</time>
      </trkpt>
      <trkpt lat="42.830284517258406" lon="-3.796323454007506">
        <ele>675.46000000000004</ele>
        <time>2014-05-25T12:41:04Z</time>
      </trkpt>
      <trkpt lat="42.830604873597622" lon="-3.795875525102019">
        <ele>677.38999999999999</ele>
        <time>2014-05-25T12:41:05Z</time>
      </trkpt>
      <trkpt lat="42.830736637115479" lon="-3.795607890933752">
        <ele>678.35000000000002</ele>
        <time>2014-05-25T12:41:06Z</time>
      </trkpt>
      <trkpt lat="42.83081978559494" lon="-3.795331036671996">
        <ele>679.78999999999996</ele>
        <time>2014-05-25T12:41:18Z</time>
      </trkpt>
      <trkpt lat="42.830820037052035" lon="-3.795310668647289">
        <ele>679.30999999999995</ele>
        <time>2014-05-25T12:41:29Z</time>
      </trkpt>
      <trkpt lat="42.830824395641685" lon="-3.79528870806098">
        <ele>679.78999999999996</ele>
        <time>2014-05-25T14:07:38Z</time>
      </trkpt>
      <trkpt lat="42.830826407298446" lon="-3.795266076922417">
        <ele>679.30999999999995</ele>
        <time>2014-05-25T14:07:40Z</time>
      </trkpt>
      <trkpt lat="42.83083152025938" lon="-3.795247469097376">
        <ele>679.78999999999996</ele>
        <time>2014-05-25T14:07:43Z</time>
      </trkpt>
      <trkpt lat="42.830832274630666" lon="-3.795224921777844">
        <ele>679.78999999999996</ele>
        <time>2014-05-25T14:07:44Z</time>
      </trkpt>
      <trkpt lat="42.830907208845019" lon="-3.795075304806233">
        <ele>680.26999999999998</ele>
        <time>2014-05-25T14:07:45Z</time>
      </trkpt>
      <trkpt lat="42.830930761992931" lon="-3.795062564313412">
        <ele>681.23000000000002</ele>
        <time>2014-05-25T14:07:58Z</time>
      </trkpt>
      <trkpt lat="42.830935204401612" lon="-3.795063570141792">
        <ele>680.75</ele>
        <time>2014-05-25T14:08:10Z</time>
      </trkpt>
      <trkpt lat="42.830954398959875" lon="-3.795024175196886">
        <ele>681.23000000000002</ele>
        <time>2014-05-25T14:08:24Z</time>
      </trkpt>
      <trkpt lat="42.830966049805284" lon="-3.79500824958086">
        <ele>680.75</ele>
        <time>2014-05-25T14:08:28Z</time>
      </trkpt>
      <trkpt lat="42.830978874117136" lon="-3.794993497431278">
        <ele>680.75</ele>
        <time>2014-05-25T14:08:32Z</time>
      </trkpt>
      <trkpt lat="42.830994632095098" lon="-3.79497405141592">
        <ele>680.75</ele>
        <time>2014-05-25T14:08:40Z</time>
      </trkpt>
      <trkpt lat="42.831285232678056" lon="-3.794532576575875">
        <ele>681.71000000000004</ele>
        <time>2014-05-25T14:08:44Z</time>
      </trkpt>
      <trkpt lat="42.831590501591563" lon="-3.794168885797262">
        <ele>684.12</ele>
        <time>2014-05-25T14:08:49Z</time>
      </trkpt>
      <trkpt lat="42.832033233717084" lon="-3.79372070543468">
        <ele>688.91999999999996</ele>
        <time>2014-05-25T14:08:52Z</time>
      </trkpt>
      <trkpt lat="42.832033736631274" lon="-3.793681813403964">
        <ele>688.44000000000005</ele>
        <time>2014-05-25T14:08:53Z</time>
      </trkpt>
      <trkpt lat="42.83207313157618" lon="-3.79363956861198">
        <ele>688.44000000000005</ele>
        <time>2014-05-25T14:09:04Z</time>
      </trkpt>
      <trkpt lat="42.832091152667999" lon="-3.793626576662064">
        <ele>688.44000000000005</ele>
        <time>2014-05-25T14:14:25Z</time>
      </trkpt>
      <trkpt lat="42.832110933959484" lon="-3.793610734865069">
        <ele>688.91999999999996</ele>
        <time>2014-05-25T14:14:35Z</time>
      </trkpt>
      <trkpt lat="42.832305729389191" lon="-3.79325701855123">
        <ele>688.91999999999996</ele>
        <time>2014-05-25T14:14:36Z</time>
      </trkpt>
      <trkpt lat="42.832554085180163" lon="-3.792921826243401">
        <ele>688.44000000000005</ele>
        <time>2014-05-25T14:14:50Z</time>
      </trkpt>
      <trkpt lat="42.833113158121705" lon="-3.792492169886828">
        <ele>686.03999999999996</ele>
        <time>2014-05-25T14:15:05Z</time>
      </trkpt>
      <trkpt lat="42.833272749558091" lon="-3.792348923161626">
        <ele>686.03999999999996</ele>
        <time>2014-05-25T14:15:11Z</time>
      </trkpt>
      <trkpt lat="42.833457235246897" lon="-3.792269797995687">
        <ele>685.55999999999995</ele>
        <time>2014-05-25T14:15:12Z</time>
      </trkpt>
      <trkpt lat="42.833845736458898" lon="-3.792179860174656">
        <ele>683.63</ele>
        <time>2014-05-25T14:15:19Z</time>
      </trkpt>
      <trkpt lat="42.834034496918321" lon="-3.792149517685175">
        <ele>683.63</ele>
        <time>2014-05-25T14:15:22Z</time>
      </trkpt>
      <trkpt lat="42.834210265427828" lon="-3.792306929826737">
        <ele>683.14999999999998</ele>
        <time>2014-05-25T14:15:26Z</time>
      </trkpt>
      <trkpt lat="42.834271620959044" lon="-3.792434502393007">
        <ele>682.66999999999996</ele>
        <time>2014-05-25T14:15:30Z</time>
      </trkpt>
      <trkpt lat="42.834289390593767" lon="-3.792450428009033">
        <ele>682.66999999999996</ele>
        <time>2014-05-25T14:15:34Z</time>
      </trkpt>
      <trkpt lat="42.834309926256537" lon="-3.792451433837414">
        <ele>681.71000000000004</ele>
        <time>2014-05-25T14:15:35Z</time>
      </trkpt>
      <trkpt lat="42.83369779586792" lon="-3.792155468836427">
        <ele>683.14999999999998</ele>
        <time>2014-05-25T14:15:39Z</time>
      </trkpt>
      <trkpt lat="42.833485314622521" lon="-3.792265690863133">
        <ele>679.30999999999995</ele>
        <time>2014-05-25T14:15:52Z</time>
      </trkpt>
      <trkpt lat="42.833459246903658" lon="-3.792268708348274">
        <ele>685.55999999999995</ele>
        <time>2014-05-25T14:15:59Z</time>
      </trkpt>
      <trkpt lat="42.833118857815862" lon="-3.792529301717877">
        <ele>685.08000000000004</ele>
        <time>2014-05-25T14:16:10Z</time>
      </trkpt>
      <trkpt lat="42.83278115093708" lon="-3.792812610045075">
        <ele>685.55999999999995</ele>
        <time>2014-05-25T14:16:39Z</time>
      </trkpt>
      <trkpt lat="42.832688195630908" lon="-3.792831134051085">
        <ele>683.14999999999998</ele>
        <time>2014-05-25T14:16:50Z</time>
      </trkpt>
      <trkpt lat="42.832693392410874" lon="-3.792815040796995">
        <ele>682.66999999999996</ele>
        <time>2014-05-25T14:17:01Z</time>
      </trkpt>
      <trkpt lat="42.832776289433241" lon="-3.792685372754931">
        <ele>679.30999999999995</ele>
        <time>2014-05-25T14:17:09Z</time>
      </trkpt>
      <trkpt lat="42.832833454012871" lon="-3.79262468777597">
        <ele>677.87</ele>
        <time>2014-05-25T14:17:17Z</time>
      </trkpt>
      <trkpt lat="42.832922888919711" lon="-3.792537096887827">
        <ele>674.5</ele>
        <time>2014-05-25T14:17:21Z</time>
      </trkpt>
      <trkpt lat="42.833011066541076" lon="-3.792454786598682">
        <ele>672.58000000000004</ele>
        <time>2014-05-25T14:17:31Z</time>
      </trkpt>
      <trkpt lat="42.833068817853928" lon="-3.792369794100523">
        <ele>671.13999999999999</ele>
        <time>2014-05-25T14:17:53Z</time>
      </trkpt>
      <trkpt lat="42.833074433729053" lon="-3.792349258437753">
        <ele>669.70000000000005</ele>
        <time>2014-05-25T14:18:07Z</time>
      </trkpt>
      <trkpt lat="42.833073008805513" lon="-3.792247334495187">
        <ele>669.22000000000003</ele>
        <time>2014-05-25T14:18:19Z</time>
      </trkpt>
      <trkpt lat="42.832894809544086" lon="-3.791752802208066">
        <ele>668.25</ele>
        <time>2014-05-25T14:18:23Z</time>
      </trkpt>
      <trkpt lat="42.832904532551765" lon="-3.791668312624097">
        <ele>668.73000000000002</ele>
        <time>2014-05-25T14:18:31Z</time>
      </trkpt>
      <trkpt lat="42.83294040709734" lon="-3.791640652343631">
        <ele>668.73000000000002</ele>
        <time>2014-05-25T14:18:37Z</time>
      </trkpt>
      <trkpt lat="42.832966055721045" lon="-3.791646687313914">
        <ele>668.73000000000002</ele>
        <time>2014-05-25T14:18:50Z</time>
      </trkpt>
      <trkpt lat="42.832973264157772" lon="-3.791615758091211">
        <ele>668.73000000000002</ele>
        <time>2014-05-25T14:19:01Z</time>
      </trkpt>
      <trkpt lat="42.833059011027217" lon="-3.791533196344972">
        <ele>669.70000000000005</ele>
        <time>2014-05-25T14:19:15Z</time>
      </trkpt>
      <trkpt lat="42.833179794251919" lon="-3.791454238817096">
        <ele>669.70000000000005</ele>
        <time>2014-05-25T14:19:32Z</time>
      </trkpt>
      <trkpt lat="42.833445835858583" lon="-3.791446276009083">
        <ele>666.33000000000004</ele>
        <time>2014-05-25T14:19:43Z</time>
      </trkpt>
      <trkpt lat="42.833589669317007" lon="-3.791415430605412">
        <ele>665.85000000000002</ele>
        <time>2014-05-25T14:19:54Z</time>
      </trkpt>
      <trkpt lat="42.833694694563746" lon="-3.791371760889888">
        <ele>667.76999999999998</ele>
        <time>2014-05-25T14:20:04Z</time>
      </trkpt>
      <trkpt lat="42.833670889958739" lon="-3.791274866089225">
        <ele>666.80999999999995</ele>
        <time>2014-05-25T14:20:14Z</time>
      </trkpt>
      <trkpt lat="42.833749344572425" lon="-3.791285762563348">
        <ele>666.80999999999995</ele>
        <time>2014-05-25T14:20:24Z</time>
      </trkpt>
      <trkpt lat="42.833890914916992" lon="-3.791291546076536">
        <ele>668.25</ele>
        <time>2014-05-25T14:20:34Z</time>
      </trkpt>
      <trkpt lat="42.833927879109979" lon="-3.791289702057838">
        <ele>667.76999999999998</ele>
        <time>2014-05-25T14:20:45Z</time>
      </trkpt>
      <trkpt lat="42.834142707288265" lon="-3.79128735512495">
        <ele>664.40999999999997</ele>
        <time>2014-05-25T14:20:57Z</time>
      </trkpt>
      <trkpt lat="42.834308249875903" lon="-3.791326666250825">
        <ele>666.33000000000004</ele>
        <time>2014-05-25T14:21:06Z</time>
      </trkpt>
      <trkpt lat="42.834709826856852" lon="-3.791447868570685">
        <ele>666.80999999999995</ele>
        <time>2014-05-25T14:21:19Z</time>
      </trkpt>
      <trkpt lat="42.83496530726552" lon="-3.791457675397396">
        <ele>667.28999999999996</ele>
        <time>2014-05-25T14:21:31Z</time>
      </trkpt>
      <trkpt lat="42.835044851526618" lon="-3.791474271565676">
        <ele>666.80999999999995</ele>
        <time>2014-05-25T14:21:44Z</time>
      </trkpt>
      <trkpt lat="42.835105871781707" lon="-3.791481060907245">
        <ele>665.85000000000002</ele>
        <time>2014-05-25T14:21:55Z</time>
      </trkpt>
      <trkpt lat="42.835287004709244" lon="-3.791519282385707">
        <ele>662.49000000000001</ele>
        <time>2014-05-25T14:22:08Z</time>
      </trkpt>
      <trkpt lat="42.835559668019414" lon="-3.791502267122269">
        <ele>661.51999999999998</ele>
        <time>2014-05-25T14:22:20Z</time>
      </trkpt>
      <trkpt lat="42.835856471210718" lon="-3.791427835822105">
        <ele>659.60000000000002</ele>
        <time>2014-05-25T14:22:33Z</time>
      </trkpt>
      <trkpt lat="42.836094936355948" lon="-3.79115978255868">
        <ele>659.60000000000002</ele>
        <time>2014-05-25T14:22:43Z</time>
      </trkpt>
      <trkpt lat="42.836324768140912" lon="-3.790883766487241">
        <ele>660.55999999999995</ele>
        <time>2014-05-25T14:22:54Z</time>
      </trkpt>
      <trkpt lat="42.836518473923206" lon="-3.790582101792097">
        <ele>660.08000000000004</ele>
        <time>2014-05-25T14:23:07Z</time>
      </trkpt>
      <trkpt lat="42.836675047874451" lon="-3.790279682725668">
        <ele>661.51999999999998</ele>
        <time>2014-05-25T14:23:17Z</time>
      </trkpt>
      <trkpt lat="42.836773451417685" lon="-3.789826640859246">
        <ele>660.08000000000004</ele>
        <time>2014-05-25T14:23:29Z</time>
      </trkpt>
      <trkpt lat="42.836673203855753" lon="-3.789389524608851">
        <ele>660.08000000000004</ele>
        <time>2014-05-25T14:23:42Z</time>
      </trkpt>
      <trkpt lat="42.836521323770285" lon="-3.788899770006537">
        <ele>660.55999999999995</ele>
        <time>2014-05-25T14:23:51Z</time>
      </trkpt>
      <trkpt lat="42.836264753714204" lon="-3.788561392575502">
        <ele>659.60000000000002</ele>
        <time>2014-05-25T14:23:58Z</time>
      </trkpt>
      <trkpt lat="42.835893100127578" lon="-3.788262074813247">
        <ele>661.51999999999998</ele>
        <time>2014-05-25T14:24:02Z</time>
      </trkpt>
      <trkpt lat="42.835601577535272" lon="-3.78804481588304">
        <ele>662.49000000000001</ele>
        <time>2014-05-25T14:24:06Z</time>
      </trkpt>
      <trkpt lat="42.835232941433787" lon="-3.787800567224622">
        <ele>662.97000000000003</ele>
        <time>2014-05-25T14:24:16Z</time>
      </trkpt>
      <trkpt lat="42.83485684543848" lon="-3.787610298022628">
        <ele>662.49000000000001</ele>
        <time>2014-05-25T14:24:28Z</time>
      </trkpt>
      <trkpt lat="42.834435654804111" lon="-3.787419274449348">
        <ele>662.49000000000001</ele>
        <time>2014-05-25T14:24:40Z</time>
      </trkpt>
      <trkpt lat="42.834109514951706" lon="-3.787275357171893">
        <ele>660.55999999999995</ele>
        <time>2014-05-25T14:24:44Z</time>
      </trkpt>
      <trkpt lat="42.833743644878268" lon="-3.787205619737506">
        <ele>660.08000000000004</ele>
        <time>2014-05-25T14:24:55Z</time>
      </trkpt>
      <trkpt lat="42.833226732909679" lon="-3.787125740200281">
        <ele>658.63999999999999</ele>
        <time>2014-05-25T14:25:06Z</time>
      </trkpt>
      <trkpt lat="42.832934791222215" lon="-3.787229424342513">
        <ele>659.12</ele>
        <time>2014-05-25T14:25:16Z</time>
      </trkpt>
      <trkpt lat="42.832545032724738" lon="-3.787457495927811">
        <ele>658.63999999999999</ele>
        <time>2014-05-25T14:25:28Z</time>
      </trkpt>
      <trkpt lat="42.832227190956473" lon="-3.787820935249329">
        <ele>660.08000000000004</ele>
        <time>2014-05-25T14:25:32Z</time>
      </trkpt>
      <trkpt lat="42.83205016516149" lon="-3.788060825318098">
        <ele>662.00999999999999</ele>
        <time>2014-05-25T14:25:40Z</time>
      </trkpt>
      <trkpt lat="42.831861656159163" lon="-3.788170712068677">
        <ele>661.51999999999998</ele>
        <time>2014-05-25T14:25:50Z</time>
      </trkpt>
      <trkpt lat="42.831724109128118" lon="-3.788256123661995">
        <ele>659.12</ele>
        <time>2014-05-25T14:26:01Z</time>
      </trkpt>
      <trkpt lat="42.831595446914434" lon="-3.788399118930101">
        <ele>659.60000000000002</ele>
        <time>2014-05-25T14:26:11Z</time>
      </trkpt>
      <trkpt lat="42.831315323710442" lon="-3.788710925728083">
        <ele>660.08000000000004</ele>
        <time>2014-05-25T14:26:23Z</time>
      </trkpt>
      <trkpt lat="42.831014832481742" lon="-3.78896975889802">
        <ele>659.60000000000002</ele>
        <time>2014-05-25T14:26:34Z</time>
      </trkpt>
      <trkpt lat="42.830720962956548" lon="-3.789306292310357">
        <ele>658.63999999999999</ele>
        <time>2014-05-25T14:26:46Z</time>
      </trkpt>
      <trkpt lat="42.830563383176923" lon="-3.789476612582803">
        <ele>658.15999999999997</ele>
        <time>2014-05-25T14:26:57Z</time>
      </trkpt>
      <trkpt lat="42.830289965495467" lon="-3.789821611717343">
        <ele>658.63999999999999</ele>
        <time>2014-05-25T14:27:05Z</time>
      </trkpt>
      <trkpt lat="42.830017302185297" lon="-3.790165605023503">
        <ele>658.15999999999997</ele>
        <time>2014-05-25T14:27:17Z</time>
      </trkpt>
      <trkpt lat="42.829779423773289" lon="-3.79050113260746">
        <ele>660.08000000000004</ele>
        <time>2014-05-25T14:27:19Z</time>
      </trkpt>
      <trkpt lat="42.82956937327981" lon="-3.79073616117239">
        <ele>659.12</ele>
        <time>2014-05-25T14:27:23Z</time>
      </trkpt>
      <trkpt lat="42.829510532319546" lon="-3.79080849699676">
        <ele>659.60000000000002</ele>
        <time>2014-05-25T14:27:33Z</time>
      </trkpt>
      <trkpt lat="42.829354209825397" lon="-3.790958700701594">
        <ele>658.63999999999999</ele>
        <time>2014-05-25T14:27:45Z</time>
      </trkpt>
      <trkpt lat="42.829182045534253" lon="-3.791134972125292">
        <ele>658.63999999999999</ele>
        <time>2014-05-25T14:27:56Z</time>
      </trkpt>
      <trkpt lat="42.82898255623877" lon="-3.791339322924614">
        <ele>659.12</ele>
        <time>2014-05-25T14:28:03Z</time>
      </trkpt>
      <trkpt lat="42.828737301751971" lon="-3.791537387296557">
        <ele>658.15999999999997</ele>
        <time>2014-05-25T14:28:16Z</time>
      </trkpt>
      <trkpt lat="42.828501770272851" lon="-3.791764117777348">
        <ele>658.63999999999999</ele>
        <time>2014-05-25T14:28:27Z</time>
      </trkpt>
      <trkpt lat="42.828306471928954" lon="-3.791918428614736">
        <ele>657.67999999999995</ele>
        <time>2014-05-25T14:28:35Z</time>
      </trkpt>
      <trkpt lat="42.828025007620454" lon="-3.792093526571989">
        <ele>658.15999999999997</ele>
        <time>2014-05-25T14:28:47Z</time>
      </trkpt>
      <trkpt lat="42.827841779217124" lon="-3.792201401665807">
        <ele>659.60000000000002</ele>
        <time>2014-05-25T14:29:19Z</time>
      </trkpt>
      <trkpt lat="42.827747734263539" lon="-3.792270133271813">
        <ele>660.08000000000004</ele>
        <time>2014-05-25T14:29:30Z</time>
      </trkpt>
      <trkpt lat="42.82757724635303" lon="-3.792364681139588">
        <ele>660.55999999999995</ele>
        <time>2014-05-25T14:29:37Z</time>
      </trkpt>
      <trkpt lat="42.827554531395435" lon="-3.792367614805698">
        <ele>660.55999999999995</ele>
        <time>2014-05-25T14:30:55Z</time>
      </trkpt>
      <trkpt lat="42.827512873336673" lon="-3.792357724159956">
        <ele>660.08000000000004</ele>
        <time>2014-05-25T14:31:10Z</time>
      </trkpt>
      <trkpt lat="42.827312629669905" lon="-3.792363256216049">
        <ele>658.63999999999999</ele>
        <time>2014-05-25T14:31:22Z</time>
      </trkpt>
      <trkpt lat="42.826975928619504" lon="-3.79242829978466">
        <ele>658.15999999999997</ele>
        <time>2014-05-25T14:31:23Z</time>
      </trkpt>
      <trkpt lat="42.826734194532037" lon="-3.792413799092174">
        <ele>658.15999999999997</ele>
        <time>2014-05-25T14:31:29Z</time>
      </trkpt>
      <trkpt lat="42.826529256999493" lon="-3.792395275086165">
        <ele>658.15999999999997</ele>
        <time>2014-05-25T14:31:32Z</time>
      </trkpt>
      <trkpt lat="42.826154585927725" lon="-3.792275078594685">
        <ele>657.67999999999995</ele>
        <time>2014-05-25T14:31:45Z</time>
      </trkpt>
      <trkpt lat="42.825896255671978" lon="-3.792147422209382">
        <ele>657.67999999999995</ele>
        <time>2014-05-25T14:31:53Z</time>
      </trkpt>
      <trkpt lat="42.825685366988182" lon="-3.79206134006381">
        <ele>656.24000000000001</ele>
        <time>2014-05-25T14:31:57Z</time>
      </trkpt>
      <trkpt lat="42.82564664259553" lon="-3.792026052251458">
        <ele>656.72000000000003</ele>
        <time>2014-05-25T14:32:08Z</time>
      </trkpt>
      <trkpt lat="42.82561244443059" lon="-3.792019849643111">
        <ele>656.24000000000001</ele>
        <time>2014-05-25T14:32:19Z</time>
      </trkpt>
      <trkpt lat="42.825619988143444" lon="-3.79202320240438">
        <ele>656.24000000000001</ele>
        <time>2014-05-25T14:32:26Z</time>
      </trkpt>
      <trkpt lat="42.825627531856298" lon="-3.792010629549623">
        <ele>655.75999999999999</ele>
        <time>2014-05-25T14:32:36Z</time>
      </trkpt>
      <trkpt lat="42.825641194358468" lon="-3.79204130731523">
        <ele>656.72000000000003</ele>
        <time>2014-05-25T14:32:39Z</time>
      </trkpt>
      <trkpt lat="42.825281359255314" lon="-3.7919030059129">
        <ele>656.72000000000003</ele>
        <time>2014-05-25T14:32:48Z</time>
      </trkpt>
      <trkpt lat="42.825065441429615" lon="-3.791961343958974">
        <ele>656.72000000000003</ele>
        <time>2014-05-25T14:33:02Z</time>
      </trkpt>
      <trkpt lat="42.825054628774524" lon="-3.79197140224278">
        <ele>656.72000000000003</ele>
        <time>2014-05-25T14:33:03Z</time>
      </trkpt>
      <trkpt lat="42.824963768944144" lon="-3.791972659528256">
        <ele>656.24000000000001</ele>
        <time>2014-05-25T14:33:07Z</time>
      </trkpt>
      <trkpt lat="42.82493376173079" lon="-3.792008953168988">
        <ele>656.72000000000003</ele>
        <time>2014-05-25T14:33:11Z</time>
      </trkpt>
      <trkpt lat="42.82470753416419" lon="-3.79208967089653">
        <ele>657.67999999999995</ele>
        <time>2014-05-25T14:33:13Z</time>
      </trkpt>
      <trkpt lat="42.824640646576881" lon="-3.792127808555961">
        <ele>658.15999999999997</ele>
        <time>2014-05-25T14:33:25Z</time>
      </trkpt>
      <trkpt lat="42.824571495875716" lon="-3.792122025042772">
        <ele>657.67999999999995</ele>
        <time>2014-05-25T14:33:38Z</time>
      </trkpt>
      <trkpt lat="42.82431174069643" lon="-3.792221769690514">
        <ele>658.15999999999997</ele>
        <time>2014-05-25T14:33:52Z</time>
      </trkpt>
      <trkpt lat="42.824113676324487" lon="-3.792176675051451">
        <ele>657.67999999999995</ele>
        <time>2014-05-25T14:34:01Z</time>
      </trkpt>
      <trkpt lat="42.823989037424326" lon="-3.792189164087176">
        <ele>657.67999999999995</ele>
        <time>2014-05-25T14:34:10Z</time>
      </trkpt>
      <trkpt lat="42.823862973600626" lon="-3.792263427749276">
        <ele>658.63999999999999</ele>
        <time>2014-05-25T14:34:21Z</time>
      </trkpt>
      <trkpt lat="42.823815615847707" lon="-3.792276084423065">
        <ele>657.67999999999995</ele>
        <time>2014-05-25T14:34:25Z</time>
      </trkpt>
      <trkpt lat="42.823633812367916" lon="-3.792333835735917">
        <ele>657.67999999999995</ele>
        <time>2014-05-25T14:34:38Z</time>
      </trkpt>
      <trkpt lat="42.82334472052753" lon="-3.792466521263123">
        <ele>657.67999999999995</ele>
        <time>2014-05-25T14:34:39Z</time>
      </trkpt>
      <trkpt lat="42.82333156093955" lon="-3.792480016127229">
        <ele>658.15999999999997</ele>
        <time>2014-05-25T14:34:54Z</time>
      </trkpt>
      <trkpt lat="42.823251513764262" lon="-3.792511448264122">
        <ele>659.12</ele>
        <time>2014-05-25T14:35:06Z</time>
      </trkpt>
      <trkpt lat="42.823188649490476" lon="-3.792591327801347">
        <ele>659.12</ele>
        <time>2014-05-25T14:35:09Z</time>
      </trkpt>
      <trkpt lat="42.82315076328814" lon="-3.792627872899175">
        <ele>659.60000000000002</ele>
        <time>2014-05-25T14:35:21Z</time>
      </trkpt>
      <trkpt lat="42.823092425242066" lon="-3.792762737721205">
        <ele>661.03999999999996</ele>
        <time>2014-05-25T14:35:33Z</time>
      </trkpt>
      <trkpt lat="42.823043223470449" lon="-3.792940014973283">
        <ele>662.97000000000003</ele>
        <time>2014-05-25T14:35:47Z</time>
      </trkpt>
      <trkpt lat="42.82292889431119" lon="-3.793039424344897">
        <ele>662.49000000000001</ele>
        <time>2014-05-25T14:35:59Z</time>
      </trkpt>
      <trkpt lat="42.822856809943914" lon="-3.793126260861754">
        <ele>662.49000000000001</ele>
        <time>2014-05-25T14:36:11Z</time>
      </trkpt>
      <trkpt lat="42.822796292603016" lon="-3.793252995237708">
        <ele>664.40999999999997</ele>
        <time>2014-05-25T14:36:22Z</time>
      </trkpt>
      <trkpt lat="42.822743570432067" lon="-3.793378472328186">
        <ele>666.33000000000004</ele>
        <time>2014-05-25T14:36:26Z</time>
      </trkpt>
      <trkpt lat="42.822692189365625" lon="-3.793435385450721">
        <ele>664.88999999999999</ele>
        <time>2014-05-25T14:36:29Z</time>
      </trkpt>
      <trkpt lat="42.822483312338591" lon="-3.793676281347871">
        <ele>665.85000000000002</ele>
        <time>2014-05-25T14:36:35Z</time>
      </trkpt>
      <trkpt lat="42.822464453056455" lon="-3.793699163943529">
        <ele>665.85000000000002</ele>
        <time>2014-05-25T14:36:46Z</time>
      </trkpt>
      <trkpt lat="42.822345178574324" lon="-3.793785413727164">
        <ele>666.33000000000004</ele>
        <time>2014-05-25T14:36:57Z</time>
      </trkpt>
      <trkpt lat="42.822180893272161" lon="-3.793891360983253">
        <ele>663.92999999999995</ele>
        <time>2014-05-25T14:37:08Z</time>
      </trkpt>
      <trkpt lat="42.822134960442781" lon="-3.79392396658659">
        <ele>664.40999999999997</ele>
        <time>2014-05-25T14:37:18Z</time>
      </trkpt>
      <trkpt lat="42.822061283513904" lon="-3.794050198048353">
        <ele>666.80999999999995</ele>
        <time>2014-05-25T14:37:27Z</time>
      </trkpt>
      <trkpt lat="42.821992468088865" lon="-3.794143404811621">
        <ele>666.33000000000004</ele>
        <time>2014-05-25T14:37:33Z</time>
      </trkpt>
      <trkpt lat="42.821908229961991" lon="-3.794154049828649">
        <ele>666.33000000000004</ele>
        <time>2014-05-25T14:37:47Z</time>
      </trkpt>
      <trkpt lat="42.821697257459164" lon="-3.794151367619634">
        <ele>666.33000000000004</ele>
        <time>2014-05-25T14:37:51Z</time>
      </trkpt>
      <trkpt lat="42.821553256362677" lon="-3.794137621298432">
        <ele>665.37</ele>
        <time>2014-05-25T14:37:53Z</time>
      </trkpt>
      <trkpt lat="42.821350330486894" lon="-3.794151786714792">
        <ele>662.49000000000001</ele>
        <time>2014-05-25T14:37:56Z</time>
      </trkpt>
      <trkpt lat="42.821267852559686" lon="-3.794090766459703">
        <ele>661.51999999999998</ele>
        <time>2014-05-25T14:38:07Z</time>
      </trkpt>
      <trkpt lat="42.821199959143996" lon="-3.794068051502109">
        <ele>659.60000000000002</ele>
        <time>2014-05-25T14:38:11Z</time>
      </trkpt>
      <trkpt lat="42.82107213512063" lon="-3.794025387614965">
        <ele>659.12</ele>
        <time>2014-05-25T14:38:22Z</time>
      </trkpt>
      <trkpt lat="42.820740547031164" lon="-3.79402656108141">
        <ele>658.15999999999997</ele>
        <time>2014-05-25T14:38:24Z</time>
      </trkpt>
      <trkpt lat="42.820421028882265" lon="-3.794077271595597">
        <ele>659.12</ele>
        <time>2014-05-25T14:38:36Z</time>
      </trkpt>
      <trkpt lat="42.82014031894505" lon="-3.794021867215633">
        <ele>660.55999999999995</ele>
        <time>2014-05-25T14:38:39Z</time>
      </trkpt>
      <trkpt lat="42.820029007270932" lon="-3.793964115902782">
        <ele>660.08000000000004</ele>
        <time>2014-05-25T14:38:51Z</time>
      </trkpt>
      <trkpt lat="42.819968909025192" lon="-3.793894881382585">
        <ele>660.08000000000004</ele>
        <time>2014-05-25T14:39:02Z</time>
      </trkpt>
      <trkpt lat="42.819905877113342" lon="-3.793819695711136">
        <ele>660.08000000000004</ele>
        <time>2014-05-25T14:39:06Z</time>
      </trkpt>
      <trkpt lat="42.819763887673616" lon="-3.793475702404976">
        <ele>659.60000000000002</ele>
        <time>2014-05-25T14:39:18Z</time>
      </trkpt>
      <trkpt lat="42.819734718650579" lon="-3.793368330225349">
        <ele>659.12</ele>
        <time>2014-05-25T14:39:30Z</time>
      </trkpt>
      <trkpt lat="42.819708986207843" lon="-3.793318709358573">
        <ele>659.12</ele>
        <time>2014-05-25T14:39:43Z</time>
      </trkpt>
      <trkpt lat="42.819676045328379" lon="-3.793277218937874">
        <ele>659.60000000000002</ele>
        <time>2014-05-25T14:39:48Z</time>
      </trkpt>
      <trkpt lat="42.819588035345078" lon="-3.793160710483789">
        <ele>659.12</ele>
        <time>2014-05-25T14:39:50Z</time>
      </trkpt>
      <trkpt lat="42.819586861878633" lon="-3.793134223669767">
        <ele>658.63999999999999</ele>
        <time>2014-05-25T14:40:02Z</time>
      </trkpt>
      <trkpt lat="42.819593232125044" lon="-3.792969770729542">
        <ele>658.15999999999997</ele>
        <time>2014-05-25T14:40:03Z</time>
      </trkpt>
      <trkpt lat="42.819569846615195" lon="-3.792911013588309">
        <ele>657.67999999999995</ele>
        <time>2014-05-25T14:40:06Z</time>
      </trkpt>
      <trkpt lat="42.819494912400842" lon="-3.792697777971625">
        <ele>658.63999999999999</ele>
        <time>2014-05-25T14:40:12Z</time>
      </trkpt>
      <trkpt lat="42.819479573518038" lon="-3.792664837092161">
        <ele>658.15999999999997</ele>
        <time>2014-05-25T14:40:24Z</time>
      </trkpt>
      <trkpt lat="42.819427940994501" lon="-3.792554112151265">
        <ele>659.12</ele>
        <time>2014-05-25T14:40:36Z</time>
      </trkpt>
      <trkpt lat="42.819285867735744" lon="-3.792324783280492">
        <ele>658.63999999999999</ele>
        <time>2014-05-25T14:40:49Z</time>
      </trkpt>
      <trkpt lat="42.819245047867298" lon="-3.792246412485838">
        <ele>659.12</ele>
        <time>2014-05-25T14:41:03Z</time>
      </trkpt>
      <trkpt lat="42.819031560793519" lon="-3.79201976582408">
        <ele>660.08000000000004</ele>
        <time>2014-05-25T14:41:11Z</time>
      </trkpt>
      <trkpt lat="42.81888990662992" lon="-3.79189076833427">
        <ele>660.08000000000004</ele>
        <time>2014-05-25T14:41:25Z</time>
      </trkpt>
      <trkpt lat="42.818786893039942" lon="-3.791728913784027">
        <ele>661.03999999999996</ele>
        <time>2014-05-25T14:41:26Z</time>
      </trkpt>
      <trkpt lat="42.818726962432265" lon="-3.791631683707237">
        <ele>661.51999999999998</ele>
        <time>2014-05-25T14:41:38Z</time>
      </trkpt>
      <trkpt lat="42.818703325465322" lon="-3.791577033698559">
        <ele>660.55999999999995</ele>
        <time>2014-05-25T14:41:44Z</time>
      </trkpt>
      <trkpt lat="42.818511882796884" lon="-3.791339490562677">
        <ele>662.00999999999999</ele>
        <time>2014-05-25T14:41:55Z</time>
      </trkpt>
      <trkpt lat="42.818493107333779" lon="-3.791319541633129">
        <ele>662.49000000000001</ele>
        <time>2014-05-25T14:42:01Z</time>
      </trkpt>
      <trkpt lat="42.818460250273347" lon="-3.791273273527622">
        <ele>661.51999999999998</ele>
        <time>2014-05-25T14:42:13Z</time>
      </trkpt>
      <trkpt lat="42.818402163684368" lon="-3.791114017367363">
        <ele>662.00999999999999</ele>
        <time>2014-05-25T14:42:24Z</time>
      </trkpt>
      <trkpt lat="42.818349525332451" lon="-3.790971273556352">
        <ele>661.03999999999996</ele>
        <time>2014-05-25T14:42:35Z</time>
      </trkpt>
      <trkpt lat="42.818272998556495" lon="-3.790870103985071">
        <ele>661.51999999999998</ele>
        <time>2014-05-25T14:42:45Z</time>
      </trkpt>
      <trkpt lat="42.81819554977119" lon="-3.790783351287246">
        <ele>662.00999999999999</ele>
        <time>2014-05-25T14:42:58Z</time>
      </trkpt>
      <trkpt lat="42.818081388249993" lon="-3.790668686851859">
        <ele>662.97000000000003</ele>
        <time>2014-05-25T14:43:08Z</time>
      </trkpt>
      <trkpt lat="42.818048279732466" lon="-3.790597356855869">
        <ele>662.97000000000003</ele>
        <time>2014-05-25T14:43:13Z</time>
      </trkpt>
      <trkpt lat="42.817887682467699" lon="-3.790387138724327">
        <ele>664.40999999999997</ele>
        <time>2014-05-25T14:43:25Z</time>
      </trkpt>
      <trkpt lat="42.817873852327466" lon="-3.790375487878919">
        <ele>664.40999999999997</ele>
        <time>2014-05-25T14:43:38Z</time>
      </trkpt>
      <trkpt lat="42.81766053289175" lon="-3.790164263918996">
        <ele>664.88999999999999</ele>
        <time>2014-05-25T14:43:40Z</time>
      </trkpt>
      <trkpt lat="42.817506305873394" lon="-3.789978856220841">
        <ele>662.97000000000003</ele>
        <time>2014-05-25T14:43:52Z</time>
      </trkpt>
      <trkpt lat="42.817164994776249" lon="-3.789707366377115">
        <ele>663.45000000000005</ele>
        <time>2014-05-25T14:44:01Z</time>
      </trkpt>
      <trkpt lat="42.817003978416324" lon="-3.78955707885325">
        <ele>663.92999999999995</ele>
        <time>2014-05-25T14:44:14Z</time>
      </trkpt>
      <trkpt lat="42.81664707697928" lon="-3.789430009201169">
        <ele>664.40999999999997</ele>
        <time>2014-05-25T14:44:25Z</time>
      </trkpt>
      <trkpt lat="42.816329402849078" lon="-3.789446102455258">
        <ele>664.40999999999997</ele>
        <time>2014-05-25T14:44:41Z</time>
      </trkpt>
      <trkpt lat="42.816047603264451" lon="-3.78933378495276">
        <ele>662.97000000000003</ele>
        <time>2014-05-25T14:45:01Z</time>
      </trkpt>
      <trkpt lat="42.815785249695182" lon="-3.789019044488668">
        <ele>661.51999999999998</ele>
        <time>2014-05-25T14:45:29Z</time>
      </trkpt>
      <trkpt lat="42.815551394596696" lon="-3.788670441135764">
        <ele>660.08000000000004</ele>
        <time>2014-05-25T14:45:55Z</time>
      </trkpt>
      <trkpt lat="42.81551887281239" lon="-3.788389312103391">
        <ele>659.60000000000002</ele>
        <time>2014-05-25T14:46:25Z</time>
      </trkpt>
      <trkpt lat="42.815464725717902" lon="-3.788287555798888">
        <ele>659.12</ele>
        <time>2014-05-25T14:46:52Z</time>
      </trkpt>
      <trkpt lat="42.81528091058135" lon="-3.788306415081024">
        <ele>659.12</ele>
        <time>2014-05-25T14:47:22Z</time>
      </trkpt>
      <trkpt lat="42.815170353278518" lon="-3.788281353190541">
        <ele>659.60000000000002</ele>
        <time>2014-05-25T14:47:50Z</time>
      </trkpt>
      <trkpt lat="42.815151577815413" lon="-3.788284035399556">
        <ele>659.60000000000002</ele>
        <time>2014-05-25T14:47:53Z</time>
      </trkpt>
      <trkpt lat="42.814943119883537" lon="-3.788252687081695">
        <ele>660.08000000000004</ele>
        <time>2014-05-25T14:50:24Z</time>
      </trkpt>
      <trkpt lat="42.81467841938138" lon="-3.788262074813247">
        <ele>660.08000000000004</ele>
        <time>2014-05-25T14:50:35Z</time>
      </trkpt>
      <trkpt lat="42.814407180994749" lon="-3.788471706211567">
        <ele>659.60000000000002</ele>
        <time>2014-05-25T14:50:39Z</time>
      </trkpt>
      <trkpt lat="42.814134350046515" lon="-3.788477657362819">
        <ele>660.08000000000004</ele>
        <time>2014-05-25T14:50:40Z</time>
      </trkpt>
      <trkpt lat="42.813863949850202" lon="-3.788471538573504">
        <ele>661.03999999999996</ele>
        <time>2014-05-25T14:50:54Z</time>
      </trkpt>
      <trkpt lat="42.813881719484925" lon="-3.788469862192869">
        <ele>660.55999999999995</ele>
        <time>2014-05-25T14:51:10Z</time>
      </trkpt>
      <trkpt lat="42.813894124701619" lon="-3.788490565493703">
        <ele>660.08000000000004</ele>
        <time>2014-05-25T14:51:25Z</time>
      </trkpt>
      <trkpt lat="42.813875935971737" lon="-3.788481093943119">
        <ele>661.03999999999996</ele>
        <time>2014-05-25T14:51:39Z</time>
      </trkpt>
      <trkpt lat="42.813876438885927" lon="-3.78842887468636">
        <ele>660.55999999999995</ele>
        <time>2014-05-25T14:51:51Z</time>
      </trkpt>
      <trkpt lat="42.81386487185955" lon="-3.788440441712737">
        <ele>661.03999999999996</ele>
        <time>2014-05-25T14:52:04Z</time>
      </trkpt>
      <trkpt lat="42.813838133588433" lon="-3.788465168327093">
        <ele>660.08000000000004</ele>
        <time>2014-05-25T14:52:16Z</time>
      </trkpt>
      <trkpt lat="42.813842073082924" lon="-3.788427952677012">
        <ele>660.55999999999995</ele>
        <time>2014-05-25T14:52:28Z</time>
      </trkpt>
      <trkpt lat="42.813839893788099" lon="-3.788443543016911">
        <ele>659.60000000000002</ele>
        <time>2014-05-25T14:52:40Z</time>
      </trkpt>
      <trkpt lat="42.813843749463558" lon="-3.788404231891036">
        <ele>660.55999999999995</ele>
        <time>2014-05-25T14:52:52Z</time>
      </trkpt>
      <trkpt lat="42.813756829127669" lon="-3.788468772545457">
        <ele>661.03999999999996</ele>
        <time>2014-05-25T14:53:03Z</time>
      </trkpt>
      <trkpt lat="42.813730342313647" lon="-3.788437256589532">
        <ele>656.24000000000001</ele>
        <time>2014-05-25T14:53:14Z</time>
      </trkpt>
      <trkpt lat="42.813721373677254" lon="-3.788428036496043">
        <ele>661.03999999999996</ele>
        <time>2014-05-25T14:53:29Z</time>
      </trkpt>
      <trkpt lat="42.813408812507987" lon="-3.788314796984196">
        <ele>661.03999999999996</ele>
        <time>2014-05-25T14:53:37Z</time>
      </trkpt>
      <trkpt lat="42.812899192795157" lon="-3.788276659324765">
        <ele>661.03999999999996</ele>
        <time>2014-05-25T14:53:42Z</time>
      </trkpt>
      <trkpt lat="42.8124272916466" lon="-3.788242293521762">
        <ele>660.55999999999995</ele>
        <time>2014-05-25T14:53:55Z</time>
      </trkpt>
      <trkpt lat="42.812033090740442" lon="-3.788297111168504">
        <ele>660.08000000000004</ele>
        <time>2014-05-25T14:54:08Z</time>
      </trkpt>
      <trkpt lat="42.811638470739126" lon="-3.788462402299047">
        <ele>659.12</ele>
        <time>2014-05-25T14:54:15Z</time>
      </trkpt>
      <trkpt lat="42.811210490763187" lon="-3.788622664287686">
        <ele>658.15999999999997</ele>
        <time>2014-05-25T14:54:20Z</time>
      </trkpt>
      <trkpt lat="42.81092332676053" lon="-3.788776807487011">
        <ele>659.12</ele>
        <time>2014-05-25T14:54:23Z</time>
      </trkpt>
      <trkpt lat="42.810673378407955" lon="-3.788761971518397">
        <ele>659.60000000000002</ele>
        <time>2014-05-25T14:54:24Z</time>
      </trkpt>
      <trkpt lat="42.810299294069409" lon="-3.788637584075332">
        <ele>659.60000000000002</ele>
        <time>2014-05-25T14:54:25Z</time>
      </trkpt>
      <trkpt lat="42.810066696256399" lon="-3.788421582430601">
        <ele>661.51999999999998</ele>
        <time>2014-05-25T14:54:34Z</time>
      </trkpt>
      <trkpt lat="42.809886150062084" lon="-3.788205245509744">
        <ele>662.00999999999999</ele>
        <time>2014-05-25T14:54:45Z</time>
      </trkpt>
      <trkpt lat="42.809787578880787" lon="-3.788066189736128">
        <ele>662.97000000000003</ele>
        <time>2014-05-25T14:54:57Z</time>
      </trkpt>
      <trkpt lat="42.809709711000323" lon="-3.78799008205533">
        <ele>662.97000000000003</ele>
        <time>2014-05-25T14:55:10Z</time>
      </trkpt>
      <trkpt lat="42.809685990214348" lon="-3.787966445088387">
        <ele>662.97000000000003</ele>
        <time>2014-05-25T14:55:19Z</time>
      </trkpt>
      <trkpt lat="42.809609211981297" lon="-3.787890253588557">
        <ele>663.45000000000005</ele>
        <time>2014-05-25T14:55:28Z</time>
      </trkpt>
      <trkpt lat="42.809447022154927" lon="-3.787528909742832">
        <ele>665.37</ele>
        <time>2014-05-25T14:55:29Z</time>
      </trkpt>
      <trkpt lat="42.809289442375302" lon="-3.787110988050699">
        <ele>664.88999999999999</ele>
        <time>2014-05-25T14:55:30Z</time>
      </trkpt>
      <trkpt lat="42.809306960552931" lon="-3.786696502938867">
        <ele>662.49000000000001</ele>
        <time>2014-05-25T14:55:31Z</time>
      </trkpt>
      <trkpt lat="42.809324730187654" lon="-3.786388719454408">
        <ele>659.60000000000002</ele>
        <time>2014-05-25T14:55:32Z</time>
      </trkpt>
      <trkpt lat="42.809358173981309" lon="-3.786238096654415">
        <ele>659.60000000000002</ele>
        <time>2014-05-25T14:55:33Z</time>
      </trkpt>
      <trkpt lat="42.809377536177635" lon="-3.786181015893817">
        <ele>659.60000000000002</ele>
        <time>2014-05-25T14:55:34Z</time>
      </trkpt>
      <trkpt lat="42.809401089325547" lon="-3.786124102771282">
        <ele>658.63999999999999</ele>
        <time>2014-05-25T14:55:35Z</time>
      </trkpt>
      <trkpt lat="42.809596555307508" lon="-3.785698302090168">
        <ele>660.08000000000004</ele>
        <time>2014-05-25T14:55:36Z</time>
      </trkpt>
      <trkpt lat="42.80987961217761" lon="-3.785321703180671">
        <ele>659.60000000000002</ele>
        <time>2014-05-25T14:55:41Z</time>
      </trkpt>
      <trkpt lat="42.810079604387283" lon="-3.784910989925265">
        <ele>659.12</ele>
        <time>2014-05-25T14:55:42Z</time>
      </trkpt>
      <trkpt lat="42.81028269790113" lon="-3.784413859248161">
        <ele>659.60000000000002</ele>
        <time>2014-05-25T14:55:43Z</time>
      </trkpt>
      <trkpt lat="42.810426279902458" lon="-3.784086126834154">
        <ele>658.63999999999999</ele>
        <time>2014-05-25T14:55:44Z</time>
      </trkpt>
      <trkpt lat="42.81056709587574" lon="-3.783733835443854">
        <ele>658.63999999999999</ele>
        <time>2014-05-25T14:55:46Z</time>
      </trkpt>
      <trkpt lat="42.810591654852033" lon="-3.783708857372403">
        <ele>658.63999999999999</ele>
        <time>2014-05-25T14:55:52Z</time>
      </trkpt>
      <trkpt lat="42.810614034533501" lon="-3.783679017797113">
        <ele>658.63999999999999</ele>
        <time>2014-05-25T14:56:05Z</time>
      </trkpt>
      <trkpt lat="42.81063943170011" lon="-3.783652614802122">
        <ele>658.15999999999997</ele>
        <time>2014-05-25T14:56:19Z</time>
      </trkpt>
      <trkpt lat="42.810665918514132" lon="-3.783635683357716">
        <ele>658.63999999999999</ele>
        <time>2014-05-25T14:56:31Z</time>
      </trkpt>
      <trkpt lat="42.810692908242345" lon="-3.783618081361055">
        <ele>658.63999999999999</ele>
        <time>2014-05-25T14:56:45Z</time>
      </trkpt>
      <trkpt lat="42.810718892142177" lon="-3.783593270927668">
        <ele>658.63999999999999</ele>
        <time>2014-05-25T14:56:58Z</time>
      </trkpt>
      <trkpt lat="42.810742193832994" lon="-3.783562509343028">
        <ele>658.63999999999999</ele>
        <time>2014-05-25T14:57:10Z</time>
      </trkpt>
      <trkpt lat="42.810765998438001" lon="-3.783526802435517">
        <ele>658.63999999999999</ele>
        <time>2014-05-25T14:57:23Z</time>
      </trkpt>
      <trkpt lat="42.810851912945509" lon="-3.783386237919331">
        <ele>657.67999999999995</ele>
        <time>2014-05-25T14:57:36Z</time>
      </trkpt>
      <trkpt lat="42.81086809001863" lon="-3.783368719741702">
        <ele>658.63999999999999</ele>
        <time>2014-05-25T14:57:48Z</time>
      </trkpt>
      <trkpt lat="42.810883093625307" lon="-3.783346759155393">
        <ele>658.63999999999999</ele>
        <time>2014-05-25T14:57:59Z</time>
      </trkpt>
      <trkpt lat="42.81089449301362" lon="-3.78332999534905">
        <ele>658.63999999999999</ele>
        <time>2014-05-25T15:16:33Z</time>
      </trkpt>
      <trkpt lat="42.810916872695088" lon="-3.783293198794127">
        <ele>659.12</ele>
        <time>2014-05-25T15:16:49Z</time>
      </trkpt>
      <trkpt lat="42.810957860201597" lon="-3.783053644001484">
        <ele>658.15999999999997</ele>
        <time>2014-05-25T15:17:07Z</time>
      </trkpt>
      <trkpt lat="42.811238821595907" lon="-3.782442016527057">
        <ele>657.67999999999995</ele>
        <time>2014-05-25T15:17:22Z</time>
      </trkpt>
      <trkpt lat="42.811455577611923" lon="-3.781797112897039">
        <ele>659.12</ele>
        <time>2014-05-25T15:17:39Z</time>
      </trkpt>
      <trkpt lat="42.811441496014595" lon="-3.781314315274358">
        <ele>659.60000000000002</ele>
        <time>2014-05-25T15:17:58Z</time>
      </trkpt>
      <trkpt lat="42.811422972008586" lon="-3.780654575675726">
        <ele>660.08000000000004</ele>
        <time>2014-05-25T15:18:16Z</time>
      </trkpt>
      <trkpt lat="42.811337476596236" lon="-3.780142273753882">
        <ele>659.12</ele>
        <time>2014-05-25T15:18:34Z</time>
      </trkpt>
      <trkpt lat="42.811199426651001" lon="-3.779681185260415">
        <ele>658.15999999999997</ele>
        <time>2014-05-25T15:18:38Z</time>
      </trkpt>
      <trkpt lat="42.810997841879725" lon="-3.779212133958936">
        <ele>658.15999999999997</ele>
        <time>2014-05-25T15:18:39Z</time>
      </trkpt>
      <trkpt lat="42.810820396989584" lon="-3.778771748766303">
        <ele>657.67999999999995</ele>
        <time>2014-05-25T15:18:53Z</time>
      </trkpt>
      <trkpt lat="42.810583021491766" lon="-3.778347373008728">
        <ele>657.67999999999995</ele>
        <time>2014-05-25T15:19:05Z</time>
      </trkpt>
      <trkpt lat="42.810440193861723" lon="-3.778121899813414">
        <ele>659.12</ele>
        <time>2014-05-25T15:19:21Z</time>
      </trkpt>
      <trkpt lat="42.810351680964231" lon="-3.778081582859159">
        <ele>660.0703125</ele>
        <time>2014-05-25T15:19:23Z</time>
      </trkpt>
      <trkpt lat="42.810540273785591" lon="-3.777716467157006">
        <ele>659.015625</ele>
        <time>2014-05-25T15:19:41Z</time>
      </trkpt>
      <trkpt lat="42.81098049134016" lon="-3.777251774445176">
        <ele>663.91796875</ele>
        <time>2014-05-25T15:20:01Z</time>
      </trkpt>
      <trkpt lat="42.810719981789589" lon="-3.776598991826177">
        <ele>665.01171875</ele>
        <time>2014-05-25T15:20:19Z</time>
      </trkpt>
      <trkpt lat="42.810216899961233" lon="-3.775990465655923">
        <ele>672.48828125</ele>
        <time>2014-05-25T15:20:33Z</time>
      </trkpt>
      <trkpt lat="42.810100140050054" lon="-3.775758119300008">
        <ele>674.78515625</ele>
        <time>2014-05-25T15:20:49Z</time>
      </trkpt>
      <trkpt lat="42.808923320844769" lon="-3.775536837056279">
        <ele>686.59765625</ele>
        <time>2014-05-25T15:20:53Z</time>
      </trkpt>
      <trkpt lat="42.80833943746984" lon="-3.775448324158788">
        <ele>694.2109375</ele>
        <time>2014-05-25T15:21:08Z</time>
      </trkpt>
      <trkpt lat="42.807926209643483" lon="-3.775448324158788">
        <ele>697.2734375</ele>
        <time>2014-05-25T15:21:18Z</time>
      </trkpt>
      <trkpt lat="42.807072764262557" lon="-3.775127464905381">
        <ele>693.2421875</ele>
        <time>2014-05-25T15:21:33Z</time>
      </trkpt>
      <trkpt lat="42.807414159178734" lon="-3.77503895200789">
        <ele>704.82421875</ele>
        <time>2014-05-25T15:22:12Z</time>
      </trkpt>
      <trkpt lat="42.808123854920268" lon="-3.775138529017568">
        <ele>714.171875</ele>
        <time>2014-05-25T15:22:45Z</time>
      </trkpt>
      <trkpt lat="42.809408465400338" lon="-3.774651708081365">
        <ele>718.00390625</ele>
        <time>2014-05-25T15:23:01Z</time>
      </trkpt>
      <trkpt lat="42.809570152312517" lon="-3.774629579856992">
        <ele>718.234375</ele>
        <time>2014-05-25T15:23:32Z</time>
      </trkpt>
      <trkpt lat="42.809651959687471" lon="-3.774549784138799">
        <ele>704.77999999999997</ele>
        <time>2014-05-25T15:23:41Z</time>
      </trkpt>
      <trkpt lat="42.810054458677769" lon="-3.774476191028953">
        <ele>706.71000000000004</ele>
        <time>2014-05-25T15:23:42Z</time>
      </trkpt>
      <trkpt lat="42.810470536351204" lon="-3.774417266249657">
        <ele>708.63</ele>
        <time>2014-05-25T15:23:54Z</time>
      </trkpt>
      <trkpt lat="42.81081578694284" lon="-3.774250131100416">
        <ele>711.02999999999997</ele>
        <time>2014-05-25T15:23:57Z</time>
      </trkpt>
      <trkpt lat="42.811193475499749" lon="-3.774036560207605">
        <ele>713.91999999999996</ele>
        <time>2014-05-25T15:23:58Z</time>
      </trkpt>
      <trkpt lat="42.811608212068677" lon="-3.773812931030989">
        <ele>715.84000000000003</ele>
        <time>2014-05-25T15:24:01Z</time>
      </trkpt>
      <trkpt lat="42.812006687745452" lon="-3.773604221642017">
        <ele>718.72000000000003</ele>
        <time>2014-05-25T15:24:02Z</time>
      </trkpt>
      <trkpt lat="42.812394518405199" lon="-3.773378664627671">
        <ele>722.57000000000005</ele>
        <time>2014-05-25T15:24:16Z</time>
      </trkpt>
      <trkpt lat="42.812482696026564" lon="-3.773336922749877">
        <ele>717.75999999999999</ele>
        <time>2014-05-25T15:24:28Z</time>
      </trkpt>
      <trkpt lat="42.812501303851604" lon="-3.773326445370913">
        <ele>722.57000000000005</ele>
        <time>2014-05-25T15:24:36Z</time>
      </trkpt>
      <trkpt lat="42.812786791473627" lon="-3.773165512830019">
        <ele>723.52999999999997</ele>
        <time>2014-05-25T15:24:38Z</time>
      </trkpt>
      <trkpt lat="42.813042858615518" lon="-3.773021679371595">
        <ele>725.45000000000005</ele>
        <time>2014-05-25T15:24:53Z</time>
      </trkpt>
      <trkpt lat="42.813388779759407" lon="-3.772848593071103">
        <ele>726.88999999999999</ele>
        <time>2014-05-25T15:25:08Z</time>
      </trkpt>
      <trkpt lat="42.813436472788453" lon="-3.772834511473775">
        <ele>727.37</ele>
        <time>2014-05-25T15:25:24Z</time>
      </trkpt>
      <trkpt lat="42.813908625394106" lon="-3.772816406562924">
        <ele>730.25999999999999</ele>
        <time>2014-05-25T15:25:41Z</time>
      </trkpt>
      <trkpt lat="42.814419250935316" lon="-3.772829733788967">
        <ele>732.65999999999997</ele>
        <time>2014-05-25T15:25:57Z</time>
      </trkpt>
      <trkpt lat="42.814881009981036" lon="-3.772740131244063">
        <ele>735.07000000000005</ele>
        <time>2014-05-25T15:26:13Z</time>
      </trkpt>
      <trkpt lat="42.815226847305894" lon="-3.772608703002334">
        <ele>738.42999999999995</ele>
        <time>2014-05-25T15:26:29Z</time>
      </trkpt>
      <trkpt lat="42.815608726814389" lon="-3.772460930049419">
        <ele>740.35000000000002</ele>
        <time>2014-05-25T15:26:45Z</time>
      </trkpt>
      <trkpt lat="42.815694138407707" lon="-3.772414745762944">
        <ele>742.27999999999997</ele>
        <time>2014-05-25T15:27:01Z</time>
      </trkpt>
      <trkpt lat="42.816033773124218" lon="-3.772313911467791">
        <ele>744.20000000000005</ele>
        <time>2014-05-25T15:27:17Z</time>
      </trkpt>
      <trkpt lat="42.816105438396335" lon="-3.772308630868793">
        <ele>744.67999999999995</ele>
        <time>2014-05-25T15:27:27Z</time>
      </trkpt>
      <trkpt lat="42.816158160567284" lon="-3.772299578413367">
        <ele>744.67999999999995</ele>
        <time>2014-05-25T15:27:28Z</time>
      </trkpt>
      <trkpt lat="42.8161262255162" lon="-3.772274013608694">
        <ele>745.63999999999999</ele>
        <time>2014-05-25T15:27:42Z</time>
      </trkpt>
      <trkpt lat="42.816110048443079" lon="-3.772259010002017">
        <ele>745.63999999999999</ele>
        <time>2014-05-25T15:27:57Z</time>
      </trkpt>
      <trkpt lat="42.81613259576261" lon="-3.772268900647759">
        <ele>745.63999999999999</ele>
        <time>2014-05-25T15:28:14Z</time>
      </trkpt>
      <trkpt lat="42.816128572449088" lon="-3.772285496816039">
        <ele>745.15999999999997</ele>
        <time>2014-05-25T15:28:34Z</time>
      </trkpt>
      <trkpt lat="42.816165452823043" lon="-3.772286083549261">
        <ele>745.63999999999999</ele>
        <time>2014-05-25T15:28:52Z</time>
      </trkpt>
      <trkpt lat="42.81617852859199" lon="-3.77229287289083">
        <ele>745.63999999999999</ele>
        <time>2014-05-25T15:29:09Z</time>
      </trkpt>
      <trkpt lat="42.816462842747569" lon="-3.772282479330897">
        <ele>747.08000000000004</ele>
        <time>2014-05-25T15:29:25Z</time>
      </trkpt>
      <trkpt lat="42.81653911806643" lon="-3.772276444360614">
        <ele>743.24000000000001</ele>
        <time>2014-05-25T15:29:39Z</time>
      </trkpt>
      <trkpt lat="42.816564682871103" lon="-3.772272588685155">
        <ele>749.49000000000001</ele>
        <time>2014-05-25T15:29:51Z</time>
      </trkpt>
      <trkpt lat="42.816648753359914" lon="-3.772271750494838">
        <ele>754.76999999999998</ele>
        <time>2014-05-25T15:30:03Z</time>
      </trkpt>
      <trkpt lat="42.816676665097475" lon="-3.772274181246758">
        <ele>748.51999999999998</ele>
        <time>2014-05-25T15:30:14Z</time>
      </trkpt>
      <trkpt lat="42.81705460511148" lon="-3.772274851799011">
        <ele>749.97000000000003</ele>
        <time>2014-05-25T15:30:32Z</time>
      </trkpt>
      <trkpt lat="42.817288963124156" lon="-3.771899174898863">
        <ele>751.40999999999997</ele>
        <time>2014-05-25T15:30:47Z</time>
      </trkpt>
      <trkpt lat="42.817137166857719" lon="-3.771646376699209">
        <ele>752.85000000000002</ele>
        <time>2014-05-25T15:31:00Z</time>
      </trkpt>
      <trkpt lat="42.817071285098791" lon="-3.771642604842782">
        <ele>752.85000000000002</ele>
        <time>2014-05-25T15:36:19Z</time>
      </trkpt>
      <trkpt lat="42.816626122221351" lon="-3.771858606487513">
        <ele>754.76999999999998</ele>
        <time>2014-05-25T15:36:20Z</time>
      </trkpt>
      <trkpt lat="42.816161345690489" lon="-3.77204074524343">
        <ele>757.17999999999995</ele>
        <time>2014-05-25T15:36:25Z</time>
      </trkpt>
      <trkpt lat="42.815664634108543" lon="-3.772055832669139">
        <ele>758.62</ele>
        <time>2014-05-25T15:36:41Z</time>
      </trkpt>
      <trkpt lat="42.815158450976014" lon="-3.77211987040937">
        <ele>761.5</ele>
        <time>2014-05-25T15:36:50Z</time>
      </trkpt>
      <trkpt lat="42.814695099368691" lon="-3.772128168493509">
        <ele>763.41999999999996</ele>
        <time>2014-05-25T15:37:05Z</time>
      </trkpt>
      <trkpt lat="42.814270639792085" lon="-3.771976288408041">
        <ele>765.83000000000004</ele>
        <time>2014-05-25T15:37:09Z</time>
      </trkpt>
      <trkpt lat="42.813867973163724" lon="-3.771722400560975">
        <ele>768.23000000000002</ele>
        <time>2014-05-25T15:37:22Z</time>
      </trkpt>
      <trkpt lat="42.813414931297302" lon="-3.771591978147626">
        <ele>771.11000000000001</ele>
        <time>2014-05-25T15:37:39Z</time>
      </trkpt>
      <trkpt lat="42.812951747328043" lon="-3.771722065284848">
        <ele>773.03999999999996</ele>
        <time>2014-05-25T15:37:54Z</time>
      </trkpt>
      <trkpt lat="42.812512870877981" lon="-3.771754670888186">
        <ele>774</ele>
        <time>2014-05-25T15:37:55Z</time>
      </trkpt>
      <trkpt lat="42.812500633299351" lon="-3.771402966231108">
        <ele>775.91999999999996</ele>
        <time>2014-05-25T15:38:04Z</time>
      </trkpt>
      <trkpt lat="42.812526281923056" lon="-3.77137815579772">
        <ele>775.91999999999996</ele>
        <time>2014-05-25T15:38:15Z</time>
      </trkpt>
      <trkpt lat="42.812963398173451" lon="-3.771224934607744">
        <ele>776.39999999999998</ele>
        <time>2014-05-25T15:38:16Z</time>
      </trkpt>
      <trkpt lat="42.813397832214832" lon="-3.771153353154659">
        <ele>779.76999999999998</ele>
        <time>2014-05-25T15:38:17Z</time>
      </trkpt>
      <trkpt lat="42.813886161893606" lon="-3.771310849115253">
        <ele>780.73000000000002</ele>
        <time>2014-05-25T15:38:18Z</time>
      </trkpt>
      <trkpt lat="42.814402990043163" lon="-3.771531293168664">
        <ele>784.09000000000003</ele>
        <time>2014-05-25T15:38:19Z</time>
      </trkpt>
      <trkpt lat="42.814876986667514" lon="-3.771591391414404">
        <ele>786.01999999999998</ele>
        <time>2014-05-25T15:38:31Z</time>
      </trkpt>
      <trkpt lat="42.81531217508018" lon="-3.771490305662155">
        <ele>789.86000000000001</ele>
        <time>2014-05-25T15:38:45Z</time>
      </trkpt>
      <trkpt lat="42.815730767324567" lon="-3.771272292360663">
        <ele>791.29999999999995</ele>
        <time>2014-05-25T15:38:58Z</time>
      </trkpt>
      <trkpt lat="42.816071826964617" lon="-3.771015303209424">
        <ele>794.66999999999996</ele>
        <time>2014-05-25T15:39:14Z</time>
      </trkpt>
      <trkpt lat="42.816328564658761" lon="-3.770745992660523">
        <ele>797.07000000000005</ele>
        <time>2014-05-25T15:39:32Z</time>
      </trkpt>
      <trkpt lat="42.816592175513506" lon="-3.770480705425143">
        <ele>798.02999999999997</ele>
        <time>2014-05-25T15:39:33Z</time>
      </trkpt>
      <trkpt lat="42.816858636215329" lon="-3.770200246945024">
        <ele>801.39999999999998</ele>
        <time>2014-05-25T15:39:34Z</time>
      </trkpt>
      <trkpt lat="42.817276306450367" lon="-3.76976958476007">
        <ele>803.79999999999995</ele>
        <time>2014-05-25T15:39:35Z</time>
      </trkpt>
      <trkpt lat="42.817732449620962" lon="-3.769541932269931">
        <ele>806.67999999999995</ele>
        <time>2014-05-25T15:39:36Z</time>
      </trkpt>
      <trkpt lat="42.817930765450001" lon="-3.769446462392807">
        <ele>808.13</ele>
        <time>2014-05-25T15:39:37Z</time>
      </trkpt>
      <trkpt lat="42.81791165471077" lon="-3.769324338063598">
        <ele>810.04999999999995</ele>
        <time>2014-05-25T15:39:38Z</time>
      </trkpt>
      <trkpt lat="42.817905200645328" lon="-3.769313860684633">
        <ele>810.52999999999997</ele>
        <time>2014-05-25T15:39:39Z</time>
      </trkpt>
      <trkpt lat="42.817900842055678" lon="-3.769256277009845">
        <ele>811.49000000000001</ele>
        <time>2014-05-25T15:39:40Z</time>
      </trkpt>
      <trkpt lat="42.81798935495317" lon="-3.769076988101006">
        <ele>812.45000000000005</ele>
        <time>2014-05-25T15:39:41Z</time>
      </trkpt>
      <trkpt lat="42.818007124587893" lon="-3.768960647284985">
        <ele>817.25999999999999</ele>
        <time>2014-05-25T15:39:42Z</time>
      </trkpt>
      <trkpt lat="42.818061271682382" lon="-3.768808515742421">
        <ele>816.29999999999995</ele>
        <time>2014-05-25T15:39:43Z</time>
      </trkpt>
      <trkpt lat="42.818068815395236" lon="-3.768773982301354">
        <ele>816.29999999999995</ele>
        <time>2014-05-25T15:39:44Z</time>
      </trkpt>
      <trkpt lat="42.818164704367518" lon="-3.768521267920733">
        <ele>818.70000000000005</ele>
        <time>2014-05-25T15:39:45Z</time>
      </trkpt>
      <trkpt lat="42.818343909457326" lon="-3.768157912418246">
        <ele>820.62</ele>
        <time>2014-05-25T15:39:46Z</time>
      </trkpt>
      <trkpt lat="42.818498136475682" lon="-3.767783241346479">
        <ele>823.50999999999999</ele>
        <time>2014-05-25T15:40:01Z</time>
      </trkpt>
      <trkpt lat="42.818498807027936" lon="-3.767753150314093">
        <ele>823.50999999999999</ele>
        <time>2014-05-25T15:40:16Z</time>
      </trkpt>
      <trkpt lat="42.818434769287705" lon="-3.767511332407594">
        <ele>825.90999999999997</ele>
        <time>2014-05-25T15:40:32Z</time>
      </trkpt>
      <trkpt lat="42.818343490362167" lon="-3.767299689352512">
        <ele>827.83000000000004</ele>
        <time>2014-05-25T15:40:47Z</time>
      </trkpt>
      <trkpt lat="42.818337203934789" lon="-3.767280578613281">
        <ele>828.30999999999995</ele>
        <time>2014-05-25T15:40:58Z</time>
      </trkpt>
      <trkpt lat="42.81832748092711" lon="-3.767260294407606">
        <ele>827.83000000000004</ele>
        <time>2014-05-25T15:40:59Z</time>
      </trkpt>
      <trkpt lat="42.818318847566843" lon="-3.76724143512547">
        <ele>827.83000000000004</ele>
        <time>2014-05-25T15:41:09Z</time>
      </trkpt>
      <trkpt lat="42.818309459835291" lon="-3.767224252223969">
        <ele>828.30999999999995</ele>
        <time>2014-05-25T15:41:22Z</time>
      </trkpt>
      <trkpt lat="42.818164536729455" lon="-3.767024176195264">
        <ele>831.20000000000005</ele>
        <time>2014-05-25T15:41:38Z</time>
      </trkpt>
      <trkpt lat="42.818113407120109" lon="-3.766750004142523">
        <ele>834.08000000000004</ele>
        <time>2014-05-25T15:41:53Z</time>
      </trkpt>
      <trkpt lat="42.818337455391884" lon="-3.766637770459056">
        <ele>836.48000000000002</ele>
        <time>2014-05-25T15:42:11Z</time>
      </trkpt>
      <trkpt lat="42.818652614951134" lon="-3.766901297494769">
        <ele>838.40999999999997</ele>
        <time>2014-05-25T15:42:26Z</time>
      </trkpt>
      <trkpt lat="42.819067351520061" lon="-3.767005736008287">
        <ele>839.85000000000002</ele>
        <time>2014-05-25T15:42:42Z</time>
      </trkpt>
      <trkpt lat="42.819084450602531" lon="-3.766978578642011">
        <ele>840.33000000000004</ele>
        <time>2014-05-25T15:43:00Z</time>
      </trkpt>
      <trkpt lat="42.819094425067306" lon="-3.766946392133832">
        <ele>840.80999999999995</ele>
        <time>2014-05-25T15:43:04Z</time>
      </trkpt>
      <trkpt lat="42.819094089791179" lon="-3.766915379092097">
        <ele>841.76999999999998</ele>
        <time>2014-05-25T15:43:05Z</time>
      </trkpt>
      <trkpt lat="42.819088138639927" lon="-3.766886126250029">
        <ele>842.25</ele>
        <time>2014-05-25T15:43:06Z</time>
      </trkpt>
      <trkpt lat="42.819077745079994" lon="-3.766859220340848">
        <ele>843.21000000000004</ele>
        <time>2014-05-25T15:43:07Z</time>
      </trkpt>
      <trkpt lat="42.819061484187841" lon="-3.766838433220983">
        <ele>842.73000000000002</ele>
        <time>2014-05-25T15:43:08Z</time>
      </trkpt>
      <trkpt lat="42.819043044000864" lon="-3.766820076853037">
        <ele>842.73000000000002</ele>
        <time>2014-05-25T15:43:24Z</time>
      </trkpt>
      <trkpt lat="42.819024939090014" lon="-3.766804737970233">
        <ele>843.21000000000004</ele>
        <time>2014-05-25T15:43:42Z</time>
      </trkpt>
      <trkpt lat="42.819005409255624" lon="-3.766794009134173">
        <ele>843.21000000000004</ele>
        <time>2014-05-25T15:44:00Z</time>
      </trkpt>
      <trkpt lat="42.818985627964139" lon="-3.766782525926828">
        <ele>844.17999999999995</ele>
        <time>2014-05-25T15:44:15Z</time>
      </trkpt>
      <trkpt lat="42.818966349586844" lon="-3.766767857596278">
        <ele>844.65999999999997</ele>
        <time>2014-05-25T15:44:29Z</time>
      </trkpt>
      <trkpt lat="42.818946400657296" lon="-3.766752183437347">
        <ele>844.65999999999997</ele>
        <time>2014-05-25T15:44:46Z</time>
      </trkpt>
      <trkpt lat="42.818925864994526" lon="-3.766734832897782">
        <ele>845.13999999999999</ele>
        <time>2014-05-25T15:45:04Z</time>
      </trkpt>
      <trkpt lat="42.818907340988517" lon="-3.766719661653042">
        <ele>845.13999999999999</ele>
        <time>2014-05-25T15:45:24Z</time>
      </trkpt>
      <trkpt lat="42.818628391250968" lon="-3.766460493206978">
        <ele>846.58000000000004</ele>
        <time>2014-05-25T15:45:38Z</time>
      </trkpt>
      <trkpt lat="42.81833871267736" lon="-3.766178358346224">
        <ele>848.98000000000002</ele>
        <time>2014-05-25T15:45:58Z</time>
      </trkpt>
      <trkpt lat="42.818009303882718" lon="-3.765917681157589">
        <ele>850.89999999999998</ele>
        <time>2014-05-25T15:46:16Z</time>
      </trkpt>
      <trkpt lat="42.817759271711111" lon="-3.765621213242412">
        <ele>854.26999999999998</ele>
        <time>2014-05-25T15:46:17Z</time>
      </trkpt>
      <trkpt lat="42.817561374977231" lon="-3.765580644831061">
        <ele>855.71000000000004</ele>
        <time>2014-05-25T15:46:18Z</time>
      </trkpt>
      <trkpt lat="42.817553579807281" lon="-3.765613837167621">
        <ele>855.71000000000004</ele>
        <time>2014-05-25T15:46:32Z</time>
      </trkpt>
      <trkpt lat="42.817447045817971" lon="-3.765885913744569">
        <ele>858.11000000000001</ele>
        <time>2014-05-25T15:46:47Z</time>
      </trkpt>
      <trkpt lat="42.817158373072743" lon="-3.765943748876452">
        <ele>861</ele>
        <time>2014-05-25T15:46:48Z</time>
      </trkpt>
      <trkpt lat="42.816853858530521" lon="-3.76593972556293">
        <ele>862.91999999999996</ele>
        <time>2014-05-25T15:47:06Z</time>
      </trkpt>
      <trkpt lat="42.816557139158249" lon="-3.76596855930984">
        <ele>863.39999999999998</ele>
        <time>2014-05-25T15:47:19Z</time>
      </trkpt>
      <trkpt lat="42.8161780256778" lon="-3.76596218906343">
        <ele>865.32000000000005</ele>
        <time>2014-05-25T15:47:34Z</time>
      </trkpt>
      <trkpt lat="42.815907038748264" lon="-3.765745097771287">
        <ele>868.21000000000004</ele>
        <time>2014-05-25T15:47:50Z</time>
      </trkpt>
      <trkpt lat="42.81565960496664" lon="-3.765428261831403">
        <ele>871.09000000000003</ele>
        <time>2014-05-25T15:47:56Z</time>
      </trkpt>
      <trkpt lat="42.815362634137273" lon="-3.765091812238097">
        <ele>873.00999999999999</ele>
        <time>2014-05-25T15:47:57Z</time>
      </trkpt>
      <trkpt lat="42.815265152603388" lon="-3.765113856643438">
        <ele>873.98000000000002</ele>
        <time>2014-05-25T15:48:00Z</time>
      </trkpt>
      <trkpt lat="42.815250065177679" lon="-3.765138667076826">
        <ele>874.94000000000005</ele>
        <time>2014-05-25T15:48:06Z</time>
      </trkpt>
      <trkpt lat="42.815237576141953" lon="-3.765166411176324">
        <ele>875.41999999999996</ele>
        <time>2014-05-25T15:48:07Z</time>
      </trkpt>
      <trkpt lat="42.815230032429099" lon="-3.765197256579995">
        <ele>875.41999999999996</ele>
        <time>2014-05-25T15:48:08Z</time>
      </trkpt>
      <trkpt lat="42.815224081277847" lon="-3.765228940173984">
        <ele>874.94000000000005</ele>
        <time>2014-05-25T15:48:09Z</time>
      </trkpt>
      <trkpt lat="42.815141519531608" lon="-3.765769992023706">
        <ele>875.89999999999998</ele>
        <time>2014-05-25T15:48:10Z</time>
      </trkpt>
      <trkpt lat="42.814964409917593" lon="-3.766375500708818">
        <ele>877.34000000000003</ele>
        <time>2014-05-25T15:48:11Z</time>
      </trkpt>
      <trkpt lat="42.814743211492896" lon="-3.766995258629322">
        <ele>877.82000000000005</ele>
        <time>2014-05-25T15:48:13Z</time>
      </trkpt>
      <trkpt lat="42.814461076632142" lon="-3.767497921362519">
        <ele>877.82000000000005</ele>
        <time>2014-05-25T15:48:14Z</time>
      </trkpt>
      <trkpt lat="42.814012058079243" lon="-3.767669079825282">
        <ele>879.25999999999999</ele>
        <time>2014-05-25T15:48:15Z</time>
      </trkpt>
      <trkpt lat="42.813442843034863" lon="-3.767759185284376">
        <ele>880.71000000000004</ele>
        <time>2014-05-25T15:48:16Z</time>
      </trkpt>
      <trkpt lat="42.812853008508682" lon="-3.767841998487711">
        <ele>882.14999999999998</ele>
        <time>2014-05-25T15:48:17Z</time>
      </trkpt>
      <trkpt lat="42.812155047431588" lon="-3.767772763967514">
        <ele>883.11000000000001</ele>
        <time>2014-05-25T15:48:18Z</time>
      </trkpt>
      <trkpt lat="42.811670489609241" lon="-3.767691794782877">
        <ele>883.11000000000001</ele>
        <time>2014-05-25T15:48:19Z</time>
      </trkpt>
      <trkpt lat="42.810928774997592" lon="-3.76756489276886">
        <ele>882.14999999999998</ele>
        <time>2014-05-25T15:48:24Z</time>
      </trkpt>
      <trkpt lat="42.810167195275426" lon="-3.767395494505763">
        <ele>881.19000000000005</ele>
        <time>2014-05-25T15:48:25Z</time>
      </trkpt>
      <trkpt lat="42.81012486666441" lon="-3.767365654930472">
        <ele>881.66999999999996</ele>
        <time>2014-05-25T15:48:26Z</time>
      </trkpt>
      <trkpt lat="42.810084298253059" lon="-3.767331372946501">
        <ele>881.19000000000005</ele>
        <time>2014-05-25T15:48:27Z</time>
      </trkpt>
      <trkpt lat="42.80964064411819" lon="-3.766771461814642">
        <ele>880.71000000000004</ele>
        <time>2014-05-25T15:48:28Z</time>
      </trkpt>
      <trkpt lat="42.809177963063121" lon="-3.766110129654408">
        <ele>879.74000000000001</ele>
        <time>2014-05-25T15:48:29Z</time>
      </trkpt>
      <trkpt lat="42.809150218963623" lon="-3.76606872305274">
        <ele>880.22000000000003</ele>
        <time>2014-05-25T15:48:30Z</time>
      </trkpt>
      <trkpt lat="42.808669097721577" lon="-3.76526833511889">
        <ele>878.77999999999997</ele>
        <time>2014-05-25T15:48:31Z</time>
      </trkpt>
      <trkpt lat="42.808371037244797" lon="-3.764495020732284">
        <ele>877.82000000000005</ele>
        <time>2014-05-25T15:48:33Z</time>
      </trkpt>
      <trkpt lat="42.808250002563" lon="-3.763727406039834">
        <ele>877.82000000000005</ele>
        <time>2014-05-25T15:48:34Z</time>
      </trkpt>
      <trkpt lat="42.808090914040804" lon="-3.762782095000148">
        <ele>875.41999999999996</ele>
        <time>2014-05-25T15:48:35Z</time>
      </trkpt>
      <trkpt lat="42.808004831895232" lon="-3.762260908260942">
        <ele>871.09000000000003</ele>
        <time>2014-05-25T15:48:36Z</time>
      </trkpt>
      <trkpt lat="42.807997120544314" lon="-3.762166192755103">
        <ele>871.09000000000003</ele>
        <time>2014-05-25T15:48:37Z</time>
      </trkpt>
      <trkpt lat="42.807978680357337" lon="-3.761867377907038">
        <ele>869.64999999999998</ele>
        <time>2014-05-25T15:48:38Z</time>
      </trkpt>
      <trkpt lat="42.807993600144982" lon="-3.761249547824264">
        <ele>867.25</ele>
        <time>2014-05-25T15:48:39Z</time>
      </trkpt>
      <trkpt lat="42.808014219626784" lon="-3.761148881167173">
        <ele>866.28999999999996</ele>
        <time>2014-05-25T15:48:44Z</time>
      </trkpt>
      <trkpt lat="42.808046992868185" lon="-3.761055339127779">
        <ele>866.76999999999998</ele>
        <time>2014-05-25T15:48:45Z</time>
      </trkpt>
      <trkpt lat="42.80808974057436" lon="-3.760969424620271">
        <ele>866.28999999999996</ele>
        <time>2014-05-25T15:48:46Z</time>
      </trkpt>
      <trkpt lat="42.808137936517596" lon="-3.760890550911427">
        <ele>866.28999999999996</ele>
        <time>2014-05-25T15:48:47Z</time>
      </trkpt>
      <trkpt lat="42.808190574869514" lon="-3.760819640010595">
        <ele>866.76999999999998</ele>
        <time>2014-05-25T15:48:48Z</time>
      </trkpt>
      <trkpt lat="42.808288056403399" lon="-3.760679410770536">
        <ele>864.36000000000001</ele>
        <time>2014-05-25T15:48:49Z</time>
      </trkpt>
      <trkpt lat="42.808319739997387" lon="-3.760599363595247">
        <ele>864.84000000000003</ele>
        <time>2014-05-25T15:48:50Z</time>
      </trkpt>
      <trkpt lat="42.808328876271844" lon="-3.760516215115786">
        <ele>864.36000000000001</ele>
        <time>2014-05-25T15:48:51Z</time>
      </trkpt>
      <trkpt lat="42.808313705027103" lon="-3.760439436882734">
        <ele>863.88</ele>
        <time>2014-05-25T15:48:56Z</time>
      </trkpt>
      <trkpt lat="42.808280512690544" lon="-3.760372716933489">
        <ele>864.36000000000001</ele>
        <time>2014-05-25T15:48:57Z</time>
      </trkpt>
      <trkpt lat="42.808236507698894" lon="-3.760308679193258">
        <ele>863.88</ele>
        <time>2014-05-25T15:48:58Z</time>
      </trkpt>
      <trkpt lat="42.808188060298562" lon="-3.760241372510791">
        <ele>862.91999999999996</ele>
        <time>2014-05-25T15:48:59Z</time>
      </trkpt>
      <trkpt lat="42.807948505505919" lon="-3.759862342849374">
        <ele>861</ele>
        <time>2014-05-25T15:49:00Z</time>
      </trkpt>
      <trkpt lat="42.807920761406422" lon="-3.759768465533853">
        <ele>860.03999999999996</ele>
        <time>2014-05-25T15:49:01Z</time>
      </trkpt>
      <trkpt lat="42.807916235178709" lon="-3.759669810533524">
        <ele>859.08000000000004</ele>
        <time>2014-05-25T15:49:02Z</time>
      </trkpt>
      <trkpt lat="42.807934926822782" lon="-3.759574173018336">
        <ele>859.08000000000004</ele>
        <time>2014-05-25T15:49:07Z</time>
      </trkpt>
      <trkpt lat="42.807963006198406" lon="-3.759482139721513">
        <ele>858.11000000000001</ele>
        <time>2014-05-25T15:49:08Z</time>
      </trkpt>
      <trkpt lat="42.807995025068521" lon="-3.759392956271768">
        <ele>857.63</ele>
        <time>2014-05-25T15:49:09Z</time>
      </trkpt>
      <trkpt lat="42.808032659813762" lon="-3.75930754467845">
        <ele>856.66999999999996</ele>
        <time>2014-05-25T15:49:10Z</time>
      </trkpt>
      <trkpt lat="42.808070546016097" lon="-3.75922448001802">
        <ele>856.66999999999996</ele>
        <time>2014-05-25T15:49:11Z</time>
      </trkpt>
      <trkpt lat="42.808138774707913" lon="-3.759068492799997">
        <ele>856.66999999999996</ele>
        <time>2014-05-25T15:49:12Z</time>
      </trkpt>
      <trkpt lat="42.808158304542303" lon="-3.758992552757263">
        <ele>856.66999999999996</ele>
        <time>2014-05-25T15:49:21Z</time>
      </trkpt>
      <trkpt lat="42.808159310370684" lon="-3.758912421762943">
        <ele>856.19000000000005</ele>
        <time>2014-05-25T15:49:23Z</time>
      </trkpt>
      <trkpt lat="42.808138271793723" lon="-3.758833380416036">
        <ele>855.71000000000004</ele>
        <time>2014-05-25T15:49:24Z</time>
      </trkpt>
      <trkpt lat="42.808095524087548" lon="-3.7587661575526">
        <ele>854.75</ele>
        <time>2014-05-25T15:49:34Z</time>
      </trkpt>
      <trkpt lat="42.808036934584379" lon="-3.758713183924556">
        <ele>854.75</ele>
        <time>2014-05-25T15:49:53Z</time>
      </trkpt>
      <trkpt lat="42.807970801368356" lon="-3.758663982152939">
        <ele>853.78999999999996</ele>
        <time>2014-05-25T15:50:12Z</time>
      </trkpt>
      <trkpt lat="42.807627897709608" lon="-3.758384361863136">
        <ele>850.41999999999996</ele>
        <time>2014-05-25T15:50:28Z</time>
      </trkpt>
      <trkpt lat="42.80756738036871" lon="-3.758325101807714">
        <ele>849.94000000000005</ele>
        <time>2014-05-25T15:50:29Z</time>
      </trkpt>
      <trkpt lat="42.807517256587744" lon="-3.758251173421741">
        <ele>849.46000000000004</ele>
        <time>2014-05-25T15:50:39Z</time>
      </trkpt>
      <trkpt lat="42.807485992088914" lon="-3.758159978315234">
        <ele>847.53999999999996</ele>
        <time>2014-05-25T15:50:51Z</time>
      </trkpt>
      <trkpt lat="42.807481465861201" lon="-3.758062915876508">
        <ele>847.05999999999995</ele>
        <time>2014-05-25T15:51:10Z</time>
      </trkpt>
      <trkpt lat="42.807499319314957" lon="-3.757969373837113">
        <ele>847.05999999999995</ele>
        <time>2014-05-25T15:51:26Z</time>
      </trkpt>
      <trkpt lat="42.807534271851182" lon="-3.757881363853812">
        <ele>847.05999999999995</ele>
        <time>2014-05-25T15:51:39Z</time>
      </trkpt>
      <trkpt lat="42.807572074234486" lon="-3.757798550650477">
        <ele>847.05999999999995</ele>
        <time>2014-05-25T15:51:40Z</time>
      </trkpt>
      <trkpt lat="42.807748597115278" lon="-3.757404098287225">
        <ele>845.62</ele>
        <time>2014-05-25T15:51:57Z</time>
      </trkpt>
      <trkpt lat="42.8077682107687" lon="-3.757316255941987">
        <ele>845.62</ele>
        <time>2014-05-25T15:52:01Z</time>
      </trkpt>
      <trkpt lat="42.80776921659708" lon="-3.757221205160022">
        <ele>844.65999999999997</ele>
        <time>2014-05-25T15:52:09Z</time>
      </trkpt>
      <trkpt lat="42.807749519124627" lon="-3.757126405835152">
        <ele>844.17999999999995</ele>
        <time>2014-05-25T15:52:28Z</time>
      </trkpt>
      <trkpt lat="42.80771154910326" lon="-3.757042502984405">
        <ele>844.17999999999995</ele>
        <time>2014-05-25T15:52:46Z</time>
      </trkpt>
      <trkpt lat="42.807658324018121" lon="-3.756970334798098">
        <ele>844.65999999999997</ele>
        <time>2014-05-25T15:52:59Z</time>
      </trkpt>
      <trkpt lat="42.807599399238825" lon="-3.756904620677233">
        <ele>844.17999999999995</ele>
        <time>2014-05-25T15:53:16Z</time>
      </trkpt>
      <trkpt lat="42.807299494743347" lon="-3.756582252681255">
        <ele>843.21000000000004</ele>
        <time>2014-05-25T15:53:27Z</time>
      </trkpt>
      <trkpt lat="42.807228500023484" lon="-3.756551323458552">
        <ele>842.73000000000002</ele>
        <time>2014-05-25T15:53:30Z</time>
      </trkpt>
      <trkpt lat="42.807153314352036" lon="-3.756550820544362">
        <ele>842.73000000000002</ele>
        <time>2014-05-25T15:53:31Z</time>
      </trkpt>
      <trkpt lat="42.807081565260887" lon="-3.756581917405129">
        <ele>842.25</ele>
        <time>2014-05-25T15:53:32Z</time>
      </trkpt>
      <trkpt lat="42.807019706815481" lon="-3.756629275158048">
        <ele>842.73000000000002</ele>
        <time>2014-05-25T15:53:33Z</time>
      </trkpt>
      <trkpt lat="42.806964050978422" lon="-3.756682835519314">
        <ele>842.73000000000002</ele>
        <time>2014-05-25T15:53:38Z</time>
      </trkpt>
      <trkpt lat="42.806543866172433" lon="-3.757042838260531">
        <ele>845.62</ele>
        <time>2014-05-25T15:53:41Z</time>
      </trkpt>
      <trkpt lat="42.806463399901986" lon="-3.757102265954018">
        <ele>845.62</ele>
        <time>2014-05-25T15:53:44Z</time>
      </trkpt>
      <trkpt lat="42.806428531184793" lon="-3.757135877385736">
        <ele>845.62</ele>
        <time>2014-05-25T15:53:45Z</time>
      </trkpt>
      <trkpt lat="42.806096943095326" lon="-3.757422119379044">
        <ele>847.53999999999996</ele>
        <time>2014-05-25T15:53:46Z</time>
      </trkpt>
      <trkpt lat="42.805521609261632" lon="-3.757921932265163">
        <ele>849.94000000000005</ele>
        <time>2014-05-25T15:53:47Z</time>
      </trkpt>
      <trkpt lat="42.804908724501729" lon="-3.758335746824741">
        <ele>852.35000000000002</ele>
        <time>2014-05-25T15:53:48Z</time>
      </trkpt>
      <trkpt lat="42.804245045408607" lon="-3.758696671575308">
        <ele>848.01999999999998</ele>
        <time>2014-05-25T15:53:49Z</time>
      </trkpt>
      <trkpt lat="42.804197603836656" lon="-3.75872265547514">
        <ele>851.38</ele>
        <time>2014-05-25T15:53:52Z</time>
      </trkpt>
      <trkpt lat="42.80367398634553" lon="-3.758958270773292">
        <ele>848.5</ele>
        <time>2014-05-25T15:53:54Z</time>
      </trkpt>
      <trkpt lat="42.802843172103167" lon="-3.759061032906175">
        <ele>844.65999999999997</ele>
        <time>2014-05-25T15:53:55Z</time>
      </trkpt>
      <trkpt lat="42.801541294902563" lon="-3.759174942970276">
        <ele>845.13999999999999</ele>
        <time>2014-05-25T15:53:56Z</time>
      </trkpt>
      <trkpt lat="42.800723053514957" lon="-3.759245099499822">
        <ele>847.05999999999995</ele>
        <time>2014-05-25T15:54:08Z</time>
      </trkpt>
      <trkpt lat="42.800102792680264" lon="-3.759312154725194">
        <ele>848.5</ele>
        <time>2014-05-25T15:54:09Z</time>
      </trkpt>
      <trkpt lat="42.800054848194122" lon="-3.759322129189968">
        <ele>848.98000000000002</ele>
        <time>2014-05-25T15:54:10Z</time>
      </trkpt>
      <trkpt lat="42.799151027575135" lon="-3.759452048689127">
        <ele>848.5</ele>
        <time>2014-05-25T15:54:11Z</time>
      </trkpt>
      <trkpt lat="42.798951203003526" lon="-3.759477194398642">
        <ele>848.5</ele>
        <time>2014-05-25T15:54:12Z</time>
      </trkpt>
      <trkpt lat="42.798570077866316" lon="-3.759543327614665">
        <ele>848.01999999999998</ele>
        <time>2014-05-25T15:54:13Z</time>
      </trkpt>
      <trkpt lat="42.797658545896411" lon="-3.759991759434342">
        <ele>846.58000000000004</ele>
        <time>2014-05-25T15:54:14Z</time>
      </trkpt>
      <trkpt lat="42.796667972579598" lon="-3.760273391380906">
        <ele>847.53999999999996</ele>
        <time>2014-05-25T15:54:15Z</time>
      </trkpt>
      <trkpt lat="42.796046203002334" lon="-3.760412195697427">
        <ele>850.89999999999998</ele>
        <time>2014-05-25T15:54:16Z</time>
      </trkpt>
      <trkpt lat="42.795277582481503" lon="-3.760362323373556">
        <ele>850.89999999999998</ele>
        <time>2014-05-25T15:54:17Z</time>
      </trkpt>
      <trkpt lat="42.794674336910248" lon="-3.760133916512132">
        <ele>847.53999999999996</ele>
        <time>2014-05-25T15:54:23Z</time>
      </trkpt>
      <trkpt lat="42.794483983889222" lon="-3.760003745555878">
        <ele>847.05999999999995</ele>
        <time>2014-05-25T15:54:24Z</time>
      </trkpt>
      <trkpt lat="42.794424304738641" lon="-3.75993836671114">
        <ele>846.58000000000004</ele>
        <time>2014-05-25T15:54:25Z</time>
      </trkpt>
      <trkpt lat="42.794368648901582" lon="-3.759861504659057">
        <ele>845.62</ele>
        <time>2014-05-25T15:54:26Z</time>
      </trkpt>
      <trkpt lat="42.79431626200676" lon="-3.759777769446373">
        <ele>845.13999999999999</ele>
        <time>2014-05-25T15:54:27Z</time>
      </trkpt>
      <trkpt lat="42.794049968943" lon="-3.759315591305494">
        <ele>842.73000000000002</ele>
        <time>2014-05-25T15:54:34Z</time>
      </trkpt>
      <trkpt lat="42.793881241232157" lon="-3.759019877761602">
        <ele>841.28999999999996</ele>
        <time>2014-05-25T15:54:37Z</time>
      </trkpt>
      <trkpt lat="42.793719805777073" lon="-3.758732294663787">
        <ele>839.85000000000002</ele>
        <time>2014-05-25T15:54:38Z</time>
      </trkpt>
      <trkpt lat="42.793670939281583" lon="-3.758635483682156">
        <ele>839.37</ele>
        <time>2014-05-25T15:54:39Z</time>
      </trkpt>
      <trkpt lat="42.793635735288262" lon="-3.758530039340258">
        <ele>838.40999999999997</ele>
        <time>2014-05-25T15:54:40Z</time>
      </trkpt>
      <trkpt lat="42.793616373091936" lon="-3.758414536714554">
        <ele>837.45000000000005</ele>
        <time>2014-05-25T15:54:41Z</time>
      </trkpt>
      <trkpt lat="42.793607488274574" lon="-3.758289813995361">
        <ele>836.96000000000004</ele>
        <time>2014-05-25T15:54:42Z</time>
      </trkpt>
      <trkpt lat="42.793607404455543" lon="-3.758162325248122">
        <ele>836</ele>
        <time>2014-05-25T15:54:43Z</time>
      </trkpt>
      <trkpt lat="42.793608913198113" lon="-3.757746499031782">
        <ele>832.63999999999999</ele>
        <time>2014-05-25T15:54:44Z</time>
      </trkpt>
      <trkpt lat="42.793579325079918" lon="-3.75746201723814">
        <ele>829.26999999999998</ele>
        <time>2014-05-25T15:54:45Z</time>
      </trkpt>
      <trkpt lat="42.793542863801122" lon="-3.757338719442487">
        <ele>829.75999999999999</ele>
        <time>2014-05-25T15:54:51Z</time>
      </trkpt>
      <trkpt lat="42.793489387258887" lon="-3.757228748872876">
        <ele>829.75999999999999</ele>
        <time>2014-05-25T15:54:58Z</time>
      </trkpt>
      <trkpt lat="42.79272043146193" lon="-3.756221914663911">
        <ele>828.30999999999995</ele>
        <time>2014-05-25T15:55:06Z</time>
      </trkpt>
      <trkpt lat="42.792667290195823" lon="-3.756142035126686">
        <ele>828.30999999999995</ele>
        <time>2014-05-25T15:55:07Z</time>
      </trkpt>
      <trkpt lat="42.792618339881301" lon="-3.756056036800146">
        <ele>829.26999999999998</ele>
        <time>2014-05-25T15:55:19Z</time>
      </trkpt>
      <trkpt lat="42.792574586346745" lon="-3.755965176969767">
        <ele>828.30999999999995</ele>
        <time>2014-05-25T15:55:26Z</time>
      </trkpt>
      <trkpt lat="42.792538125067949" lon="-3.755867695435882">
        <ele>829.26999999999998</ele>
        <time>2014-05-25T15:55:35Z</time>
      </trkpt>
      <trkpt lat="42.792513314634562" lon="-3.755766693502665">
        <ele>828.30999999999995</ele>
        <time>2014-05-25T15:55:37Z</time>
      </trkpt>
      <trkpt lat="42.792494539171457" lon="-3.755659740418196">
        <ele>828.30999999999995</ele>
        <time>2014-05-25T15:55:40Z</time>
      </trkpt>
      <trkpt lat="42.792482385411859" lon="-3.755549769848585">
        <ele>827.35000000000002</ele>
        <time>2014-05-25T15:55:41Z</time>
      </trkpt>
      <trkpt lat="42.792478278279305" lon="-3.755442230030894">
        <ele>827.83000000000004</ele>
        <time>2014-05-25T15:55:42Z</time>
      </trkpt>
      <trkpt lat="42.792478194460273" lon="-3.755335276946425">
        <ele>827.35000000000002</ele>
        <time>2014-05-25T15:55:43Z</time>
      </trkpt>
      <trkpt lat="42.792464112862945" lon="-3.75471199862659">
        <ele>825.90999999999997</ele>
        <time>2014-05-25T15:55:44Z</time>
      </trkpt>
      <trkpt lat="42.792438212782145" lon="-3.754617283120751">
        <ele>824.95000000000005</ele>
        <time>2014-05-25T15:55:45Z</time>
      </trkpt>
      <trkpt lat="42.79240183532238" lon="-3.754527596756816">
        <ele>825.42999999999995</ele>
        <time>2014-05-25T15:55:46Z</time>
      </trkpt>
      <trkpt lat="42.79235883615911" lon="-3.754445873200893">
        <ele>824.95000000000005</ele>
        <time>2014-05-25T15:55:47Z</time>
      </trkpt>
      <trkpt lat="42.792311646044254" lon="-3.754367837682366">
        <ele>825.42999999999995</ele>
        <time>2014-05-25T15:55:51Z</time>
      </trkpt>
      <trkpt lat="42.792009646072984" lon="-3.753754450008273">
        <ele>823.02999999999997</ele>
        <time>2014-05-25T15:55:52Z</time>
      </trkpt>
      <trkpt lat="42.791881570592523" lon="-3.753486312925816">
        <ele>822.54999999999995</ele>
        <time>2014-05-25T15:55:53Z</time>
      </trkpt>
      <trkpt lat="42.791850222274661" lon="-3.753387490287423">
        <ele>823.02999999999997</ele>
        <time>2014-05-25T15:55:54Z</time>
      </trkpt>
      <trkpt lat="42.791830524802208" lon="-3.753283638507128">
        <ele>822.54999999999995</ele>
        <time>2014-05-25T15:55:55Z</time>
      </trkpt>
      <trkpt lat="42.791821137070656" lon="-3.753176853060722">
        <ele>822.05999999999995</ele>
        <time>2014-05-25T15:55:56Z</time>
      </trkpt>
      <trkpt lat="42.79181987978518" lon="-3.753067385405302">
        <ele>821.58000000000004</ele>
        <time>2014-05-25T15:55:57Z</time>
      </trkpt>
      <trkpt lat="42.79181987978518" lon="-3.752954732626677">
        <ele>821.58000000000004</ele>
        <time>2014-05-25T15:56:00Z</time>
      </trkpt>
      <trkpt lat="42.791816778481007" lon="-3.752840487286449">
        <ele>820.62</ele>
        <time>2014-05-25T15:56:01Z</time>
      </trkpt>
      <trkpt lat="42.791804876178503" lon="-3.752724984660745">
        <ele>820.13999999999999</ele>
        <time>2014-05-25T15:56:04Z</time>
      </trkpt>
      <trkpt lat="42.791785430163145" lon="-3.752611242234707">
        <ele>820.13999999999999</ele>
        <time>2014-05-25T15:56:05Z</time>
      </trkpt>
      <trkpt lat="42.791704209521413" lon="-3.751877825707197">
        <ele>816.77999999999997</ele>
        <time>2014-05-25T15:56:06Z</time>
      </trkpt>
      <trkpt lat="42.791618546471" lon="-3.751006610691547">
        <ele>813.40999999999997</ele>
        <time>2014-05-25T15:56:08Z</time>
      </trkpt>
      <trkpt lat="42.791494242846966" lon="-3.750044452026486">
        <ele>810.04999999999995</ele>
        <time>2014-05-25T15:56:14Z</time>
      </trkpt>
      <trkpt lat="42.791477898135781" lon="-3.749928614124656">
        <ele>809.57000000000005</ele>
        <time>2014-05-25T15:56:15Z</time>
      </trkpt>
      <trkpt lat="42.791104316711426" lon="-3.748609721660614">
        <ele>806.67999999999995</ele>
        <time>2014-05-25T15:56:16Z</time>
      </trkpt>
      <trkpt lat="42.790889488533139" lon="-3.747844370082021">
        <ele>802.84000000000003</ele>
        <time>2014-05-25T15:56:18Z</time>
      </trkpt>
      <trkpt lat="42.79078396037221" lon="-3.746812641620636">
        <ele>799.47000000000003</ele>
        <time>2014-05-25T15:56:19Z</time>
      </trkpt>
      <trkpt lat="42.790810950100422" lon="-3.746566129848361">
        <ele>798.50999999999999</ele>
        <time>2014-05-25T15:56:20Z</time>
      </trkpt>
      <trkpt lat="42.790888398885727" lon="-3.746191207319498">
        <ele>795.14999999999998</ele>
        <time>2014-05-25T15:56:21Z</time>
      </trkpt>
      <trkpt lat="42.790911365300417" lon="-3.746060617268086">
        <ele>795.14999999999998</ele>
        <time>2014-05-25T15:56:22Z</time>
      </trkpt>
      <trkpt lat="42.790922010317445" lon="-3.745925081893802">
        <ele>794.66999999999996</ele>
        <time>2014-05-25T15:56:23Z</time>
      </trkpt>
      <trkpt lat="42.790918573737144" lon="-3.745785942301154">
        <ele>793.22000000000003</ele>
        <time>2014-05-25T15:56:30Z</time>
      </trkpt>
      <trkpt lat="42.790900971740484" lon="-3.745645210146904">
        <ele>793.22000000000003</ele>
        <time>2014-05-25T15:56:31Z</time>
      </trkpt>
      <trkpt lat="42.790875490754843" lon="-3.745504561811686">
        <ele>792.25999999999999</ele>
        <time>2014-05-25T15:56:32Z</time>
      </trkpt>
      <trkpt lat="42.79084162786603" lon="-3.745363326743245">
        <ele>790.82000000000005</ele>
        <time>2014-05-25T15:56:33Z</time>
      </trkpt>
      <trkpt lat="42.790798461064696" lon="-3.745226450264454">
        <ele>790.34000000000003</ele>
        <time>2014-05-25T15:56:34Z</time>
      </trkpt>
      <trkpt lat="42.790660327300429" lon="-3.74469512142241">
        <ele>787.46000000000004</ele>
        <time>2014-05-25T15:56:35Z</time>
      </trkpt>
      <trkpt lat="42.790649849921465" lon="-3.744558831676841">
        <ele>786.01999999999998</ele>
        <time>2014-05-25T15:56:36Z</time>
      </trkpt>
      <trkpt lat="42.790653789415956" lon="-3.744424385949969">
        <ele>785.52999999999997</ele>
        <time>2014-05-25T15:56:37Z</time>
      </trkpt>
      <trkpt lat="42.790668457746506" lon="-3.744290359318256">
        <ele>785.04999999999995</ele>
        <time>2014-05-25T15:56:38Z</time>
      </trkpt>
      <trkpt lat="42.79069066978991" lon="-3.744158931076527">
        <ele>785.04999999999995</ele>
        <time>2014-05-25T15:56:39Z</time>
      </trkpt>
      <trkpt lat="42.790721515193582" lon="-3.744029011577368">
        <ele>784.09000000000003</ele>
        <time>2014-05-25T15:56:40Z</time>
      </trkpt>
      <trkpt lat="42.79075613245368" lon="-3.743899846449494">
        <ele>784.09000000000003</ele>
        <time>2014-05-25T15:56:41Z</time>
      </trkpt>
      <trkpt lat="42.790871299803257" lon="-3.743504220619798">
        <ele>780.25</ele>
        <time>2014-05-25T15:56:42Z</time>
      </trkpt>
      <trkpt lat="42.790918154641986" lon="-3.743371786549687">
        <ele>779.76999999999998</ele>
        <time>2014-05-25T15:56:43Z</time>
      </trkpt>
      <trkpt lat="42.791085541248322" lon="-3.742957971990109">
        <ele>775.44000000000005</ele>
        <time>2014-05-25T15:56:47Z</time>
      </trkpt>
      <trkpt lat="42.791134575381875" lon="-3.742805924266577">
        <ele>773.51999999999998</ele>
        <time>2014-05-25T15:56:48Z</time>
      </trkpt>
      <trkpt lat="42.79117388650775" lon="-3.742647422477603">
        <ele>772.55999999999995</ele>
        <time>2014-05-25T15:56:49Z</time>
      </trkpt>
      <trkpt lat="42.791232643648982" lon="-3.742337878793478">
        <ele>770.14999999999998</ele>
        <time>2014-05-25T15:56:50Z</time>
      </trkpt>
      <trkpt lat="42.791480077430606" lon="-3.741583842784166">
        <ele>766.30999999999995</ele>
        <time>2014-05-25T15:56:51Z</time>
      </trkpt>
      <trkpt lat="42.79154235497117" lon="-3.741493569687009">
        <ele>765.35000000000002</ele>
        <time>2014-05-25T15:56:52Z</time>
      </trkpt>
      <trkpt lat="42.791613936424255" lon="-3.741416539996862">
        <ele>765.35000000000002</ele>
        <time>2014-05-25T15:57:03Z</time>
      </trkpt>
      <trkpt lat="42.791740000247955" lon="-3.741273963823915">
        <ele>764.87</ele>
        <time>2014-05-25T15:57:08Z</time>
      </trkpt>
      <trkpt lat="42.791777970269322" lon="-3.741192240267992">
        <ele>765.35000000000002</ele>
        <time>2014-05-25T15:57:09Z</time>
      </trkpt>
      <trkpt lat="42.791794231161475" lon="-3.741098949685693">
        <ele>765.35000000000002</ele>
        <time>2014-05-25T15:57:12Z</time>
      </trkpt>
      <trkpt lat="42.791786184534431" lon="-3.741002390161157">
        <ele>764.87</ele>
        <time>2014-05-25T15:57:16Z</time>
      </trkpt>
      <trkpt lat="42.791760787367821" lon="-3.740909686312079">
        <ele>764.87</ele>
        <time>2014-05-25T15:57:18Z</time>
      </trkpt>
      <trkpt lat="42.791728097945452" lon="-3.740818742662668">
        <ele>765.35000000000002</ele>
        <time>2014-05-25T15:57:19Z</time>
      </trkpt>
      <trkpt lat="42.791503295302391" lon="-3.740181969478726">
        <ele>763.41999999999996</ele>
        <time>2014-05-25T15:57:20Z</time>
      </trkpt>
      <trkpt lat="42.791483430191875" lon="-3.740090103819966">
        <ele>762.94000000000005</ele>
        <time>2014-05-25T15:57:21Z</time>
      </trkpt>
      <trkpt lat="42.791470270603895" lon="-3.739997986704111">
        <ele>763.41999999999996</ele>
        <time>2014-05-25T15:57:22Z</time>
      </trkpt>
      <trkpt lat="42.791463313624263" lon="-3.739903355017304">
        <ele>762.46000000000004</ele>
        <time>2014-05-25T15:57:23Z</time>
      </trkpt>
      <trkpt lat="42.791464738547802" lon="-3.739806711673737">
        <ele>762.46000000000004</ele>
        <time>2014-05-25T15:57:24Z</time>
      </trkpt>
      <trkpt lat="42.791472785174847" lon="-3.739712247624993">
        <ele>762.46000000000004</ele>
        <time>2014-05-25T15:57:26Z</time>
      </trkpt>
      <trkpt lat="42.791486782953143" lon="-3.739618370309472">
        <ele>762.46000000000004</ele>
        <time>2014-05-25T15:57:27Z</time>
      </trkpt>
      <trkpt lat="42.791509414091706" lon="-3.739523235708475">
        <ele>761.98000000000002</ele>
        <time>2014-05-25T15:57:28Z</time>
      </trkpt>
      <trkpt lat="42.791538499295712" lon="-3.739426424726844">
        <ele>761.5</ele>
        <time>2014-05-25T15:57:29Z</time>
      </trkpt>
      <trkpt lat="42.791572194546461" lon="-3.739329529926181">
        <ele>760.53999999999996</ele>
        <time>2014-05-25T15:57:30Z</time>
      </trkpt>
      <trkpt lat="42.791614858433604" lon="-3.739234395325184">
        <ele>760.05999999999995</ele>
        <time>2014-05-25T15:57:32Z</time>
      </trkpt>
      <trkpt lat="42.79166447930038" lon="-3.739144708961248">
        <ele>758.62</ele>
        <time>2014-05-25T15:57:33Z</time>
      </trkpt>
      <trkpt lat="42.791723236441612" lon="-3.739061141386628">
        <ele>759.10000000000002</ele>
        <time>2014-05-25T15:57:34Z</time>
      </trkpt>
      <trkpt lat="42.791786855086684" lon="-3.738981680944562">
        <ele>758.62</ele>
        <time>2014-05-25T15:57:35Z</time>
      </trkpt>
      <trkpt lat="42.792043341323733" lon="-3.738641710951924">
        <ele>758.13999999999999</ele>
        <time>2014-05-25T15:57:36Z</time>
      </trkpt>
      <trkpt lat="42.792098745703697" lon="-3.738540541380644">
        <ele>757.65999999999997</ele>
        <time>2014-05-25T15:57:37Z</time>
      </trkpt>
      <trkpt lat="42.792144678533077" lon="-3.738429145887494">
        <ele>756.69000000000005</ele>
        <time>2014-05-25T15:57:38Z</time>
      </trkpt>
      <trkpt lat="42.792180385440588" lon="-3.738310374319553">
        <ele>756.69000000000005</ele>
        <time>2014-05-25T15:57:39Z</time>
      </trkpt>
      <trkpt lat="42.792207961902022" lon="-3.73818657360971">
        <ele>755.25</ele>
        <time>2014-05-25T15:57:40Z</time>
      </trkpt>
      <trkpt lat="42.792231682687998" lon="-3.73805858194828">
        <ele>755.73000000000002</ele>
        <time>2014-05-25T15:57:41Z</time>
      </trkpt>
      <trkpt lat="42.792406948283315" lon="-3.736809091642499">
        <ele>753.33000000000004</ele>
        <time>2014-05-25T15:57:53Z</time>
      </trkpt>
      <trkpt lat="42.792531503364444" lon="-3.736233422532678">
        <ele>749.97000000000003</ele>
        <time>2014-05-25T15:58:04Z</time>
      </trkpt>
      <trkpt lat="42.792555978521705" lon="-3.736113896593452">
        <ele>749.49000000000001</ele>
        <time>2014-05-25T15:58:26Z</time>
      </trkpt>
      <trkpt lat="42.792624542489648" lon="-3.735736794769764">
        <ele>748.03999999999996</ele>
        <time>2014-05-25T15:58:51Z</time>
      </trkpt>
      <trkpt lat="42.792688915506005" lon="-3.735215691849589">
        <ele>746.12</ele>
        <time>2014-05-25T15:59:02Z</time>
      </trkpt>
      <trkpt lat="42.792735770344734" lon="-3.73497529886663">
        <ele>745.63999999999999</ele>
        <time>2014-05-25T15:59:03Z</time>
      </trkpt>
      <trkpt lat="42.792771477252245" lon="-3.734867675229907">
        <ele>746.12</ele>
        <time>2014-05-25T15:59:13Z</time>
      </trkpt>
      <trkpt lat="42.792816907167435" lon="-3.734770445153117">
        <ele>746.12</ele>
        <time>2014-05-25T15:59:14Z</time>
      </trkpt>
      <trkpt lat="42.792870802804828" lon="-3.734685871750116">
        <ele>746.60000000000002</ele>
        <time>2014-05-25T15:59:31Z</time>
      </trkpt>
      <trkpt lat="42.792930901050568" lon="-3.734610518440604">
        <ele>746.12</ele>
        <time>2014-05-25T15:59:51Z</time>
      </trkpt>
      <trkpt lat="42.792994687333703" lon="-3.734542625024915">
        <ele>746.12</ele>
        <time>2014-05-25T16:00:07Z</time>
      </trkpt>
      <trkpt lat="42.793063167482615" lon="-3.734473809599876">
        <ele>746.12</ele>
        <time>2014-05-25T16:00:29Z</time>
      </trkpt>
      <trkpt lat="42.79319828376174" lon="-3.734317906200886">
        <ele>744.67999999999995</ele>
        <time>2014-05-25T16:00:57Z</time>
      </trkpt>
      <trkpt lat="42.793248826637864" lon="-3.734217407181859">
        <ele>743.72000000000003</ele>
        <time>2014-05-25T16:01:30Z</time>
      </trkpt>
      <trkpt lat="42.79327942058444" lon="-3.734104167670012">
        <ele>743.24000000000001</ele>
        <time>2014-05-25T16:02:11Z</time>
      </trkpt>
      <trkpt lat="42.793293921276927" lon="-3.733984054997563">
        <ele>743.24000000000001</ele>
        <time>2014-05-25T16:02:40Z</time>
      </trkpt>
      <trkpt lat="42.793302973732352" lon="-3.733865702524781">
        <ele>742.27999999999997</ele>
        <time>2014-05-25T16:02:55Z</time>
      </trkpt>
      <trkpt lat="42.793317809700966" lon="-3.733635116368532">
        <ele>742.75999999999999</ele>
        <time>2014-05-25T16:16:51Z</time>
      </trkpt>
      <trkpt lat="42.793311523273587" lon="-3.733526570722461">
        <ele>743.72000000000003</ele>
        <time>2014-05-25T16:17:00Z</time>
      </trkpt>
      <trkpt lat="42.793294172734022" lon="-3.733422886580229">
        <ele>743.24000000000001</ele>
        <time>2014-05-25T16:17:17Z</time>
      </trkpt>
      <trkpt lat="42.793266428634524" lon="-3.733329009264708">
        <ele>743.24000000000001</ele>
        <time>2014-05-25T16:17:20Z</time>
      </trkpt>
      <trkpt lat="42.793230134993792" lon="-3.733241418376565">
        <ele>743.72000000000003</ele>
        <time>2014-05-25T16:17:22Z</time>
      </trkpt>
      <trkpt lat="42.793188979849219" lon="-3.733161203563213">
        <ele>743.72000000000003</ele>
        <time>2014-05-25T16:17:28Z</time>
      </trkpt>
      <trkpt lat="42.793151848018169" lon="-3.733086856082082">
        <ele>743.72000000000003</ele>
        <time>2014-05-25T16:17:29Z</time>
      </trkpt>
      <trkpt lat="42.793122678995132" lon="-3.733018459752202">
        <ele>744.20000000000005</ele>
        <time>2014-05-25T16:17:39Z</time>
      </trkpt>
      <trkpt lat="42.793099964037538" lon="-3.732959367334843">
        <ele>744.20000000000005</ele>
        <time>2014-05-25T16:17:40Z</time>
      </trkpt>
      <trkpt lat="42.79308445751667" lon="-3.732906980440021">
        <ele>744.20000000000005</ele>
        <time>2014-05-25T16:17:41Z</time>
      </trkpt>
      <trkpt lat="42.793006924912333" lon="-3.732417644932866">
        <ele>743.24000000000001</ele>
        <time>2014-05-25T16:17:42Z</time>
      </trkpt>
      <trkpt lat="42.792990831658244" lon="-3.73227808624506">
        <ele>742.75999999999999</ele>
        <time>2014-05-25T16:17:43Z</time>
      </trkpt>
      <trkpt lat="42.792969793081284" lon="-3.732251180335879">
        <ele>742.75999999999999</ele>
        <time>2014-05-25T16:17:44Z</time>
      </trkpt>
      <trkpt lat="42.792996279895306" lon="-3.732264172285795">
        <ele>742.75999999999999</ele>
        <time>2014-05-25T16:17:45Z</time>
      </trkpt>
      <trkpt lat="42.792991418391466" lon="-3.732260148972273">
        <ele>739.38999999999999</ele>
        <time>2014-05-25T16:17:46Z</time>
      </trkpt>
      <trkpt lat="42.792991083115339" lon="-3.732258724048734">
        <ele>742.75999999999999</ele>
        <time>2014-05-25T16:17:47Z</time>
      </trkpt>
      <trkpt lat="42.792995860800147" lon="-3.732259226962924">
        <ele>742.27999999999997</ele>
        <time>2014-05-25T16:17:48Z</time>
      </trkpt>
      <trkpt lat="42.792999129742384" lon="-3.732271380722523">
        <ele>742.27999999999997</ele>
        <time>2014-05-25T16:17:49Z</time>
      </trkpt>
      <trkpt lat="42.793011870235205" lon="-3.732551336288452">
        <ele>742.27999999999997</ele>
        <time>2014-05-25T16:17:50Z</time>
      </trkpt>
      <trkpt lat="42.793057300150394" lon="-3.732826514169574">
        <ele>744.20000000000005</ele>
        <time>2014-05-25T16:17:52Z</time>
      </trkpt>
      <trkpt lat="42.793082110583782" lon="-3.732963223010302">
        <ele>744.67999999999995</ele>
        <time>2014-05-25T16:17:55Z</time>
      </trkpt>
      <trkpt lat="42.793073896318674" lon="-3.73291133902967">
        <ele>744.67999999999995</ele>
        <time>2014-05-25T16:17:56Z</time>
      </trkpt>
      <trkpt lat="42.793060149997473" lon="-3.73290304094553">
        <ele>743.24000000000001</ele>
        <time>2014-05-25T16:17:57Z</time>
      </trkpt>
      <trkpt lat="42.793062329292297" lon="-3.732889210805297">
        <ele>743.72000000000003</ele>
        <time>2014-05-25T16:18:02Z</time>
      </trkpt>
      <trkpt lat="42.793051432818174" lon="-3.732895161956549">
        <ele>743.24000000000001</ele>
        <time>2014-05-25T16:18:03Z</time>
      </trkpt>
      <trkpt lat="42.793085211887956" lon="-3.732934137806296">
        <ele>742.75999999999999</ele>
        <time>2014-05-25T16:18:04Z</time>
      </trkpt>
      <trkpt lat="42.793050762265921" lon="-3.732892982661724">
        <ele>742.75999999999999</ele>
        <time>2014-05-25T16:18:05Z</time>
      </trkpt>
      <trkpt lat="42.793064257130027" lon="-3.732923911884427">
        <ele>739.87</ele>
        <time>2014-05-25T16:18:06Z</time>
      </trkpt>
      <trkpt lat="42.79302435927093" lon="-3.732782425358892">
        <ele>740.83000000000004</ele>
        <time>2014-05-25T16:18:14Z</time>
      </trkpt>
      <trkpt lat="42.793043553829193" lon="-3.732839422300458">
        <ele>743.24000000000001</ele>
        <time>2014-05-25T16:18:20Z</time>
      </trkpt>
      <trkpt lat="42.793039781972766" lon="-3.732830286026001">
        <ele>744.20000000000005</ele>
        <time>2014-05-25T16:18:21Z</time>
      </trkpt>
      <trkpt lat="42.793034333735704" lon="-3.73278871178627">
        <ele>743.72000000000003</ele>
        <time>2014-05-25T16:18:25Z</time>
      </trkpt>
      <trkpt lat="42.79300139285624" lon="-3.732557371258736">
        <ele>743.72000000000003</ele>
        <time>2014-05-25T16:18:26Z</time>
      </trkpt>
      <trkpt lat="42.792995776981115" lon="-3.732497356832027">
        <ele>742.75999999999999</ele>
        <time>2014-05-25T16:18:27Z</time>
      </trkpt>
      <trkpt lat="42.792962584644556" lon="-3.731820266693831">
        <ele>742.27999999999997</ele>
        <time>2014-05-25T16:18:28Z</time>
      </trkpt>
      <trkpt lat="42.792944898828864" lon="-3.731742985546589">
        <ele>742.27999999999997</ele>
        <time>2014-05-25T16:18:29Z</time>
      </trkpt>
      <trkpt lat="42.792919669300318" lon="-3.731666877865791">
        <ele>742.27999999999997</ele>
        <time>2014-05-25T16:18:30Z</time>
      </trkpt>
      <trkpt lat="42.792888237163424" lon="-3.731593368574977">
        <ele>741.30999999999995</ele>
        <time>2014-05-25T16:18:31Z</time>
      </trkpt>
      <trkpt lat="42.792849931865931" lon="-3.731526145711541">
        <ele>741.30999999999995</ele>
        <time>2014-05-25T16:18:32Z</time>
      </trkpt>
      <trkpt lat="42.792806848883629" lon="-3.731459761038423">
        <ele>741.30999999999995</ele>
        <time>2014-05-25T16:18:33Z</time>
      </trkpt>
      <trkpt lat="42.792764855548739" lon="-3.731388682499528">
        <ele>741.78999999999996</ele>
        <time>2014-05-25T16:18:34Z</time>
      </trkpt>
      <trkpt lat="42.792728981003165" lon="-3.731307210400701">
        <ele>740.83000000000004</ele>
        <time>2014-05-25T16:18:36Z</time>
      </trkpt>
      <trkpt lat="42.792701991274953" lon="-3.731216099113226">
        <ele>740.35000000000002</ele>
        <time>2014-05-25T16:18:37Z</time>
      </trkpt>
      <trkpt lat="42.792686484754086" lon="-3.731116186827421">
        <ele>740.35000000000002</ele>
        <time>2014-05-25T16:18:38Z</time>
      </trkpt>
      <trkpt lat="42.792678941041231" lon="-3.731008814647794">
        <ele>739.87</ele>
        <time>2014-05-25T16:18:39Z</time>
      </trkpt>
      <trkpt lat="42.792673157528043" lon="-3.730893898755312">
        <ele>739.38999999999999</ele>
        <time>2014-05-25T16:18:40Z</time>
      </trkpt>
      <trkpt lat="42.792651951313019" lon="-3.730647889897227">
        <ele>736.99000000000001</ele>
        <time>2014-05-25T16:18:41Z</time>
      </trkpt>
      <trkpt lat="42.792596379294991" lon="-3.730249749496579">
        <ele>733.13999999999999</ele>
        <time>2014-05-25T16:18:42Z</time>
      </trkpt>
      <trkpt lat="42.792588919401169" lon="-3.730113124474883">
        <ele>731.70000000000005</ele>
        <time>2014-05-25T16:18:43Z</time>
      </trkpt>
      <trkpt lat="42.792590092867613" lon="-3.729977589100599">
        <ele>732.17999999999995</ele>
        <time>2014-05-25T16:18:44Z</time>
      </trkpt>
      <trkpt lat="42.792637534439564" lon="-3.729348527267575">
        <ele>732.17999999999995</ele>
        <time>2014-05-25T16:18:45Z</time>
      </trkpt>
      <trkpt lat="42.792667709290981" lon="-3.729242496192455">
        <ele>732.65999999999997</ele>
        <time>2014-05-25T16:18:46Z</time>
      </trkpt>
      <trkpt lat="42.792702913284302" lon="-3.729144260287285">
        <ele>733.62</ele>
        <time>2014-05-25T16:18:47Z</time>
      </trkpt>
      <trkpt lat="42.792742978781462" lon="-3.729052981361747">
        <ele>734.10000000000002</ele>
        <time>2014-05-25T16:18:48Z</time>
      </trkpt>
      <trkpt lat="42.792785810306668" lon="-3.728964384645224">
        <ele>734.10000000000002</ele>
        <time>2014-05-25T16:18:52Z</time>
      </trkpt>
      <trkpt lat="42.793126283213496" lon="-3.728227615356445">
        <ele>730.25999999999999</ele>
        <time>2014-05-25T16:18:53Z</time>
      </trkpt>
      <trkpt lat="42.793317474424839" lon="-3.727711960673332">
        <ele>730.25999999999999</ele>
        <time>2014-05-25T16:18:54Z</time>
      </trkpt>
      <trkpt lat="42.793360389769077" lon="-3.72764004394412">
        <ele>730.25999999999999</ele>
        <time>2014-05-25T16:18:55Z</time>
      </trkpt>
      <trkpt lat="42.793541522696614" lon="-3.727337205782533">
        <ele>728.34000000000003</ele>
        <time>2014-05-25T16:18:56Z</time>
      </trkpt>
      <trkpt lat="42.793578403070569" lon="-3.727239221334457">
        <ele>726.88999999999999</ele>
        <time>2014-05-25T16:18:57Z</time>
      </trkpt>
      <trkpt lat="42.793606566265225" lon="-3.727130675688386">
        <ele>725.45000000000005</ele>
        <time>2014-05-25T16:18:58Z</time>
      </trkpt>
      <trkpt lat="42.793624503538013" lon="-3.727015173062682">
        <ele>724.97000000000003</ele>
        <time>2014-05-25T16:18:59Z</time>
      </trkpt>
      <trkpt lat="42.793640177696943" lon="-3.726901430636644">
        <ele>724.49000000000001</ele>
        <time>2014-05-25T16:19:07Z</time>
      </trkpt>
      <trkpt lat="42.79366054572165" lon="-3.72679615393281">
        <ele>724.97000000000003</ele>
        <time>2014-05-25T16:19:08Z</time>
      </trkpt>
      <trkpt lat="42.793688541278243" lon="-3.726700181141496">
        <ele>724.00999999999999</ele>
        <time>2014-05-25T16:19:09Z</time>
      </trkpt>
      <trkpt lat="42.793725170195103" lon="-3.726612338796258">
        <ele>723.52999999999997</ele>
        <time>2014-05-25T16:19:10Z</time>
      </trkpt>
      <trkpt lat="42.793763894587755" lon="-3.726527346298099">
        <ele>722.57000000000005</ele>
        <time>2014-05-25T16:19:11Z</time>
      </trkpt>
      <trkpt lat="42.793808486312628" lon="-3.726438665762544">
        <ele>722.09000000000003</ele>
        <time>2014-05-25T16:19:12Z</time>
      </trkpt>
      <trkpt lat="42.793894652277231" lon="-3.726246049627662">
        <ele>719.67999999999995</ele>
        <time>2014-05-25T16:19:17Z</time>
      </trkpt>
      <trkpt lat="42.793926084414124" lon="-3.726137755438685">
        <ele>718.72000000000003</ele>
        <time>2014-05-25T16:19:18Z</time>
      </trkpt>
      <trkpt lat="42.793942512944341" lon="-3.726021414622665">
        <ele>718.24000000000001</ele>
        <time>2014-05-25T16:19:19Z</time>
      </trkpt>
      <trkpt lat="42.793946955353022" lon="-3.725900966674089">
        <ele>717.27999999999997</ele>
        <time>2014-05-25T16:19:20Z</time>
      </trkpt>
      <trkpt lat="42.793946536257863" lon="-3.725778758525848">
        <ele>715.84000000000003</ele>
        <time>2014-05-25T16:19:21Z</time>
      </trkpt>
      <trkpt lat="42.793951481580734" lon="-3.725656382739544">
        <ele>714.39999999999998</ele>
        <time>2014-05-25T16:19:22Z</time>
      </trkpt>
      <trkpt lat="42.793968664482236" lon="-3.725538365542889">
        <ele>713.44000000000005</ele>
        <time>2014-05-25T16:19:23Z</time>
      </trkpt>
      <trkpt lat="42.79400353319943" lon="-3.725430406630039">
        <ele>712.47000000000003</ele>
        <time>2014-05-25T16:19:24Z</time>
      </trkpt>
      <trkpt lat="42.794057680293918" lon="-3.725337535142899">
        <ele>711.99000000000001</ele>
        <time>2014-05-25T16:19:26Z</time>
      </trkpt>
      <trkpt lat="42.794127501547337" lon="-3.725261762738228">
        <ele>711.02999999999997</ele>
        <time>2014-05-25T16:19:27Z</time>
      </trkpt>
      <trkpt lat="42.794206794351339" lon="-3.725199233740568">
        <ele>709.59000000000003</ele>
        <time>2014-05-25T16:19:30Z</time>
      </trkpt>
      <trkpt lat="42.794290781021118" lon="-3.725146260112524">
        <ele>708.63</ele>
        <time>2014-05-25T16:19:31Z</time>
      </trkpt>
      <trkpt lat="42.794378539547324" lon="-3.725096806883812">
        <ele>707.66999999999996</ele>
        <time>2014-05-25T16:19:32Z</time>
      </trkpt>
      <trkpt lat="42.794716916978359" lon="-3.724866220727563">
        <ele>706.23000000000002</ele>
        <time>2014-05-25T16:19:33Z</time>
      </trkpt>
      <trkpt lat="42.79478145763278" lon="-3.724790867418051">
        <ele>706.23000000000002</ele>
        <time>2014-05-25T16:19:34Z</time>
      </trkpt>
      <trkpt lat="42.794834598898888" lon="-3.724706713110209">
        <ele>706.23000000000002</ele>
        <time>2014-05-25T16:19:44Z</time>
      </trkpt>
      <trkpt lat="42.794872149825096" lon="-3.72460906393826">
        <ele>705.75</ele>
        <time>2014-05-25T16:19:47Z</time>
      </trkpt>
      <trkpt lat="42.794893439859152" lon="-3.724500015377998">
        <ele>704.77999999999997</ele>
        <time>2014-05-25T16:19:59Z</time>
      </trkpt>
      <trkpt lat="42.79490115121007" lon="-3.72438577003777">
        <ele>704.29999999999995</ele>
        <time>2014-05-25T16:20:00Z</time>
      </trkpt>
      <trkpt lat="42.794898469001055" lon="-3.724269764497876">
        <ele>703.34000000000003</ele>
        <time>2014-05-25T16:20:06Z</time>
      </trkpt>
      <trkpt lat="42.794894697144628" lon="-3.724153591319919">
        <ele>702.86000000000001</ele>
        <time>2014-05-25T16:20:09Z</time>
      </trkpt>
      <trkpt lat="42.795023526996374" lon="-3.723242394626141">
        <ele>698.52999999999997</ele>
        <time>2014-05-25T16:20:10Z</time>
      </trkpt>
      <trkpt lat="42.795067531988025" lon="-3.72312898747623">
        <ele>698.04999999999995</ele>
        <time>2014-05-25T16:20:11Z</time>
      </trkpt>
      <trkpt lat="42.795123774558306" lon="-3.723020860925317">
        <ele>696.61000000000001</ele>
        <time>2014-05-25T16:20:12Z</time>
      </trkpt>
      <trkpt lat="42.795191835612059" lon="-3.722921870648861">
        <ele>695.16999999999996</ele>
        <time>2014-05-25T16:20:13Z</time>
      </trkpt>
      <trkpt lat="42.795266769826412" lon="-3.722828663885593">
        <ele>694.21000000000004</ele>
        <time>2014-05-25T16:20:14Z</time>
      </trkpt>
      <trkpt lat="42.795344218611717" lon="-3.722736043855548">
        <ele>691.80999999999995</ele>
        <time>2014-05-25T16:20:15Z</time>
      </trkpt>
      <trkpt lat="42.795723164454103" lon="-3.722250815480948">
        <ele>688.44000000000005</ele>
        <time>2014-05-25T16:20:18Z</time>
      </trkpt>
      <trkpt lat="42.795777311548591" lon="-3.722144113853574">
        <ele>687.96000000000004</ele>
        <time>2014-05-25T16:20:20Z</time>
      </trkpt>
      <trkpt lat="42.795815113931894" lon="-3.722030790522695">
        <ele>687</ele>
        <time>2014-05-25T16:20:21Z</time>
      </trkpt>
      <trkpt lat="42.795843947678804" lon="-3.721911683678627">
        <ele>687.48000000000002</ele>
        <time>2014-05-25T16:20:23Z</time>
      </trkpt>
      <trkpt lat="42.795872697606683" lon="-3.721790732815862">
        <ele>687</ele>
        <time>2014-05-25T16:20:27Z</time>
      </trkpt>
      <trkpt lat="42.795910332351923" lon="-3.721672128885984">
        <ele>687.48000000000002</ele>
        <time>2014-05-25T16:20:29Z</time>
      </trkpt>
      <trkpt lat="42.795958444476128" lon="-3.721561823040247">
        <ele>686.51999999999998</ele>
        <time>2014-05-25T16:20:32Z</time>
      </trkpt>
      <trkpt lat="42.796015776693821" lon="-3.721455456689">
        <ele>686.03999999999996</ele>
        <time>2014-05-25T16:20:35Z</time>
      </trkpt>
      <trkpt lat="42.796139577403665" lon="-3.721245406195521">
        <ele>682.19000000000005</ele>
        <time>2014-05-25T16:20:37Z</time>
      </trkpt>
      <trkpt lat="42.796202357858419" lon="-3.721136022359133">
        <ele>682.19000000000005</ele>
        <time>2014-05-25T16:20:42Z</time>
      </trkpt>
      <trkpt lat="42.796399584040046" lon="-3.720807451754808">
        <ele>677.87</ele>
        <time>2014-05-25T16:20:53Z</time>
      </trkpt>
      <trkpt lat="42.79647652991116" lon="-3.720714161172509">
        <ele>676.90999999999997</ele>
        <time>2014-05-25T16:20:54Z</time>
      </trkpt>
      <trkpt lat="42.79655666090548" lon="-3.720629587769508">
        <ele>676.41999999999996</ele>
        <time>2014-05-25T16:20:57Z</time>
      </trkpt>
      <trkpt lat="42.796638887375593" lon="-3.720555827021599">
        <ele>676.90999999999997</ele>
        <time>2014-05-25T16:21:10Z</time>
      </trkpt>
      <trkpt lat="42.796722454950213" lon="-3.72049237601459">
        <ele>677.38999999999999</ele>
        <time>2014-05-25T16:21:21Z</time>
      </trkpt>
      <trkpt lat="42.797501301392913" lon="-3.720178725197911">
        <ele>677.87</ele>
        <time>2014-05-25T16:21:41Z</time>
      </trkpt>
      <trkpt lat="42.797684529796243" lon="-3.720175959169865">
        <ele>678.83000000000004</ele>
        <time>2014-05-25T16:22:57Z</time>
      </trkpt>
      <trkpt lat="42.798326248303056" lon="-3.720350554212928">
        <ele>676.41999999999996</ele>
        <time>2014-05-25T16:25:31Z</time>
      </trkpt>
      <trkpt lat="42.798380479216576" lon="-3.720375280827284">
        <ele>675.46000000000004</ele>
      </trkpt>
      <trkpt lat="42.798709301277995" lon="-3.720602514222264">
        <ele>673.05999999999995</ele>
      </trkpt>
      <trkpt lat="42.798890853300691" lon="-3.720714496448636">
        <ele>669.70000000000005</ele>
      </trkpt>
      <trkpt lat="42.798954220488667" lon="-3.720740145072341">
        <ele>669.70000000000005</ele>
      </trkpt>
      <trkpt lat="42.799021527171135" lon="-3.72075523249805">
        <ele>668.25</ele>
      </trkpt>
      <trkpt lat="42.799093695357442" lon="-3.720754142850637">
        <ele>666.80999999999995</ele>
      </trkpt>
      <trkpt lat="42.799171144142747" lon="-3.720734613016248">
        <ele>665.37</ele>
      </trkpt>
      <trkpt lat="42.799250185489655" lon="-3.720701253041625">
        <ele>664.40999999999997</ele>
      </trkpt>
      <trkpt lat="42.799329562112689" lon="-3.720662528648973">
        <ele>662.49000000000001</ele>
      </trkpt>
      <trkpt lat="42.79957833699882" lon="-3.720561694353819">
        <ele>660.08000000000004</ele>
      </trkpt>
      <trkpt lat="42.799747316166759" lon="-3.720516515895724">
        <ele>656.72000000000003</ele>
      </trkpt>
      <trkpt lat="42.799832560122013" lon="-3.72049673460424">
        <ele>656.24000000000001</ele>
      </trkpt>
      <trkpt lat="42.799998270347714" lon="-3.720462871715426">
        <ele>654.79999999999995</ele>
      </trkpt>
      <trkpt lat="42.800303371623158" lon="-3.720413250848651">
        <ele>651.90999999999997</ele>
      </trkpt>
      <trkpt lat="42.800438655540347" lon="-3.720402186736465">
        <ele>651.42999999999995</ele>
      </trkpt>
      <trkpt lat="42.800622219219804" lon="-3.720395229756832">
        <ele>650.47000000000003</ele>
      </trkpt>
      <trkpt lat="42.800793712958694" lon="-3.720381651073694">
        <ele>649.50999999999999</ele>
      </trkpt>
      <trkpt lat="42.800898319110274" lon="-3.720384752377868">
        <ele>649.50999999999999</ele>
      </trkpt>
      <trkpt lat="42.801153548061848" lon="-3.720348794013262">
        <ele>647.59000000000003</ele>
      </trkpt>
      <trkpt lat="42.801487734541297" lon="-3.720331024378538">
        <ele>645.65999999999997</ele>
      </trkpt>
      <trkpt lat="42.801483040675521" lon="-3.720347620546818">
        <ele>645.65999999999997</ele>
      </trkpt>
      <trkpt lat="42.801485303789377" lon="-3.720393385738134">
        <ele>646.13999999999999</ele>
      </trkpt>
      <trkpt lat="42.801444064825773" lon="-3.720838883891702">
        <ele>644.22000000000003</ele>
      </trkpt>
      <trkpt lat="42.801390420645475" lon="-3.721032924950123">
        <ele>643.74000000000001</ele>
      </trkpt>
      <trkpt lat="42.801402909681201" lon="-3.721055053174496">
        <ele>643.74000000000001</ele>
      </trkpt>
      <trkpt lat="42.801392767578363" lon="-3.72110509313643">
        <ele>642.77999999999997</ele>
      </trkpt>
      <trkpt lat="42.801390755921602" lon="-3.721086485311389">
        <ele>642.77999999999997</ele>
      </trkpt>
    </trkseg>
  </trk>
</gpx>
